<?xml version="1.0" encoding="UTF-8" standalone="no" ?>
<gpx xmlns="http://www.topografix.com/GPX/1/1" xmlns:xsi="http://www.w3.org/2001/XMLSchema-instance" xsi:schemaLocation="http://www.topografix.com/GPX/1/1 http://www.topografix.com/GPX/1/1/gpx.xsd" version="1.1" creator="VisuGPX - https://www.visugpx.com">
  <metadata>
    <name>2016-04-03 14h30 Balade rattrapage avec Flohw</name>
    <desc><![CDATA[2016-04-03 14h30 Balade rattrapage avec Flohw]]></desc>
  </metadata>
  <trk>
    <name><![CDATA[2016-04-03 14:30 Balade rattrapage avec Flohw]]></name>
    <trkseg>
      <trkpt lat="43.61989" lon="3.83804">
        <ele>81.85</ele>
        <time>2016-04-03T12:30:58Z</time>
      </trkpt>
      <trkpt lat="43.61989" lon="3.83804">
        <ele>82.33</ele>
        <time>2016-04-03T12:31:01Z</time>
      </trkpt>
      <trkpt lat="43.61989" lon="3.83792">
        <ele>81.37</ele>
        <time>2016-04-03T12:31:04Z</time>
      </trkpt>
      <trkpt lat="43.61992" lon="3.83784">
        <ele>80.89</ele>
        <time>2016-04-03T12:31:05Z</time>
      </trkpt>
      <trkpt lat="43.61996" lon="3.83777">
        <ele>81.37</ele>
        <time>2016-04-03T12:31:06Z</time>
      </trkpt>
      <trkpt lat="43.62003" lon="3.83769">
        <ele>81.37</ele>
        <time>2016-04-03T12:31:07Z</time>
      </trkpt>
      <trkpt lat="43.62012" lon="3.83761">
        <ele>81.85</ele>
        <time>2016-04-03T12:31:08Z</time>
      </trkpt>
      <trkpt lat="43.62104" lon="3.83682">
        <ele>82.33</ele>
        <time>2016-04-03T12:31:16Z</time>
      </trkpt>
      <trkpt lat="43.62195" lon="3.83614">
        <ele>82.81</ele>
        <time>2016-04-03T12:31:24Z</time>
      </trkpt>
      <trkpt lat="43.62225" lon="3.8359">
        <ele>82.81</ele>
        <time>2016-04-03T12:31:29Z</time>
      </trkpt>
      <trkpt lat="43.6223" lon="3.83583">
        <ele>82.81</ele>
        <time>2016-04-03T12:31:30Z</time>
      </trkpt>
      <trkpt lat="43.62236" lon="3.83573">
        <ele>82.81</ele>
        <time>2016-04-03T12:31:31Z</time>
      </trkpt>
      <trkpt lat="43.62242" lon="3.83561">
        <ele>82.33</ele>
        <time>2016-04-03T12:31:32Z</time>
      </trkpt>
      <trkpt lat="43.62248" lon="3.83546">
        <ele>82.33</ele>
        <time>2016-04-03T12:31:33Z</time>
      </trkpt>
      <trkpt lat="43.62303" lon="3.83434">
        <ele>78.48</ele>
        <time>2016-04-03T12:31:41Z</time>
      </trkpt>
      <trkpt lat="43.62311" lon="3.83426">
        <ele>78.48</ele>
        <time>2016-04-03T12:31:42Z</time>
      </trkpt>
      <trkpt lat="43.62321" lon="3.8342">
        <ele>78</ele>
        <time>2016-04-03T12:31:43Z</time>
      </trkpt>
      <trkpt lat="43.62363" lon="3.83406">
        <ele>76.56</ele>
        <time>2016-04-03T12:31:47Z</time>
      </trkpt>
      <trkpt lat="43.62374" lon="3.83408">
        <ele>76.08</ele>
        <time>2016-04-03T12:31:48Z</time>
      </trkpt>
      <trkpt lat="43.62386" lon="3.83412">
        <ele>76.08</ele>
        <time>2016-04-03T12:31:49Z</time>
      </trkpt>
      <trkpt lat="43.62414" lon="3.83425">
        <ele>76.08</ele>
        <time>2016-04-03T12:31:51Z</time>
      </trkpt>
      <trkpt lat="43.62428" lon="3.83434">
        <ele>76.08</ele>
        <time>2016-04-03T12:31:52Z</time>
      </trkpt>
      <trkpt lat="43.62441" lon="3.83446">
        <ele>76.08</ele>
        <time>2016-04-03T12:31:53Z</time>
      </trkpt>
      <trkpt lat="43.62454" lon="3.83461">
        <ele>76.08</ele>
        <time>2016-04-03T12:31:54Z</time>
      </trkpt>
      <trkpt lat="43.62465" lon="3.83478">
        <ele>76.56</ele>
        <time>2016-04-03T12:31:55Z</time>
      </trkpt>
      <trkpt lat="43.62476" lon="3.83496">
        <ele>76.56</ele>
        <time>2016-04-03T12:31:56Z</time>
      </trkpt>
      <trkpt lat="43.62485" lon="3.83515">
        <ele>76.56</ele>
        <time>2016-04-03T12:31:57Z</time>
      </trkpt>
      <trkpt lat="43.62493" lon="3.83535">
        <ele>76.08</ele>
        <time>2016-04-03T12:31:58Z</time>
      </trkpt>
      <trkpt lat="43.62498" lon="3.83556">
        <ele>76.08</ele>
        <time>2016-04-03T12:31:59Z</time>
      </trkpt>
      <trkpt lat="43.625" lon="3.83572">
        <ele>76.56</ele>
        <time>2016-04-03T12:32:00Z</time>
      </trkpt>
      <trkpt lat="43.62497" lon="3.83586">
        <ele>76.56</ele>
        <time>2016-04-03T12:32:01Z</time>
      </trkpt>
      <trkpt lat="43.62492" lon="3.83598">
        <ele>77.04</ele>
        <time>2016-04-03T12:32:02Z</time>
      </trkpt>
      <trkpt lat="43.62485" lon="3.83612">
        <ele>76.56</ele>
        <time>2016-04-03T12:32:03Z</time>
      </trkpt>
      <trkpt lat="43.62479" lon="3.83628">
        <ele>76.08</ele>
        <time>2016-04-03T12:32:04Z</time>
      </trkpt>
      <trkpt lat="43.62476" lon="3.83645">
        <ele>75.6</ele>
        <time>2016-04-03T12:32:05Z</time>
      </trkpt>
      <trkpt lat="43.62476" lon="3.83661">
        <ele>74.16</ele>
        <time>2016-04-03T12:32:06Z</time>
      </trkpt>
      <trkpt lat="43.6248" lon="3.83678">
        <ele>74.16</ele>
        <time>2016-04-03T12:32:07Z</time>
      </trkpt>
      <trkpt lat="43.62492" lon="3.83689">
        <ele>73.2</ele>
        <time>2016-04-03T12:32:08Z</time>
      </trkpt>
      <trkpt lat="43.62506" lon="3.83693">
        <ele>72.72</ele>
        <time>2016-04-03T12:32:09Z</time>
      </trkpt>
      <trkpt lat="43.62522" lon="3.83694">
        <ele>73.2</ele>
        <time>2016-04-03T12:32:10Z</time>
      </trkpt>
      <trkpt lat="43.62536" lon="3.83694">
        <ele>73.68</ele>
        <time>2016-04-03T12:32:11Z</time>
      </trkpt>
      <trkpt lat="43.62549" lon="3.83697">
        <ele>73.2</ele>
        <time>2016-04-03T12:32:12Z</time>
      </trkpt>
      <trkpt lat="43.62562" lon="3.83706">
        <ele>73.2</ele>
        <time>2016-04-03T12:32:13Z</time>
      </trkpt>
      <trkpt lat="43.62575" lon="3.8372">
        <ele>73.2</ele>
        <time>2016-04-03T12:32:14Z</time>
      </trkpt>
      <trkpt lat="43.62586" lon="3.83736">
        <ele>72.72</ele>
        <time>2016-04-03T12:32:15Z</time>
      </trkpt>
      <trkpt lat="43.62597" lon="3.83754">
        <ele>72.24</ele>
        <time>2016-04-03T12:32:16Z</time>
      </trkpt>
      <trkpt lat="43.62709" lon="3.83939">
        <ele>66.47</ele>
        <time>2016-04-03T12:32:25Z</time>
      </trkpt>
      <trkpt lat="43.62843" lon="3.84098">
        <ele>61.18</ele>
        <time>2016-04-03T12:32:33Z</time>
      </trkpt>
      <trkpt lat="43.62982" lon="3.84187">
        <ele>58.78</ele>
        <time>2016-04-03T12:32:40Z</time>
      </trkpt>
      <trkpt lat="43.63069" lon="3.84216">
        <ele>58.3</ele>
        <time>2016-04-03T12:32:46Z</time>
      </trkpt>
      <trkpt lat="43.63076" lon="3.84227">
        <ele>58.78</ele>
        <time>2016-04-03T12:32:50Z</time>
      </trkpt>
      <trkpt lat="43.63079" lon="3.84238">
        <ele>58.3</ele>
        <time>2016-04-03T12:32:51Z</time>
      </trkpt>
      <trkpt lat="43.63084" lon="3.84251">
        <ele>58.3</ele>
        <time>2016-04-03T12:32:52Z</time>
      </trkpt>
      <trkpt lat="43.63091" lon="3.84265">
        <ele>57.82</ele>
        <time>2016-04-03T12:32:53Z</time>
      </trkpt>
      <trkpt lat="43.631" lon="3.84276">
        <ele>57.34</ele>
        <time>2016-04-03T12:32:54Z</time>
      </trkpt>
      <trkpt lat="43.63112" lon="3.84282">
        <ele>57.34</ele>
        <time>2016-04-03T12:32:55Z</time>
      </trkpt>
      <trkpt lat="43.63126" lon="3.84283">
        <ele>56.86</ele>
        <time>2016-04-03T12:32:56Z</time>
      </trkpt>
      <trkpt lat="43.6314" lon="3.84279">
        <ele>56.86</ele>
        <time>2016-04-03T12:32:57Z</time>
      </trkpt>
      <trkpt lat="43.63153" lon="3.84272">
        <ele>56.86</ele>
        <time>2016-04-03T12:32:58Z</time>
      </trkpt>
      <trkpt lat="43.63167" lon="3.84266">
        <ele>56.86</ele>
        <time>2016-04-03T12:32:59Z</time>
      </trkpt>
      <trkpt lat="43.63181" lon="3.84264">
        <ele>56.86</ele>
        <time>2016-04-03T12:33:00Z</time>
      </trkpt>
      <trkpt lat="43.63199" lon="3.84269">
        <ele>56.37</ele>
        <time>2016-04-03T12:33:01Z</time>
      </trkpt>
      <trkpt lat="43.63217" lon="3.84276">
        <ele>56.37</ele>
        <time>2016-04-03T12:33:02Z</time>
      </trkpt>
      <trkpt lat="43.63235" lon="3.84284">
        <ele>55.89</ele>
        <time>2016-04-03T12:33:03Z</time>
      </trkpt>
      <trkpt lat="43.6332" lon="3.84315">
        <ele>57.34</ele>
        <time>2016-04-03T12:33:09Z</time>
      </trkpt>
      <trkpt lat="43.63344" lon="3.84322">
        <ele>57.82</ele>
        <time>2016-04-03T12:33:15Z</time>
      </trkpt>
      <trkpt lat="43.63373" lon="3.84331">
        <ele>58.3</ele>
        <time>2016-04-03T12:33:20Z</time>
      </trkpt>
      <trkpt lat="43.63477" lon="3.84372">
        <ele>58.78</ele>
        <time>2016-04-03T12:33:27Z</time>
      </trkpt>
      <trkpt lat="43.63596" lon="3.84443">
        <ele>55.89</ele>
        <time>2016-04-03T12:33:35Z</time>
      </trkpt>
      <trkpt lat="43.63647" lon="3.84472">
        <ele>57.34</ele>
        <time>2016-04-03T12:33:40Z</time>
      </trkpt>
      <trkpt lat="43.63754" lon="3.8457">
        <ele>59.74</ele>
        <time>2016-04-03T12:33:47Z</time>
      </trkpt>
      <trkpt lat="43.63802" lon="3.84621">
        <ele>59.26</ele>
        <time>2016-04-03T12:33:50Z</time>
      </trkpt>
      <trkpt lat="43.63814" lon="3.84639">
        <ele>59.26</ele>
        <time>2016-04-03T12:33:51Z</time>
      </trkpt>
      <trkpt lat="43.63823" lon="3.84658">
        <ele>59.26</ele>
        <time>2016-04-03T12:33:52Z</time>
      </trkpt>
      <trkpt lat="43.63838" lon="3.84697">
        <ele>58.78</ele>
        <time>2016-04-03T12:33:54Z</time>
      </trkpt>
      <trkpt lat="43.63906" lon="3.84746">
        <ele>59.26</ele>
        <time>2016-04-03T12:33:59Z</time>
      </trkpt>
      <trkpt lat="43.63927" lon="3.84746">
        <ele>59.74</ele>
        <time>2016-04-03T12:34:00Z</time>
      </trkpt>
      <trkpt lat="43.63947" lon="3.84744">
        <ele>62.14</ele>
        <time>2016-04-03T12:34:01Z</time>
      </trkpt>
      <trkpt lat="43.63968" lon="3.84743">
        <ele>63.58</ele>
        <time>2016-04-03T12:34:02Z</time>
      </trkpt>
      <trkpt lat="43.64041" lon="3.84748">
        <ele>68.39</ele>
        <time>2016-04-03T12:34:07Z</time>
      </trkpt>
      <trkpt lat="43.64043" lon="3.84748">
        <ele>68.87</ele>
        <time>2016-04-03T12:34:08Z</time>
      </trkpt>
      <trkpt lat="43.64045" lon="3.84748">
        <ele>68.87</ele>
        <time>2016-04-03T12:34:09Z</time>
      </trkpt>
      <trkpt lat="43.64048" lon="3.84748">
        <ele>69.35</ele>
        <time>2016-04-03T12:34:10Z</time>
      </trkpt>
      <trkpt lat="43.64054" lon="3.84751">
        <ele>69.83</ele>
        <time>2016-04-03T12:34:11Z</time>
      </trkpt>
      <trkpt lat="43.64061" lon="3.84756">
        <ele>69.83</ele>
        <time>2016-04-03T12:34:12Z</time>
      </trkpt>
      <trkpt lat="43.64071" lon="3.84763">
        <ele>69.83</ele>
        <time>2016-04-03T12:34:13Z</time>
      </trkpt>
      <trkpt lat="43.64084" lon="3.84765">
        <ele>70.31</ele>
        <time>2016-04-03T12:34:14Z</time>
      </trkpt>
      <trkpt lat="43.64096" lon="3.84762">
        <ele>70.31</ele>
        <time>2016-04-03T12:34:15Z</time>
      </trkpt>
      <trkpt lat="43.64108" lon="3.84753">
        <ele>70.79</ele>
        <time>2016-04-03T12:34:16Z</time>
      </trkpt>
      <trkpt lat="43.64118" lon="3.84741">
        <ele>70.31</ele>
        <time>2016-04-03T12:34:17Z</time>
      </trkpt>
      <trkpt lat="43.64122" lon="3.84724">
        <ele>70.31</ele>
        <time>2016-04-03T12:34:18Z</time>
      </trkpt>
      <trkpt lat="43.64123" lon="3.84709">
        <ele>70.31</ele>
        <time>2016-04-03T12:34:19Z</time>
      </trkpt>
      <trkpt lat="43.6412" lon="3.84694">
        <ele>69.35</ele>
        <time>2016-04-03T12:34:20Z</time>
      </trkpt>
      <trkpt lat="43.64115" lon="3.84681">
        <ele>68.87</ele>
        <time>2016-04-03T12:34:21Z</time>
      </trkpt>
      <trkpt lat="43.64107" lon="3.8467">
        <ele>68.39</ele>
        <time>2016-04-03T12:34:22Z</time>
      </trkpt>
      <trkpt lat="43.641" lon="3.84663">
        <ele>67.91</ele>
        <time>2016-04-03T12:34:23Z</time>
      </trkpt>
      <trkpt lat="43.64094" lon="3.84658">
        <ele>67.43</ele>
        <time>2016-04-03T12:34:24Z</time>
      </trkpt>
      <trkpt lat="43.64087" lon="3.84654">
        <ele>66.95</ele>
        <time>2016-04-03T12:34:25Z</time>
      </trkpt>
      <trkpt lat="43.64082" lon="3.84648">
        <ele>66.95</ele>
        <time>2016-04-03T12:34:26Z</time>
      </trkpt>
      <trkpt lat="43.64078" lon="3.84641">
        <ele>66.95</ele>
        <time>2016-04-03T12:34:27Z</time>
      </trkpt>
      <trkpt lat="43.64076" lon="3.84633">
        <ele>66.47</ele>
        <time>2016-04-03T12:34:28Z</time>
      </trkpt>
      <trkpt lat="43.64076" lon="3.84624">
        <ele>66.95</ele>
        <time>2016-04-03T12:34:29Z</time>
      </trkpt>
      <trkpt lat="43.64077" lon="3.84617">
        <ele>66.95</ele>
        <time>2016-04-03T12:34:30Z</time>
      </trkpt>
      <trkpt lat="43.64079" lon="3.8461">
        <ele>66.95</ele>
        <time>2016-04-03T12:34:31Z</time>
      </trkpt>
      <trkpt lat="43.64081" lon="3.84602">
        <ele>66.95</ele>
        <time>2016-04-03T12:34:32Z</time>
      </trkpt>
      <trkpt lat="43.64086" lon="3.84588">
        <ele>66.95</ele>
        <time>2016-04-03T12:34:34Z</time>
      </trkpt>
      <trkpt lat="43.64089" lon="3.84584">
        <ele>66.95</ele>
        <time>2016-04-03T12:34:35Z</time>
      </trkpt>
      <trkpt lat="43.64093" lon="3.84583">
        <ele>66.95</ele>
        <time>2016-04-03T12:34:36Z</time>
      </trkpt>
      <trkpt lat="43.64096" lon="3.84584">
        <ele>66.95</ele>
        <time>2016-04-03T12:34:37Z</time>
      </trkpt>
      <trkpt lat="43.64098" lon="3.84588">
        <ele>66.95</ele>
        <time>2016-04-03T12:34:38Z</time>
      </trkpt>
      <trkpt lat="43.64099" lon="3.84591">
        <ele>66.95</ele>
        <time>2016-04-03T12:34:39Z</time>
      </trkpt>
      <trkpt lat="43.64101" lon="3.84594">
        <ele>66.95</ele>
        <time>2016-04-03T12:34:40Z</time>
      </trkpt>
      <trkpt lat="43.64103" lon="3.84597">
        <ele>66.47</ele>
        <time>2016-04-03T12:34:41Z</time>
      </trkpt>
      <trkpt lat="43.64106" lon="3.84599">
        <ele>66.47</ele>
        <time>2016-04-03T12:34:42Z</time>
      </trkpt>
      <trkpt lat="43.64109" lon="3.84601">
        <ele>66.47</ele>
        <time>2016-04-03T12:34:43Z</time>
      </trkpt>
      <trkpt lat="43.64111" lon="3.84603">
        <ele>66.95</ele>
        <time>2016-04-03T12:34:44Z</time>
      </trkpt>
      <trkpt lat="43.64114" lon="3.84605">
        <ele>66.95</ele>
        <time>2016-04-03T12:34:55Z</time>
      </trkpt>
      <trkpt lat="43.64118" lon="3.84604">
        <ele>60.22</ele>
        <time>2016-04-03T12:35:28Z</time>
      </trkpt>
      <trkpt lat="43.64115" lon="3.84605">
        <ele>52.53</ele>
        <time>2016-04-03T12:36:56Z</time>
      </trkpt>
      <trkpt lat="43.64123" lon="3.84609">
        <ele>45.32</ele>
        <time>2016-04-03T12:38:40Z</time>
      </trkpt>
      <trkpt lat="43.64127" lon="3.8461">
        <ele>45.8</ele>
        <time>2016-04-03T12:38:41Z</time>
      </trkpt>
      <trkpt lat="43.6413" lon="3.84609">
        <ele>45.8</ele>
        <time>2016-04-03T12:38:42Z</time>
      </trkpt>
      <trkpt lat="43.64133" lon="3.84606">
        <ele>46.76</ele>
        <time>2016-04-03T12:38:43Z</time>
      </trkpt>
      <trkpt lat="43.64135" lon="3.84602">
        <ele>47.24</ele>
        <time>2016-04-03T12:38:44Z</time>
      </trkpt>
      <trkpt lat="43.64136" lon="3.84596">
        <ele>47.72</ele>
        <time>2016-04-03T12:38:45Z</time>
      </trkpt>
      <trkpt lat="43.64135" lon="3.8459">
        <ele>48.68</ele>
        <time>2016-04-03T12:38:46Z</time>
      </trkpt>
      <trkpt lat="43.64134" lon="3.84584">
        <ele>48.68</ele>
        <time>2016-04-03T12:38:47Z</time>
      </trkpt>
      <trkpt lat="43.64132" lon="3.84578">
        <ele>49.16</ele>
        <time>2016-04-03T12:38:48Z</time>
      </trkpt>
      <trkpt lat="43.64129" lon="3.84575">
        <ele>49.16</ele>
        <time>2016-04-03T12:38:49Z</time>
      </trkpt>
      <trkpt lat="43.64125" lon="3.84573">
        <ele>49.16</ele>
        <time>2016-04-03T12:38:50Z</time>
      </trkpt>
      <trkpt lat="43.64121" lon="3.84572">
        <ele>49.65</ele>
        <time>2016-04-03T12:38:51Z</time>
      </trkpt>
      <trkpt lat="43.64116" lon="3.84573">
        <ele>49.65</ele>
        <time>2016-04-03T12:38:52Z</time>
      </trkpt>
      <trkpt lat="43.64102" lon="3.84572">
        <ele>51.09</ele>
        <time>2016-04-03T12:39:00Z</time>
      </trkpt>
      <trkpt lat="43.641" lon="3.84574">
        <ele>56.37</ele>
        <time>2016-04-03T12:39:48Z</time>
      </trkpt>
      <trkpt lat="43.64101" lon="3.84574">
        <ele>58.78</ele>
        <time>2016-04-03T12:48:05Z</time>
      </trkpt>
      <trkpt lat="43.64101" lon="3.84573">
        <ele>56.86</ele>
        <time>2016-04-03T12:49:01Z</time>
      </trkpt>
      <trkpt lat="43.641" lon="3.84575">
        <ele>55.41</ele>
        <time>2016-04-03T12:49:47Z</time>
      </trkpt>
      <trkpt lat="43.641" lon="3.84575">
        <ele>56.86</ele>
        <time>2016-04-03T12:50:45Z</time>
      </trkpt>
      <trkpt lat="43.64087" lon="3.84584">
        <ele>56.86</ele>
        <time>2016-04-03T12:50:51Z</time>
      </trkpt>
      <trkpt lat="43.64084" lon="3.8459">
        <ele>56.86</ele>
        <time>2016-04-03T12:50:52Z</time>
      </trkpt>
      <trkpt lat="43.64081" lon="3.84599">
        <ele>56.37</ele>
        <time>2016-04-03T12:50:53Z</time>
      </trkpt>
      <trkpt lat="43.64074" lon="3.84624">
        <ele>56.86</ele>
        <time>2016-04-03T12:50:56Z</time>
      </trkpt>
      <trkpt lat="43.64072" lon="3.8463">
        <ele>56.86</ele>
        <time>2016-04-03T12:50:57Z</time>
      </trkpt>
      <trkpt lat="43.64072" lon="3.84635">
        <ele>56.86</ele>
        <time>2016-04-03T12:50:58Z</time>
      </trkpt>
      <trkpt lat="43.64071" lon="3.84649">
        <ele>58.3</ele>
        <time>2016-04-03T12:51:09Z</time>
      </trkpt>
      <trkpt lat="43.64069" lon="3.84655">
        <ele>58.78</ele>
        <time>2016-04-03T12:51:16Z</time>
      </trkpt>
      <trkpt lat="43.64064" lon="3.84664">
        <ele>58.78</ele>
        <time>2016-04-03T12:51:17Z</time>
      </trkpt>
      <trkpt lat="43.64057" lon="3.84674">
        <ele>59.26</ele>
        <time>2016-04-03T12:51:18Z</time>
      </trkpt>
      <trkpt lat="43.64049" lon="3.84685">
        <ele>59.26</ele>
        <time>2016-04-03T12:51:19Z</time>
      </trkpt>
      <trkpt lat="43.64044" lon="3.84697">
        <ele>59.26</ele>
        <time>2016-04-03T12:51:20Z</time>
      </trkpt>
      <trkpt lat="43.6404" lon="3.8471">
        <ele>59.74</ele>
        <time>2016-04-03T12:51:21Z</time>
      </trkpt>
      <trkpt lat="43.6404" lon="3.84724">
        <ele>59.74</ele>
        <time>2016-04-03T12:51:22Z</time>
      </trkpt>
      <trkpt lat="43.64042" lon="3.84738">
        <ele>60.22</ele>
        <time>2016-04-03T12:51:23Z</time>
      </trkpt>
      <trkpt lat="43.64047" lon="3.8475">
        <ele>59.74</ele>
        <time>2016-04-03T12:51:24Z</time>
      </trkpt>
      <trkpt lat="43.64054" lon="3.84761">
        <ele>59.74</ele>
        <time>2016-04-03T12:51:25Z</time>
      </trkpt>
      <trkpt lat="43.64064" lon="3.84769">
        <ele>59.74</ele>
        <time>2016-04-03T12:51:26Z</time>
      </trkpt>
      <trkpt lat="43.64077" lon="3.84772">
        <ele>59.74</ele>
        <time>2016-04-03T12:51:27Z</time>
      </trkpt>
      <trkpt lat="43.64089" lon="3.84771">
        <ele>60.22</ele>
        <time>2016-04-03T12:51:28Z</time>
      </trkpt>
      <trkpt lat="43.64099" lon="3.84767">
        <ele>60.22</ele>
        <time>2016-04-03T12:51:29Z</time>
      </trkpt>
      <trkpt lat="43.64107" lon="3.8476">
        <ele>60.22</ele>
        <time>2016-04-03T12:51:30Z</time>
      </trkpt>
      <trkpt lat="43.64114" lon="3.84752">
        <ele>60.22</ele>
        <time>2016-04-03T12:51:31Z</time>
      </trkpt>
      <trkpt lat="43.64119" lon="3.84743">
        <ele>60.22</ele>
        <time>2016-04-03T12:51:32Z</time>
      </trkpt>
      <trkpt lat="43.64122" lon="3.84733">
        <ele>60.22</ele>
        <time>2016-04-03T12:51:33Z</time>
      </trkpt>
      <trkpt lat="43.64124" lon="3.84723">
        <ele>59.74</ele>
        <time>2016-04-03T12:51:34Z</time>
      </trkpt>
      <trkpt lat="43.64124" lon="3.84711">
        <ele>59.74</ele>
        <time>2016-04-03T12:51:35Z</time>
      </trkpt>
      <trkpt lat="43.64124" lon="3.84699">
        <ele>59.26</ele>
        <time>2016-04-03T12:51:36Z</time>
      </trkpt>
      <trkpt lat="43.64124" lon="3.84688">
        <ele>58.78</ele>
        <time>2016-04-03T12:51:37Z</time>
      </trkpt>
      <trkpt lat="43.64127" lon="3.84678">
        <ele>58.3</ele>
        <time>2016-04-03T12:51:38Z</time>
      </trkpt>
      <trkpt lat="43.64133" lon="3.84669">
        <ele>58.3</ele>
        <time>2016-04-03T12:51:39Z</time>
      </trkpt>
      <trkpt lat="43.6414" lon="3.84661">
        <ele>57.82</ele>
        <time>2016-04-03T12:51:40Z</time>
      </trkpt>
      <trkpt lat="43.64149" lon="3.84654">
        <ele>57.82</ele>
        <time>2016-04-03T12:51:41Z</time>
      </trkpt>
      <trkpt lat="43.64157" lon="3.84647">
        <ele>57.82</ele>
        <time>2016-04-03T12:51:42Z</time>
      </trkpt>
      <trkpt lat="43.64246" lon="3.84577">
        <ele>60.22</ele>
        <time>2016-04-03T12:51:51Z</time>
      </trkpt>
      <trkpt lat="43.64358" lon="3.84455">
        <ele>63.58</ele>
        <time>2016-04-03T12:51:59Z</time>
      </trkpt>
      <trkpt lat="43.64499" lon="3.84319">
        <ele>67.91</ele>
        <time>2016-04-03T12:52:08Z</time>
      </trkpt>
      <trkpt lat="43.64634" lon="3.84224">
        <ele>72.72</ele>
        <time>2016-04-03T12:52:15Z</time>
      </trkpt>
      <trkpt lat="43.64883" lon="3.84043">
        <ele>86.66</ele>
        <time>2016-04-03T12:52:28Z</time>
      </trkpt>
      <trkpt lat="43.65043" lon="3.83891">
        <ele>90.02</ele>
        <time>2016-04-03T12:52:37Z</time>
      </trkpt>
      <trkpt lat="43.65201" lon="3.837">
        <ele>91.94</ele>
        <time>2016-04-03T12:52:46Z</time>
      </trkpt>
      <trkpt lat="43.65355" lon="3.83574">
        <ele>91.94</ele>
        <time>2016-04-03T12:52:53Z</time>
      </trkpt>
      <trkpt lat="43.65544" lon="3.83411">
        <ele>86.18</ele>
        <time>2016-04-03T12:53:02Z</time>
      </trkpt>
      <trkpt lat="43.65685" lon="3.83223">
        <ele>87.14</ele>
        <time>2016-04-03T12:53:10Z</time>
      </trkpt>
      <trkpt lat="43.65815" lon="3.83144">
        <ele>86.18</ele>
        <time>2016-04-03T12:53:16Z</time>
      </trkpt>
      <trkpt lat="43.66032" lon="3.83097">
        <ele>91.46</ele>
        <time>2016-04-03T12:53:25Z</time>
      </trkpt>
      <trkpt lat="43.66192" lon="3.83067">
        <ele>102.52</ele>
        <time>2016-04-03T12:53:33Z</time>
      </trkpt>
      <trkpt lat="43.66347" lon="3.83008">
        <ele>110.69</ele>
        <time>2016-04-03T12:53:41Z</time>
      </trkpt>
      <trkpt lat="43.66547" lon="3.82855">
        <ele>115.98</ele>
        <time>2016-04-03T12:53:51Z</time>
      </trkpt>
      <trkpt lat="43.66837" lon="3.82639">
        <ele>109.25</ele>
        <time>2016-04-03T12:54:04Z</time>
      </trkpt>
      <trkpt lat="43.66985" lon="3.82501">
        <ele>109.25</ele>
        <time>2016-04-03T12:54:12Z</time>
      </trkpt>
      <trkpt lat="43.67104" lon="3.82312">
        <ele>117.42</ele>
        <time>2016-04-03T12:54:20Z</time>
      </trkpt>
      <trkpt lat="43.67199" lon="3.8214">
        <ele>124.15</ele>
        <time>2016-04-03T12:54:28Z</time>
      </trkpt>
      <trkpt lat="43.67248" lon="3.8208">
        <ele>124.63</ele>
        <time>2016-04-03T12:54:32Z</time>
      </trkpt>
      <trkpt lat="43.67263" lon="3.8207">
        <ele>124.63</ele>
        <time>2016-04-03T12:54:33Z</time>
      </trkpt>
      <trkpt lat="43.67279" lon="3.82063">
        <ele>125.11</ele>
        <time>2016-04-03T12:54:34Z</time>
      </trkpt>
      <trkpt lat="43.67296" lon="3.82062">
        <ele>125.59</ele>
        <time>2016-04-03T12:54:35Z</time>
      </trkpt>
      <trkpt lat="43.67313" lon="3.82062">
        <ele>126.07</ele>
        <time>2016-04-03T12:54:36Z</time>
      </trkpt>
      <trkpt lat="43.67331" lon="3.82063">
        <ele>127.03</ele>
        <time>2016-04-03T12:54:37Z</time>
      </trkpt>
      <trkpt lat="43.67348" lon="3.82066">
        <ele>127.51</ele>
        <time>2016-04-03T12:54:38Z</time>
      </trkpt>
      <trkpt lat="43.67395" lon="3.82069">
        <ele>128.95</ele>
        <time>2016-04-03T12:54:41Z</time>
      </trkpt>
      <trkpt lat="43.6741" lon="3.82066">
        <ele>129.43</ele>
        <time>2016-04-03T12:54:42Z</time>
      </trkpt>
      <trkpt lat="43.67426" lon="3.8206">
        <ele>128.95</ele>
        <time>2016-04-03T12:54:43Z</time>
      </trkpt>
      <trkpt lat="43.67489" lon="3.82034">
        <ele>126.07</ele>
        <time>2016-04-03T12:54:47Z</time>
      </trkpt>
      <trkpt lat="43.67507" lon="3.82032">
        <ele>125.11</ele>
        <time>2016-04-03T12:54:48Z</time>
      </trkpt>
      <trkpt lat="43.67526" lon="3.82034">
        <ele>124.15</ele>
        <time>2016-04-03T12:54:49Z</time>
      </trkpt>
      <trkpt lat="43.67546" lon="3.82038">
        <ele>123.19</ele>
        <time>2016-04-03T12:54:50Z</time>
      </trkpt>
      <trkpt lat="43.67567" lon="3.82044">
        <ele>122.71</ele>
        <time>2016-04-03T12:54:51Z</time>
      </trkpt>
      <trkpt lat="43.67762" lon="3.8209">
        <ele>114.53</ele>
        <time>2016-04-03T12:54:59Z</time>
      </trkpt>
      <trkpt lat="43.67998" lon="3.82129">
        <ele>104.92</ele>
        <time>2016-04-03T12:55:09Z</time>
      </trkpt>
      <trkpt lat="43.68212" lon="3.82157">
        <ele>98.67</ele>
        <time>2016-04-03T12:55:19Z</time>
      </trkpt>
      <trkpt lat="43.68468" lon="3.82197">
        <ele>97.23</ele>
        <time>2016-04-03T12:55:29Z</time>
      </trkpt>
      <trkpt lat="43.68658" lon="3.82255">
        <ele>100.6</ele>
        <time>2016-04-03T12:55:38Z</time>
      </trkpt>
      <trkpt lat="43.68867" lon="3.82356">
        <ele>104.44</ele>
        <time>2016-04-03T12:55:48Z</time>
      </trkpt>
      <trkpt lat="43.69196" lon="3.82563">
        <ele>107.32</ele>
        <time>2016-04-03T12:56:03Z</time>
      </trkpt>
      <trkpt lat="43.69398" lon="3.82649">
        <ele>108.29</ele>
        <time>2016-04-03T12:56:12Z</time>
      </trkpt>
      <trkpt lat="43.69559" lon="3.82658">
        <ele>109.25</ele>
        <time>2016-04-03T12:56:19Z</time>
      </trkpt>
      <trkpt lat="43.69722" lon="3.82621">
        <ele>108.77</ele>
        <time>2016-04-03T12:56:27Z</time>
      </trkpt>
      <trkpt lat="43.69864" lon="3.8254">
        <ele>108.29</ele>
        <time>2016-04-03T12:56:34Z</time>
      </trkpt>
      <trkpt lat="43.69968" lon="3.82403">
        <ele>107.81</ele>
        <time>2016-04-03T12:56:41Z</time>
      </trkpt>
      <trkpt lat="43.70079" lon="3.82175">
        <ele>106.36</ele>
        <time>2016-04-03T12:56:50Z</time>
      </trkpt>
      <trkpt lat="43.70212" lon="3.82015">
        <ele>107.81</ele>
        <time>2016-04-03T12:56:58Z</time>
      </trkpt>
      <trkpt lat="43.70347" lon="3.81934">
        <ele>112.13</ele>
        <time>2016-04-03T12:57:05Z</time>
      </trkpt>
      <trkpt lat="43.70509" lon="3.81891">
        <ele>117.42</ele>
        <time>2016-04-03T12:57:13Z</time>
      </trkpt>
      <trkpt lat="43.70664" lon="3.81878">
        <ele>117.42</ele>
        <time>2016-04-03T12:57:22Z</time>
      </trkpt>
      <trkpt lat="43.70778" lon="3.81875">
        <ele>117.42</ele>
        <time>2016-04-03T12:57:30Z</time>
      </trkpt>
      <trkpt lat="43.70788" lon="3.81872">
        <ele>117.42</ele>
        <time>2016-04-03T12:57:31Z</time>
      </trkpt>
      <trkpt lat="43.7082" lon="3.81861">
        <ele>118.38</ele>
        <time>2016-04-03T12:57:35Z</time>
      </trkpt>
      <trkpt lat="43.70827" lon="3.81862">
        <ele>118.86</ele>
        <time>2016-04-03T12:57:36Z</time>
      </trkpt>
      <trkpt lat="43.70835" lon="3.81866">
        <ele>118.86</ele>
        <time>2016-04-03T12:57:37Z</time>
      </trkpt>
      <trkpt lat="43.70842" lon="3.81872">
        <ele>118.86</ele>
        <time>2016-04-03T12:57:38Z</time>
      </trkpt>
      <trkpt lat="43.70851" lon="3.81879">
        <ele>118.86</ele>
        <time>2016-04-03T12:57:39Z</time>
      </trkpt>
      <trkpt lat="43.70861" lon="3.81884">
        <ele>118.38</ele>
        <time>2016-04-03T12:57:40Z</time>
      </trkpt>
      <trkpt lat="43.70873" lon="3.81883">
        <ele>118.38</ele>
        <time>2016-04-03T12:57:41Z</time>
      </trkpt>
      <trkpt lat="43.70883" lon="3.81877">
        <ele>118.86</ele>
        <time>2016-04-03T12:57:42Z</time>
      </trkpt>
      <trkpt lat="43.70892" lon="3.81868">
        <ele>118.86</ele>
        <time>2016-04-03T12:57:43Z</time>
      </trkpt>
      <trkpt lat="43.70899" lon="3.81857">
        <ele>119.34</ele>
        <time>2016-04-03T12:57:44Z</time>
      </trkpt>
      <trkpt lat="43.70902" lon="3.81844">
        <ele>119.82</ele>
        <time>2016-04-03T12:57:45Z</time>
      </trkpt>
      <trkpt lat="43.70903" lon="3.8183">
        <ele>119.82</ele>
        <time>2016-04-03T12:57:46Z</time>
      </trkpt>
      <trkpt lat="43.70902" lon="3.81817">
        <ele>120.3</ele>
        <time>2016-04-03T12:57:47Z</time>
      </trkpt>
      <trkpt lat="43.70898" lon="3.81804">
        <ele>120.3</ele>
        <time>2016-04-03T12:57:48Z</time>
      </trkpt>
      <trkpt lat="43.70892" lon="3.81793">
        <ele>120.78</ele>
        <time>2016-04-03T12:57:49Z</time>
      </trkpt>
      <trkpt lat="43.70884" lon="3.81783">
        <ele>120.78</ele>
        <time>2016-04-03T12:57:50Z</time>
      </trkpt>
      <trkpt lat="43.70876" lon="3.81772">
        <ele>120.78</ele>
        <time>2016-04-03T12:57:51Z</time>
      </trkpt>
      <trkpt lat="43.70868" lon="3.81759">
        <ele>121.26</ele>
        <time>2016-04-03T12:57:52Z</time>
      </trkpt>
      <trkpt lat="43.70862" lon="3.81745">
        <ele>121.26</ele>
        <time>2016-04-03T12:57:53Z</time>
      </trkpt>
      <trkpt lat="43.70857" lon="3.81733">
        <ele>121.74</ele>
        <time>2016-04-03T12:57:54Z</time>
      </trkpt>
      <trkpt lat="43.70853" lon="3.81723">
        <ele>121.74</ele>
        <time>2016-04-03T12:57:55Z</time>
      </trkpt>
      <trkpt lat="43.70846" lon="3.81696">
        <ele>123.19</ele>
        <time>2016-04-03T12:58:02Z</time>
      </trkpt>
      <trkpt lat="43.70844" lon="3.81693">
        <ele>124.63</ele>
        <time>2016-04-03T12:58:18Z</time>
      </trkpt>
      <trkpt lat="43.70845" lon="3.81693">
        <ele>125.11</ele>
        <time>2016-04-03T12:59:34Z</time>
      </trkpt>
      <trkpt lat="43.70846" lon="3.81694">
        <ele>123.67</ele>
        <time>2016-04-03T13:04:14Z</time>
      </trkpt>
      <trkpt lat="43.70839" lon="3.8168">
        <ele>123.67</ele>
        <time>2016-04-03T13:04:39Z</time>
      </trkpt>
      <trkpt lat="43.70833" lon="3.81666">
        <ele>124.15</ele>
        <time>2016-04-03T13:04:40Z</time>
      </trkpt>
      <trkpt lat="43.7078" lon="3.81551">
        <ele>129.92</ele>
        <time>2016-04-03T13:04:47Z</time>
      </trkpt>
      <trkpt lat="43.70729" lon="3.81403">
        <ele>135.2</ele>
        <time>2016-04-03T13:04:54Z</time>
      </trkpt>
      <trkpt lat="43.70726" lon="3.81383">
        <ele>135.68</ele>
        <time>2016-04-03T13:04:55Z</time>
      </trkpt>
      <trkpt lat="43.70723" lon="3.81364">
        <ele>136.16</ele>
        <time>2016-04-03T13:04:56Z</time>
      </trkpt>
      <trkpt lat="43.70722" lon="3.81345">
        <ele>136.16</ele>
        <time>2016-04-03T13:04:57Z</time>
      </trkpt>
      <trkpt lat="43.70739" lon="3.8118">
        <ele>137.13</ele>
        <time>2016-04-03T13:05:05Z</time>
      </trkpt>
      <trkpt lat="43.70784" lon="3.81011">
        <ele>137.61</ele>
        <time>2016-04-03T13:05:12Z</time>
      </trkpt>
      <trkpt lat="43.70855" lon="3.8072">
        <ele>138.57</ele>
        <time>2016-04-03T13:05:23Z</time>
      </trkpt>
      <trkpt lat="43.70881" lon="3.80485">
        <ele>140.97</ele>
        <time>2016-04-03T13:05:32Z</time>
      </trkpt>
      <trkpt lat="43.70905" lon="3.80221">
        <ele>150.1</ele>
        <time>2016-04-03T13:05:42Z</time>
      </trkpt>
      <trkpt lat="43.70967" lon="3.80017">
        <ele>158.27</ele>
        <time>2016-04-03T13:05:50Z</time>
      </trkpt>
      <trkpt lat="43.71048" lon="3.79871">
        <ele>161.16</ele>
        <time>2016-04-03T13:05:57Z</time>
      </trkpt>
      <trkpt lat="43.71187" lon="3.79713">
        <ele>156.83</ele>
        <time>2016-04-03T13:06:06Z</time>
      </trkpt>
      <trkpt lat="43.71362" lon="3.79534">
        <ele>145.3</ele>
        <time>2016-04-03T13:06:17Z</time>
      </trkpt>
      <trkpt lat="43.71477" lon="3.79461">
        <ele>141.93</ele>
        <time>2016-04-03T13:06:24Z</time>
      </trkpt>
      <trkpt lat="43.7166" lon="3.79413">
        <ele>147.7</ele>
        <time>2016-04-03T13:06:33Z</time>
      </trkpt>
      <trkpt lat="43.71868" lon="3.79444">
        <ele>151.06</ele>
        <time>2016-04-03T13:06:43Z</time>
      </trkpt>
      <trkpt lat="43.72134" lon="3.79484">
        <ele>154.43</ele>
        <time>2016-04-03T13:06:56Z</time>
      </trkpt>
      <trkpt lat="43.72371" lon="3.79505">
        <ele>164.04</ele>
        <time>2016-04-03T13:07:08Z</time>
      </trkpt>
      <trkpt lat="43.72536" lon="3.79465">
        <ele>171.73</ele>
        <time>2016-04-03T13:07:16Z</time>
      </trkpt>
      <trkpt lat="43.72616" lon="3.79454">
        <ele>175.58</ele>
        <time>2016-04-03T13:07:21Z</time>
      </trkpt>
      <trkpt lat="43.72632" lon="3.79457">
        <ele>176.54</ele>
        <time>2016-04-03T13:07:22Z</time>
      </trkpt>
      <trkpt lat="43.72647" lon="3.79463">
        <ele>177.5</ele>
        <time>2016-04-03T13:07:23Z</time>
      </trkpt>
      <trkpt lat="43.72663" lon="3.7947">
        <ele>178.46</ele>
        <time>2016-04-03T13:07:24Z</time>
      </trkpt>
      <trkpt lat="43.72679" lon="3.7948">
        <ele>178.94</ele>
        <time>2016-04-03T13:07:25Z</time>
      </trkpt>
      <trkpt lat="43.72695" lon="3.7949">
        <ele>179.9</ele>
        <time>2016-04-03T13:07:26Z</time>
      </trkpt>
      <trkpt lat="43.72767" lon="3.79534">
        <ele>183.75</ele>
        <time>2016-04-03T13:07:30Z</time>
      </trkpt>
      <trkpt lat="43.72787" lon="3.79542">
        <ele>184.71</ele>
        <time>2016-04-03T13:07:31Z</time>
      </trkpt>
      <trkpt lat="43.72942" lon="3.79578">
        <ele>190.96</ele>
        <time>2016-04-03T13:07:39Z</time>
      </trkpt>
      <trkpt lat="43.7296" lon="3.79577">
        <ele>191.44</ele>
        <time>2016-04-03T13:07:40Z</time>
      </trkpt>
      <trkpt lat="43.72978" lon="3.79572">
        <ele>191.44</ele>
        <time>2016-04-03T13:07:41Z</time>
      </trkpt>
      <trkpt lat="43.72995" lon="3.79565">
        <ele>191.44</ele>
        <time>2016-04-03T13:07:42Z</time>
      </trkpt>
      <trkpt lat="43.73012" lon="3.79556">
        <ele>191.44</ele>
        <time>2016-04-03T13:07:43Z</time>
      </trkpt>
      <trkpt lat="43.73029" lon="3.79545">
        <ele>190.96</ele>
        <time>2016-04-03T13:07:44Z</time>
      </trkpt>
      <trkpt lat="43.73191" lon="3.79423">
        <ele>188.08</ele>
        <time>2016-04-03T13:07:53Z</time>
      </trkpt>
      <trkpt lat="43.73303" lon="3.79293">
        <ele>186.63</ele>
        <time>2016-04-03T13:07:59Z</time>
      </trkpt>
      <trkpt lat="43.73464" lon="3.79092">
        <ele>191.92</ele>
        <time>2016-04-03T13:08:07Z</time>
      </trkpt>
      <trkpt lat="43.73708" lon="3.78799">
        <ele>194.32</ele>
        <time>2016-04-03T13:08:20Z</time>
      </trkpt>
      <trkpt lat="43.73886" lon="3.78596">
        <ele>199.61</ele>
        <time>2016-04-03T13:08:30Z</time>
      </trkpt>
      <trkpt lat="43.73981" lon="3.78449">
        <ele>203.94</ele>
        <time>2016-04-03T13:08:38Z</time>
      </trkpt>
      <trkpt lat="43.7399" lon="3.78428">
        <ele>204.9</ele>
        <time>2016-04-03T13:08:39Z</time>
      </trkpt>
      <trkpt lat="43.73997" lon="3.78407">
        <ele>205.38</ele>
        <time>2016-04-03T13:08:40Z</time>
      </trkpt>
      <trkpt lat="43.74002" lon="3.78386">
        <ele>205.86</ele>
        <time>2016-04-03T13:08:41Z</time>
      </trkpt>
      <trkpt lat="43.74005" lon="3.78363">
        <ele>206.34</ele>
        <time>2016-04-03T13:08:42Z</time>
      </trkpt>
      <trkpt lat="43.74007" lon="3.78338">
        <ele>207.3</ele>
        <time>2016-04-03T13:08:43Z</time>
      </trkpt>
      <trkpt lat="43.74008" lon="3.78311">
        <ele>207.78</ele>
        <time>2016-04-03T13:08:44Z</time>
      </trkpt>
      <trkpt lat="43.74008" lon="3.78281">
        <ele>208.26</ele>
        <time>2016-04-03T13:08:45Z</time>
      </trkpt>
      <trkpt lat="43.74" lon="3.78061">
        <ele>214.03</ele>
        <time>2016-04-03T13:08:51Z</time>
      </trkpt>
      <trkpt lat="43.73994" lon="3.77878">
        <ele>219.32</ele>
        <time>2016-04-03T13:08:57Z</time>
      </trkpt>
      <trkpt lat="43.73991" lon="3.77678">
        <ele>225.09</ele>
        <time>2016-04-03T13:09:05Z</time>
      </trkpt>
      <trkpt lat="43.73994" lon="3.77653">
        <ele>226.05</ele>
        <time>2016-04-03T13:09:06Z</time>
      </trkpt>
      <trkpt lat="43.73999" lon="3.77629">
        <ele>226.53</ele>
        <time>2016-04-03T13:09:07Z</time>
      </trkpt>
      <trkpt lat="43.74006" lon="3.77604">
        <ele>227.49</ele>
        <time>2016-04-03T13:09:08Z</time>
      </trkpt>
      <trkpt lat="43.74014" lon="3.77579">
        <ele>227.49</ele>
        <time>2016-04-03T13:09:09Z</time>
      </trkpt>
      <trkpt lat="43.74094" lon="3.77355">
        <ele>227.01</ele>
        <time>2016-04-03T13:09:18Z</time>
      </trkpt>
      <trkpt lat="43.74168" lon="3.77149">
        <ele>226.05</ele>
        <time>2016-04-03T13:09:24Z</time>
      </trkpt>
      <trkpt lat="43.74269" lon="3.76884">
        <ele>224.12</ele>
        <time>2016-04-03T13:09:33Z</time>
      </trkpt>
      <trkpt lat="43.74422" lon="3.76609">
        <ele>222.2</ele>
        <time>2016-04-03T13:09:44Z</time>
      </trkpt>
      <trkpt lat="43.7463" lon="3.76268">
        <ele>219.8</ele>
        <time>2016-04-03T13:09:57Z</time>
      </trkpt>
      <trkpt lat="43.74809" lon="3.76082">
        <ele>220.76</ele>
        <time>2016-04-03T13:10:06Z</time>
      </trkpt>
      <trkpt lat="43.74969" lon="3.75921">
        <ele>224.61</ele>
        <time>2016-04-03T13:10:15Z</time>
      </trkpt>
      <trkpt lat="43.75129" lon="3.75765">
        <ele>226.53</ele>
        <time>2016-04-03T13:10:23Z</time>
      </trkpt>
      <trkpt lat="43.75421" lon="3.75479">
        <ele>228.45</ele>
        <time>2016-04-03T13:10:38Z</time>
      </trkpt>
      <trkpt lat="43.75634" lon="3.75271">
        <ele>230.37</ele>
        <time>2016-04-03T13:10:49Z</time>
      </trkpt>
      <trkpt lat="43.75726" lon="3.7518">
        <ele>233.26</ele>
        <time>2016-04-03T13:10:56Z</time>
      </trkpt>
      <trkpt lat="43.75776" lon="3.75132">
        <ele>235.18</ele>
        <time>2016-04-03T13:11:03Z</time>
      </trkpt>
      <trkpt lat="43.75783" lon="3.75129">
        <ele>235.66</ele>
        <time>2016-04-03T13:11:04Z</time>
      </trkpt>
      <trkpt lat="43.7579" lon="3.75127">
        <ele>235.66</ele>
        <time>2016-04-03T13:11:05Z</time>
      </trkpt>
      <trkpt lat="43.75797" lon="3.75126">
        <ele>235.66</ele>
        <time>2016-04-03T13:11:06Z</time>
      </trkpt>
      <trkpt lat="43.75804" lon="3.75123">
        <ele>236.14</ele>
        <time>2016-04-03T13:11:07Z</time>
      </trkpt>
      <trkpt lat="43.75809" lon="3.75117">
        <ele>236.62</ele>
        <time>2016-04-03T13:11:08Z</time>
      </trkpt>
      <trkpt lat="43.75814" lon="3.75107">
        <ele>236.62</ele>
        <time>2016-04-03T13:11:09Z</time>
      </trkpt>
      <trkpt lat="43.75821" lon="3.75094">
        <ele>237.1</ele>
        <time>2016-04-03T13:11:10Z</time>
      </trkpt>
      <trkpt lat="43.75831" lon="3.75082">
        <ele>237.1</ele>
        <time>2016-04-03T13:11:11Z</time>
      </trkpt>
      <trkpt lat="43.75843" lon="3.75069">
        <ele>237.58</ele>
        <time>2016-04-03T13:11:12Z</time>
      </trkpt>
      <trkpt lat="43.75856" lon="3.75057">
        <ele>238.06</ele>
        <time>2016-04-03T13:11:13Z</time>
      </trkpt>
      <trkpt lat="43.75933" lon="3.74982">
        <ele>240.47</ele>
        <time>2016-04-03T13:11:17Z</time>
      </trkpt>
      <trkpt lat="43.76061" lon="3.74857">
        <ele>244.31</ele>
        <time>2016-04-03T13:11:24Z</time>
      </trkpt>
      <trkpt lat="43.76202" lon="3.74755">
        <ele>248.16</ele>
        <time>2016-04-03T13:11:32Z</time>
      </trkpt>
      <trkpt lat="43.76436" lon="3.74634">
        <ele>253.44</ele>
        <time>2016-04-03T13:11:42Z</time>
      </trkpt>
      <trkpt lat="43.76598" lon="3.74563">
        <ele>258.25</ele>
        <time>2016-04-03T13:11:50Z</time>
      </trkpt>
      <trkpt lat="43.76753" lon="3.74549">
        <ele>261.62</ele>
        <time>2016-04-03T13:11:57Z</time>
      </trkpt>
      <trkpt lat="43.76918" lon="3.74591">
        <ele>266.9</ele>
        <time>2016-04-03T13:12:05Z</time>
      </trkpt>
      <trkpt lat="43.77111" lon="3.74619">
        <ele>267.86</ele>
        <time>2016-04-03T13:12:14Z</time>
      </trkpt>
      <trkpt lat="43.77256" lon="3.74557">
        <ele>262.58</ele>
        <time>2016-04-03T13:12:21Z</time>
      </trkpt>
      <trkpt lat="43.77401" lon="3.74438">
        <ele>251.52</ele>
        <time>2016-04-03T13:12:30Z</time>
      </trkpt>
      <trkpt lat="43.77444" lon="3.74383">
        <ele>248.16</ele>
        <time>2016-04-03T13:12:33Z</time>
      </trkpt>
      <trkpt lat="43.77549" lon="3.74239">
        <ele>239.02</ele>
        <time>2016-04-03T13:12:40Z</time>
      </trkpt>
      <trkpt lat="43.77671" lon="3.74152">
        <ele>231.81</ele>
        <time>2016-04-03T13:12:47Z</time>
      </trkpt>
      <trkpt lat="43.7772" lon="3.74116">
        <ele>228.93</ele>
        <time>2016-04-03T13:12:50Z</time>
      </trkpt>
      <trkpt lat="43.77735" lon="3.741">
        <ele>227.97</ele>
        <time>2016-04-03T13:12:51Z</time>
      </trkpt>
      <trkpt lat="43.77749" lon="3.74083">
        <ele>226.53</ele>
        <time>2016-04-03T13:12:52Z</time>
      </trkpt>
      <trkpt lat="43.77761" lon="3.74064">
        <ele>225.57</ele>
        <time>2016-04-03T13:12:53Z</time>
      </trkpt>
      <trkpt lat="43.77773" lon="3.74044">
        <ele>224.61</ele>
        <time>2016-04-03T13:12:54Z</time>
      </trkpt>
      <trkpt lat="43.77867" lon="3.73922">
        <ele>218.36</ele>
        <time>2016-04-03T13:13:01Z</time>
      </trkpt>
      <trkpt lat="43.77946" lon="3.73806">
        <ele>211.15</ele>
        <time>2016-04-03T13:13:07Z</time>
      </trkpt>
      <trkpt lat="43.77963" lon="3.73789">
        <ele>209.7</ele>
        <time>2016-04-03T13:13:08Z</time>
      </trkpt>
      <trkpt lat="43.77981" lon="3.73775">
        <ele>208.26</ele>
        <time>2016-04-03T13:13:09Z</time>
      </trkpt>
      <trkpt lat="43.7813" lon="3.73683">
        <ele>203.46</ele>
        <time>2016-04-03T13:13:17Z</time>
      </trkpt>
      <trkpt lat="43.78234" lon="3.7363">
        <ele>200.57</ele>
        <time>2016-04-03T13:13:25Z</time>
      </trkpt>
      <trkpt lat="43.7829" lon="3.73623">
        <ele>198.65</ele>
        <time>2016-04-03T13:13:30Z</time>
      </trkpt>
      <trkpt lat="43.78298" lon="3.73625">
        <ele>198.17</ele>
        <time>2016-04-03T13:13:31Z</time>
      </trkpt>
      <trkpt lat="43.78306" lon="3.73631">
        <ele>198.17</ele>
        <time>2016-04-03T13:13:32Z</time>
      </trkpt>
      <trkpt lat="43.78324" lon="3.73647">
        <ele>197.69</ele>
        <time>2016-04-03T13:13:34Z</time>
      </trkpt>
      <trkpt lat="43.78336" lon="3.7365">
        <ele>197.69</ele>
        <time>2016-04-03T13:13:35Z</time>
      </trkpt>
      <trkpt lat="43.78348" lon="3.73654">
        <ele>197.21</ele>
        <time>2016-04-03T13:13:36Z</time>
      </trkpt>
      <trkpt lat="43.78361" lon="3.73661">
        <ele>197.21</ele>
        <time>2016-04-03T13:13:37Z</time>
      </trkpt>
      <trkpt lat="43.78373" lon="3.73669">
        <ele>196.73</ele>
        <time>2016-04-03T13:13:38Z</time>
      </trkpt>
      <trkpt lat="43.78399" lon="3.73681">
        <ele>196.73</ele>
        <time>2016-04-03T13:13:40Z</time>
      </trkpt>
      <trkpt lat="43.78414" lon="3.73685">
        <ele>196.73</ele>
        <time>2016-04-03T13:13:41Z</time>
      </trkpt>
      <trkpt lat="43.7843" lon="3.73687">
        <ele>196.73</ele>
        <time>2016-04-03T13:13:42Z</time>
      </trkpt>
      <trkpt lat="43.78447" lon="3.73686">
        <ele>196.25</ele>
        <time>2016-04-03T13:13:43Z</time>
      </trkpt>
      <trkpt lat="43.78464" lon="3.73682">
        <ele>196.25</ele>
        <time>2016-04-03T13:13:44Z</time>
      </trkpt>
      <trkpt lat="43.78482" lon="3.73676">
        <ele>195.77</ele>
        <time>2016-04-03T13:13:45Z</time>
      </trkpt>
      <trkpt lat="43.78501" lon="3.73667">
        <ele>195.28</ele>
        <time>2016-04-03T13:13:46Z</time>
      </trkpt>
      <trkpt lat="43.78671" lon="3.73618">
        <ele>191.44</ele>
        <time>2016-04-03T13:13:54Z</time>
      </trkpt>
      <trkpt lat="43.78793" lon="3.73637">
        <ele>189.04</ele>
        <time>2016-04-03T13:14:00Z</time>
      </trkpt>
      <trkpt lat="43.78902" lon="3.73664">
        <ele>187.59</ele>
        <time>2016-04-03T13:14:08Z</time>
      </trkpt>
      <trkpt lat="43.78922" lon="3.73669">
        <ele>187.11</ele>
        <time>2016-04-03T13:14:11Z</time>
      </trkpt>
      <trkpt lat="43.78928" lon="3.73674">
        <ele>187.59</ele>
        <time>2016-04-03T13:14:12Z</time>
      </trkpt>
      <trkpt lat="43.78934" lon="3.73681">
        <ele>187.59</ele>
        <time>2016-04-03T13:14:13Z</time>
      </trkpt>
      <trkpt lat="43.78941" lon="3.73687">
        <ele>187.59</ele>
        <time>2016-04-03T13:14:14Z</time>
      </trkpt>
      <trkpt lat="43.78948" lon="3.7369">
        <ele>187.59</ele>
        <time>2016-04-03T13:14:15Z</time>
      </trkpt>
      <trkpt lat="43.78956" lon="3.73688">
        <ele>187.59</ele>
        <time>2016-04-03T13:14:16Z</time>
      </trkpt>
      <trkpt lat="43.78964" lon="3.73682">
        <ele>187.59</ele>
        <time>2016-04-03T13:14:17Z</time>
      </trkpt>
      <trkpt lat="43.78974" lon="3.73677">
        <ele>187.59</ele>
        <time>2016-04-03T13:14:18Z</time>
      </trkpt>
      <trkpt lat="43.78987" lon="3.73673">
        <ele>187.59</ele>
        <time>2016-04-03T13:14:19Z</time>
      </trkpt>
      <trkpt lat="43.79005" lon="3.73672">
        <ele>187.59</ele>
        <time>2016-04-03T13:14:20Z</time>
      </trkpt>
      <trkpt lat="43.79024" lon="3.73672">
        <ele>187.11</ele>
        <time>2016-04-03T13:14:21Z</time>
      </trkpt>
      <trkpt lat="43.79204" lon="3.73692">
        <ele>186.15</ele>
        <time>2016-04-03T13:14:29Z</time>
      </trkpt>
      <trkpt lat="43.79333" lon="3.73775">
        <ele>183.75</ele>
        <time>2016-04-03T13:14:35Z</time>
      </trkpt>
      <trkpt lat="43.79534" lon="3.7396">
        <ele>179.9</ele>
        <time>2016-04-03T13:14:45Z</time>
      </trkpt>
      <trkpt lat="43.79671" lon="3.74001">
        <ele>179.42</ele>
        <time>2016-04-03T13:14:51Z</time>
      </trkpt>
      <trkpt lat="43.79818" lon="3.73968">
        <ele>187.59</ele>
        <time>2016-04-03T13:14:57Z</time>
      </trkpt>
      <trkpt lat="43.79991" lon="3.73866">
        <ele>197.21</ele>
        <time>2016-04-03T13:15:05Z</time>
      </trkpt>
      <trkpt lat="43.80171" lon="3.73794">
        <ele>199.13</ele>
        <time>2016-04-03T13:15:13Z</time>
      </trkpt>
      <trkpt lat="43.80347" lon="3.73807">
        <ele>194.32</ele>
        <time>2016-04-03T13:15:20Z</time>
      </trkpt>
      <trkpt lat="43.8048" lon="3.73839">
        <ele>190</ele>
        <time>2016-04-03T13:15:26Z</time>
      </trkpt>
      <trkpt lat="43.80597" lon="3.73924">
        <ele>185.67</ele>
        <time>2016-04-03T13:15:32Z</time>
      </trkpt>
      <trkpt lat="43.80862" lon="3.74156">
        <ele>177.02</ele>
        <time>2016-04-03T13:15:46Z</time>
      </trkpt>
      <trkpt lat="43.8088" lon="3.74163">
        <ele>176.54</ele>
        <time>2016-04-03T13:15:47Z</time>
      </trkpt>
      <trkpt lat="43.80899" lon="3.74166">
        <ele>176.06</ele>
        <time>2016-04-03T13:15:48Z</time>
      </trkpt>
      <trkpt lat="43.80918" lon="3.74167">
        <ele>175.58</ele>
        <time>2016-04-03T13:15:49Z</time>
      </trkpt>
      <trkpt lat="43.80937" lon="3.74166">
        <ele>175.1</ele>
        <time>2016-04-03T13:15:50Z</time>
      </trkpt>
      <trkpt lat="43.80955" lon="3.74162">
        <ele>174.62</ele>
        <time>2016-04-03T13:15:51Z</time>
      </trkpt>
      <trkpt lat="43.80974" lon="3.74156">
        <ele>174.14</ele>
        <time>2016-04-03T13:15:52Z</time>
      </trkpt>
      <trkpt lat="43.80992" lon="3.7415">
        <ele>173.66</ele>
        <time>2016-04-03T13:15:53Z</time>
      </trkpt>
      <trkpt lat="43.81055" lon="3.7413">
        <ele>172.21</ele>
        <time>2016-04-03T13:15:57Z</time>
      </trkpt>
      <trkpt lat="43.8107" lon="3.7413">
        <ele>172.21</ele>
        <time>2016-04-03T13:15:58Z</time>
      </trkpt>
      <trkpt lat="43.81085" lon="3.74131">
        <ele>171.73</ele>
        <time>2016-04-03T13:15:59Z</time>
      </trkpt>
      <trkpt lat="43.81099" lon="3.74134">
        <ele>171.25</ele>
        <time>2016-04-03T13:16:00Z</time>
      </trkpt>
      <trkpt lat="43.81113" lon="3.74138">
        <ele>170.77</ele>
        <time>2016-04-03T13:16:01Z</time>
      </trkpt>
      <trkpt lat="43.81126" lon="3.74144">
        <ele>170.29</ele>
        <time>2016-04-03T13:16:02Z</time>
      </trkpt>
      <trkpt lat="43.81139" lon="3.74152">
        <ele>170.77</ele>
        <time>2016-04-03T13:16:03Z</time>
      </trkpt>
      <trkpt lat="43.81151" lon="3.74161">
        <ele>170.29</ele>
        <time>2016-04-03T13:16:04Z</time>
      </trkpt>
      <trkpt lat="43.81163" lon="3.74172">
        <ele>170.29</ele>
        <time>2016-04-03T13:16:05Z</time>
      </trkpt>
      <trkpt lat="43.81175" lon="3.74185">
        <ele>170.29</ele>
        <time>2016-04-03T13:16:06Z</time>
      </trkpt>
      <trkpt lat="43.81185" lon="3.74205">
        <ele>169.81</ele>
        <time>2016-04-03T13:16:07Z</time>
      </trkpt>
      <trkpt lat="43.81196" lon="3.74227">
        <ele>169.81</ele>
        <time>2016-04-03T13:16:08Z</time>
      </trkpt>
      <trkpt lat="43.81206" lon="3.74248">
        <ele>169.81</ele>
        <time>2016-04-03T13:16:09Z</time>
      </trkpt>
      <trkpt lat="43.81257" lon="3.7435">
        <ele>171.25</ele>
        <time>2016-04-03T13:16:15Z</time>
      </trkpt>
      <trkpt lat="43.81267" lon="3.74362">
        <ele>171.73</ele>
        <time>2016-04-03T13:16:16Z</time>
      </trkpt>
      <trkpt lat="43.81278" lon="3.74374">
        <ele>172.21</ele>
        <time>2016-04-03T13:16:17Z</time>
      </trkpt>
      <trkpt lat="43.81291" lon="3.74383">
        <ele>172.21</ele>
        <time>2016-04-03T13:16:18Z</time>
      </trkpt>
      <trkpt lat="43.81305" lon="3.74391">
        <ele>172.69</ele>
        <time>2016-04-03T13:16:19Z</time>
      </trkpt>
      <trkpt lat="43.81319" lon="3.74395">
        <ele>172.69</ele>
        <time>2016-04-03T13:16:20Z</time>
      </trkpt>
      <trkpt lat="43.81335" lon="3.74397">
        <ele>173.66</ele>
        <time>2016-04-03T13:16:21Z</time>
      </trkpt>
      <trkpt lat="43.81354" lon="3.74391">
        <ele>174.14</ele>
        <time>2016-04-03T13:16:22Z</time>
      </trkpt>
      <trkpt lat="43.81374" lon="3.74385">
        <ele>174.62</ele>
        <time>2016-04-03T13:16:23Z</time>
      </trkpt>
      <trkpt lat="43.81396" lon="3.74379">
        <ele>175.58</ele>
        <time>2016-04-03T13:16:24Z</time>
      </trkpt>
      <trkpt lat="43.8156" lon="3.74342">
        <ele>182.31</ele>
        <time>2016-04-03T13:16:32Z</time>
      </trkpt>
      <trkpt lat="43.81577" lon="3.74345">
        <ele>183.27</ele>
        <time>2016-04-03T13:16:33Z</time>
      </trkpt>
      <trkpt lat="43.81596" lon="3.74352">
        <ele>184.23</ele>
        <time>2016-04-03T13:16:34Z</time>
      </trkpt>
      <trkpt lat="43.81616" lon="3.74362">
        <ele>184.71</ele>
        <time>2016-04-03T13:16:35Z</time>
      </trkpt>
      <trkpt lat="43.81636" lon="3.74373">
        <ele>185.67</ele>
        <time>2016-04-03T13:16:36Z</time>
      </trkpt>
      <trkpt lat="43.81801" lon="3.74458">
        <ele>193.36</ele>
        <time>2016-04-03T13:16:44Z</time>
      </trkpt>
      <trkpt lat="43.81822" lon="3.74462">
        <ele>194.32</ele>
        <time>2016-04-03T13:16:45Z</time>
      </trkpt>
      <trkpt lat="43.81842" lon="3.74462">
        <ele>195.28</ele>
        <time>2016-04-03T13:16:46Z</time>
      </trkpt>
      <trkpt lat="43.81862" lon="3.7446">
        <ele>196.25</ele>
        <time>2016-04-03T13:16:47Z</time>
      </trkpt>
      <trkpt lat="43.81882" lon="3.74456">
        <ele>196.73</ele>
        <time>2016-04-03T13:16:48Z</time>
      </trkpt>
      <trkpt lat="43.81979" lon="3.74453">
        <ele>201.53</ele>
        <time>2016-04-03T13:16:53Z</time>
      </trkpt>
      <trkpt lat="43.82139" lon="3.74464">
        <ele>207.78</ele>
        <time>2016-04-03T13:17:00Z</time>
      </trkpt>
      <trkpt lat="43.82334" lon="3.74459">
        <ele>213.55</ele>
        <time>2016-04-03T13:17:09Z</time>
      </trkpt>
      <trkpt lat="43.82519" lon="3.74474">
        <ele>210.19</ele>
        <time>2016-04-03T13:17:16Z</time>
      </trkpt>
      <trkpt lat="43.82733" lon="3.74489">
        <ele>209.7</ele>
        <time>2016-04-03T13:17:24Z</time>
      </trkpt>
      <trkpt lat="43.83023" lon="3.74515">
        <ele>213.07</ele>
        <time>2016-04-03T13:17:37Z</time>
      </trkpt>
      <trkpt lat="43.83062" lon="3.74511">
        <ele>214.03</ele>
        <time>2016-04-03T13:17:39Z</time>
      </trkpt>
      <trkpt lat="43.8308" lon="3.74506">
        <ele>214.51</ele>
        <time>2016-04-03T13:17:40Z</time>
      </trkpt>
      <trkpt lat="43.83099" lon="3.74496">
        <ele>214.99</ele>
        <time>2016-04-03T13:17:41Z</time>
      </trkpt>
      <trkpt lat="43.83118" lon="3.74484">
        <ele>215.47</ele>
        <time>2016-04-03T13:17:42Z</time>
      </trkpt>
      <trkpt lat="43.83136" lon="3.74468">
        <ele>215.95</ele>
        <time>2016-04-03T13:17:43Z</time>
      </trkpt>
      <trkpt lat="43.83153" lon="3.74451">
        <ele>216.43</ele>
        <time>2016-04-03T13:17:44Z</time>
      </trkpt>
      <trkpt lat="43.83369" lon="3.74251">
        <ele>226.05</ele>
        <time>2016-04-03T13:17:56Z</time>
      </trkpt>
      <trkpt lat="43.83389" lon="3.74242">
        <ele>227.49</ele>
        <time>2016-04-03T13:17:57Z</time>
      </trkpt>
      <trkpt lat="43.83409" lon="3.74235">
        <ele>228.45</ele>
        <time>2016-04-03T13:17:58Z</time>
      </trkpt>
      <trkpt lat="43.8343" lon="3.74231">
        <ele>229.41</ele>
        <time>2016-04-03T13:17:59Z</time>
      </trkpt>
      <trkpt lat="43.83449" lon="3.7423">
        <ele>229.89</ele>
        <time>2016-04-03T13:18:00Z</time>
      </trkpt>
      <trkpt lat="43.83469" lon="3.74231">
        <ele>230.85</ele>
        <time>2016-04-03T13:18:01Z</time>
      </trkpt>
      <trkpt lat="43.83488" lon="3.74235">
        <ele>231.33</ele>
        <time>2016-04-03T13:18:02Z</time>
      </trkpt>
      <trkpt lat="43.83507" lon="3.74241">
        <ele>232.3</ele>
        <time>2016-04-03T13:18:03Z</time>
      </trkpt>
      <trkpt lat="43.83526" lon="3.74248">
        <ele>232.78</ele>
        <time>2016-04-03T13:18:04Z</time>
      </trkpt>
      <trkpt lat="43.83695" lon="3.74353">
        <ele>240.95</ele>
        <time>2016-04-03T13:18:13Z</time>
      </trkpt>
      <trkpt lat="43.83825" lon="3.74414">
        <ele>246.23</ele>
        <time>2016-04-03T13:18:20Z</time>
      </trkpt>
      <trkpt lat="43.83984" lon="3.74421">
        <ele>252.96</ele>
        <time>2016-04-03T13:18:27Z</time>
      </trkpt>
      <trkpt lat="43.84146" lon="3.7435">
        <ele>264.02</ele>
        <time>2016-04-03T13:18:34Z</time>
      </trkpt>
      <trkpt lat="43.8445" lon="3.74188">
        <ele>289.01</ele>
        <time>2016-04-03T13:18:47Z</time>
      </trkpt>
      <trkpt lat="43.84703" lon="3.74052">
        <ele>311.6</ele>
        <time>2016-04-03T13:18:57Z</time>
      </trkpt>
      <trkpt lat="43.84873" lon="3.73991">
        <ele>320.26</ele>
        <time>2016-04-03T13:19:04Z</time>
      </trkpt>
      <trkpt lat="43.8494" lon="3.73993">
        <ele>323.62</ele>
        <time>2016-04-03T13:19:07Z</time>
      </trkpt>
      <trkpt lat="43.84962" lon="3.73999">
        <ele>324.1</ele>
        <time>2016-04-03T13:19:08Z</time>
      </trkpt>
      <trkpt lat="43.84984" lon="3.74009">
        <ele>324.1</ele>
        <time>2016-04-03T13:19:09Z</time>
      </trkpt>
      <trkpt lat="43.85154" lon="3.741">
        <ele>321.22</ele>
        <time>2016-04-03T13:19:17Z</time>
      </trkpt>
      <trkpt lat="43.85316" lon="3.7418">
        <ele>308.24</ele>
        <time>2016-04-03T13:19:25Z</time>
      </trkpt>
      <trkpt lat="43.855" lon="3.74219">
        <ele>289.97</ele>
        <time>2016-04-03T13:19:33Z</time>
      </trkpt>
      <trkpt lat="43.85692" lon="3.742">
        <ele>271.71</ele>
        <time>2016-04-03T13:19:41Z</time>
      </trkpt>
      <trkpt lat="43.8584" lon="3.7418">
        <ele>259.21</ele>
        <time>2016-04-03T13:19:48Z</time>
      </trkpt>
      <trkpt lat="43.85959" lon="3.74219">
        <ele>248.64</ele>
        <time>2016-04-03T13:19:54Z</time>
      </trkpt>
      <trkpt lat="43.8609" lon="3.74307">
        <ele>235.66</ele>
        <time>2016-04-03T13:20:02Z</time>
      </trkpt>
      <trkpt lat="43.86203" lon="3.74315">
        <ele>225.09</ele>
        <time>2016-04-03T13:20:08Z</time>
      </trkpt>
      <trkpt lat="43.86222" lon="3.7431">
        <ele>223.16</ele>
        <time>2016-04-03T13:20:09Z</time>
      </trkpt>
      <trkpt lat="43.86241" lon="3.74302">
        <ele>221.72</ele>
        <time>2016-04-03T13:20:10Z</time>
      </trkpt>
      <trkpt lat="43.8626" lon="3.74293">
        <ele>219.8</ele>
        <time>2016-04-03T13:20:11Z</time>
      </trkpt>
      <trkpt lat="43.8628" lon="3.74281">
        <ele>218.36</ele>
        <time>2016-04-03T13:20:12Z</time>
      </trkpt>
      <trkpt lat="43.86299" lon="3.74267">
        <ele>216.91</ele>
        <time>2016-04-03T13:20:13Z</time>
      </trkpt>
      <trkpt lat="43.86318" lon="3.74252">
        <ele>215.95</ele>
        <time>2016-04-03T13:20:14Z</time>
      </trkpt>
      <trkpt lat="43.86492" lon="3.74123">
        <ele>210.19</ele>
        <time>2016-04-03T13:20:23Z</time>
      </trkpt>
      <trkpt lat="43.86634" lon="3.74035">
        <ele>206.34</ele>
        <time>2016-04-03T13:20:31Z</time>
      </trkpt>
      <trkpt lat="43.86654" lon="3.74031">
        <ele>205.86</ele>
        <time>2016-04-03T13:20:32Z</time>
      </trkpt>
      <trkpt lat="43.86676" lon="3.74029">
        <ele>205.38</ele>
        <time>2016-04-03T13:20:33Z</time>
      </trkpt>
      <trkpt lat="43.86698" lon="3.74029">
        <ele>204.42</ele>
        <time>2016-04-03T13:20:34Z</time>
      </trkpt>
      <trkpt lat="43.86721" lon="3.74031">
        <ele>203.94</ele>
        <time>2016-04-03T13:20:35Z</time>
      </trkpt>
      <trkpt lat="43.86743" lon="3.74037">
        <ele>202.98</ele>
        <time>2016-04-03T13:20:36Z</time>
      </trkpt>
      <trkpt lat="43.86764" lon="3.74045">
        <ele>202.49</ele>
        <time>2016-04-03T13:20:37Z</time>
      </trkpt>
      <trkpt lat="43.86785" lon="3.74056">
        <ele>201.53</ele>
        <time>2016-04-03T13:20:38Z</time>
      </trkpt>
      <trkpt lat="43.86806" lon="3.74068">
        <ele>200.57</ele>
        <time>2016-04-03T13:20:39Z</time>
      </trkpt>
      <trkpt lat="43.86825" lon="3.74082">
        <ele>199.61</ele>
        <time>2016-04-03T13:20:40Z</time>
      </trkpt>
      <trkpt lat="43.87041" lon="3.74205">
        <ele>189.52</ele>
        <time>2016-04-03T13:20:51Z</time>
      </trkpt>
      <trkpt lat="43.87232" lon="3.7425">
        <ele>183.27</ele>
        <time>2016-04-03T13:21:00Z</time>
      </trkpt>
      <trkpt lat="43.87428" lon="3.74227">
        <ele>178.94</ele>
        <time>2016-04-03T13:21:09Z</time>
      </trkpt>
      <trkpt lat="43.87572" lon="3.74189">
        <ele>176.54</ele>
        <time>2016-04-03T13:21:17Z</time>
      </trkpt>
      <trkpt lat="43.87664" lon="3.7421">
        <ele>175.1</ele>
        <time>2016-04-03T13:21:22Z</time>
      </trkpt>
      <trkpt lat="43.87682" lon="3.74221">
        <ele>175.1</ele>
        <time>2016-04-03T13:21:23Z</time>
      </trkpt>
      <trkpt lat="43.87699" lon="3.74235">
        <ele>174.62</ele>
        <time>2016-04-03T13:21:24Z</time>
      </trkpt>
      <trkpt lat="43.87715" lon="3.7425">
        <ele>174.14</ele>
        <time>2016-04-03T13:21:25Z</time>
      </trkpt>
      <trkpt lat="43.8773" lon="3.74268">
        <ele>173.66</ele>
        <time>2016-04-03T13:21:26Z</time>
      </trkpt>
      <trkpt lat="43.87744" lon="3.74286">
        <ele>173.17</ele>
        <time>2016-04-03T13:21:27Z</time>
      </trkpt>
      <trkpt lat="43.87756" lon="3.74306">
        <ele>172.69</ele>
        <time>2016-04-03T13:21:28Z</time>
      </trkpt>
      <trkpt lat="43.87767" lon="3.74327">
        <ele>172.21</ele>
        <time>2016-04-03T13:21:29Z</time>
      </trkpt>
      <trkpt lat="43.87777" lon="3.74349">
        <ele>171.73</ele>
        <time>2016-04-03T13:21:30Z</time>
      </trkpt>
      <trkpt lat="43.87832" lon="3.74444">
        <ele>167.89</ele>
        <time>2016-04-03T13:21:35Z</time>
      </trkpt>
      <trkpt lat="43.87846" lon="3.74458">
        <ele>167.41</ele>
        <time>2016-04-03T13:21:36Z</time>
      </trkpt>
      <trkpt lat="43.87861" lon="3.7447">
        <ele>166.45</ele>
        <time>2016-04-03T13:21:37Z</time>
      </trkpt>
      <trkpt lat="43.87876" lon="3.7448">
        <ele>165.96</ele>
        <time>2016-04-03T13:21:38Z</time>
      </trkpt>
      <trkpt lat="43.87892" lon="3.74487">
        <ele>165</ele>
        <time>2016-04-03T13:21:39Z</time>
      </trkpt>
      <trkpt lat="43.87908" lon="3.74493">
        <ele>164.52</ele>
        <time>2016-04-03T13:21:40Z</time>
      </trkpt>
      <trkpt lat="43.87925" lon="3.74497">
        <ele>164.04</ele>
        <time>2016-04-03T13:21:41Z</time>
      </trkpt>
      <trkpt lat="43.87942" lon="3.74498">
        <ele>163.56</ele>
        <time>2016-04-03T13:21:42Z</time>
      </trkpt>
      <trkpt lat="43.87959" lon="3.74498">
        <ele>163.08</ele>
        <time>2016-04-03T13:21:43Z</time>
      </trkpt>
      <trkpt lat="43.87978" lon="3.74496">
        <ele>162.6</ele>
        <time>2016-04-03T13:21:44Z</time>
      </trkpt>
      <trkpt lat="43.87998" lon="3.74492">
        <ele>161.64</ele>
        <time>2016-04-03T13:21:45Z</time>
      </trkpt>
      <trkpt lat="43.88019" lon="3.74487">
        <ele>160.68</ele>
        <time>2016-04-03T13:21:46Z</time>
      </trkpt>
      <trkpt lat="43.88155" lon="3.74421">
        <ele>154.91</ele>
        <time>2016-04-03T13:21:53Z</time>
      </trkpt>
      <trkpt lat="43.88263" lon="3.74294">
        <ele>150.58</ele>
        <time>2016-04-03T13:22:00Z</time>
      </trkpt>
      <trkpt lat="43.88386" lon="3.74104">
        <ele>144.34</ele>
        <time>2016-04-03T13:22:09Z</time>
      </trkpt>
      <trkpt lat="43.88495" lon="3.74043">
        <ele>140.97</ele>
        <time>2016-04-03T13:22:15Z</time>
      </trkpt>
      <trkpt lat="43.88622" lon="3.74044">
        <ele>136.64</ele>
        <time>2016-04-03T13:22:21Z</time>
      </trkpt>
      <trkpt lat="43.88735" lon="3.74059">
        <ele>132.32</ele>
        <time>2016-04-03T13:22:28Z</time>
      </trkpt>
      <trkpt lat="43.88839" lon="3.74021">
        <ele>128.95</ele>
        <time>2016-04-03T13:22:36Z</time>
      </trkpt>
      <trkpt lat="43.88896" lon="3.73989">
        <ele>127.51</ele>
        <time>2016-04-03T13:22:43Z</time>
      </trkpt>
      <trkpt lat="43.8893" lon="3.73967">
        <ele>127.51</ele>
        <time>2016-04-03T13:22:50Z</time>
      </trkpt>
      <trkpt lat="43.88935" lon="3.73965">
        <ele>127.51</ele>
        <time>2016-04-03T13:22:51Z</time>
      </trkpt>
      <trkpt lat="43.89" lon="3.73945">
        <ele>127.51</ele>
        <time>2016-04-03T13:22:58Z</time>
      </trkpt>
      <trkpt lat="43.89106" lon="3.73911">
        <ele>128.47</ele>
        <time>2016-04-03T13:23:09Z</time>
      </trkpt>
      <trkpt lat="43.89236" lon="3.73871">
        <ele>130.4</ele>
        <time>2016-04-03T13:23:21Z</time>
      </trkpt>
      <trkpt lat="43.89367" lon="3.73829">
        <ele>133.76</ele>
        <time>2016-04-03T13:23:33Z</time>
      </trkpt>
      <trkpt lat="43.89475" lon="3.73794">
        <ele>136.64</ele>
        <time>2016-04-03T13:23:44Z</time>
      </trkpt>
      <trkpt lat="43.89572" lon="3.73764">
        <ele>137.61</ele>
        <time>2016-04-03T13:23:55Z</time>
      </trkpt>
      <trkpt lat="43.89674" lon="3.73734">
        <ele>137.13</ele>
        <time>2016-04-03T13:24:07Z</time>
      </trkpt>
      <trkpt lat="43.89785" lon="3.73699">
        <ele>135.68</ele>
        <time>2016-04-03T13:24:18Z</time>
      </trkpt>
      <trkpt lat="43.89877" lon="3.73672">
        <ele>134.24</ele>
        <time>2016-04-03T13:24:27Z</time>
      </trkpt>
      <trkpt lat="43.89885" lon="3.73673">
        <ele>134.24</ele>
        <time>2016-04-03T13:24:28Z</time>
      </trkpt>
      <trkpt lat="43.89892" lon="3.73675">
        <ele>134.24</ele>
        <time>2016-04-03T13:24:29Z</time>
      </trkpt>
      <trkpt lat="43.89899" lon="3.73679">
        <ele>133.76</ele>
        <time>2016-04-03T13:24:30Z</time>
      </trkpt>
      <trkpt lat="43.89906" lon="3.73684">
        <ele>134.24</ele>
        <time>2016-04-03T13:24:31Z</time>
      </trkpt>
      <trkpt lat="43.89914" lon="3.73688">
        <ele>134.24</ele>
        <time>2016-04-03T13:24:32Z</time>
      </trkpt>
      <trkpt lat="43.89923" lon="3.73688">
        <ele>134.24</ele>
        <time>2016-04-03T13:24:33Z</time>
      </trkpt>
      <trkpt lat="43.89933" lon="3.73688">
        <ele>134.24</ele>
        <time>2016-04-03T13:24:34Z</time>
      </trkpt>
      <trkpt lat="43.89944" lon="3.73688">
        <ele>134.72</ele>
        <time>2016-04-03T13:24:35Z</time>
      </trkpt>
      <trkpt lat="43.89957" lon="3.73691">
        <ele>134.72</ele>
        <time>2016-04-03T13:24:36Z</time>
      </trkpt>
      <trkpt lat="43.90045" lon="3.73714">
        <ele>133.76</ele>
        <time>2016-04-03T13:24:45Z</time>
      </trkpt>
      <trkpt lat="43.90128" lon="3.73736">
        <ele>134.72</ele>
        <time>2016-04-03T13:24:53Z</time>
      </trkpt>
      <trkpt lat="43.90203" lon="3.73757">
        <ele>136.16</ele>
        <time>2016-04-03T13:25:01Z</time>
      </trkpt>
      <trkpt lat="43.90324" lon="3.73787">
        <ele>137.13</ele>
        <time>2016-04-03T13:25:13Z</time>
      </trkpt>
      <trkpt lat="43.90417" lon="3.73805">
        <ele>137.13</ele>
        <time>2016-04-03T13:25:22Z</time>
      </trkpt>
      <trkpt lat="43.90429" lon="3.73802">
        <ele>137.13</ele>
        <time>2016-04-03T13:25:23Z</time>
      </trkpt>
      <trkpt lat="43.90552" lon="3.73767">
        <ele>139.53</ele>
        <time>2016-04-03T13:25:34Z</time>
      </trkpt>
      <trkpt lat="43.90676" lon="3.73755">
        <ele>138.09</ele>
        <time>2016-04-03T13:25:43Z</time>
      </trkpt>
      <trkpt lat="43.9078" lon="3.73773">
        <ele>137.13</ele>
        <time>2016-04-03T13:25:51Z</time>
      </trkpt>
      <trkpt lat="43.90839" lon="3.73778">
        <ele>135.2</ele>
        <time>2016-04-03T13:25:56Z</time>
      </trkpt>
      <trkpt lat="43.90851" lon="3.73776">
        <ele>135.2</ele>
        <time>2016-04-03T13:25:57Z</time>
      </trkpt>
      <trkpt lat="43.90864" lon="3.7377">
        <ele>135.2</ele>
        <time>2016-04-03T13:25:58Z</time>
      </trkpt>
      <trkpt lat="43.90877" lon="3.73762">
        <ele>135.2</ele>
        <time>2016-04-03T13:25:59Z</time>
      </trkpt>
      <trkpt lat="43.9089" lon="3.73752">
        <ele>135.2</ele>
        <time>2016-04-03T13:26:00Z</time>
      </trkpt>
      <trkpt lat="43.90902" lon="3.73742">
        <ele>135.2</ele>
        <time>2016-04-03T13:26:01Z</time>
      </trkpt>
      <trkpt lat="43.91019" lon="3.73661">
        <ele>134.24</ele>
        <time>2016-04-03T13:26:10Z</time>
      </trkpt>
      <trkpt lat="43.91035" lon="3.73655">
        <ele>134.24</ele>
        <time>2016-04-03T13:26:11Z</time>
      </trkpt>
      <trkpt lat="43.91053" lon="3.73652">
        <ele>134.24</ele>
        <time>2016-04-03T13:26:12Z</time>
      </trkpt>
      <trkpt lat="43.91071" lon="3.73651">
        <ele>134.24</ele>
        <time>2016-04-03T13:26:13Z</time>
      </trkpt>
      <trkpt lat="43.9109" lon="3.73651">
        <ele>135.2</ele>
        <time>2016-04-03T13:26:14Z</time>
      </trkpt>
      <trkpt lat="43.91109" lon="3.73654">
        <ele>136.16</ele>
        <time>2016-04-03T13:26:15Z</time>
      </trkpt>
      <trkpt lat="43.91196" lon="3.7369">
        <ele>138.09</ele>
        <time>2016-04-03T13:26:21Z</time>
      </trkpt>
      <trkpt lat="43.91295" lon="3.73782">
        <ele>139.53</ele>
        <time>2016-04-03T13:26:30Z</time>
      </trkpt>
      <trkpt lat="43.91316" lon="3.73799">
        <ele>138.09</ele>
        <time>2016-04-03T13:26:32Z</time>
      </trkpt>
      <trkpt lat="43.91328" lon="3.73806">
        <ele>138.09</ele>
        <time>2016-04-03T13:26:33Z</time>
      </trkpt>
      <trkpt lat="43.91341" lon="3.7381">
        <ele>138.09</ele>
        <time>2016-04-03T13:26:34Z</time>
      </trkpt>
      <trkpt lat="43.91355" lon="3.73812">
        <ele>137.61</ele>
        <time>2016-04-03T13:26:35Z</time>
      </trkpt>
      <trkpt lat="43.91369" lon="3.73814">
        <ele>137.13</ele>
        <time>2016-04-03T13:26:36Z</time>
      </trkpt>
      <trkpt lat="43.91382" lon="3.73811">
        <ele>136.64</ele>
        <time>2016-04-03T13:26:37Z</time>
      </trkpt>
      <trkpt lat="43.91396" lon="3.73808">
        <ele>136.16</ele>
        <time>2016-04-03T13:26:38Z</time>
      </trkpt>
      <trkpt lat="43.9141" lon="3.73802">
        <ele>136.16</ele>
        <time>2016-04-03T13:26:39Z</time>
      </trkpt>
      <trkpt lat="43.91423" lon="3.73795">
        <ele>135.2</ele>
        <time>2016-04-03T13:26:40Z</time>
      </trkpt>
      <trkpt lat="43.91436" lon="3.73786">
        <ele>134.72</ele>
        <time>2016-04-03T13:26:41Z</time>
      </trkpt>
      <trkpt lat="43.91508" lon="3.73732">
        <ele>138.09</ele>
        <time>2016-04-03T13:26:47Z</time>
      </trkpt>
      <trkpt lat="43.91518" lon="3.73721">
        <ele>138.09</ele>
        <time>2016-04-03T13:26:48Z</time>
      </trkpt>
      <trkpt lat="43.91527" lon="3.73706">
        <ele>137.61</ele>
        <time>2016-04-03T13:26:49Z</time>
      </trkpt>
      <trkpt lat="43.91601" lon="3.73575">
        <ele>136.64</ele>
        <time>2016-04-03T13:26:57Z</time>
      </trkpt>
      <trkpt lat="43.91674" lon="3.7338">
        <ele>134.72</ele>
        <time>2016-04-03T13:27:09Z</time>
      </trkpt>
      <trkpt lat="43.91677" lon="3.73362">
        <ele>134.72</ele>
        <time>2016-04-03T13:27:10Z</time>
      </trkpt>
      <trkpt lat="43.9168" lon="3.73343">
        <ele>134.72</ele>
        <time>2016-04-03T13:27:11Z</time>
      </trkpt>
      <trkpt lat="43.91691" lon="3.73223">
        <ele>133.76</ele>
        <time>2016-04-03T13:27:17Z</time>
      </trkpt>
      <trkpt lat="43.9169" lon="3.73205">
        <ele>133.76</ele>
        <time>2016-04-03T13:27:18Z</time>
      </trkpt>
      <trkpt lat="43.91688" lon="3.73187">
        <ele>133.76</ele>
        <time>2016-04-03T13:27:19Z</time>
      </trkpt>
      <trkpt lat="43.91641" lon="3.72988">
        <ele>134.72</ele>
        <time>2016-04-03T13:27:29Z</time>
      </trkpt>
      <trkpt lat="43.91597" lon="3.72872">
        <ele>135.2</ele>
        <time>2016-04-03T13:27:37Z</time>
      </trkpt>
      <trkpt lat="43.91575" lon="3.72819">
        <ele>135.2</ele>
        <time>2016-04-03T13:27:42Z</time>
      </trkpt>
      <trkpt lat="43.91573" lon="3.72805">
        <ele>135.2</ele>
        <time>2016-04-03T13:27:43Z</time>
      </trkpt>
      <trkpt lat="43.91575" lon="3.72792">
        <ele>135.68</ele>
        <time>2016-04-03T13:27:44Z</time>
      </trkpt>
      <trkpt lat="43.91581" lon="3.72779">
        <ele>135.68</ele>
        <time>2016-04-03T13:27:45Z</time>
      </trkpt>
      <trkpt lat="43.91591" lon="3.72768">
        <ele>136.16</ele>
        <time>2016-04-03T13:27:46Z</time>
      </trkpt>
      <trkpt lat="43.91602" lon="3.72761">
        <ele>137.13</ele>
        <time>2016-04-03T13:27:47Z</time>
      </trkpt>
      <trkpt lat="43.91617" lon="3.7276">
        <ele>137.61</ele>
        <time>2016-04-03T13:27:48Z</time>
      </trkpt>
      <trkpt lat="43.91634" lon="3.72761">
        <ele>139.05</ele>
        <time>2016-04-03T13:27:49Z</time>
      </trkpt>
      <trkpt lat="43.9165" lon="3.72765">
        <ele>140.01</ele>
        <time>2016-04-03T13:27:50Z</time>
      </trkpt>
      <trkpt lat="43.91666" lon="3.72768">
        <ele>141.45</ele>
        <time>2016-04-03T13:27:51Z</time>
      </trkpt>
      <trkpt lat="43.91679" lon="3.72772">
        <ele>141.93</ele>
        <time>2016-04-03T13:27:52Z</time>
      </trkpt>
      <trkpt lat="43.91766" lon="3.7279">
        <ele>143.37</ele>
        <time>2016-04-03T13:28:00Z</time>
      </trkpt>
      <trkpt lat="43.91776" lon="3.72789">
        <ele>143.37</ele>
        <time>2016-04-03T13:28:01Z</time>
      </trkpt>
      <trkpt lat="43.91787" lon="3.72787">
        <ele>142.89</ele>
        <time>2016-04-03T13:28:02Z</time>
      </trkpt>
      <trkpt lat="43.91799" lon="3.72782">
        <ele>142.89</ele>
        <time>2016-04-03T13:28:03Z</time>
      </trkpt>
      <trkpt lat="43.9181" lon="3.72775">
        <ele>142.41</ele>
        <time>2016-04-03T13:28:04Z</time>
      </trkpt>
      <trkpt lat="43.91821" lon="3.72767">
        <ele>141.93</ele>
        <time>2016-04-03T13:28:05Z</time>
      </trkpt>
      <trkpt lat="43.91831" lon="3.72758">
        <ele>141.45</ele>
        <time>2016-04-03T13:28:06Z</time>
      </trkpt>
      <trkpt lat="43.91841" lon="3.72748">
        <ele>140.97</ele>
        <time>2016-04-03T13:28:07Z</time>
      </trkpt>
      <trkpt lat="43.9185" lon="3.72736">
        <ele>140.97</ele>
        <time>2016-04-03T13:28:08Z</time>
      </trkpt>
      <trkpt lat="43.91858" lon="3.72723">
        <ele>140.97</ele>
        <time>2016-04-03T13:28:09Z</time>
      </trkpt>
      <trkpt lat="43.91865" lon="3.72709">
        <ele>140.97</ele>
        <time>2016-04-03T13:28:10Z</time>
      </trkpt>
      <trkpt lat="43.91912" lon="3.72639">
        <ele>140.49</ele>
        <time>2016-04-03T13:28:16Z</time>
      </trkpt>
      <trkpt lat="43.91923" lon="3.7263">
        <ele>140.49</ele>
        <time>2016-04-03T13:28:17Z</time>
      </trkpt>
      <trkpt lat="43.91934" lon="3.72622">
        <ele>140.01</ele>
        <time>2016-04-03T13:28:18Z</time>
      </trkpt>
      <trkpt lat="43.92027" lon="3.72563">
        <ele>140.01</ele>
        <time>2016-04-03T13:28:28Z</time>
      </trkpt>
      <trkpt lat="43.92042" lon="3.72554">
        <ele>140.49</ele>
        <time>2016-04-03T13:28:30Z</time>
      </trkpt>
      <trkpt lat="43.92051" lon="3.72551">
        <ele>140.01</ele>
        <time>2016-04-03T13:28:31Z</time>
      </trkpt>
      <trkpt lat="43.9206" lon="3.72551">
        <ele>140.01</ele>
        <time>2016-04-03T13:28:32Z</time>
      </trkpt>
      <trkpt lat="43.92069" lon="3.72553">
        <ele>140.01</ele>
        <time>2016-04-03T13:28:33Z</time>
      </trkpt>
      <trkpt lat="43.92078" lon="3.72557">
        <ele>140.01</ele>
        <time>2016-04-03T13:28:34Z</time>
      </trkpt>
      <trkpt lat="43.92088" lon="3.72561">
        <ele>140.49</ele>
        <time>2016-04-03T13:28:35Z</time>
      </trkpt>
      <trkpt lat="43.92098" lon="3.72564">
        <ele>140.49</ele>
        <time>2016-04-03T13:28:36Z</time>
      </trkpt>
      <trkpt lat="43.92108" lon="3.72565">
        <ele>140.49</ele>
        <time>2016-04-03T13:28:37Z</time>
      </trkpt>
      <trkpt lat="43.92118" lon="3.72564">
        <ele>140.49</ele>
        <time>2016-04-03T13:28:38Z</time>
      </trkpt>
      <trkpt lat="43.92127" lon="3.7256">
        <ele>140.49</ele>
        <time>2016-04-03T13:28:39Z</time>
      </trkpt>
      <trkpt lat="43.92134" lon="3.72555">
        <ele>140.49</ele>
        <time>2016-04-03T13:28:40Z</time>
      </trkpt>
      <trkpt lat="43.9214" lon="3.72549">
        <ele>140.49</ele>
        <time>2016-04-03T13:28:41Z</time>
      </trkpt>
      <trkpt lat="43.92146" lon="3.72544">
        <ele>140.49</ele>
        <time>2016-04-03T13:28:42Z</time>
      </trkpt>
      <trkpt lat="43.92173" lon="3.72511">
        <ele>139.05</ele>
        <time>2016-04-03T13:28:48Z</time>
      </trkpt>
      <trkpt lat="43.92194" lon="3.72457">
        <ele>138.57</ele>
        <time>2016-04-03T13:28:58Z</time>
      </trkpt>
      <trkpt lat="43.92195" lon="3.7245">
        <ele>139.05</ele>
        <time>2016-04-03T13:28:59Z</time>
      </trkpt>
      <trkpt lat="43.92205" lon="3.72367">
        <ele>140.49</ele>
        <time>2016-04-03T13:29:08Z</time>
      </trkpt>
      <trkpt lat="43.9221" lon="3.72349">
        <ele>140.01</ele>
        <time>2016-04-03T13:29:10Z</time>
      </trkpt>
      <trkpt lat="43.92216" lon="3.72333">
        <ele>139.53</ele>
        <time>2016-04-03T13:29:12Z</time>
      </trkpt>
      <trkpt lat="43.9222" lon="3.72326">
        <ele>139.53</ele>
        <time>2016-04-03T13:29:13Z</time>
      </trkpt>
      <trkpt lat="43.92224" lon="3.7232">
        <ele>139.05</ele>
        <time>2016-04-03T13:29:14Z</time>
      </trkpt>
      <trkpt lat="43.92228" lon="3.72314">
        <ele>139.05</ele>
        <time>2016-04-03T13:29:15Z</time>
      </trkpt>
      <trkpt lat="43.92231" lon="3.72308">
        <ele>138.57</ele>
        <time>2016-04-03T13:29:16Z</time>
      </trkpt>
      <trkpt lat="43.92245" lon="3.72292">
        <ele>139.05</ele>
        <time>2016-04-03T13:29:19Z</time>
      </trkpt>
      <trkpt lat="43.9225" lon="3.72288">
        <ele>139.05</ele>
        <time>2016-04-03T13:29:20Z</time>
      </trkpt>
      <trkpt lat="43.92255" lon="3.72286">
        <ele>139.53</ele>
        <time>2016-04-03T13:29:21Z</time>
      </trkpt>
      <trkpt lat="43.92261" lon="3.72284">
        <ele>140.01</ele>
        <time>2016-04-03T13:29:22Z</time>
      </trkpt>
      <trkpt lat="43.92267" lon="3.72283">
        <ele>140.01</ele>
        <time>2016-04-03T13:29:23Z</time>
      </trkpt>
      <trkpt lat="43.92329" lon="3.72262">
        <ele>140.01</ele>
        <time>2016-04-03T13:29:31Z</time>
      </trkpt>
      <trkpt lat="43.92338" lon="3.72255">
        <ele>140.49</ele>
        <time>2016-04-03T13:29:32Z</time>
      </trkpt>
      <trkpt lat="43.92365" lon="3.72227">
        <ele>140.01</ele>
        <time>2016-04-03T13:29:35Z</time>
      </trkpt>
      <trkpt lat="43.92372" lon="3.72216">
        <ele>139.53</ele>
        <time>2016-04-03T13:29:36Z</time>
      </trkpt>
      <trkpt lat="43.92406" lon="3.72144">
        <ele>138.09</ele>
        <time>2016-04-03T13:29:44Z</time>
      </trkpt>
      <trkpt lat="43.92416" lon="3.72125">
        <ele>136.64</ele>
        <time>2016-04-03T13:29:57Z</time>
      </trkpt>
      <trkpt lat="43.92434" lon="3.72097">
        <ele>139.53</ele>
        <time>2016-04-03T13:30:27Z</time>
      </trkpt>
      <trkpt lat="43.92481" lon="3.72009">
        <ele>140.49</ele>
        <time>2016-04-03T13:30:34Z</time>
      </trkpt>
      <trkpt lat="43.9253" lon="3.71861">
        <ele>142.41</ele>
        <time>2016-04-03T13:30:42Z</time>
      </trkpt>
      <trkpt lat="43.92569" lon="3.71721">
        <ele>142.89</ele>
        <time>2016-04-03T13:30:51Z</time>
      </trkpt>
      <trkpt lat="43.92629" lon="3.716">
        <ele>143.37</ele>
        <time>2016-04-03T13:31:00Z</time>
      </trkpt>
      <trkpt lat="43.92651" lon="3.71569">
        <ele>143.85</ele>
        <time>2016-04-03T13:31:03Z</time>
      </trkpt>
      <trkpt lat="43.9266" lon="3.7156">
        <ele>143.85</ele>
        <time>2016-04-03T13:31:04Z</time>
      </trkpt>
      <trkpt lat="43.92671" lon="3.71551">
        <ele>144.34</ele>
        <time>2016-04-03T13:31:05Z</time>
      </trkpt>
      <trkpt lat="43.92767" lon="3.71469">
        <ele>145.3</ele>
        <time>2016-04-03T13:31:12Z</time>
      </trkpt>
      <trkpt lat="43.92862" lon="3.71395">
        <ele>146.74</ele>
        <time>2016-04-03T13:31:20Z</time>
      </trkpt>
      <trkpt lat="43.92931" lon="3.71341">
        <ele>147.7</ele>
        <time>2016-04-03T13:31:28Z</time>
      </trkpt>
      <trkpt lat="43.93019" lon="3.7127">
        <ele>148.18</ele>
        <time>2016-04-03T13:31:37Z</time>
      </trkpt>
      <trkpt lat="43.93101" lon="3.71204">
        <ele>148.66</ele>
        <time>2016-04-03T13:31:45Z</time>
      </trkpt>
      <trkpt lat="43.93209" lon="3.71119">
        <ele>149.14</ele>
        <time>2016-04-03T13:31:58Z</time>
      </trkpt>
      <trkpt lat="43.93219" lon="3.71117">
        <ele>148.66</ele>
        <time>2016-04-03T13:31:59Z</time>
      </trkpt>
      <trkpt lat="43.93228" lon="3.71119">
        <ele>148.66</ele>
        <time>2016-04-03T13:32:00Z</time>
      </trkpt>
      <trkpt lat="43.93237" lon="3.71121">
        <ele>148.66</ele>
        <time>2016-04-03T13:32:01Z</time>
      </trkpt>
      <trkpt lat="43.93246" lon="3.71121">
        <ele>148.66</ele>
        <time>2016-04-03T13:32:02Z</time>
      </trkpt>
      <trkpt lat="43.93252" lon="3.71114">
        <ele>148.66</ele>
        <time>2016-04-03T13:32:03Z</time>
      </trkpt>
      <trkpt lat="43.93256" lon="3.71104">
        <ele>148.66</ele>
        <time>2016-04-03T13:32:04Z</time>
      </trkpt>
      <trkpt lat="43.93258" lon="3.71093">
        <ele>148.66</ele>
        <time>2016-04-03T13:32:05Z</time>
      </trkpt>
      <trkpt lat="43.93256" lon="3.71084">
        <ele>148.66</ele>
        <time>2016-04-03T13:32:06Z</time>
      </trkpt>
      <trkpt lat="43.93249" lon="3.71075">
        <ele>147.7</ele>
        <time>2016-04-03T13:32:07Z</time>
      </trkpt>
      <trkpt lat="43.93243" lon="3.71067">
        <ele>147.7</ele>
        <time>2016-04-03T13:32:08Z</time>
      </trkpt>
      <trkpt lat="43.93234" lon="3.71061">
        <ele>147.7</ele>
        <time>2016-04-03T13:32:09Z</time>
      </trkpt>
      <trkpt lat="43.93226" lon="3.71056">
        <ele>147.22</ele>
        <time>2016-04-03T13:32:10Z</time>
      </trkpt>
      <trkpt lat="43.93217" lon="3.71047">
        <ele>147.22</ele>
        <time>2016-04-03T13:32:11Z</time>
      </trkpt>
      <trkpt lat="43.93211" lon="3.71034">
        <ele>146.26</ele>
        <time>2016-04-03T13:32:12Z</time>
      </trkpt>
      <trkpt lat="43.93204" lon="3.71021">
        <ele>146.26</ele>
        <time>2016-04-03T13:32:13Z</time>
      </trkpt>
      <trkpt lat="43.93142" lon="3.70913">
        <ele>143.85</ele>
        <time>2016-04-03T13:32:19Z</time>
      </trkpt>
      <trkpt lat="43.93054" lon="3.70772">
        <ele>144.82</ele>
        <time>2016-04-03T13:32:27Z</time>
      </trkpt>
      <trkpt lat="43.93048" lon="3.70756">
        <ele>145.3</ele>
        <time>2016-04-03T13:32:28Z</time>
      </trkpt>
      <trkpt lat="43.93042" lon="3.70738">
        <ele>145.3</ele>
        <time>2016-04-03T13:32:29Z</time>
      </trkpt>
      <trkpt lat="43.93038" lon="3.70718">
        <ele>145.3</ele>
        <time>2016-04-03T13:32:30Z</time>
      </trkpt>
      <trkpt lat="43.93035" lon="3.70697">
        <ele>145.3</ele>
        <time>2016-04-03T13:32:31Z</time>
      </trkpt>
      <trkpt lat="43.93033" lon="3.70676">
        <ele>145.78</ele>
        <time>2016-04-03T13:32:32Z</time>
      </trkpt>
      <trkpt lat="43.93033" lon="3.70656">
        <ele>145.78</ele>
        <time>2016-04-03T13:32:33Z</time>
      </trkpt>
      <trkpt lat="43.93034" lon="3.70637">
        <ele>145.78</ele>
        <time>2016-04-03T13:32:34Z</time>
      </trkpt>
      <trkpt lat="43.93036" lon="3.7062">
        <ele>146.26</ele>
        <time>2016-04-03T13:32:35Z</time>
      </trkpt>
      <trkpt lat="43.93038" lon="3.70606">
        <ele>146.26</ele>
        <time>2016-04-03T13:32:36Z</time>
      </trkpt>
      <trkpt lat="43.9304" lon="3.70594">
        <ele>146.74</ele>
        <time>2016-04-03T13:32:37Z</time>
      </trkpt>
      <trkpt lat="43.93043" lon="3.70586">
        <ele>146.74</ele>
        <time>2016-04-03T13:32:38Z</time>
      </trkpt>
      <trkpt lat="43.93045" lon="3.70578">
        <ele>146.74</ele>
        <time>2016-04-03T13:32:39Z</time>
      </trkpt>
      <trkpt lat="43.93048" lon="3.70572">
        <ele>146.74</ele>
        <time>2016-04-03T13:32:40Z</time>
      </trkpt>
      <trkpt lat="43.93053" lon="3.70564">
        <ele>146.74</ele>
        <time>2016-04-03T13:32:41Z</time>
      </trkpt>
      <trkpt lat="43.93057" lon="3.70555">
        <ele>146.74</ele>
        <time>2016-04-03T13:32:42Z</time>
      </trkpt>
      <trkpt lat="43.93061" lon="3.70546">
        <ele>146.74</ele>
        <time>2016-04-03T13:32:43Z</time>
      </trkpt>
      <trkpt lat="43.93059" lon="3.70536">
        <ele>146.74</ele>
        <time>2016-04-03T13:32:44Z</time>
      </trkpt>
      <trkpt lat="43.93055" lon="3.70527">
        <ele>146.74</ele>
        <time>2016-04-03T13:32:45Z</time>
      </trkpt>
      <trkpt lat="43.93049" lon="3.70521">
        <ele>146.26</ele>
        <time>2016-04-03T13:32:46Z</time>
      </trkpt>
      <trkpt lat="43.93042" lon="3.70521">
        <ele>146.26</ele>
        <time>2016-04-03T13:32:47Z</time>
      </trkpt>
      <trkpt lat="43.93034" lon="3.70523">
        <ele>146.26</ele>
        <time>2016-04-03T13:32:48Z</time>
      </trkpt>
      <trkpt lat="43.93027" lon="3.70529">
        <ele>146.26</ele>
        <time>2016-04-03T13:32:49Z</time>
      </trkpt>
      <trkpt lat="43.93022" lon="3.70539">
        <ele>145.78</ele>
        <time>2016-04-03T13:32:50Z</time>
      </trkpt>
      <trkpt lat="43.93019" lon="3.70549">
        <ele>145.78</ele>
        <time>2016-04-03T13:32:51Z</time>
      </trkpt>
      <trkpt lat="43.93016" lon="3.70559">
        <ele>145.78</ele>
        <time>2016-04-03T13:32:52Z</time>
      </trkpt>
      <trkpt lat="43.93013" lon="3.7057">
        <ele>145.78</ele>
        <time>2016-04-03T13:32:53Z</time>
      </trkpt>
      <trkpt lat="43.93011" lon="3.70579">
        <ele>146.26</ele>
        <time>2016-04-03T13:32:54Z</time>
      </trkpt>
      <trkpt lat="43.9301" lon="3.70588">
        <ele>146.26</ele>
        <time>2016-04-03T13:32:55Z</time>
      </trkpt>
      <trkpt lat="43.9301" lon="3.70595">
        <ele>146.26</ele>
        <time>2016-04-03T13:32:56Z</time>
      </trkpt>
      <trkpt lat="43.93004" lon="3.70625">
        <ele>147.7</ele>
        <time>2016-04-03T13:33:02Z</time>
      </trkpt>
      <trkpt lat="43.93005" lon="3.70631">
        <ele>147.22</ele>
        <time>2016-04-03T13:33:03Z</time>
      </trkpt>
      <trkpt lat="43.93008" lon="3.70635">
        <ele>147.22</ele>
        <time>2016-04-03T13:33:04Z</time>
      </trkpt>
      <trkpt lat="43.93012" lon="3.70639">
        <ele>147.22</ele>
        <time>2016-04-03T13:33:05Z</time>
      </trkpt>
      <trkpt lat="43.93017" lon="3.70641">
        <ele>147.22</ele>
        <time>2016-04-03T13:33:06Z</time>
      </trkpt>
      <trkpt lat="43.93024" lon="3.70643">
        <ele>147.22</ele>
        <time>2016-04-03T13:33:08Z</time>
      </trkpt>
      <trkpt lat="43.93027" lon="3.70641">
        <ele>147.22</ele>
        <time>2016-04-03T13:33:09Z</time>
      </trkpt>
      <trkpt lat="43.93029" lon="3.70637">
        <ele>146.74</ele>
        <time>2016-04-03T13:33:10Z</time>
      </trkpt>
      <trkpt lat="43.9303" lon="3.70634">
        <ele>146.74</ele>
        <time>2016-04-03T13:33:11Z</time>
      </trkpt>
      <trkpt lat="43.9303" lon="3.7063">
        <ele>146.74</ele>
        <time>2016-04-03T13:33:12Z</time>
      </trkpt>
      <trkpt lat="43.93029" lon="3.70627">
        <ele>146.74</ele>
        <time>2016-04-03T13:33:13Z</time>
      </trkpt>
      <trkpt lat="43.93029" lon="3.70624">
        <ele>146.74</ele>
        <time>2016-04-03T13:33:14Z</time>
      </trkpt>
      <trkpt lat="43.93027" lon="3.7062">
        <ele>146.74</ele>
        <time>2016-04-03T13:33:15Z</time>
      </trkpt>
      <trkpt lat="43.93025" lon="3.70617">
        <ele>146.74</ele>
        <time>2016-04-03T13:33:16Z</time>
      </trkpt>
      <trkpt lat="43.93024" lon="3.70615">
        <ele>146.74</ele>
        <time>2016-04-03T13:33:17Z</time>
      </trkpt>
      <trkpt lat="43.93023" lon="3.70614">
        <ele>147.22</ele>
        <time>2016-04-03T13:33:32Z</time>
      </trkpt>
      <trkpt lat="43.93022" lon="3.70615">
        <ele>149.62</ele>
        <time>2016-04-03T13:33:54Z</time>
      </trkpt>
      <trkpt lat="43.93026" lon="3.70613">
        <ele>153.47</ele>
        <time>2016-04-03T13:46:27Z</time>
      </trkpt>
      <trkpt lat="43.9302" lon="3.70615">
        <ele>148.18</ele>
        <time>2016-04-03T13:47:16Z</time>
      </trkpt>
      <trkpt lat="43.9302" lon="3.70616">
        <ele>147.7</ele>
        <time>2016-04-03T13:47:55Z</time>
      </trkpt>
      <trkpt lat="43.93016" lon="3.70609">
        <ele>147.22</ele>
        <time>2016-04-03T13:48:06Z</time>
      </trkpt>
      <trkpt lat="43.93015" lon="3.70592">
        <ele>145.78</ele>
        <time>2016-04-03T13:48:55Z</time>
      </trkpt>
      <trkpt lat="43.93015" lon="3.70584">
        <ele>145.78</ele>
        <time>2016-04-03T13:48:58Z</time>
      </trkpt>
      <trkpt lat="43.9302" lon="3.70576">
        <ele>145.3</ele>
        <time>2016-04-03T13:49:00Z</time>
      </trkpt>
      <trkpt lat="43.93024" lon="3.70575">
        <ele>145.3</ele>
        <time>2016-04-03T13:49:01Z</time>
      </trkpt>
      <trkpt lat="43.9303" lon="3.70575">
        <ele>145.3</ele>
        <time>2016-04-03T13:49:02Z</time>
      </trkpt>
      <trkpt lat="43.93036" lon="3.70577">
        <ele>145.3</ele>
        <time>2016-04-03T13:49:03Z</time>
      </trkpt>
      <trkpt lat="43.93043" lon="3.70577">
        <ele>145.3</ele>
        <time>2016-04-03T13:49:04Z</time>
      </trkpt>
      <trkpt lat="43.93049" lon="3.70575">
        <ele>145.78</ele>
        <time>2016-04-03T13:49:05Z</time>
      </trkpt>
      <trkpt lat="43.93055" lon="3.7057">
        <ele>145.78</ele>
        <time>2016-04-03T13:49:06Z</time>
      </trkpt>
      <trkpt lat="43.9306" lon="3.70563">
        <ele>145.78</ele>
        <time>2016-04-03T13:49:07Z</time>
      </trkpt>
      <trkpt lat="43.93063" lon="3.70553">
        <ele>146.26</ele>
        <time>2016-04-03T13:49:08Z</time>
      </trkpt>
      <trkpt lat="43.93067" lon="3.70542">
        <ele>145.78</ele>
        <time>2016-04-03T13:49:09Z</time>
      </trkpt>
      <trkpt lat="43.93071" lon="3.70531">
        <ele>146.26</ele>
        <time>2016-04-03T13:49:10Z</time>
      </trkpt>
      <trkpt lat="43.93077" lon="3.70522">
        <ele>146.74</ele>
        <time>2016-04-03T13:49:11Z</time>
      </trkpt>
      <trkpt lat="43.93084" lon="3.70514">
        <ele>146.74</ele>
        <time>2016-04-03T13:49:12Z</time>
      </trkpt>
      <trkpt lat="43.93091" lon="3.70506">
        <ele>147.22</ele>
        <time>2016-04-03T13:49:13Z</time>
      </trkpt>
      <trkpt lat="43.9315" lon="3.70449">
        <ele>147.7</ele>
        <time>2016-04-03T13:49:21Z</time>
      </trkpt>
      <trkpt lat="43.93157" lon="3.70446">
        <ele>148.18</ele>
        <time>2016-04-03T13:49:22Z</time>
      </trkpt>
      <trkpt lat="43.9317" lon="3.70439">
        <ele>148.66</ele>
        <time>2016-04-03T13:49:24Z</time>
      </trkpt>
      <trkpt lat="43.93175" lon="3.70432">
        <ele>149.14</ele>
        <time>2016-04-03T13:49:25Z</time>
      </trkpt>
      <trkpt lat="43.93185" lon="3.70416">
        <ele>150.1</ele>
        <time>2016-04-03T13:49:27Z</time>
      </trkpt>
      <trkpt lat="43.93193" lon="3.70408">
        <ele>150.58</ele>
        <time>2016-04-03T13:49:28Z</time>
      </trkpt>
      <trkpt lat="43.93202" lon="3.70401">
        <ele>150.58</ele>
        <time>2016-04-03T13:49:29Z</time>
      </trkpt>
      <trkpt lat="43.93282" lon="3.7034">
        <ele>152.99</ele>
        <time>2016-04-03T13:49:38Z</time>
      </trkpt>
      <trkpt lat="43.9329" lon="3.70331">
        <ele>153.47</ele>
        <time>2016-04-03T13:49:39Z</time>
      </trkpt>
      <trkpt lat="43.93297" lon="3.70321">
        <ele>153.47</ele>
        <time>2016-04-03T13:49:40Z</time>
      </trkpt>
      <trkpt lat="43.93304" lon="3.70309">
        <ele>153.95</ele>
        <time>2016-04-03T13:49:41Z</time>
      </trkpt>
      <trkpt lat="43.93311" lon="3.70296">
        <ele>153.95</ele>
        <time>2016-04-03T13:49:42Z</time>
      </trkpt>
      <trkpt lat="43.93372" lon="3.70135">
        <ele>153.47</ele>
        <time>2016-04-03T13:49:54Z</time>
      </trkpt>
      <trkpt lat="43.93426" lon="3.70006">
        <ele>151.54</ele>
        <time>2016-04-03T13:50:05Z</time>
      </trkpt>
      <trkpt lat="43.93453" lon="3.69949">
        <ele>151.54</ele>
        <time>2016-04-03T13:50:09Z</time>
      </trkpt>
      <trkpt lat="43.93525" lon="3.69847">
        <ele>150.58</ele>
        <time>2016-04-03T13:50:18Z</time>
      </trkpt>
      <trkpt lat="43.93621" lon="3.69704">
        <ele>148.66</ele>
        <time>2016-04-03T13:50:29Z</time>
      </trkpt>
      <trkpt lat="43.93683" lon="3.69602">
        <ele>148.66</ele>
        <time>2016-04-03T13:50:37Z</time>
      </trkpt>
      <trkpt lat="43.93775" lon="3.69441">
        <ele>147.7</ele>
        <time>2016-04-03T13:50:49Z</time>
      </trkpt>
      <trkpt lat="43.93818" lon="3.6933">
        <ele>148.18</ele>
        <time>2016-04-03T13:50:56Z</time>
      </trkpt>
      <trkpt lat="43.93829" lon="3.69265">
        <ele>149.14</ele>
        <time>2016-04-03T13:50:59Z</time>
      </trkpt>
      <trkpt lat="43.9383" lon="3.69243">
        <ele>149.14</ele>
        <time>2016-04-03T13:51:00Z</time>
      </trkpt>
      <trkpt lat="43.9384" lon="3.69116">
        <ele>151.06</ele>
        <time>2016-04-03T13:51:06Z</time>
      </trkpt>
      <trkpt lat="43.93847" lon="3.69097">
        <ele>151.06</ele>
        <time>2016-04-03T13:51:07Z</time>
      </trkpt>
      <trkpt lat="43.93856" lon="3.69079">
        <ele>151.54</ele>
        <time>2016-04-03T13:51:08Z</time>
      </trkpt>
      <trkpt lat="43.93867" lon="3.69063">
        <ele>152.03</ele>
        <time>2016-04-03T13:51:09Z</time>
      </trkpt>
      <trkpt lat="43.93879" lon="3.69051">
        <ele>152.51</ele>
        <time>2016-04-03T13:51:10Z</time>
      </trkpt>
      <trkpt lat="43.93893" lon="3.69042">
        <ele>152.99</ele>
        <time>2016-04-03T13:51:11Z</time>
      </trkpt>
      <trkpt lat="43.93909" lon="3.69036">
        <ele>153.95</ele>
        <time>2016-04-03T13:51:12Z</time>
      </trkpt>
      <trkpt lat="43.93926" lon="3.69035">
        <ele>155.39</ele>
        <time>2016-04-03T13:51:13Z</time>
      </trkpt>
      <trkpt lat="43.93944" lon="3.69035">
        <ele>156.83</ele>
        <time>2016-04-03T13:51:14Z</time>
      </trkpt>
      <trkpt lat="43.93961" lon="3.69036">
        <ele>157.31</ele>
        <time>2016-04-03T13:51:15Z</time>
      </trkpt>
      <trkpt lat="43.94065" lon="3.69031">
        <ele>163.08</ele>
        <time>2016-04-03T13:51:21Z</time>
      </trkpt>
      <trkpt lat="43.94083" lon="3.69024">
        <ele>163.56</ele>
        <time>2016-04-03T13:51:22Z</time>
      </trkpt>
      <trkpt lat="43.94308" lon="3.68928">
        <ele>172.21</ele>
        <time>2016-04-03T13:51:34Z</time>
      </trkpt>
      <trkpt lat="43.94464" lon="3.68933">
        <ele>179.9</ele>
        <time>2016-04-03T13:51:42Z</time>
      </trkpt>
      <trkpt lat="43.94483" lon="3.6893">
        <ele>180.38</ele>
        <time>2016-04-03T13:51:43Z</time>
      </trkpt>
      <trkpt lat="43.94501" lon="3.68924">
        <ele>180.87</ele>
        <time>2016-04-03T13:51:44Z</time>
      </trkpt>
      <trkpt lat="43.94518" lon="3.68916">
        <ele>181.35</ele>
        <time>2016-04-03T13:51:45Z</time>
      </trkpt>
      <trkpt lat="43.94534" lon="3.68904">
        <ele>181.83</ele>
        <time>2016-04-03T13:51:46Z</time>
      </trkpt>
      <trkpt lat="43.94549" lon="3.68887">
        <ele>183.75</ele>
        <time>2016-04-03T13:51:47Z</time>
      </trkpt>
      <trkpt lat="43.94561" lon="3.68863">
        <ele>185.19</ele>
        <time>2016-04-03T13:51:48Z</time>
      </trkpt>
      <trkpt lat="43.94571" lon="3.68841">
        <ele>182.79</ele>
        <time>2016-04-03T13:51:49Z</time>
      </trkpt>
      <trkpt lat="43.9458" lon="3.68815">
        <ele>180.87</ele>
        <time>2016-04-03T13:51:50Z</time>
      </trkpt>
      <trkpt lat="43.94587" lon="3.6879">
        <ele>178.94</ele>
        <time>2016-04-03T13:51:51Z</time>
      </trkpt>
      <trkpt lat="43.94591" lon="3.68762">
        <ele>177.5</ele>
        <time>2016-04-03T13:51:52Z</time>
      </trkpt>
      <trkpt lat="43.94593" lon="3.68734">
        <ele>175.58</ele>
        <time>2016-04-03T13:51:53Z</time>
      </trkpt>
      <trkpt lat="43.94595" lon="3.68705">
        <ele>173.66</ele>
        <time>2016-04-03T13:51:54Z</time>
      </trkpt>
      <trkpt lat="43.94614" lon="3.6854">
        <ele>166.45</ele>
        <time>2016-04-03T13:52:00Z</time>
      </trkpt>
      <trkpt lat="43.94621" lon="3.68515">
        <ele>165.48</ele>
        <time>2016-04-03T13:52:01Z</time>
      </trkpt>
      <trkpt lat="43.9463" lon="3.68492">
        <ele>164.52</ele>
        <time>2016-04-03T13:52:02Z</time>
      </trkpt>
      <trkpt lat="43.94678" lon="3.68395">
        <ele>160.2</ele>
        <time>2016-04-03T13:52:07Z</time>
      </trkpt>
      <trkpt lat="43.9469" lon="3.68382">
        <ele>159.24</ele>
        <time>2016-04-03T13:52:08Z</time>
      </trkpt>
      <trkpt lat="43.94702" lon="3.68371">
        <ele>158.27</ele>
        <time>2016-04-03T13:52:09Z</time>
      </trkpt>
      <trkpt lat="43.94716" lon="3.68365">
        <ele>157.31</ele>
        <time>2016-04-03T13:52:10Z</time>
      </trkpt>
      <trkpt lat="43.94732" lon="3.68362">
        <ele>156.83</ele>
        <time>2016-04-03T13:52:11Z</time>
      </trkpt>
      <trkpt lat="43.94749" lon="3.68365">
        <ele>155.87</ele>
        <time>2016-04-03T13:52:12Z</time>
      </trkpt>
      <trkpt lat="43.94766" lon="3.68372">
        <ele>155.39</ele>
        <time>2016-04-03T13:52:13Z</time>
      </trkpt>
      <trkpt lat="43.94782" lon="3.68379">
        <ele>155.39</ele>
        <time>2016-04-03T13:52:14Z</time>
      </trkpt>
      <trkpt lat="43.94797" lon="3.68387">
        <ele>155.87</ele>
        <time>2016-04-03T13:52:15Z</time>
      </trkpt>
      <trkpt lat="43.95042" lon="3.68508">
        <ele>155.87</ele>
        <time>2016-04-03T13:52:30Z</time>
      </trkpt>
      <trkpt lat="43.95179" lon="3.6854">
        <ele>156.83</ele>
        <time>2016-04-03T13:52:37Z</time>
      </trkpt>
      <trkpt lat="43.95334" lon="3.68612">
        <ele>162.6</ele>
        <time>2016-04-03T13:52:45Z</time>
      </trkpt>
      <trkpt lat="43.95475" lon="3.68701">
        <ele>167.89</ele>
        <time>2016-04-03T13:52:53Z</time>
      </trkpt>
      <trkpt lat="43.95603" lon="3.68702">
        <ele>171.25</ele>
        <time>2016-04-03T13:53:00Z</time>
      </trkpt>
      <trkpt lat="43.95797" lon="3.68676">
        <ele>173.66</ele>
        <time>2016-04-03T13:53:11Z</time>
      </trkpt>
      <trkpt lat="43.95842" lon="3.68672">
        <ele>174.14</ele>
        <time>2016-04-03T13:53:14Z</time>
      </trkpt>
      <trkpt lat="43.95857" lon="3.68673">
        <ele>174.14</ele>
        <time>2016-04-03T13:53:15Z</time>
      </trkpt>
      <trkpt lat="43.95875" lon="3.68681">
        <ele>173.17</ele>
        <time>2016-04-03T13:53:16Z</time>
      </trkpt>
      <trkpt lat="43.95889" lon="3.68696">
        <ele>173.17</ele>
        <time>2016-04-03T13:53:17Z</time>
      </trkpt>
      <trkpt lat="43.95903" lon="3.68714">
        <ele>172.69</ele>
        <time>2016-04-03T13:53:18Z</time>
      </trkpt>
      <trkpt lat="43.95919" lon="3.68731">
        <ele>172.21</ele>
        <time>2016-04-03T13:53:19Z</time>
      </trkpt>
      <trkpt lat="43.9606" lon="3.68864">
        <ele>168.85</ele>
        <time>2016-04-03T13:53:28Z</time>
      </trkpt>
      <trkpt lat="43.96093" lon="3.68886">
        <ele>168.37</ele>
        <time>2016-04-03T13:53:30Z</time>
      </trkpt>
      <trkpt lat="43.96111" lon="3.68893">
        <ele>167.89</ele>
        <time>2016-04-03T13:53:31Z</time>
      </trkpt>
      <trkpt lat="43.9613" lon="3.68897">
        <ele>167.41</ele>
        <time>2016-04-03T13:53:32Z</time>
      </trkpt>
      <trkpt lat="43.9615" lon="3.68897">
        <ele>167.89</ele>
        <time>2016-04-03T13:53:33Z</time>
      </trkpt>
      <trkpt lat="43.9617" lon="3.68895">
        <ele>167.41</ele>
        <time>2016-04-03T13:53:34Z</time>
      </trkpt>
      <trkpt lat="43.9619" lon="3.68891">
        <ele>167.89</ele>
        <time>2016-04-03T13:53:35Z</time>
      </trkpt>
      <trkpt lat="43.96374" lon="3.68835">
        <ele>166.45</ele>
        <time>2016-04-03T13:53:45Z</time>
      </trkpt>
      <trkpt lat="43.96439" lon="3.68799">
        <ele>165.48</ele>
        <time>2016-04-03T13:53:49Z</time>
      </trkpt>
      <trkpt lat="43.96456" lon="3.68795">
        <ele>165.48</ele>
        <time>2016-04-03T13:53:50Z</time>
      </trkpt>
      <trkpt lat="43.96472" lon="3.68793">
        <ele>165.48</ele>
        <time>2016-04-03T13:53:51Z</time>
      </trkpt>
      <trkpt lat="43.96539" lon="3.68795">
        <ele>165.96</ele>
        <time>2016-04-03T13:53:56Z</time>
      </trkpt>
      <trkpt lat="43.96551" lon="3.688">
        <ele>165.48</ele>
        <time>2016-04-03T13:53:57Z</time>
      </trkpt>
      <trkpt lat="43.96562" lon="3.68809">
        <ele>165.48</ele>
        <time>2016-04-03T13:53:58Z</time>
      </trkpt>
      <trkpt lat="43.96573" lon="3.68825">
        <ele>165</ele>
        <time>2016-04-03T13:53:59Z</time>
      </trkpt>
      <trkpt lat="43.96581" lon="3.68844">
        <ele>165</ele>
        <time>2016-04-03T13:54:00Z</time>
      </trkpt>
      <trkpt lat="43.96587" lon="3.68864">
        <ele>165</ele>
        <time>2016-04-03T13:54:01Z</time>
      </trkpt>
      <trkpt lat="43.96592" lon="3.68887">
        <ele>165</ele>
        <time>2016-04-03T13:54:02Z</time>
      </trkpt>
      <trkpt lat="43.96596" lon="3.68912">
        <ele>165.48</ele>
        <time>2016-04-03T13:54:03Z</time>
      </trkpt>
      <trkpt lat="43.96639" lon="3.69099">
        <ele>165</ele>
        <time>2016-04-03T13:54:11Z</time>
      </trkpt>
      <trkpt lat="43.96651" lon="3.6912">
        <ele>165</ele>
        <time>2016-04-03T13:54:12Z</time>
      </trkpt>
      <trkpt lat="43.96664" lon="3.6914">
        <ele>165</ele>
        <time>2016-04-03T13:54:13Z</time>
      </trkpt>
      <trkpt lat="43.96678" lon="3.69157">
        <ele>165</ele>
        <time>2016-04-03T13:54:14Z</time>
      </trkpt>
      <trkpt lat="43.96693" lon="3.69173">
        <ele>165</ele>
        <time>2016-04-03T13:54:15Z</time>
      </trkpt>
      <trkpt lat="43.9671" lon="3.69187">
        <ele>165</ele>
        <time>2016-04-03T13:54:16Z</time>
      </trkpt>
      <trkpt lat="43.96727" lon="3.692">
        <ele>165</ele>
        <time>2016-04-03T13:54:17Z</time>
      </trkpt>
      <trkpt lat="43.96746" lon="3.69211">
        <ele>165</ele>
        <time>2016-04-03T13:54:18Z</time>
      </trkpt>
      <trkpt lat="43.96908" lon="3.69283">
        <ele>164.52</ele>
        <time>2016-04-03T13:54:27Z</time>
      </trkpt>
      <trkpt lat="43.96926" lon="3.69286">
        <ele>164.52</ele>
        <time>2016-04-03T13:54:28Z</time>
      </trkpt>
      <trkpt lat="43.96944" lon="3.69285">
        <ele>165</ele>
        <time>2016-04-03T13:54:29Z</time>
      </trkpt>
      <trkpt lat="43.96961" lon="3.69279">
        <ele>164.52</ele>
        <time>2016-04-03T13:54:30Z</time>
      </trkpt>
      <trkpt lat="43.96977" lon="3.69264">
        <ele>165.48</ele>
        <time>2016-04-03T13:54:31Z</time>
      </trkpt>
      <trkpt lat="43.96992" lon="3.6925">
        <ele>165.96</ele>
        <time>2016-04-03T13:54:32Z</time>
      </trkpt>
      <trkpt lat="43.97005" lon="3.69232">
        <ele>166.93</ele>
        <time>2016-04-03T13:54:33Z</time>
      </trkpt>
      <trkpt lat="43.97017" lon="3.69214">
        <ele>167.41</ele>
        <time>2016-04-03T13:54:34Z</time>
      </trkpt>
      <trkpt lat="43.97029" lon="3.69195">
        <ele>167.89</ele>
        <time>2016-04-03T13:54:35Z</time>
      </trkpt>
      <trkpt lat="43.97125" lon="3.69035">
        <ele>171.25</ele>
        <time>2016-04-03T13:54:42Z</time>
      </trkpt>
      <trkpt lat="43.97253" lon="3.68861">
        <ele>173.17</ele>
        <time>2016-04-03T13:54:51Z</time>
      </trkpt>
      <trkpt lat="43.97374" lon="3.68709">
        <ele>173.66</ele>
        <time>2016-04-03T13:55:00Z</time>
      </trkpt>
      <trkpt lat="43.97389" lon="3.68698">
        <ele>174.14</ele>
        <time>2016-04-03T13:55:01Z</time>
      </trkpt>
      <trkpt lat="43.97406" lon="3.6869">
        <ele>174.62</ele>
        <time>2016-04-03T13:55:02Z</time>
      </trkpt>
      <trkpt lat="43.97425" lon="3.68683">
        <ele>175.1</ele>
        <time>2016-04-03T13:55:03Z</time>
      </trkpt>
      <trkpt lat="43.97444" lon="3.68678">
        <ele>175.1</ele>
        <time>2016-04-03T13:55:04Z</time>
      </trkpt>
      <trkpt lat="43.97644" lon="3.68618">
        <ele>179.42</ele>
        <time>2016-04-03T13:55:15Z</time>
      </trkpt>
      <trkpt lat="43.97662" lon="3.68619">
        <ele>179.42</ele>
        <time>2016-04-03T13:55:16Z</time>
      </trkpt>
      <trkpt lat="43.97681" lon="3.68622">
        <ele>179.9</ele>
        <time>2016-04-03T13:55:17Z</time>
      </trkpt>
      <trkpt lat="43.97699" lon="3.68629">
        <ele>180.87</ele>
        <time>2016-04-03T13:55:18Z</time>
      </trkpt>
      <trkpt lat="43.97718" lon="3.68646">
        <ele>179.9</ele>
        <time>2016-04-03T13:55:19Z</time>
      </trkpt>
      <trkpt lat="43.97734" lon="3.68666">
        <ele>179.42</ele>
        <time>2016-04-03T13:55:20Z</time>
      </trkpt>
      <trkpt lat="43.97748" lon="3.68687">
        <ele>179.42</ele>
        <time>2016-04-03T13:55:21Z</time>
      </trkpt>
      <trkpt lat="43.97759" lon="3.68711">
        <ele>179.9</ele>
        <time>2016-04-03T13:55:22Z</time>
      </trkpt>
      <trkpt lat="43.97769" lon="3.68737">
        <ele>179.9</ele>
        <time>2016-04-03T13:55:23Z</time>
      </trkpt>
      <trkpt lat="43.97778" lon="3.68763">
        <ele>179.42</ele>
        <time>2016-04-03T13:55:24Z</time>
      </trkpt>
      <trkpt lat="43.97866" lon="3.68999">
        <ele>178.46</ele>
        <time>2016-04-03T13:55:34Z</time>
      </trkpt>
      <trkpt lat="43.97969" lon="3.69137">
        <ele>177.98</ele>
        <time>2016-04-03T13:55:42Z</time>
      </trkpt>
      <trkpt lat="43.98115" lon="3.6923">
        <ele>177.5</ele>
        <time>2016-04-03T13:55:51Z</time>
      </trkpt>
      <trkpt lat="43.98149" lon="3.69238">
        <ele>177.02</ele>
        <time>2016-04-03T13:55:53Z</time>
      </trkpt>
      <trkpt lat="43.98167" lon="3.69237">
        <ele>177.02</ele>
        <time>2016-04-03T13:55:54Z</time>
      </trkpt>
      <trkpt lat="43.98184" lon="3.69233">
        <ele>177.02</ele>
        <time>2016-04-03T13:55:55Z</time>
      </trkpt>
      <trkpt lat="43.982" lon="3.69221">
        <ele>178.46</ele>
        <time>2016-04-03T13:55:56Z</time>
      </trkpt>
      <trkpt lat="43.98215" lon="3.69207">
        <ele>179.9</ele>
        <time>2016-04-03T13:55:57Z</time>
      </trkpt>
      <trkpt lat="43.98228" lon="3.6919">
        <ele>180.87</ele>
        <time>2016-04-03T13:55:58Z</time>
      </trkpt>
      <trkpt lat="43.98239" lon="3.69172">
        <ele>180.38</ele>
        <time>2016-04-03T13:55:59Z</time>
      </trkpt>
      <trkpt lat="43.98249" lon="3.69151">
        <ele>180.38</ele>
        <time>2016-04-03T13:56:00Z</time>
      </trkpt>
      <trkpt lat="43.98257" lon="3.69127">
        <ele>180.38</ele>
        <time>2016-04-03T13:56:01Z</time>
      </trkpt>
      <trkpt lat="43.98263" lon="3.69103">
        <ele>180.38</ele>
        <time>2016-04-03T13:56:02Z</time>
      </trkpt>
      <trkpt lat="43.98266" lon="3.69078">
        <ele>179.9</ele>
        <time>2016-04-03T13:56:03Z</time>
      </trkpt>
      <trkpt lat="43.98267" lon="3.69051">
        <ele>179.9</ele>
        <time>2016-04-03T13:56:04Z</time>
      </trkpt>
      <trkpt lat="43.98265" lon="3.69025">
        <ele>179.42</ele>
        <time>2016-04-03T13:56:05Z</time>
      </trkpt>
      <trkpt lat="43.98262" lon="3.68998">
        <ele>178.94</ele>
        <time>2016-04-03T13:56:06Z</time>
      </trkpt>
      <trkpt lat="43.98257" lon="3.6897">
        <ele>178.46</ele>
        <time>2016-04-03T13:56:07Z</time>
      </trkpt>
      <trkpt lat="43.98212" lon="3.68691">
        <ele>179.42</ele>
        <time>2016-04-03T13:56:18Z</time>
      </trkpt>
      <trkpt lat="43.98214" lon="3.68666">
        <ele>179.9</ele>
        <time>2016-04-03T13:56:19Z</time>
      </trkpt>
      <trkpt lat="43.98217" lon="3.68641">
        <ele>180.38</ele>
        <time>2016-04-03T13:56:20Z</time>
      </trkpt>
      <trkpt lat="43.98223" lon="3.68618">
        <ele>180.38</ele>
        <time>2016-04-03T13:56:21Z</time>
      </trkpt>
      <trkpt lat="43.9823" lon="3.68595">
        <ele>180.38</ele>
        <time>2016-04-03T13:56:22Z</time>
      </trkpt>
      <trkpt lat="43.9824" lon="3.68573">
        <ele>180.87</ele>
        <time>2016-04-03T13:56:23Z</time>
      </trkpt>
      <trkpt lat="43.98251" lon="3.68553">
        <ele>180.87</ele>
        <time>2016-04-03T13:56:24Z</time>
      </trkpt>
      <trkpt lat="43.98265" lon="3.68534">
        <ele>180.87</ele>
        <time>2016-04-03T13:56:25Z</time>
      </trkpt>
      <trkpt lat="43.98281" lon="3.68518">
        <ele>181.35</ele>
        <time>2016-04-03T13:56:26Z</time>
      </trkpt>
      <trkpt lat="43.98298" lon="3.68504">
        <ele>181.35</ele>
        <time>2016-04-03T13:56:27Z</time>
      </trkpt>
      <trkpt lat="43.98317" lon="3.68493">
        <ele>181.35</ele>
        <time>2016-04-03T13:56:28Z</time>
      </trkpt>
      <trkpt lat="43.98337" lon="3.68486">
        <ele>181.35</ele>
        <time>2016-04-03T13:56:29Z</time>
      </trkpt>
      <trkpt lat="43.9836" lon="3.68485">
        <ele>181.83</ele>
        <time>2016-04-03T13:56:30Z</time>
      </trkpt>
      <trkpt lat="43.98381" lon="3.68486">
        <ele>181.83</ele>
        <time>2016-04-03T13:56:31Z</time>
      </trkpt>
      <trkpt lat="43.98403" lon="3.6849">
        <ele>182.31</ele>
        <time>2016-04-03T13:56:32Z</time>
      </trkpt>
      <trkpt lat="43.98424" lon="3.68498">
        <ele>181.83</ele>
        <time>2016-04-03T13:56:33Z</time>
      </trkpt>
      <trkpt lat="43.98444" lon="3.68509">
        <ele>181.35</ele>
        <time>2016-04-03T13:56:34Z</time>
      </trkpt>
      <trkpt lat="43.98464" lon="3.68522">
        <ele>181.35</ele>
        <time>2016-04-03T13:56:35Z</time>
      </trkpt>
      <trkpt lat="43.98482" lon="3.68536">
        <ele>181.35</ele>
        <time>2016-04-03T13:56:36Z</time>
      </trkpt>
      <trkpt lat="43.98729" lon="3.68735">
        <ele>180.87</ele>
        <time>2016-04-03T13:56:50Z</time>
      </trkpt>
      <trkpt lat="43.98851" lon="3.68815">
        <ele>179.9</ele>
        <time>2016-04-03T13:56:57Z</time>
      </trkpt>
      <trkpt lat="43.98871" lon="3.6882">
        <ele>180.38</ele>
        <time>2016-04-03T13:56:58Z</time>
      </trkpt>
      <trkpt lat="43.99052" lon="3.6885">
        <ele>181.83</ele>
        <time>2016-04-03T13:57:08Z</time>
      </trkpt>
      <trkpt lat="43.99174" lon="3.68884">
        <ele>182.31</ele>
        <time>2016-04-03T13:57:15Z</time>
      </trkpt>
      <trkpt lat="43.99192" lon="3.68881">
        <ele>181.83</ele>
        <time>2016-04-03T13:57:16Z</time>
      </trkpt>
      <trkpt lat="43.99209" lon="3.68875">
        <ele>181.83</ele>
        <time>2016-04-03T13:57:17Z</time>
      </trkpt>
      <trkpt lat="43.99225" lon="3.68867">
        <ele>181.83</ele>
        <time>2016-04-03T13:57:18Z</time>
      </trkpt>
      <trkpt lat="43.99241" lon="3.68858">
        <ele>181.83</ele>
        <time>2016-04-03T13:57:19Z</time>
      </trkpt>
      <trkpt lat="43.99256" lon="3.68848">
        <ele>181.35</ele>
        <time>2016-04-03T13:57:20Z</time>
      </trkpt>
      <trkpt lat="43.9927" lon="3.68838">
        <ele>181.35</ele>
        <time>2016-04-03T13:57:21Z</time>
      </trkpt>
      <trkpt lat="43.99283" lon="3.68826">
        <ele>181.35</ele>
        <time>2016-04-03T13:57:22Z</time>
      </trkpt>
      <trkpt lat="43.99343" lon="3.68751">
        <ele>180.38</ele>
        <time>2016-04-03T13:57:27Z</time>
      </trkpt>
      <trkpt lat="43.99352" lon="3.68732">
        <ele>180.38</ele>
        <time>2016-04-03T13:57:28Z</time>
      </trkpt>
      <trkpt lat="43.99359" lon="3.68711">
        <ele>180.87</ele>
        <time>2016-04-03T13:57:29Z</time>
      </trkpt>
      <trkpt lat="43.99364" lon="3.68689">
        <ele>180.87</ele>
        <time>2016-04-03T13:57:30Z</time>
      </trkpt>
      <trkpt lat="43.99366" lon="3.68666">
        <ele>181.35</ele>
        <time>2016-04-03T13:57:31Z</time>
      </trkpt>
      <trkpt lat="43.99365" lon="3.68641">
        <ele>182.79</ele>
        <time>2016-04-03T13:57:32Z</time>
      </trkpt>
      <trkpt lat="43.99361" lon="3.68618">
        <ele>182.79</ele>
        <time>2016-04-03T13:57:33Z</time>
      </trkpt>
      <trkpt lat="43.99356" lon="3.68595">
        <ele>182.31</ele>
        <time>2016-04-03T13:57:34Z</time>
      </trkpt>
      <trkpt lat="43.99349" lon="3.68573">
        <ele>181.83</ele>
        <time>2016-04-03T13:57:35Z</time>
      </trkpt>
      <trkpt lat="43.99341" lon="3.6855">
        <ele>182.31</ele>
        <time>2016-04-03T13:57:36Z</time>
      </trkpt>
      <trkpt lat="43.99222" lon="3.6824">
        <ele>184.71</ele>
        <time>2016-04-03T13:57:51Z</time>
      </trkpt>
      <trkpt lat="43.99193" lon="3.68135">
        <ele>186.63</ele>
        <time>2016-04-03T13:57:56Z</time>
      </trkpt>
      <trkpt lat="43.99192" lon="3.68112">
        <ele>186.63</ele>
        <time>2016-04-03T13:57:57Z</time>
      </trkpt>
      <trkpt lat="43.99193" lon="3.68089">
        <ele>187.11</ele>
        <time>2016-04-03T13:57:58Z</time>
      </trkpt>
      <trkpt lat="43.99196" lon="3.68066">
        <ele>187.59</ele>
        <time>2016-04-03T13:57:59Z</time>
      </trkpt>
      <trkpt lat="43.992" lon="3.68043">
        <ele>187.59</ele>
        <time>2016-04-03T13:58:00Z</time>
      </trkpt>
      <trkpt lat="43.99204" lon="3.6802">
        <ele>188.08</ele>
        <time>2016-04-03T13:58:01Z</time>
      </trkpt>
      <trkpt lat="43.99243" lon="3.67856">
        <ele>190</ele>
        <time>2016-04-03T13:58:10Z</time>
      </trkpt>
      <trkpt lat="43.9925" lon="3.67844">
        <ele>190</ele>
        <time>2016-04-03T13:58:11Z</time>
      </trkpt>
      <trkpt lat="43.99258" lon="3.67832">
        <ele>190</ele>
        <time>2016-04-03T13:58:12Z</time>
      </trkpt>
      <trkpt lat="43.99267" lon="3.67821">
        <ele>190</ele>
        <time>2016-04-03T13:58:13Z</time>
      </trkpt>
      <trkpt lat="43.99276" lon="3.67811">
        <ele>190</ele>
        <time>2016-04-03T13:58:14Z</time>
      </trkpt>
      <trkpt lat="43.99388" lon="3.67702">
        <ele>191.92</ele>
        <time>2016-04-03T13:58:25Z</time>
      </trkpt>
      <trkpt lat="43.99401" lon="3.67696">
        <ele>192.4</ele>
        <time>2016-04-03T13:58:26Z</time>
      </trkpt>
      <trkpt lat="43.99414" lon="3.67693">
        <ele>192.88</ele>
        <time>2016-04-03T13:58:27Z</time>
      </trkpt>
      <trkpt lat="43.9949" lon="3.67687">
        <ele>195.77</ele>
        <time>2016-04-03T13:58:33Z</time>
      </trkpt>
      <trkpt lat="43.99502" lon="3.67692">
        <ele>195.77</ele>
        <time>2016-04-03T13:58:34Z</time>
      </trkpt>
      <trkpt lat="43.99513" lon="3.67702">
        <ele>194.8</ele>
        <time>2016-04-03T13:58:35Z</time>
      </trkpt>
      <trkpt lat="43.99523" lon="3.67713">
        <ele>193.84</ele>
        <time>2016-04-03T13:58:36Z</time>
      </trkpt>
      <trkpt lat="43.99531" lon="3.67727">
        <ele>192.88</ele>
        <time>2016-04-03T13:58:37Z</time>
      </trkpt>
      <trkpt lat="43.99539" lon="3.67741">
        <ele>192.88</ele>
        <time>2016-04-03T13:58:38Z</time>
      </trkpt>
      <trkpt lat="43.9956" lon="3.67779">
        <ele>192.4</ele>
        <time>2016-04-03T13:58:41Z</time>
      </trkpt>
      <trkpt lat="43.99567" lon="3.67788">
        <ele>192.4</ele>
        <time>2016-04-03T13:58:42Z</time>
      </trkpt>
      <trkpt lat="43.99574" lon="3.67794">
        <ele>192.4</ele>
        <time>2016-04-03T13:58:43Z</time>
      </trkpt>
      <trkpt lat="43.99582" lon="3.67793">
        <ele>191.92</ele>
        <time>2016-04-03T13:58:44Z</time>
      </trkpt>
      <trkpt lat="43.9959" lon="3.67788">
        <ele>191.44</ele>
        <time>2016-04-03T13:58:45Z</time>
      </trkpt>
      <trkpt lat="43.99597" lon="3.67781">
        <ele>191.44</ele>
        <time>2016-04-03T13:58:46Z</time>
      </trkpt>
      <trkpt lat="43.99603" lon="3.67774">
        <ele>191.44</ele>
        <time>2016-04-03T13:58:47Z</time>
      </trkpt>
      <trkpt lat="43.99697" lon="3.67684">
        <ele>190</ele>
        <time>2016-04-03T13:59:00Z</time>
      </trkpt>
      <trkpt lat="43.9971" lon="3.67671">
        <ele>190</ele>
        <time>2016-04-03T13:59:02Z</time>
      </trkpt>
      <trkpt lat="43.99716" lon="3.67667">
        <ele>189.52</ele>
        <time>2016-04-03T13:59:03Z</time>
      </trkpt>
      <trkpt lat="43.99722" lon="3.67669">
        <ele>190</ele>
        <time>2016-04-03T13:59:04Z</time>
      </trkpt>
      <trkpt lat="43.99726" lon="3.67662">
        <ele>190.96</ele>
        <time>2016-04-03T13:59:05Z</time>
      </trkpt>
      <trkpt lat="43.99731" lon="3.67661">
        <ele>191.44</ele>
        <time>2016-04-03T13:59:06Z</time>
      </trkpt>
      <trkpt lat="43.99739" lon="3.67662">
        <ele>195.28</ele>
        <time>2016-04-03T13:59:13Z</time>
      </trkpt>
      <trkpt lat="43.99745" lon="3.67662">
        <ele>194.8</ele>
        <time>2016-04-03T13:59:14Z</time>
      </trkpt>
      <trkpt lat="43.99809" lon="3.67654">
        <ele>198.65</ele>
        <time>2016-04-03T13:59:22Z</time>
      </trkpt>
      <trkpt lat="43.9984" lon="3.67652">
        <ele>200.57</ele>
        <time>2016-04-03T13:59:25Z</time>
      </trkpt>
      <trkpt lat="43.9985" lon="3.67651">
        <ele>199.61</ele>
        <time>2016-04-03T13:59:26Z</time>
      </trkpt>
      <trkpt lat="43.99981" lon="3.67606">
        <ele>195.77</ele>
        <time>2016-04-03T13:59:38Z</time>
      </trkpt>
      <trkpt lat="44.00126" lon="3.67567">
        <ele>201.05</ele>
        <time>2016-04-03T13:59:48Z</time>
      </trkpt>
      <trkpt lat="44.00141" lon="3.67567">
        <ele>201.53</ele>
        <time>2016-04-03T13:59:49Z</time>
      </trkpt>
      <trkpt lat="44.00157" lon="3.6757">
        <ele>201.53</ele>
        <time>2016-04-03T13:59:50Z</time>
      </trkpt>
      <trkpt lat="44.00174" lon="3.67579">
        <ele>201.53</ele>
        <time>2016-04-03T13:59:51Z</time>
      </trkpt>
      <trkpt lat="44.00189" lon="3.67592">
        <ele>202.01</ele>
        <time>2016-04-03T13:59:52Z</time>
      </trkpt>
      <trkpt lat="44.00203" lon="3.67608">
        <ele>202.98</ele>
        <time>2016-04-03T13:59:53Z</time>
      </trkpt>
      <trkpt lat="44.00217" lon="3.67622">
        <ele>202.98</ele>
        <time>2016-04-03T13:59:54Z</time>
      </trkpt>
      <trkpt lat="44.00243" lon="3.67646">
        <ele>203.46</ele>
        <time>2016-04-03T13:59:56Z</time>
      </trkpt>
      <trkpt lat="44.00257" lon="3.67654">
        <ele>203.94</ele>
        <time>2016-04-03T13:59:57Z</time>
      </trkpt>
      <trkpt lat="44.00272" lon="3.67656">
        <ele>204.42</ele>
        <time>2016-04-03T13:59:58Z</time>
      </trkpt>
      <trkpt lat="44.00288" lon="3.67653">
        <ele>204.9</ele>
        <time>2016-04-03T13:59:59Z</time>
      </trkpt>
      <trkpt lat="44.00305" lon="3.67648">
        <ele>204.9</ele>
        <time>2016-04-03T14:00:00Z</time>
      </trkpt>
      <trkpt lat="44.0032" lon="3.67639">
        <ele>205.38</ele>
        <time>2016-04-03T14:00:01Z</time>
      </trkpt>
      <trkpt lat="44.00335" lon="3.67627">
        <ele>205.86</ele>
        <time>2016-04-03T14:00:02Z</time>
      </trkpt>
      <trkpt lat="44.00349" lon="3.67614">
        <ele>205.38</ele>
        <time>2016-04-03T14:00:03Z</time>
      </trkpt>
      <trkpt lat="44.00361" lon="3.67601">
        <ele>205.38</ele>
        <time>2016-04-03T14:00:04Z</time>
      </trkpt>
      <trkpt lat="44.00372" lon="3.67586">
        <ele>203.94</ele>
        <time>2016-04-03T14:00:05Z</time>
      </trkpt>
      <trkpt lat="44.00381" lon="3.67571">
        <ele>202.98</ele>
        <time>2016-04-03T14:00:06Z</time>
      </trkpt>
      <trkpt lat="44.00388" lon="3.67554">
        <ele>202.01</ele>
        <time>2016-04-03T14:00:07Z</time>
      </trkpt>
      <trkpt lat="44.00395" lon="3.67538">
        <ele>201.53</ele>
        <time>2016-04-03T14:00:08Z</time>
      </trkpt>
      <trkpt lat="44.00433" lon="3.67447">
        <ele>199.13</ele>
        <time>2016-04-03T14:00:14Z</time>
      </trkpt>
      <trkpt lat="44.00441" lon="3.67434">
        <ele>199.61</ele>
        <time>2016-04-03T14:00:15Z</time>
      </trkpt>
      <trkpt lat="44.0045" lon="3.67423">
        <ele>199.13</ele>
        <time>2016-04-03T14:00:16Z</time>
      </trkpt>
      <trkpt lat="44.0053" lon="3.67359">
        <ele>198.17</ele>
        <time>2016-04-03T14:00:23Z</time>
      </trkpt>
      <trkpt lat="44.00545" lon="3.67359">
        <ele>197.69</ele>
        <time>2016-04-03T14:00:24Z</time>
      </trkpt>
      <trkpt lat="44.0056" lon="3.67364">
        <ele>197.69</ele>
        <time>2016-04-03T14:00:25Z</time>
      </trkpt>
      <trkpt lat="44.00574" lon="3.67375">
        <ele>198.65</ele>
        <time>2016-04-03T14:00:26Z</time>
      </trkpt>
      <trkpt lat="44.00586" lon="3.67387">
        <ele>199.13</ele>
        <time>2016-04-03T14:00:27Z</time>
      </trkpt>
      <trkpt lat="44.00599" lon="3.674">
        <ele>200.09</ele>
        <time>2016-04-03T14:00:28Z</time>
      </trkpt>
      <trkpt lat="44.00611" lon="3.67416">
        <ele>201.05</ele>
        <time>2016-04-03T14:00:29Z</time>
      </trkpt>
      <trkpt lat="44.00622" lon="3.67432">
        <ele>201.53</ele>
        <time>2016-04-03T14:00:30Z</time>
      </trkpt>
      <trkpt lat="44.00632" lon="3.67449">
        <ele>202.49</ele>
        <time>2016-04-03T14:00:31Z</time>
      </trkpt>
      <trkpt lat="44.00641" lon="3.67465">
        <ele>202.98</ele>
        <time>2016-04-03T14:00:32Z</time>
      </trkpt>
      <trkpt lat="44.00696" lon="3.67565">
        <ele>204.9</ele>
        <time>2016-04-03T14:00:38Z</time>
      </trkpt>
      <trkpt lat="44.00708" lon="3.67576">
        <ele>205.38</ele>
        <time>2016-04-03T14:00:39Z</time>
      </trkpt>
      <trkpt lat="44.00721" lon="3.67581">
        <ele>205.86</ele>
        <time>2016-04-03T14:00:40Z</time>
      </trkpt>
      <trkpt lat="44.00733" lon="3.67582">
        <ele>206.34</ele>
        <time>2016-04-03T14:00:41Z</time>
      </trkpt>
      <trkpt lat="44.00749" lon="3.67572">
        <ele>207.78</ele>
        <time>2016-04-03T14:00:42Z</time>
      </trkpt>
      <trkpt lat="44.00763" lon="3.6756">
        <ele>207.78</ele>
        <time>2016-04-03T14:00:43Z</time>
      </trkpt>
      <trkpt lat="44.00777" lon="3.67545">
        <ele>208.26</ele>
        <time>2016-04-03T14:00:44Z</time>
      </trkpt>
      <trkpt lat="44.0079" lon="3.67528">
        <ele>208.74</ele>
        <time>2016-04-03T14:00:45Z</time>
      </trkpt>
      <trkpt lat="44.00801" lon="3.67508">
        <ele>208.74</ele>
        <time>2016-04-03T14:00:46Z</time>
      </trkpt>
      <trkpt lat="44.0081" lon="3.67487">
        <ele>208.26</ele>
        <time>2016-04-03T14:00:47Z</time>
      </trkpt>
      <trkpt lat="44.00818" lon="3.67466">
        <ele>207.3</ele>
        <time>2016-04-03T14:00:48Z</time>
      </trkpt>
      <trkpt lat="44.00836" lon="3.67426">
        <ele>205.86</ele>
        <time>2016-04-03T14:00:50Z</time>
      </trkpt>
      <trkpt lat="44.00848" lon="3.67409">
        <ele>204.9</ele>
        <time>2016-04-03T14:00:51Z</time>
      </trkpt>
      <trkpt lat="44.00862" lon="3.67395">
        <ele>204.9</ele>
        <time>2016-04-03T14:00:52Z</time>
      </trkpt>
      <trkpt lat="44.00877" lon="3.67384">
        <ele>204.9</ele>
        <time>2016-04-03T14:00:53Z</time>
      </trkpt>
      <trkpt lat="44.00894" lon="3.67376">
        <ele>204.9</ele>
        <time>2016-04-03T14:00:54Z</time>
      </trkpt>
      <trkpt lat="44.00911" lon="3.67373">
        <ele>204.42</ele>
        <time>2016-04-03T14:00:55Z</time>
      </trkpt>
      <trkpt lat="44.00928" lon="3.67372">
        <ele>204.42</ele>
        <time>2016-04-03T14:00:56Z</time>
      </trkpt>
      <trkpt lat="44.00945" lon="3.67372">
        <ele>204.42</ele>
        <time>2016-04-03T14:00:57Z</time>
      </trkpt>
      <trkpt lat="44.00961" lon="3.67374">
        <ele>204.42</ele>
        <time>2016-04-03T14:00:58Z</time>
      </trkpt>
      <trkpt lat="44.00977" lon="3.67376">
        <ele>204.42</ele>
        <time>2016-04-03T14:00:59Z</time>
      </trkpt>
      <trkpt lat="44.01098" lon="3.6742">
        <ele>203.94</ele>
        <time>2016-04-03T14:01:07Z</time>
      </trkpt>
      <trkpt lat="44.0114" lon="3.67463">
        <ele>203.46</ele>
        <time>2016-04-03T14:01:10Z</time>
      </trkpt>
      <trkpt lat="44.01152" lon="3.67481">
        <ele>203.46</ele>
        <time>2016-04-03T14:01:11Z</time>
      </trkpt>
      <trkpt lat="44.01161" lon="3.67502">
        <ele>203.46</ele>
        <time>2016-04-03T14:01:12Z</time>
      </trkpt>
      <trkpt lat="44.01168" lon="3.67523">
        <ele>203.46</ele>
        <time>2016-04-03T14:01:13Z</time>
      </trkpt>
      <trkpt lat="44.01172" lon="3.67547">
        <ele>204.42</ele>
        <time>2016-04-03T14:01:14Z</time>
      </trkpt>
      <trkpt lat="44.01173" lon="3.6757">
        <ele>204.9</ele>
        <time>2016-04-03T14:01:15Z</time>
      </trkpt>
      <trkpt lat="44.01172" lon="3.67595">
        <ele>205.86</ele>
        <time>2016-04-03T14:01:16Z</time>
      </trkpt>
      <trkpt lat="44.01168" lon="3.67618">
        <ele>205.38</ele>
        <time>2016-04-03T14:01:17Z</time>
      </trkpt>
      <trkpt lat="44.01163" lon="3.67642">
        <ele>205.38</ele>
        <time>2016-04-03T14:01:18Z</time>
      </trkpt>
      <trkpt lat="44.01128" lon="3.67776">
        <ele>206.82</ele>
        <time>2016-04-03T14:01:24Z</time>
      </trkpt>
      <trkpt lat="44.01117" lon="3.67795">
        <ele>207.3</ele>
        <time>2016-04-03T14:01:25Z</time>
      </trkpt>
      <trkpt lat="44.01105" lon="3.67812">
        <ele>207.78</ele>
        <time>2016-04-03T14:01:26Z</time>
      </trkpt>
      <trkpt lat="44.01015" lon="3.67939">
        <ele>210.19</ele>
        <time>2016-04-03T14:01:34Z</time>
      </trkpt>
      <trkpt lat="44.01011" lon="3.67955">
        <ele>210.19</ele>
        <time>2016-04-03T14:01:35Z</time>
      </trkpt>
      <trkpt lat="44.01012" lon="3.67972">
        <ele>210.19</ele>
        <time>2016-04-03T14:01:36Z</time>
      </trkpt>
      <trkpt lat="44.01019" lon="3.67987">
        <ele>210.19</ele>
        <time>2016-04-03T14:01:37Z</time>
      </trkpt>
      <trkpt lat="44.01028" lon="3.67997">
        <ele>210.19</ele>
        <time>2016-04-03T14:01:38Z</time>
      </trkpt>
      <trkpt lat="44.01041" lon="3.68003">
        <ele>210.19</ele>
        <time>2016-04-03T14:01:39Z</time>
      </trkpt>
      <trkpt lat="44.01054" lon="3.68007">
        <ele>210.67</ele>
        <time>2016-04-03T14:01:40Z</time>
      </trkpt>
      <trkpt lat="44.0107" lon="3.68006">
        <ele>211.63</ele>
        <time>2016-04-03T14:01:41Z</time>
      </trkpt>
      <trkpt lat="44.01086" lon="3.68001">
        <ele>212.59</ele>
        <time>2016-04-03T14:01:42Z</time>
      </trkpt>
      <trkpt lat="44.01103" lon="3.67992">
        <ele>213.07</ele>
        <time>2016-04-03T14:01:43Z</time>
      </trkpt>
      <trkpt lat="44.01119" lon="3.67981">
        <ele>214.03</ele>
        <time>2016-04-03T14:01:44Z</time>
      </trkpt>
      <trkpt lat="44.01133" lon="3.67969">
        <ele>214.51</ele>
        <time>2016-04-03T14:01:45Z</time>
      </trkpt>
      <trkpt lat="44.01147" lon="3.67956">
        <ele>214.99</ele>
        <time>2016-04-03T14:01:46Z</time>
      </trkpt>
      <trkpt lat="44.01203" lon="3.67915">
        <ele>215.95</ele>
        <time>2016-04-03T14:01:50Z</time>
      </trkpt>
      <trkpt lat="44.01219" lon="3.67908">
        <ele>215.95</ele>
        <time>2016-04-03T14:01:51Z</time>
      </trkpt>
      <trkpt lat="44.01236" lon="3.67905">
        <ele>215.47</ele>
        <time>2016-04-03T14:01:52Z</time>
      </trkpt>
      <trkpt lat="44.01252" lon="3.67904">
        <ele>215.47</ele>
        <time>2016-04-03T14:01:53Z</time>
      </trkpt>
      <trkpt lat="44.01269" lon="3.67908">
        <ele>214.51</ele>
        <time>2016-04-03T14:01:54Z</time>
      </trkpt>
      <trkpt lat="44.01285" lon="3.67916">
        <ele>214.03</ele>
        <time>2016-04-03T14:01:55Z</time>
      </trkpt>
      <trkpt lat="44.01301" lon="3.67927">
        <ele>214.51</ele>
        <time>2016-04-03T14:01:56Z</time>
      </trkpt>
      <trkpt lat="44.01316" lon="3.6794">
        <ele>215.95</ele>
        <time>2016-04-03T14:01:57Z</time>
      </trkpt>
      <trkpt lat="44.0133" lon="3.67953">
        <ele>216.43</ele>
        <time>2016-04-03T14:01:58Z</time>
      </trkpt>
      <trkpt lat="44.01437" lon="3.68056">
        <ele>218.36</ele>
        <time>2016-04-03T14:02:07Z</time>
      </trkpt>
      <trkpt lat="44.01444" lon="3.6806">
        <ele>218.36</ele>
        <time>2016-04-03T14:02:08Z</time>
      </trkpt>
      <trkpt lat="44.0145" lon="3.68062">
        <ele>218.84</ele>
        <time>2016-04-03T14:02:09Z</time>
      </trkpt>
      <trkpt lat="44.01456" lon="3.68062">
        <ele>219.32</ele>
        <time>2016-04-03T14:02:10Z</time>
      </trkpt>
      <trkpt lat="44.01461" lon="3.68062">
        <ele>219.32</ele>
        <time>2016-04-03T14:02:11Z</time>
      </trkpt>
      <trkpt lat="44.01466" lon="3.68061">
        <ele>219.32</ele>
        <time>2016-04-03T14:02:12Z</time>
      </trkpt>
      <trkpt lat="44.01471" lon="3.6806">
        <ele>219.8</ele>
        <time>2016-04-03T14:02:13Z</time>
      </trkpt>
      <trkpt lat="44.01478" lon="3.68057">
        <ele>219.32</ele>
        <time>2016-04-03T14:02:14Z</time>
      </trkpt>
      <trkpt lat="44.01487" lon="3.68052">
        <ele>219.32</ele>
        <time>2016-04-03T14:02:15Z</time>
      </trkpt>
      <trkpt lat="44.01496" lon="3.68041">
        <ele>218.36</ele>
        <time>2016-04-03T14:02:16Z</time>
      </trkpt>
      <trkpt lat="44.01506" lon="3.68027">
        <ele>217.88</ele>
        <time>2016-04-03T14:02:17Z</time>
      </trkpt>
      <trkpt lat="44.01515" lon="3.6801">
        <ele>217.4</ele>
        <time>2016-04-03T14:02:18Z</time>
      </trkpt>
      <trkpt lat="44.01525" lon="3.67992">
        <ele>217.88</ele>
        <time>2016-04-03T14:02:19Z</time>
      </trkpt>
      <trkpt lat="44.01589" lon="3.6786">
        <ele>217.4</ele>
        <time>2016-04-03T14:02:26Z</time>
      </trkpt>
      <trkpt lat="44.01594" lon="3.67838">
        <ele>216.91</ele>
        <time>2016-04-03T14:02:27Z</time>
      </trkpt>
      <trkpt lat="44.01598" lon="3.67815">
        <ele>217.4</ele>
        <time>2016-04-03T14:02:28Z</time>
      </trkpt>
      <trkpt lat="44.01618" lon="3.67697">
        <ele>218.36</ele>
        <time>2016-04-03T14:02:33Z</time>
      </trkpt>
      <trkpt lat="44.01625" lon="3.67674">
        <ele>218.36</ele>
        <time>2016-04-03T14:02:34Z</time>
      </trkpt>
      <trkpt lat="44.01635" lon="3.67653">
        <ele>218.84</ele>
        <time>2016-04-03T14:02:35Z</time>
      </trkpt>
      <trkpt lat="44.01647" lon="3.67632">
        <ele>219.32</ele>
        <time>2016-04-03T14:02:36Z</time>
      </trkpt>
      <trkpt lat="44.01661" lon="3.67614">
        <ele>219.8</ele>
        <time>2016-04-03T14:02:37Z</time>
      </trkpt>
      <trkpt lat="44.01675" lon="3.67598">
        <ele>220.28</ele>
        <time>2016-04-03T14:02:38Z</time>
      </trkpt>
      <trkpt lat="44.01689" lon="3.67582">
        <ele>220.76</ele>
        <time>2016-04-03T14:02:39Z</time>
      </trkpt>
      <trkpt lat="44.01737" lon="3.67543">
        <ele>221.24</ele>
        <time>2016-04-03T14:02:42Z</time>
      </trkpt>
      <trkpt lat="44.01754" lon="3.67533">
        <ele>221.24</ele>
        <time>2016-04-03T14:02:43Z</time>
      </trkpt>
      <trkpt lat="44.01773" lon="3.67526">
        <ele>221.24</ele>
        <time>2016-04-03T14:02:44Z</time>
      </trkpt>
      <trkpt lat="44.01882" lon="3.67507">
        <ele>223.16</ele>
        <time>2016-04-03T14:02:50Z</time>
      </trkpt>
      <trkpt lat="44.01902" lon="3.67515">
        <ele>223.16</ele>
        <time>2016-04-03T14:02:51Z</time>
      </trkpt>
      <trkpt lat="44.0192" lon="3.67525">
        <ele>223.64</ele>
        <time>2016-04-03T14:02:52Z</time>
      </trkpt>
      <trkpt lat="44.01938" lon="3.67539">
        <ele>223.16</ele>
        <time>2016-04-03T14:02:53Z</time>
      </trkpt>
      <trkpt lat="44.01954" lon="3.67553">
        <ele>224.12</ele>
        <time>2016-04-03T14:02:54Z</time>
      </trkpt>
      <trkpt lat="44.02108" lon="3.67706">
        <ele>229.89</ele>
        <time>2016-04-03T14:03:04Z</time>
      </trkpt>
      <trkpt lat="44.02149" lon="3.67761">
        <ele>230.37</ele>
        <time>2016-04-03T14:03:07Z</time>
      </trkpt>
      <trkpt lat="44.0216" lon="3.67783">
        <ele>230.37</ele>
        <time>2016-04-03T14:03:08Z</time>
      </trkpt>
      <trkpt lat="44.0217" lon="3.67806">
        <ele>230.85</ele>
        <time>2016-04-03T14:03:09Z</time>
      </trkpt>
      <trkpt lat="44.02197" lon="3.67871">
        <ele>230.85</ele>
        <time>2016-04-03T14:03:12Z</time>
      </trkpt>
      <trkpt lat="44.02207" lon="3.67888">
        <ele>231.33</ele>
        <time>2016-04-03T14:03:13Z</time>
      </trkpt>
      <trkpt lat="44.02219" lon="3.67902">
        <ele>230.85</ele>
        <time>2016-04-03T14:03:14Z</time>
      </trkpt>
      <trkpt lat="44.02232" lon="3.67913">
        <ele>231.33</ele>
        <time>2016-04-03T14:03:15Z</time>
      </trkpt>
      <trkpt lat="44.02245" lon="3.67924">
        <ele>231.33</ele>
        <time>2016-04-03T14:03:16Z</time>
      </trkpt>
      <trkpt lat="44.02265" lon="3.67953">
        <ele>231.33</ele>
        <time>2016-04-03T14:03:18Z</time>
      </trkpt>
      <trkpt lat="44.02273" lon="3.67974">
        <ele>231.33</ele>
        <time>2016-04-03T14:03:19Z</time>
      </trkpt>
      <trkpt lat="44.02346" lon="3.6814">
        <ele>230.85</ele>
        <time>2016-04-03T14:03:27Z</time>
      </trkpt>
      <trkpt lat="44.02355" lon="3.68161">
        <ele>230.85</ele>
        <time>2016-04-03T14:03:28Z</time>
      </trkpt>
      <trkpt lat="44.02363" lon="3.68185">
        <ele>230.85</ele>
        <time>2016-04-03T14:03:29Z</time>
      </trkpt>
      <trkpt lat="44.02368" lon="3.68209">
        <ele>230.85</ele>
        <time>2016-04-03T14:03:30Z</time>
      </trkpt>
      <trkpt lat="44.02373" lon="3.68235">
        <ele>230.85</ele>
        <time>2016-04-03T14:03:31Z</time>
      </trkpt>
      <trkpt lat="44.02377" lon="3.68261">
        <ele>230.85</ele>
        <time>2016-04-03T14:03:32Z</time>
      </trkpt>
      <trkpt lat="44.02394" lon="3.68463">
        <ele>230.85</ele>
        <time>2016-04-03T14:03:40Z</time>
      </trkpt>
      <trkpt lat="44.02401" lon="3.68481">
        <ele>230.85</ele>
        <time>2016-04-03T14:03:41Z</time>
      </trkpt>
      <trkpt lat="44.0241" lon="3.68496">
        <ele>231.33</ele>
        <time>2016-04-03T14:03:42Z</time>
      </trkpt>
      <trkpt lat="44.02422" lon="3.68502">
        <ele>231.81</ele>
        <time>2016-04-03T14:03:43Z</time>
      </trkpt>
      <trkpt lat="44.02437" lon="3.68504">
        <ele>231.81</ele>
        <time>2016-04-03T14:03:44Z</time>
      </trkpt>
      <trkpt lat="44.02455" lon="3.68501">
        <ele>232.3</ele>
        <time>2016-04-03T14:03:45Z</time>
      </trkpt>
      <trkpt lat="44.02474" lon="3.68494">
        <ele>232.78</ele>
        <time>2016-04-03T14:03:46Z</time>
      </trkpt>
      <trkpt lat="44.02495" lon="3.68484">
        <ele>232.78</ele>
        <time>2016-04-03T14:03:47Z</time>
      </trkpt>
      <trkpt lat="44.02514" lon="3.68476">
        <ele>232.78</ele>
        <time>2016-04-03T14:03:48Z</time>
      </trkpt>
      <trkpt lat="44.0274" lon="3.68396">
        <ele>234.7</ele>
        <time>2016-04-03T14:04:01Z</time>
      </trkpt>
      <trkpt lat="44.02755" lon="3.68385">
        <ele>235.18</ele>
        <time>2016-04-03T14:04:02Z</time>
      </trkpt>
      <trkpt lat="44.02768" lon="3.68372">
        <ele>235.18</ele>
        <time>2016-04-03T14:04:03Z</time>
      </trkpt>
      <trkpt lat="44.02781" lon="3.68358">
        <ele>235.18</ele>
        <time>2016-04-03T14:04:04Z</time>
      </trkpt>
      <trkpt lat="44.02794" lon="3.68342">
        <ele>235.18</ele>
        <time>2016-04-03T14:04:05Z</time>
      </trkpt>
      <trkpt lat="44.02883" lon="3.68186">
        <ele>232.78</ele>
        <time>2016-04-03T14:04:13Z</time>
      </trkpt>
      <trkpt lat="44.0299" lon="3.68024">
        <ele>233.74</ele>
        <time>2016-04-03T14:04:21Z</time>
      </trkpt>
      <trkpt lat="44.03102" lon="3.67876">
        <ele>237.1</ele>
        <time>2016-04-03T14:04:29Z</time>
      </trkpt>
      <trkpt lat="44.0312" lon="3.67864">
        <ele>237.58</ele>
        <time>2016-04-03T14:04:30Z</time>
      </trkpt>
      <trkpt lat="44.0314" lon="3.67857">
        <ele>238.06</ele>
        <time>2016-04-03T14:04:31Z</time>
      </trkpt>
      <trkpt lat="44.03159" lon="3.67852">
        <ele>238.54</ele>
        <time>2016-04-03T14:04:32Z</time>
      </trkpt>
      <trkpt lat="44.03178" lon="3.67849">
        <ele>239.02</ele>
        <time>2016-04-03T14:04:33Z</time>
      </trkpt>
      <trkpt lat="44.03318" lon="3.67795">
        <ele>242.87</ele>
        <time>2016-04-03T14:04:42Z</time>
      </trkpt>
      <trkpt lat="44.03491" lon="3.67682">
        <ele>251.04</ele>
        <time>2016-04-03T14:04:53Z</time>
      </trkpt>
      <trkpt lat="44.03665" lon="3.67553">
        <ele>250.56</ele>
        <time>2016-04-03T14:05:04Z</time>
      </trkpt>
      <trkpt lat="44.03675" lon="3.67534">
        <ele>250.08</ele>
        <time>2016-04-03T14:05:05Z</time>
      </trkpt>
      <trkpt lat="44.03683" lon="3.67513">
        <ele>250.08</ele>
        <time>2016-04-03T14:05:06Z</time>
      </trkpt>
      <trkpt lat="44.03687" lon="3.67487">
        <ele>250.08</ele>
        <time>2016-04-03T14:05:07Z</time>
      </trkpt>
      <trkpt lat="44.0369" lon="3.67462">
        <ele>249.6</ele>
        <time>2016-04-03T14:05:08Z</time>
      </trkpt>
      <trkpt lat="44.03691" lon="3.67436">
        <ele>249.6</ele>
        <time>2016-04-03T14:05:09Z</time>
      </trkpt>
      <trkpt lat="44.03694" lon="3.67411">
        <ele>249.6</ele>
        <time>2016-04-03T14:05:10Z</time>
      </trkpt>
      <trkpt lat="44.037" lon="3.67387">
        <ele>249.6</ele>
        <time>2016-04-03T14:05:11Z</time>
      </trkpt>
      <trkpt lat="44.03711" lon="3.67365">
        <ele>249.6</ele>
        <time>2016-04-03T14:05:12Z</time>
      </trkpt>
      <trkpt lat="44.03724" lon="3.67344">
        <ele>250.08</ele>
        <time>2016-04-03T14:05:13Z</time>
      </trkpt>
      <trkpt lat="44.03739" lon="3.67328">
        <ele>250.08</ele>
        <time>2016-04-03T14:05:14Z</time>
      </trkpt>
      <trkpt lat="44.03756" lon="3.67314">
        <ele>250.08</ele>
        <time>2016-04-03T14:05:15Z</time>
      </trkpt>
      <trkpt lat="44.03773" lon="3.67301">
        <ele>250.08</ele>
        <time>2016-04-03T14:05:16Z</time>
      </trkpt>
      <trkpt lat="44.03884" lon="3.67217">
        <ele>248.64</ele>
        <time>2016-04-03T14:05:23Z</time>
      </trkpt>
      <trkpt lat="44.03902" lon="3.67209">
        <ele>248.64</ele>
        <time>2016-04-03T14:05:24Z</time>
      </trkpt>
      <trkpt lat="44.0392" lon="3.67205">
        <ele>248.16</ele>
        <time>2016-04-03T14:05:25Z</time>
      </trkpt>
      <trkpt lat="44.03938" lon="3.67205">
        <ele>248.16</ele>
        <time>2016-04-03T14:05:26Z</time>
      </trkpt>
      <trkpt lat="44.03956" lon="3.67206">
        <ele>248.64</ele>
        <time>2016-04-03T14:05:27Z</time>
      </trkpt>
      <trkpt lat="44.04024" lon="3.67215">
        <ele>252.48</ele>
        <time>2016-04-03T14:05:31Z</time>
      </trkpt>
      <trkpt lat="44.0404" lon="3.67221">
        <ele>252.48</ele>
        <time>2016-04-03T14:05:32Z</time>
      </trkpt>
      <trkpt lat="44.04054" lon="3.67235">
        <ele>252.48</ele>
        <time>2016-04-03T14:05:33Z</time>
      </trkpt>
      <trkpt lat="44.04066" lon="3.67252">
        <ele>252</ele>
        <time>2016-04-03T14:05:34Z</time>
      </trkpt>
      <trkpt lat="44.04075" lon="3.67273">
        <ele>252.48</ele>
        <time>2016-04-03T14:05:35Z</time>
      </trkpt>
      <trkpt lat="44.04084" lon="3.67293">
        <ele>252.48</ele>
        <time>2016-04-03T14:05:36Z</time>
      </trkpt>
      <trkpt lat="44.04096" lon="3.67312">
        <ele>252.48</ele>
        <time>2016-04-03T14:05:37Z</time>
      </trkpt>
      <trkpt lat="44.04109" lon="3.67331">
        <ele>252.48</ele>
        <time>2016-04-03T14:05:38Z</time>
      </trkpt>
      <trkpt lat="44.04123" lon="3.67347">
        <ele>252.48</ele>
        <time>2016-04-03T14:05:39Z</time>
      </trkpt>
      <trkpt lat="44.04139" lon="3.67362">
        <ele>252.96</ele>
        <time>2016-04-03T14:05:40Z</time>
      </trkpt>
      <trkpt lat="44.04154" lon="3.67377">
        <ele>253.44</ele>
        <time>2016-04-03T14:05:41Z</time>
      </trkpt>
      <trkpt lat="44.04278" lon="3.67533">
        <ele>262.1</ele>
        <time>2016-04-03T14:05:50Z</time>
      </trkpt>
      <trkpt lat="44.04291" lon="3.67546">
        <ele>262.1</ele>
        <time>2016-04-03T14:05:51Z</time>
      </trkpt>
      <trkpt lat="44.04305" lon="3.67557">
        <ele>262.58</ele>
        <time>2016-04-03T14:05:52Z</time>
      </trkpt>
      <trkpt lat="44.04321" lon="3.67562">
        <ele>262.58</ele>
        <time>2016-04-03T14:05:53Z</time>
      </trkpt>
      <trkpt lat="44.04337" lon="3.67565">
        <ele>263.54</ele>
        <time>2016-04-03T14:05:54Z</time>
      </trkpt>
      <trkpt lat="44.04354" lon="3.67565">
        <ele>264.5</ele>
        <time>2016-04-03T14:05:55Z</time>
      </trkpt>
      <trkpt lat="44.04371" lon="3.67562">
        <ele>264.98</ele>
        <time>2016-04-03T14:05:56Z</time>
      </trkpt>
      <trkpt lat="44.04388" lon="3.67559">
        <ele>265.94</ele>
        <time>2016-04-03T14:05:57Z</time>
      </trkpt>
      <trkpt lat="44.04513" lon="3.6758">
        <ele>268.83</ele>
        <time>2016-04-03T14:06:05Z</time>
      </trkpt>
      <trkpt lat="44.04524" lon="3.67594">
        <ele>269.31</ele>
        <time>2016-04-03T14:06:06Z</time>
      </trkpt>
      <trkpt lat="44.04532" lon="3.67614">
        <ele>272.19</ele>
        <time>2016-04-03T14:06:07Z</time>
      </trkpt>
      <trkpt lat="44.04538" lon="3.67633">
        <ele>272.67</ele>
        <time>2016-04-03T14:06:08Z</time>
      </trkpt>
      <trkpt lat="44.04544" lon="3.67653">
        <ele>273.15</ele>
        <time>2016-04-03T14:06:09Z</time>
      </trkpt>
      <trkpt lat="44.04548" lon="3.67674">
        <ele>273.63</ele>
        <time>2016-04-03T14:06:10Z</time>
      </trkpt>
      <trkpt lat="44.04549" lon="3.67696">
        <ele>274.11</ele>
        <time>2016-04-03T14:06:11Z</time>
      </trkpt>
      <trkpt lat="44.04547" lon="3.67717">
        <ele>274.59</ele>
        <time>2016-04-03T14:06:12Z</time>
      </trkpt>
      <trkpt lat="44.04544" lon="3.67739">
        <ele>275.07</ele>
        <time>2016-04-03T14:06:13Z</time>
      </trkpt>
      <trkpt lat="44.04543" lon="3.6776">
        <ele>275.07</ele>
        <time>2016-04-03T14:06:14Z</time>
      </trkpt>
      <trkpt lat="44.04542" lon="3.6778">
        <ele>275.07</ele>
        <time>2016-04-03T14:06:15Z</time>
      </trkpt>
      <trkpt lat="44.04537" lon="3.67816">
        <ele>274.59</ele>
        <time>2016-04-03T14:06:17Z</time>
      </trkpt>
      <trkpt lat="44.04532" lon="3.67832">
        <ele>274.11</ele>
        <time>2016-04-03T14:06:18Z</time>
      </trkpt>
      <trkpt lat="44.04525" lon="3.67846">
        <ele>274.11</ele>
        <time>2016-04-03T14:06:19Z</time>
      </trkpt>
      <trkpt lat="44.04518" lon="3.67859">
        <ele>274.11</ele>
        <time>2016-04-03T14:06:20Z</time>
      </trkpt>
      <trkpt lat="44.04512" lon="3.6787">
        <ele>274.11</ele>
        <time>2016-04-03T14:06:21Z</time>
      </trkpt>
      <trkpt lat="44.04468" lon="3.67941">
        <ele>274.11</ele>
        <time>2016-04-03T14:06:27Z</time>
      </trkpt>
      <trkpt lat="44.04464" lon="3.67955">
        <ele>274.11</ele>
        <time>2016-04-03T14:06:28Z</time>
      </trkpt>
      <trkpt lat="44.04461" lon="3.67971">
        <ele>274.11</ele>
        <time>2016-04-03T14:06:29Z</time>
      </trkpt>
      <trkpt lat="44.04459" lon="3.67986">
        <ele>273.63</ele>
        <time>2016-04-03T14:06:30Z</time>
      </trkpt>
      <trkpt lat="44.04458" lon="3.68002">
        <ele>273.63</ele>
        <time>2016-04-03T14:06:31Z</time>
      </trkpt>
      <trkpt lat="44.04458" lon="3.68033">
        <ele>273.15</ele>
        <time>2016-04-03T14:06:33Z</time>
      </trkpt>
      <trkpt lat="44.0446" lon="3.68048">
        <ele>273.15</ele>
        <time>2016-04-03T14:06:34Z</time>
      </trkpt>
      <trkpt lat="44.04465" lon="3.68062">
        <ele>272.19</ele>
        <time>2016-04-03T14:06:35Z</time>
      </trkpt>
      <trkpt lat="44.04471" lon="3.68075">
        <ele>272.19</ele>
        <time>2016-04-03T14:06:36Z</time>
      </trkpt>
      <trkpt lat="44.04479" lon="3.68087">
        <ele>272.19</ele>
        <time>2016-04-03T14:06:37Z</time>
      </trkpt>
      <trkpt lat="44.04488" lon="3.68099">
        <ele>272.19</ele>
        <time>2016-04-03T14:06:38Z</time>
      </trkpt>
      <trkpt lat="44.04495" lon="3.68111">
        <ele>272.19</ele>
        <time>2016-04-03T14:06:39Z</time>
      </trkpt>
      <trkpt lat="44.04502" lon="3.68125">
        <ele>271.71</ele>
        <time>2016-04-03T14:06:40Z</time>
      </trkpt>
      <trkpt lat="44.04506" lon="3.68139">
        <ele>271.71</ele>
        <time>2016-04-03T14:06:41Z</time>
      </trkpt>
      <trkpt lat="44.04508" lon="3.68155">
        <ele>272.19</ele>
        <time>2016-04-03T14:06:42Z</time>
      </trkpt>
      <trkpt lat="44.04509" lon="3.68171">
        <ele>272.19</ele>
        <time>2016-04-03T14:06:43Z</time>
      </trkpt>
      <trkpt lat="44.04507" lon="3.68186">
        <ele>272.67</ele>
        <time>2016-04-03T14:06:44Z</time>
      </trkpt>
      <trkpt lat="44.04501" lon="3.68201">
        <ele>272.67</ele>
        <time>2016-04-03T14:06:45Z</time>
      </trkpt>
      <trkpt lat="44.04493" lon="3.68215">
        <ele>272.67</ele>
        <time>2016-04-03T14:06:46Z</time>
      </trkpt>
      <trkpt lat="44.04485" lon="3.68228">
        <ele>272.67</ele>
        <time>2016-04-03T14:06:47Z</time>
      </trkpt>
      <trkpt lat="44.04472" lon="3.68255">
        <ele>272.19</ele>
        <time>2016-04-03T14:06:49Z</time>
      </trkpt>
      <trkpt lat="44.04466" lon="3.68271">
        <ele>272.67</ele>
        <time>2016-04-03T14:06:50Z</time>
      </trkpt>
      <trkpt lat="44.04463" lon="3.68289">
        <ele>272.67</ele>
        <time>2016-04-03T14:06:51Z</time>
      </trkpt>
      <trkpt lat="44.04461" lon="3.68308">
        <ele>272.19</ele>
        <time>2016-04-03T14:06:52Z</time>
      </trkpt>
      <trkpt lat="44.04462" lon="3.68329">
        <ele>272.19</ele>
        <time>2016-04-03T14:06:53Z</time>
      </trkpt>
      <trkpt lat="44.04466" lon="3.68355">
        <ele>272.19</ele>
        <time>2016-04-03T14:06:54Z</time>
      </trkpt>
      <trkpt lat="44.04469" lon="3.68383">
        <ele>272.19</ele>
        <time>2016-04-03T14:06:55Z</time>
      </trkpt>
      <trkpt lat="44.04485" lon="3.68521">
        <ele>273.15</ele>
        <time>2016-04-03T14:07:01Z</time>
      </trkpt>
      <trkpt lat="44.04494" lon="3.68537">
        <ele>273.15</ele>
        <time>2016-04-03T14:07:02Z</time>
      </trkpt>
      <trkpt lat="44.04505" lon="3.68552">
        <ele>273.63</ele>
        <time>2016-04-03T14:07:03Z</time>
      </trkpt>
      <trkpt lat="44.04527" lon="3.68584">
        <ele>274.11</ele>
        <time>2016-04-03T14:07:05Z</time>
      </trkpt>
      <trkpt lat="44.04536" lon="3.68602">
        <ele>274.11</ele>
        <time>2016-04-03T14:07:06Z</time>
      </trkpt>
      <trkpt lat="44.04552" lon="3.68637">
        <ele>274.11</ele>
        <time>2016-04-03T14:07:08Z</time>
      </trkpt>
      <trkpt lat="44.04561" lon="3.6865">
        <ele>275.07</ele>
        <time>2016-04-03T14:07:09Z</time>
      </trkpt>
      <trkpt lat="44.04573" lon="3.68657">
        <ele>275.07</ele>
        <time>2016-04-03T14:07:10Z</time>
      </trkpt>
      <trkpt lat="44.04586" lon="3.68657">
        <ele>275.56</ele>
        <time>2016-04-03T14:07:11Z</time>
      </trkpt>
      <trkpt lat="44.04599" lon="3.68653">
        <ele>275.07</ele>
        <time>2016-04-03T14:07:12Z</time>
      </trkpt>
      <trkpt lat="44.04615" lon="3.68647">
        <ele>275.07</ele>
        <time>2016-04-03T14:07:13Z</time>
      </trkpt>
      <trkpt lat="44.04632" lon="3.6864">
        <ele>275.56</ele>
        <time>2016-04-03T14:07:14Z</time>
      </trkpt>
      <trkpt lat="44.04647" lon="3.68628">
        <ele>276.52</ele>
        <time>2016-04-03T14:07:15Z</time>
      </trkpt>
      <trkpt lat="44.04662" lon="3.68614">
        <ele>276.52</ele>
        <time>2016-04-03T14:07:16Z</time>
      </trkpt>
      <trkpt lat="44.04675" lon="3.68596">
        <ele>277</ele>
        <time>2016-04-03T14:07:17Z</time>
      </trkpt>
      <trkpt lat="44.04688" lon="3.68578">
        <ele>277.48</ele>
        <time>2016-04-03T14:07:18Z</time>
      </trkpt>
      <trkpt lat="44.04701" lon="3.6856">
        <ele>277.48</ele>
        <time>2016-04-03T14:07:19Z</time>
      </trkpt>
      <trkpt lat="44.04714" lon="3.68545">
        <ele>277.48</ele>
        <time>2016-04-03T14:07:20Z</time>
      </trkpt>
      <trkpt lat="44.04729" lon="3.68532">
        <ele>277.48</ele>
        <time>2016-04-03T14:07:21Z</time>
      </trkpt>
      <trkpt lat="44.04745" lon="3.68523">
        <ele>277.96</ele>
        <time>2016-04-03T14:07:22Z</time>
      </trkpt>
      <trkpt lat="44.04798" lon="3.68504">
        <ele>277.96</ele>
        <time>2016-04-03T14:07:25Z</time>
      </trkpt>
      <trkpt lat="44.04816" lon="3.68504">
        <ele>277.48</ele>
        <time>2016-04-03T14:07:26Z</time>
      </trkpt>
      <trkpt lat="44.04834" lon="3.68506">
        <ele>277.48</ele>
        <time>2016-04-03T14:07:27Z</time>
      </trkpt>
      <trkpt lat="44.0485" lon="3.6851">
        <ele>277</ele>
        <time>2016-04-03T14:07:28Z</time>
      </trkpt>
      <trkpt lat="44.04866" lon="3.68516">
        <ele>277</ele>
        <time>2016-04-03T14:07:29Z</time>
      </trkpt>
      <trkpt lat="44.0488" lon="3.68526">
        <ele>276.04</ele>
        <time>2016-04-03T14:07:30Z</time>
      </trkpt>
      <trkpt lat="44.04892" lon="3.68541">
        <ele>275.56</ele>
        <time>2016-04-03T14:07:31Z</time>
      </trkpt>
      <trkpt lat="44.049" lon="3.68562">
        <ele>276.04</ele>
        <time>2016-04-03T14:07:32Z</time>
      </trkpt>
      <trkpt lat="44.04904" lon="3.68583">
        <ele>276.04</ele>
        <time>2016-04-03T14:07:33Z</time>
      </trkpt>
      <trkpt lat="44.04907" lon="3.68606">
        <ele>277.48</ele>
        <time>2016-04-03T14:07:34Z</time>
      </trkpt>
      <trkpt lat="44.04912" lon="3.68624">
        <ele>277.48</ele>
        <time>2016-04-03T14:07:35Z</time>
      </trkpt>
      <trkpt lat="44.04921" lon="3.6864">
        <ele>277.48</ele>
        <time>2016-04-03T14:07:36Z</time>
      </trkpt>
      <trkpt lat="44.0493" lon="3.68657">
        <ele>278.44</ele>
        <time>2016-04-03T14:07:37Z</time>
      </trkpt>
      <trkpt lat="44.04938" lon="3.68674">
        <ele>279.88</ele>
        <time>2016-04-03T14:07:38Z</time>
      </trkpt>
      <trkpt lat="44.04945" lon="3.68692">
        <ele>279.88</ele>
        <time>2016-04-03T14:07:39Z</time>
      </trkpt>
      <trkpt lat="44.04949" lon="3.68709">
        <ele>278.92</ele>
        <time>2016-04-03T14:07:40Z</time>
      </trkpt>
      <trkpt lat="44.04951" lon="3.68729">
        <ele>278.44</ele>
        <time>2016-04-03T14:07:41Z</time>
      </trkpt>
      <trkpt lat="44.0495" lon="3.6875">
        <ele>278.44</ele>
        <time>2016-04-03T14:07:42Z</time>
      </trkpt>
      <trkpt lat="44.04947" lon="3.68772">
        <ele>277.96</ele>
        <time>2016-04-03T14:07:43Z</time>
      </trkpt>
      <trkpt lat="44.04942" lon="3.68793">
        <ele>277.96</ele>
        <time>2016-04-03T14:07:44Z</time>
      </trkpt>
      <trkpt lat="44.04935" lon="3.68814">
        <ele>277.96</ele>
        <time>2016-04-03T14:07:45Z</time>
      </trkpt>
      <trkpt lat="44.04926" lon="3.68834">
        <ele>277.48</ele>
        <time>2016-04-03T14:07:46Z</time>
      </trkpt>
      <trkpt lat="44.04917" lon="3.68853">
        <ele>277.48</ele>
        <time>2016-04-03T14:07:47Z</time>
      </trkpt>
      <trkpt lat="44.0488" lon="3.6895">
        <ele>278.44</ele>
        <time>2016-04-03T14:07:53Z</time>
      </trkpt>
      <trkpt lat="44.04878" lon="3.68966">
        <ele>278.44</ele>
        <time>2016-04-03T14:07:54Z</time>
      </trkpt>
      <trkpt lat="44.04881" lon="3.6898">
        <ele>278.44</ele>
        <time>2016-04-03T14:07:55Z</time>
      </trkpt>
      <trkpt lat="44.04886" lon="3.68994">
        <ele>278.44</ele>
        <time>2016-04-03T14:07:56Z</time>
      </trkpt>
      <trkpt lat="44.04895" lon="3.69006">
        <ele>278.92</ele>
        <time>2016-04-03T14:07:57Z</time>
      </trkpt>
      <trkpt lat="44.04905" lon="3.69017">
        <ele>279.4</ele>
        <time>2016-04-03T14:07:58Z</time>
      </trkpt>
      <trkpt lat="44.04917" lon="3.69028">
        <ele>279.88</ele>
        <time>2016-04-03T14:07:59Z</time>
      </trkpt>
      <trkpt lat="44.0493" lon="3.69037">
        <ele>280.36</ele>
        <time>2016-04-03T14:08:00Z</time>
      </trkpt>
      <trkpt lat="44.04971" lon="3.69057">
        <ele>280.84</ele>
        <time>2016-04-03T14:08:03Z</time>
      </trkpt>
      <trkpt lat="44.04986" lon="3.69059">
        <ele>281.32</ele>
        <time>2016-04-03T14:08:04Z</time>
      </trkpt>
      <trkpt lat="44.05" lon="3.69058">
        <ele>281.8</ele>
        <time>2016-04-03T14:08:05Z</time>
      </trkpt>
      <trkpt lat="44.05014" lon="3.69055">
        <ele>282.28</ele>
        <time>2016-04-03T14:08:06Z</time>
      </trkpt>
      <trkpt lat="44.0503" lon="3.69048">
        <ele>282.77</ele>
        <time>2016-04-03T14:08:07Z</time>
      </trkpt>
      <trkpt lat="44.05046" lon="3.69038">
        <ele>283.25</ele>
        <time>2016-04-03T14:08:08Z</time>
      </trkpt>
      <trkpt lat="44.05195" lon="3.68953">
        <ele>287.09</ele>
        <time>2016-04-03T14:08:17Z</time>
      </trkpt>
      <trkpt lat="44.0521" lon="3.68939">
        <ele>287.57</ele>
        <time>2016-04-03T14:08:18Z</time>
      </trkpt>
      <trkpt lat="44.05225" lon="3.68922">
        <ele>287.57</ele>
        <time>2016-04-03T14:08:19Z</time>
      </trkpt>
      <trkpt lat="44.0524" lon="3.68903">
        <ele>288.05</ele>
        <time>2016-04-03T14:08:20Z</time>
      </trkpt>
      <trkpt lat="44.05254" lon="3.68883">
        <ele>288.05</ele>
        <time>2016-04-03T14:08:21Z</time>
      </trkpt>
      <trkpt lat="44.0536" lon="3.6873">
        <ele>289.49</ele>
        <time>2016-04-03T14:08:29Z</time>
      </trkpt>
      <trkpt lat="44.0549" lon="3.68602">
        <ele>291.42</ele>
        <time>2016-04-03T14:08:37Z</time>
      </trkpt>
      <trkpt lat="44.05522" lon="3.68567">
        <ele>291.9</ele>
        <time>2016-04-03T14:08:39Z</time>
      </trkpt>
      <trkpt lat="44.05539" lon="3.68553">
        <ele>292.38</ele>
        <time>2016-04-03T14:08:40Z</time>
      </trkpt>
      <trkpt lat="44.05594" lon="3.6852">
        <ele>292.86</ele>
        <time>2016-04-03T14:08:43Z</time>
      </trkpt>
      <trkpt lat="44.05729" lon="3.68451">
        <ele>292.86</ele>
        <time>2016-04-03T14:08:50Z</time>
      </trkpt>
      <trkpt lat="44.05839" lon="3.68413">
        <ele>294.3</ele>
        <time>2016-04-03T14:08:56Z</time>
      </trkpt>
      <trkpt lat="44.05855" lon="3.68414">
        <ele>294.3</ele>
        <time>2016-04-03T14:08:57Z</time>
      </trkpt>
      <trkpt lat="44.0587" lon="3.68418">
        <ele>295.26</ele>
        <time>2016-04-03T14:08:58Z</time>
      </trkpt>
      <trkpt lat="44.05884" lon="3.68424">
        <ele>295.26</ele>
        <time>2016-04-03T14:08:59Z</time>
      </trkpt>
      <trkpt lat="44.05897" lon="3.68431">
        <ele>295.26</ele>
        <time>2016-04-03T14:09:00Z</time>
      </trkpt>
      <trkpt lat="44.05908" lon="3.68441">
        <ele>295.26</ele>
        <time>2016-04-03T14:09:01Z</time>
      </trkpt>
      <trkpt lat="44.05916" lon="3.68456">
        <ele>295.26</ele>
        <time>2016-04-03T14:09:02Z</time>
      </trkpt>
      <trkpt lat="44.0592" lon="3.68472">
        <ele>294.78</ele>
        <time>2016-04-03T14:09:03Z</time>
      </trkpt>
      <trkpt lat="44.05918" lon="3.68488">
        <ele>294.78</ele>
        <time>2016-04-03T14:09:04Z</time>
      </trkpt>
      <trkpt lat="44.05915" lon="3.68504">
        <ele>294.78</ele>
        <time>2016-04-03T14:09:05Z</time>
      </trkpt>
      <trkpt lat="44.05914" lon="3.68519">
        <ele>295.74</ele>
        <time>2016-04-03T14:09:06Z</time>
      </trkpt>
      <trkpt lat="44.05915" lon="3.68533">
        <ele>296.22</ele>
        <time>2016-04-03T14:09:07Z</time>
      </trkpt>
      <trkpt lat="44.05918" lon="3.68545">
        <ele>296.7</ele>
        <time>2016-04-03T14:09:08Z</time>
      </trkpt>
      <trkpt lat="44.05922" lon="3.68553">
        <ele>297.18</ele>
        <time>2016-04-03T14:09:09Z</time>
      </trkpt>
      <trkpt lat="44.0593" lon="3.68559">
        <ele>297.67</ele>
        <time>2016-04-03T14:09:10Z</time>
      </trkpt>
      <trkpt lat="44.05935" lon="3.68564">
        <ele>298.63</ele>
        <time>2016-04-03T14:09:11Z</time>
      </trkpt>
      <trkpt lat="44.05942" lon="3.68566">
        <ele>299.11</ele>
        <time>2016-04-03T14:09:12Z</time>
      </trkpt>
      <trkpt lat="44.05956" lon="3.6856">
        <ele>300.55</ele>
        <time>2016-04-03T14:09:13Z</time>
      </trkpt>
      <trkpt lat="44.05981" lon="3.68542">
        <ele>302.95</ele>
        <time>2016-04-03T14:09:14Z</time>
      </trkpt>
      <trkpt lat="44.06001" lon="3.68528">
        <ele>304.39</ele>
        <time>2016-04-03T14:09:15Z</time>
      </trkpt>
      <trkpt lat="44.06017" lon="3.68518">
        <ele>305.36</ele>
        <time>2016-04-03T14:09:16Z</time>
      </trkpt>
      <trkpt lat="44.0612" lon="3.68446">
        <ele>309.68</ele>
        <time>2016-04-03T14:09:23Z</time>
      </trkpt>
      <trkpt lat="44.06136" lon="3.68439">
        <ele>310.16</ele>
        <time>2016-04-03T14:09:24Z</time>
      </trkpt>
      <trkpt lat="44.06256" lon="3.68365">
        <ele>309.2</ele>
        <time>2016-04-03T14:09:31Z</time>
      </trkpt>
      <trkpt lat="44.063" lon="3.68316">
        <ele>308.72</ele>
        <time>2016-04-03T14:09:34Z</time>
      </trkpt>
      <trkpt lat="44.0631" lon="3.68296">
        <ele>308.72</ele>
        <time>2016-04-03T14:09:35Z</time>
      </trkpt>
      <trkpt lat="44.06361" lon="3.68196">
        <ele>309.2</ele>
        <time>2016-04-03T14:09:40Z</time>
      </trkpt>
      <trkpt lat="44.06374" lon="3.68178">
        <ele>309.68</ele>
        <time>2016-04-03T14:09:41Z</time>
      </trkpt>
      <trkpt lat="44.06389" lon="3.68162">
        <ele>309.2</ele>
        <time>2016-04-03T14:09:42Z</time>
      </trkpt>
      <trkpt lat="44.06405" lon="3.68146">
        <ele>309.2</ele>
        <time>2016-04-03T14:09:43Z</time>
      </trkpt>
      <trkpt lat="44.06421" lon="3.68132">
        <ele>309.2</ele>
        <time>2016-04-03T14:09:44Z</time>
      </trkpt>
      <trkpt lat="44.06546" lon="3.68042">
        <ele>309.68</ele>
        <time>2016-04-03T14:09:51Z</time>
      </trkpt>
      <trkpt lat="44.06747" lon="3.67825">
        <ele>311.6</ele>
        <time>2016-04-03T14:10:03Z</time>
      </trkpt>
      <trkpt lat="44.06979" lon="3.67597">
        <ele>307.76</ele>
        <time>2016-04-03T14:10:15Z</time>
      </trkpt>
      <trkpt lat="44.0722" lon="3.67339">
        <ele>311.12</ele>
        <time>2016-04-03T14:10:28Z</time>
      </trkpt>
      <trkpt lat="44.07397" lon="3.67085">
        <ele>314.97</ele>
        <time>2016-04-03T14:10:39Z</time>
      </trkpt>
      <trkpt lat="44.076" lon="3.6682">
        <ele>322.66</ele>
        <time>2016-04-03T14:10:51Z</time>
      </trkpt>
      <trkpt lat="44.078" lon="3.66575">
        <ele>329.39</ele>
        <time>2016-04-03T14:11:03Z</time>
      </trkpt>
      <trkpt lat="44.07827" lon="3.66535">
        <ele>329.87</ele>
        <time>2016-04-03T14:11:05Z</time>
      </trkpt>
      <trkpt lat="44.0784" lon="3.66511">
        <ele>329.87</ele>
        <time>2016-04-03T14:11:06Z</time>
      </trkpt>
      <trkpt lat="44.0785" lon="3.66485">
        <ele>329.87</ele>
        <time>2016-04-03T14:11:07Z</time>
      </trkpt>
      <trkpt lat="44.07858" lon="3.66458">
        <ele>330.35</ele>
        <time>2016-04-03T14:11:08Z</time>
      </trkpt>
      <trkpt lat="44.07863" lon="3.66431">
        <ele>330.35</ele>
        <time>2016-04-03T14:11:09Z</time>
      </trkpt>
      <trkpt lat="44.07865" lon="3.66403">
        <ele>329.87</ele>
        <time>2016-04-03T14:11:10Z</time>
      </trkpt>
      <trkpt lat="44.07861" lon="3.66374">
        <ele>330.35</ele>
        <time>2016-04-03T14:11:11Z</time>
      </trkpt>
      <trkpt lat="44.07852" lon="3.66344">
        <ele>330.83</ele>
        <time>2016-04-03T14:11:12Z</time>
      </trkpt>
      <trkpt lat="44.07841" lon="3.66317">
        <ele>330.83</ele>
        <time>2016-04-03T14:11:13Z</time>
      </trkpt>
      <trkpt lat="44.07828" lon="3.66293">
        <ele>331.31</ele>
        <time>2016-04-03T14:11:14Z</time>
      </trkpt>
      <trkpt lat="44.07813" lon="3.66273">
        <ele>331.31</ele>
        <time>2016-04-03T14:11:15Z</time>
      </trkpt>
      <trkpt lat="44.07797" lon="3.66255">
        <ele>330.83</ele>
        <time>2016-04-03T14:11:16Z</time>
      </trkpt>
      <trkpt lat="44.07781" lon="3.6624">
        <ele>330.83</ele>
        <time>2016-04-03T14:11:17Z</time>
      </trkpt>
      <trkpt lat="44.07766" lon="3.66228">
        <ele>331.31</ele>
        <time>2016-04-03T14:11:18Z</time>
      </trkpt>
      <trkpt lat="44.07753" lon="3.66214">
        <ele>331.31</ele>
        <time>2016-04-03T14:11:19Z</time>
      </trkpt>
      <trkpt lat="44.07741" lon="3.66198">
        <ele>331.79</ele>
        <time>2016-04-03T14:11:20Z</time>
      </trkpt>
      <trkpt lat="44.07732" lon="3.66178">
        <ele>332.27</ele>
        <time>2016-04-03T14:11:21Z</time>
      </trkpt>
      <trkpt lat="44.07726" lon="3.66156">
        <ele>332.27</ele>
        <time>2016-04-03T14:11:22Z</time>
      </trkpt>
      <trkpt lat="44.07724" lon="3.66131">
        <ele>332.27</ele>
        <time>2016-04-03T14:11:23Z</time>
      </trkpt>
      <trkpt lat="44.07722" lon="3.66104">
        <ele>332.27</ele>
        <time>2016-04-03T14:11:24Z</time>
      </trkpt>
      <trkpt lat="44.07718" lon="3.66077">
        <ele>331.79</ele>
        <time>2016-04-03T14:11:25Z</time>
      </trkpt>
      <trkpt lat="44.07714" lon="3.66051">
        <ele>330.35</ele>
        <time>2016-04-03T14:11:26Z</time>
      </trkpt>
      <trkpt lat="44.07714" lon="3.66025">
        <ele>329.87</ele>
        <time>2016-04-03T14:11:27Z</time>
      </trkpt>
      <trkpt lat="44.07717" lon="3.66">
        <ele>329.39</ele>
        <time>2016-04-03T14:11:28Z</time>
      </trkpt>
      <trkpt lat="44.07723" lon="3.65976">
        <ele>329.39</ele>
        <time>2016-04-03T14:11:29Z</time>
      </trkpt>
      <trkpt lat="44.07732" lon="3.65951">
        <ele>329.39</ele>
        <time>2016-04-03T14:11:30Z</time>
      </trkpt>
      <trkpt lat="44.0774" lon="3.65927">
        <ele>329.87</ele>
        <time>2016-04-03T14:11:31Z</time>
      </trkpt>
      <trkpt lat="44.07773" lon="3.65755">
        <ele>334.2</ele>
        <time>2016-04-03T14:11:38Z</time>
      </trkpt>
      <trkpt lat="44.07783" lon="3.65596">
        <ele>336.12</ele>
        <time>2016-04-03T14:11:46Z</time>
      </trkpt>
      <trkpt lat="44.07791" lon="3.65417">
        <ele>336.6</ele>
        <time>2016-04-03T14:11:55Z</time>
      </trkpt>
      <trkpt lat="44.07828" lon="3.65297">
        <ele>339.48</ele>
        <time>2016-04-03T14:12:01Z</time>
      </trkpt>
      <trkpt lat="44.07837" lon="3.6528">
        <ele>339.96</ele>
        <time>2016-04-03T14:12:02Z</time>
      </trkpt>
      <trkpt lat="44.07882" lon="3.65192">
        <ele>341.89</ele>
        <time>2016-04-03T14:12:07Z</time>
      </trkpt>
      <trkpt lat="44.07889" lon="3.65173">
        <ele>341.89</ele>
        <time>2016-04-03T14:12:08Z</time>
      </trkpt>
      <trkpt lat="44.07934" lon="3.65017">
        <ele>343.33</ele>
        <time>2016-04-03T14:12:16Z</time>
      </trkpt>
      <trkpt lat="44.07935" lon="3.64994">
        <ele>343.33</ele>
        <time>2016-04-03T14:12:17Z</time>
      </trkpt>
      <trkpt lat="44.07934" lon="3.6497">
        <ele>342.85</ele>
        <time>2016-04-03T14:12:18Z</time>
      </trkpt>
      <trkpt lat="44.0793" lon="3.64947">
        <ele>342.85</ele>
        <time>2016-04-03T14:12:19Z</time>
      </trkpt>
      <trkpt lat="44.07924" lon="3.64923">
        <ele>342.37</ele>
        <time>2016-04-03T14:12:20Z</time>
      </trkpt>
      <trkpt lat="44.07918" lon="3.64901">
        <ele>342.37</ele>
        <time>2016-04-03T14:12:21Z</time>
      </trkpt>
      <trkpt lat="44.07888" lon="3.64754">
        <ele>342.85</ele>
        <time>2016-04-03T14:12:29Z</time>
      </trkpt>
      <trkpt lat="44.07891" lon="3.64614">
        <ele>345.25</ele>
        <time>2016-04-03T14:12:38Z</time>
      </trkpt>
      <trkpt lat="44.07894" lon="3.64598">
        <ele>345.73</ele>
        <time>2016-04-03T14:12:39Z</time>
      </trkpt>
      <trkpt lat="44.07897" lon="3.64582">
        <ele>346.21</ele>
        <time>2016-04-03T14:12:40Z</time>
      </trkpt>
      <trkpt lat="44.07902" lon="3.64568">
        <ele>346.69</ele>
        <time>2016-04-03T14:12:41Z</time>
      </trkpt>
      <trkpt lat="44.07922" lon="3.64497">
        <ele>348.62</ele>
        <time>2016-04-03T14:12:46Z</time>
      </trkpt>
      <trkpt lat="44.07928" lon="3.64483">
        <ele>349.1</ele>
        <time>2016-04-03T14:12:47Z</time>
      </trkpt>
      <trkpt lat="44.07988" lon="3.64378">
        <ele>353.9</ele>
        <time>2016-04-03T14:12:56Z</time>
      </trkpt>
      <trkpt lat="44.08" lon="3.64358">
        <ele>353.9</ele>
        <time>2016-04-03T14:12:58Z</time>
      </trkpt>
      <trkpt lat="44.08005" lon="3.64347">
        <ele>353.42</ele>
        <time>2016-04-03T14:12:59Z</time>
      </trkpt>
      <trkpt lat="44.08009" lon="3.64335">
        <ele>353.42</ele>
        <time>2016-04-03T14:13:00Z</time>
      </trkpt>
      <trkpt lat="44.08052" lon="3.64181">
        <ele>353.9</ele>
        <time>2016-04-03T14:13:13Z</time>
      </trkpt>
      <trkpt lat="44.08053" lon="3.64169">
        <ele>353.9</ele>
        <time>2016-04-03T14:13:14Z</time>
      </trkpt>
      <trkpt lat="44.08053" lon="3.64157">
        <ele>353.9</ele>
        <time>2016-04-03T14:13:15Z</time>
      </trkpt>
      <trkpt lat="44.08051" lon="3.64144">
        <ele>354.86</ele>
        <time>2016-04-03T14:13:16Z</time>
      </trkpt>
      <trkpt lat="44.08049" lon="3.6413">
        <ele>354.86</ele>
        <time>2016-04-03T14:13:17Z</time>
      </trkpt>
      <trkpt lat="44.08047" lon="3.64118">
        <ele>354.86</ele>
        <time>2016-04-03T14:13:18Z</time>
      </trkpt>
      <trkpt lat="44.08046" lon="3.64105">
        <ele>355.34</ele>
        <time>2016-04-03T14:13:19Z</time>
      </trkpt>
      <trkpt lat="44.0805" lon="3.64032">
        <ele>358.23</ele>
        <time>2016-04-03T14:13:26Z</time>
      </trkpt>
      <trkpt lat="44.08052" lon="3.64">
        <ele>357.27</ele>
        <time>2016-04-03T14:13:30Z</time>
      </trkpt>
      <trkpt lat="44.08049" lon="3.64001">
        <ele>356.79</ele>
        <time>2016-04-03T14:13:31Z</time>
      </trkpt>
      <trkpt lat="44.08044" lon="3.64002">
        <ele>356.79</ele>
        <time>2016-04-03T14:13:32Z</time>
      </trkpt>
      <trkpt lat="44.0804" lon="3.63999">
        <ele>356.79</ele>
        <time>2016-04-03T14:13:33Z</time>
      </trkpt>
      <trkpt lat="44.08038" lon="3.63994">
        <ele>356.79</ele>
        <time>2016-04-03T14:13:34Z</time>
      </trkpt>
      <trkpt lat="44.08039" lon="3.63988">
        <ele>356.79</ele>
        <time>2016-04-03T14:13:35Z</time>
      </trkpt>
      <trkpt lat="44.08041" lon="3.63983">
        <ele>356.79</ele>
        <time>2016-04-03T14:13:36Z</time>
      </trkpt>
      <trkpt lat="44.08044" lon="3.63979">
        <ele>356.79</ele>
        <time>2016-04-03T14:13:37Z</time>
      </trkpt>
      <trkpt lat="44.08047" lon="3.63976">
        <ele>356.79</ele>
        <time>2016-04-03T14:13:38Z</time>
      </trkpt>
      <trkpt lat="44.08049" lon="3.63973">
        <ele>356.79</ele>
        <time>2016-04-03T14:13:39Z</time>
      </trkpt>
      <trkpt lat="44.08049" lon="3.63971">
        <ele>357.27</ele>
        <time>2016-04-03T14:13:40Z</time>
      </trkpt>
      <trkpt lat="44.08048" lon="3.63969">
        <ele>357.27</ele>
        <time>2016-04-03T14:13:41Z</time>
      </trkpt>
      <trkpt lat="44.08048" lon="3.63972">
        <ele>359.19</ele>
        <time>2016-04-03T14:13:51Z</time>
      </trkpt>
      <trkpt lat="44.08046" lon="3.6398">
        <ele>360.63</ele>
        <time>2016-04-03T14:15:05Z</time>
      </trkpt>
      <trkpt lat="44.08048" lon="3.63974">
        <ele>352.94</ele>
        <time>2016-04-03T14:16:34Z</time>
      </trkpt>
      <trkpt lat="44.08047" lon="3.63979">
        <ele>354.38</ele>
        <time>2016-04-03T14:19:33Z</time>
      </trkpt>
      <trkpt lat="44.08046" lon="3.6398">
        <ele>352.94</ele>
        <time>2016-04-03T14:20:42Z</time>
      </trkpt>
      <trkpt lat="44.08042" lon="3.63975">
        <ele>362.07</ele>
        <time>2016-04-03T14:24:19Z</time>
      </trkpt>
      <trkpt lat="44.08041" lon="3.63973">
        <ele>362.07</ele>
        <time>2016-04-03T14:24:20Z</time>
      </trkpt>
      <trkpt lat="44.08042" lon="3.6397">
        <ele>361.59</ele>
        <time>2016-04-03T14:24:21Z</time>
      </trkpt>
      <trkpt lat="44.08048" lon="3.63967">
        <ele>362.55</ele>
        <time>2016-04-03T14:24:23Z</time>
      </trkpt>
      <trkpt lat="44.08052" lon="3.63967">
        <ele>362.07</ele>
        <time>2016-04-03T14:24:27Z</time>
      </trkpt>
      <trkpt lat="44.08059" lon="3.63954">
        <ele>360.63</ele>
        <time>2016-04-03T14:24:31Z</time>
      </trkpt>
      <trkpt lat="44.08059" lon="3.63947">
        <ele>360.63</ele>
        <time>2016-04-03T14:24:32Z</time>
      </trkpt>
      <trkpt lat="44.08073" lon="3.63848">
        <ele>359.67</ele>
        <time>2016-04-03T14:24:42Z</time>
      </trkpt>
      <trkpt lat="44.08082" lon="3.63809">
        <ele>359.67</ele>
        <time>2016-04-03T14:24:45Z</time>
      </trkpt>
      <trkpt lat="44.08085" lon="3.63794">
        <ele>359.67</ele>
        <time>2016-04-03T14:24:46Z</time>
      </trkpt>
      <trkpt lat="44.08085" lon="3.63779">
        <ele>359.67</ele>
        <time>2016-04-03T14:24:47Z</time>
      </trkpt>
      <trkpt lat="44.08085" lon="3.63764">
        <ele>359.19</ele>
        <time>2016-04-03T14:24:48Z</time>
      </trkpt>
      <trkpt lat="44.08084" lon="3.63748">
        <ele>359.19</ele>
        <time>2016-04-03T14:24:49Z</time>
      </trkpt>
      <trkpt lat="44.08082" lon="3.63528">
        <ele>365.92</ele>
        <time>2016-04-03T14:25:02Z</time>
      </trkpt>
      <trkpt lat="44.08093" lon="3.63319">
        <ele>371.21</ele>
        <time>2016-04-03T14:25:12Z</time>
      </trkpt>
      <trkpt lat="44.08096" lon="3.63271">
        <ele>371.69</ele>
        <time>2016-04-03T14:25:14Z</time>
      </trkpt>
      <trkpt lat="44.08099" lon="3.63247">
        <ele>372.17</ele>
        <time>2016-04-03T14:25:15Z</time>
      </trkpt>
      <trkpt lat="44.08104" lon="3.63223">
        <ele>373.13</ele>
        <time>2016-04-03T14:25:16Z</time>
      </trkpt>
      <trkpt lat="44.08111" lon="3.632">
        <ele>373.61</ele>
        <time>2016-04-03T14:25:17Z</time>
      </trkpt>
      <trkpt lat="44.0812" lon="3.63178">
        <ele>374.57</ele>
        <time>2016-04-03T14:25:18Z</time>
      </trkpt>
      <trkpt lat="44.08128" lon="3.63157">
        <ele>375.53</ele>
        <time>2016-04-03T14:25:19Z</time>
      </trkpt>
      <trkpt lat="44.08154" lon="3.63085">
        <ele>378.42</ele>
        <time>2016-04-03T14:25:23Z</time>
      </trkpt>
      <trkpt lat="44.08164" lon="3.63074">
        <ele>379.38</ele>
        <time>2016-04-03T14:25:24Z</time>
      </trkpt>
      <trkpt lat="44.08176" lon="3.63064">
        <ele>379.86</ele>
        <time>2016-04-03T14:25:25Z</time>
      </trkpt>
      <trkpt lat="44.08198" lon="3.63042">
        <ele>380.34</ele>
        <time>2016-04-03T14:25:27Z</time>
      </trkpt>
      <trkpt lat="44.08206" lon="3.63025">
        <ele>380.34</ele>
        <time>2016-04-03T14:25:28Z</time>
      </trkpt>
      <trkpt lat="44.08211" lon="3.63005">
        <ele>380.82</ele>
        <time>2016-04-03T14:25:29Z</time>
      </trkpt>
      <trkpt lat="44.08213" lon="3.62984">
        <ele>380.82</ele>
        <time>2016-04-03T14:25:30Z</time>
      </trkpt>
      <trkpt lat="44.08211" lon="3.62964">
        <ele>381.78</ele>
        <time>2016-04-03T14:25:31Z</time>
      </trkpt>
      <trkpt lat="44.08205" lon="3.62945">
        <ele>382.26</ele>
        <time>2016-04-03T14:25:32Z</time>
      </trkpt>
      <trkpt lat="44.08194" lon="3.62929">
        <ele>382.74</ele>
        <time>2016-04-03T14:25:33Z</time>
      </trkpt>
      <trkpt lat="44.0818" lon="3.62915">
        <ele>383.22</ele>
        <time>2016-04-03T14:25:34Z</time>
      </trkpt>
      <trkpt lat="44.08169" lon="3.62898">
        <ele>382.74</ele>
        <time>2016-04-03T14:25:35Z</time>
      </trkpt>
      <trkpt lat="44.08159" lon="3.62878">
        <ele>382.74</ele>
        <time>2016-04-03T14:25:36Z</time>
      </trkpt>
      <trkpt lat="44.0815" lon="3.62858">
        <ele>383.22</ele>
        <time>2016-04-03T14:25:37Z</time>
      </trkpt>
      <trkpt lat="44.08142" lon="3.62838">
        <ele>383.22</ele>
        <time>2016-04-03T14:25:38Z</time>
      </trkpt>
      <trkpt lat="44.08129" lon="3.62798">
        <ele>383.7</ele>
        <time>2016-04-03T14:25:40Z</time>
      </trkpt>
      <trkpt lat="44.08126" lon="3.62777">
        <ele>383.7</ele>
        <time>2016-04-03T14:25:41Z</time>
      </trkpt>
      <trkpt lat="44.08126" lon="3.62758">
        <ele>382.74</ele>
        <time>2016-04-03T14:25:42Z</time>
      </trkpt>
      <trkpt lat="44.08131" lon="3.62737">
        <ele>383.22</ele>
        <time>2016-04-03T14:25:43Z</time>
      </trkpt>
      <trkpt lat="44.08134" lon="3.62719">
        <ele>382.74</ele>
        <time>2016-04-03T14:25:44Z</time>
      </trkpt>
      <trkpt lat="44.08139" lon="3.62697">
        <ele>382.26</ele>
        <time>2016-04-03T14:25:45Z</time>
      </trkpt>
      <trkpt lat="44.08142" lon="3.62674">
        <ele>381.78</ele>
        <time>2016-04-03T14:25:46Z</time>
      </trkpt>
      <trkpt lat="44.08181" lon="3.62413">
        <ele>385.63</ele>
        <time>2016-04-03T14:25:57Z</time>
      </trkpt>
      <trkpt lat="44.08196" lon="3.62253">
        <ele>388.03</ele>
        <time>2016-04-03T14:26:04Z</time>
      </trkpt>
      <trkpt lat="44.08201" lon="3.62236">
        <ele>388.51</ele>
        <time>2016-04-03T14:26:05Z</time>
      </trkpt>
      <trkpt lat="44.0821" lon="3.62222">
        <ele>388.99</ele>
        <time>2016-04-03T14:26:06Z</time>
      </trkpt>
      <trkpt lat="44.08221" lon="3.6221">
        <ele>389.47</ele>
        <time>2016-04-03T14:26:07Z</time>
      </trkpt>
      <trkpt lat="44.08231" lon="3.62197">
        <ele>389.95</ele>
        <time>2016-04-03T14:26:08Z</time>
      </trkpt>
      <trkpt lat="44.0824" lon="3.6218">
        <ele>389.95</ele>
        <time>2016-04-03T14:26:09Z</time>
      </trkpt>
      <trkpt lat="44.08246" lon="3.6216">
        <ele>390.43</ele>
        <time>2016-04-03T14:26:10Z</time>
      </trkpt>
      <trkpt lat="44.08251" lon="3.62139">
        <ele>390.43</ele>
        <time>2016-04-03T14:26:11Z</time>
      </trkpt>
      <trkpt lat="44.08256" lon="3.62118">
        <ele>390.43</ele>
        <time>2016-04-03T14:26:12Z</time>
      </trkpt>
      <trkpt lat="44.08272" lon="3.62056">
        <ele>391.39</ele>
        <time>2016-04-03T14:26:15Z</time>
      </trkpt>
      <trkpt lat="44.0828" lon="3.62037">
        <ele>391.87</ele>
        <time>2016-04-03T14:26:16Z</time>
      </trkpt>
      <trkpt lat="44.08291" lon="3.62021">
        <ele>392.36</ele>
        <time>2016-04-03T14:26:17Z</time>
      </trkpt>
      <trkpt lat="44.08303" lon="3.62007">
        <ele>392.84</ele>
        <time>2016-04-03T14:26:18Z</time>
      </trkpt>
      <trkpt lat="44.08315" lon="3.61993">
        <ele>393.32</ele>
        <time>2016-04-03T14:26:19Z</time>
      </trkpt>
      <trkpt lat="44.08391" lon="3.61852">
        <ele>395.72</ele>
        <time>2016-04-03T14:26:26Z</time>
      </trkpt>
      <trkpt lat="44.08523" lon="3.61612">
        <ele>401.97</ele>
        <time>2016-04-03T14:26:38Z</time>
      </trkpt>
      <trkpt lat="44.08592" lon="3.61532">
        <ele>403.41</ele>
        <time>2016-04-03T14:26:43Z</time>
      </trkpt>
      <trkpt lat="44.08603" lon="3.61514">
        <ele>403.41</ele>
        <time>2016-04-03T14:26:44Z</time>
      </trkpt>
      <trkpt lat="44.08613" lon="3.61494">
        <ele>403.41</ele>
        <time>2016-04-03T14:26:45Z</time>
      </trkpt>
      <trkpt lat="44.0862" lon="3.61472">
        <ele>403.89</ele>
        <time>2016-04-03T14:26:46Z</time>
      </trkpt>
      <trkpt lat="44.08628" lon="3.6145">
        <ele>403.89</ele>
        <time>2016-04-03T14:26:47Z</time>
      </trkpt>
      <trkpt lat="44.08661" lon="3.61362">
        <ele>405.33</ele>
        <time>2016-04-03T14:26:51Z</time>
      </trkpt>
      <trkpt lat="44.08666" lon="3.61339">
        <ele>405.81</ele>
        <time>2016-04-03T14:26:52Z</time>
      </trkpt>
      <trkpt lat="44.08669" lon="3.61316">
        <ele>406.77</ele>
        <time>2016-04-03T14:26:53Z</time>
      </trkpt>
      <trkpt lat="44.08668" lon="3.61293">
        <ele>407.26</ele>
        <time>2016-04-03T14:26:54Z</time>
      </trkpt>
      <trkpt lat="44.08664" lon="3.61271">
        <ele>407.74</ele>
        <time>2016-04-03T14:26:55Z</time>
      </trkpt>
      <trkpt lat="44.08657" lon="3.6125">
        <ele>408.22</ele>
        <time>2016-04-03T14:26:56Z</time>
      </trkpt>
      <trkpt lat="44.08648" lon="3.61231">
        <ele>408.22</ele>
        <time>2016-04-03T14:26:57Z</time>
      </trkpt>
      <trkpt lat="44.08637" lon="3.61213">
        <ele>409.18</ele>
        <time>2016-04-03T14:26:58Z</time>
      </trkpt>
      <trkpt lat="44.08625" lon="3.61195">
        <ele>409.66</ele>
        <time>2016-04-03T14:26:59Z</time>
      </trkpt>
      <trkpt lat="44.08573" lon="3.61104">
        <ele>412.06</ele>
        <time>2016-04-03T14:27:04Z</time>
      </trkpt>
      <trkpt lat="44.08566" lon="3.61083">
        <ele>412.54</ele>
        <time>2016-04-03T14:27:05Z</time>
      </trkpt>
      <trkpt lat="44.08563" lon="3.6106">
        <ele>413.02</ele>
        <time>2016-04-03T14:27:06Z</time>
      </trkpt>
      <trkpt lat="44.08562" lon="3.61036">
        <ele>413.5</ele>
        <time>2016-04-03T14:27:07Z</time>
      </trkpt>
      <trkpt lat="44.08562" lon="3.61012">
        <ele>413.98</ele>
        <time>2016-04-03T14:27:08Z</time>
      </trkpt>
      <trkpt lat="44.08563" lon="3.60987">
        <ele>413.98</ele>
        <time>2016-04-03T14:27:09Z</time>
      </trkpt>
      <trkpt lat="44.08576" lon="3.60892">
        <ele>415.43</ele>
        <time>2016-04-03T14:27:13Z</time>
      </trkpt>
      <trkpt lat="44.08583" lon="3.6087">
        <ele>415.91</ele>
        <time>2016-04-03T14:27:14Z</time>
      </trkpt>
      <trkpt lat="44.08591" lon="3.60849">
        <ele>417.35</ele>
        <time>2016-04-03T14:27:15Z</time>
      </trkpt>
      <trkpt lat="44.08642" lon="3.60661">
        <ele>424.08</ele>
        <time>2016-04-03T14:27:24Z</time>
      </trkpt>
      <trkpt lat="44.0869" lon="3.60458">
        <ele>427.44</ele>
        <time>2016-04-03T14:27:33Z</time>
      </trkpt>
      <trkpt lat="44.08695" lon="3.60436">
        <ele>427.44</ele>
        <time>2016-04-03T14:27:34Z</time>
      </trkpt>
      <trkpt lat="44.08697" lon="3.60412">
        <ele>427.44</ele>
        <time>2016-04-03T14:27:35Z</time>
      </trkpt>
      <trkpt lat="44.08697" lon="3.60388">
        <ele>427.92</ele>
        <time>2016-04-03T14:27:36Z</time>
      </trkpt>
      <trkpt lat="44.08694" lon="3.60365">
        <ele>428.4</ele>
        <time>2016-04-03T14:27:37Z</time>
      </trkpt>
      <trkpt lat="44.08686" lon="3.60345">
        <ele>428.4</ele>
        <time>2016-04-03T14:27:38Z</time>
      </trkpt>
      <trkpt lat="44.08674" lon="3.60328">
        <ele>428.89</ele>
        <time>2016-04-03T14:27:39Z</time>
      </trkpt>
      <trkpt lat="44.08662" lon="3.60311">
        <ele>429.37</ele>
        <time>2016-04-03T14:27:40Z</time>
      </trkpt>
      <trkpt lat="44.08653" lon="3.60292">
        <ele>429.85</ele>
        <time>2016-04-03T14:27:41Z</time>
      </trkpt>
      <trkpt lat="44.08643" lon="3.60272">
        <ele>429.85</ele>
        <time>2016-04-03T14:27:42Z</time>
      </trkpt>
      <trkpt lat="44.08637" lon="3.60253">
        <ele>430.33</ele>
        <time>2016-04-03T14:27:43Z</time>
      </trkpt>
      <trkpt lat="44.08634" lon="3.60233">
        <ele>430.81</ele>
        <time>2016-04-03T14:27:44Z</time>
      </trkpt>
      <trkpt lat="44.08636" lon="3.60211">
        <ele>431.29</ele>
        <time>2016-04-03T14:27:45Z</time>
      </trkpt>
      <trkpt lat="44.08646" lon="3.6019">
        <ele>432.25</ele>
        <time>2016-04-03T14:27:46Z</time>
      </trkpt>
      <trkpt lat="44.08655" lon="3.60171">
        <ele>433.21</ele>
        <time>2016-04-03T14:27:47Z</time>
      </trkpt>
      <trkpt lat="44.08665" lon="3.60153">
        <ele>434.65</ele>
        <time>2016-04-03T14:27:48Z</time>
      </trkpt>
      <trkpt lat="44.08752" lon="3.59958">
        <ele>441.38</ele>
        <time>2016-04-03T14:27:58Z</time>
      </trkpt>
      <trkpt lat="44.08813" lon="3.59812">
        <ele>444.75</ele>
        <time>2016-04-03T14:28:06Z</time>
      </trkpt>
      <trkpt lat="44.08818" lon="3.59792">
        <ele>444.75</ele>
        <time>2016-04-03T14:28:07Z</time>
      </trkpt>
      <trkpt lat="44.0882" lon="3.5977">
        <ele>444.75</ele>
        <time>2016-04-03T14:28:08Z</time>
      </trkpt>
      <trkpt lat="44.08837" lon="3.59487">
        <ele>452.44</ele>
        <time>2016-04-03T14:28:21Z</time>
      </trkpt>
      <trkpt lat="44.08844" lon="3.59445">
        <ele>454.36</ele>
        <time>2016-04-03T14:28:23Z</time>
      </trkpt>
      <trkpt lat="44.0885" lon="3.59425">
        <ele>455.32</ele>
        <time>2016-04-03T14:28:24Z</time>
      </trkpt>
      <trkpt lat="44.08857" lon="3.59406">
        <ele>456.28</ele>
        <time>2016-04-03T14:28:25Z</time>
      </trkpt>
      <trkpt lat="44.08917" lon="3.59236">
        <ele>463.97</ele>
        <time>2016-04-03T14:28:33Z</time>
      </trkpt>
      <trkpt lat="44.08978" lon="3.58995">
        <ele>475.99</ele>
        <time>2016-04-03T14:28:44Z</time>
      </trkpt>
      <trkpt lat="44.09031" lon="3.58806">
        <ele>484.64</ele>
        <time>2016-04-03T14:28:53Z</time>
      </trkpt>
      <trkpt lat="44.09099" lon="3.58629">
        <ele>492.33</ele>
        <time>2016-04-03T14:29:01Z</time>
      </trkpt>
      <trkpt lat="44.09213" lon="3.58368">
        <ele>506.27</ele>
        <time>2016-04-03T14:29:13Z</time>
      </trkpt>
      <trkpt lat="44.09265" lon="3.58308">
        <ele>511.08</ele>
        <time>2016-04-03T14:29:17Z</time>
      </trkpt>
      <trkpt lat="44.0928" lon="3.58301">
        <ele>512.52</ele>
        <time>2016-04-03T14:29:18Z</time>
      </trkpt>
      <trkpt lat="44.09296" lon="3.58292">
        <ele>513.48</ele>
        <time>2016-04-03T14:29:19Z</time>
      </trkpt>
      <trkpt lat="44.09324" lon="3.58282">
        <ele>515.88</ele>
        <time>2016-04-03T14:29:21Z</time>
      </trkpt>
      <trkpt lat="44.09336" lon="3.58285">
        <ele>516.85</ele>
        <time>2016-04-03T14:29:22Z</time>
      </trkpt>
      <trkpt lat="44.0936" lon="3.58281">
        <ele>518.77</ele>
        <time>2016-04-03T14:29:24Z</time>
      </trkpt>
      <trkpt lat="44.09366" lon="3.58266">
        <ele>519.25</ele>
        <time>2016-04-03T14:29:26Z</time>
      </trkpt>
      <trkpt lat="44.09362" lon="3.58256">
        <ele>519.25</ele>
        <time>2016-04-03T14:29:27Z</time>
      </trkpt>
      <trkpt lat="44.09354" lon="3.58255">
        <ele>519.25</ele>
        <time>2016-04-03T14:29:28Z</time>
      </trkpt>
      <trkpt lat="44.09336" lon="3.58255">
        <ele>519.73</ele>
        <time>2016-04-03T14:29:31Z</time>
      </trkpt>
      <trkpt lat="44.09324" lon="3.58264">
        <ele>519.73</ele>
        <time>2016-04-03T14:29:32Z</time>
      </trkpt>
      <trkpt lat="44.09313" lon="3.58272">
        <ele>519.73</ele>
        <time>2016-04-03T14:29:33Z</time>
      </trkpt>
      <trkpt lat="44.09291" lon="3.58285">
        <ele>520.21</ele>
        <time>2016-04-03T14:29:35Z</time>
      </trkpt>
      <trkpt lat="44.0928" lon="3.58289">
        <ele>521.17</ele>
        <time>2016-04-03T14:29:36Z</time>
      </trkpt>
      <trkpt lat="44.09269" lon="3.5829">
        <ele>521.65</ele>
        <time>2016-04-03T14:29:37Z</time>
      </trkpt>
      <trkpt lat="44.09257" lon="3.58291">
        <ele>522.13</ele>
        <time>2016-04-03T14:29:38Z</time>
      </trkpt>
      <trkpt lat="44.09245" lon="3.58294">
        <ele>522.61</ele>
        <time>2016-04-03T14:29:39Z</time>
      </trkpt>
      <trkpt lat="44.09233" lon="3.58299">
        <ele>523.09</ele>
        <time>2016-04-03T14:29:40Z</time>
      </trkpt>
      <trkpt lat="44.09221" lon="3.58307">
        <ele>523.58</ele>
        <time>2016-04-03T14:29:41Z</time>
      </trkpt>
      <trkpt lat="44.09209" lon="3.58315">
        <ele>524.54</ele>
        <time>2016-04-03T14:29:42Z</time>
      </trkpt>
      <trkpt lat="44.09186" lon="3.58331">
        <ele>524.54</ele>
        <time>2016-04-03T14:29:44Z</time>
      </trkpt>
      <trkpt lat="44.09175" lon="3.58341">
        <ele>525.02</ele>
        <time>2016-04-03T14:29:45Z</time>
      </trkpt>
      <trkpt lat="44.09153" lon="3.58363">
        <ele>526.46</ele>
        <time>2016-04-03T14:29:47Z</time>
      </trkpt>
      <trkpt lat="44.0914" lon="3.5837">
        <ele>526.94</ele>
        <time>2016-04-03T14:29:48Z</time>
      </trkpt>
      <trkpt lat="44.09127" lon="3.58375">
        <ele>528.38</ele>
        <time>2016-04-03T14:29:49Z</time>
      </trkpt>
      <trkpt lat="44.09113" lon="3.58377">
        <ele>530.79</ele>
        <time>2016-04-03T14:29:50Z</time>
      </trkpt>
      <trkpt lat="44.09101" lon="3.58376">
        <ele>531.75</ele>
        <time>2016-04-03T14:29:51Z</time>
      </trkpt>
      <trkpt lat="44.09089" lon="3.58376">
        <ele>532.71</ele>
        <time>2016-04-03T14:29:52Z</time>
      </trkpt>
      <trkpt lat="44.0908" lon="3.5838">
        <ele>533.67</ele>
        <time>2016-04-03T14:29:53Z</time>
      </trkpt>
      <trkpt lat="44.09077" lon="3.5839">
        <ele>534.15</ele>
        <time>2016-04-03T14:29:54Z</time>
      </trkpt>
      <trkpt lat="44.09074" lon="3.58404">
        <ele>534.63</ele>
        <time>2016-04-03T14:29:55Z</time>
      </trkpt>
      <trkpt lat="44.09072" lon="3.5842">
        <ele>535.11</ele>
        <time>2016-04-03T14:29:56Z</time>
      </trkpt>
      <trkpt lat="44.09068" lon="3.58433">
        <ele>536.07</ele>
        <time>2016-04-03T14:29:57Z</time>
      </trkpt>
      <trkpt lat="44.09059" lon="3.58443">
        <ele>536.07</ele>
        <time>2016-04-03T14:29:58Z</time>
      </trkpt>
      <trkpt lat="44.0905" lon="3.58448">
        <ele>536.55</ele>
        <time>2016-04-03T14:29:59Z</time>
      </trkpt>
      <trkpt lat="44.0904" lon="3.58447">
        <ele>537.03</ele>
        <time>2016-04-03T14:30:00Z</time>
      </trkpt>
      <trkpt lat="44.09029" lon="3.58442">
        <ele>538.48</ele>
        <time>2016-04-03T14:30:01Z</time>
      </trkpt>
      <trkpt lat="44.09018" lon="3.58435">
        <ele>539.92</ele>
        <time>2016-04-03T14:30:02Z</time>
      </trkpt>
      <trkpt lat="44.09006" lon="3.58433">
        <ele>541.36</ele>
        <time>2016-04-03T14:30:03Z</time>
      </trkpt>
      <trkpt lat="44.08995" lon="3.58432">
        <ele>542.32</ele>
        <time>2016-04-03T14:30:04Z</time>
      </trkpt>
      <trkpt lat="44.08985" lon="3.58435">
        <ele>543.76</ele>
        <time>2016-04-03T14:30:05Z</time>
      </trkpt>
      <trkpt lat="44.08978" lon="3.58445">
        <ele>545.69</ele>
        <time>2016-04-03T14:30:06Z</time>
      </trkpt>
      <trkpt lat="44.08972" lon="3.58457">
        <ele>546.65</ele>
        <time>2016-04-03T14:30:07Z</time>
      </trkpt>
      <trkpt lat="44.08971" lon="3.58472">
        <ele>546.65</ele>
        <time>2016-04-03T14:30:08Z</time>
      </trkpt>
      <trkpt lat="44.08972" lon="3.5849">
        <ele>546.65</ele>
        <time>2016-04-03T14:30:09Z</time>
      </trkpt>
      <trkpt lat="44.08974" lon="3.58508">
        <ele>546.65</ele>
        <time>2016-04-03T14:30:10Z</time>
      </trkpt>
      <trkpt lat="44.08976" lon="3.58526">
        <ele>547.13</ele>
        <time>2016-04-03T14:30:11Z</time>
      </trkpt>
      <trkpt lat="44.08977" lon="3.58577">
        <ele>548.57</ele>
        <time>2016-04-03T14:30:14Z</time>
      </trkpt>
      <trkpt lat="44.08975" lon="3.58593">
        <ele>549.05</ele>
        <time>2016-04-03T14:30:15Z</time>
      </trkpt>
      <trkpt lat="44.08971" lon="3.58609">
        <ele>550.49</ele>
        <time>2016-04-03T14:30:16Z</time>
      </trkpt>
      <trkpt lat="44.08964" lon="3.58626">
        <ele>551.93</ele>
        <time>2016-04-03T14:30:17Z</time>
      </trkpt>
      <trkpt lat="44.08954" lon="3.58643">
        <ele>552.9</ele>
        <time>2016-04-03T14:30:18Z</time>
      </trkpt>
      <trkpt lat="44.08945" lon="3.58661">
        <ele>553.86</ele>
        <time>2016-04-03T14:30:19Z</time>
      </trkpt>
      <trkpt lat="44.08889" lon="3.5876">
        <ele>557.7</ele>
        <time>2016-04-03T14:30:25Z</time>
      </trkpt>
      <trkpt lat="44.08878" lon="3.58764">
        <ele>558.18</ele>
        <time>2016-04-03T14:30:26Z</time>
      </trkpt>
      <trkpt lat="44.08843" lon="3.58751">
        <ele>561.07</ele>
        <time>2016-04-03T14:30:29Z</time>
      </trkpt>
      <trkpt lat="44.08831" lon="3.58738">
        <ele>562.03</ele>
        <time>2016-04-03T14:30:30Z</time>
      </trkpt>
      <trkpt lat="44.08819" lon="3.58729">
        <ele>562.99</ele>
        <time>2016-04-03T14:30:31Z</time>
      </trkpt>
      <trkpt lat="44.08794" lon="3.58713">
        <ele>565.39</ele>
        <time>2016-04-03T14:30:33Z</time>
      </trkpt>
      <trkpt lat="44.08781" lon="3.58708">
        <ele>566.35</ele>
        <time>2016-04-03T14:30:34Z</time>
      </trkpt>
      <trkpt lat="44.08768" lon="3.58705">
        <ele>566.83</ele>
        <time>2016-04-03T14:30:35Z</time>
      </trkpt>
      <trkpt lat="44.08756" lon="3.58706">
        <ele>567.32</ele>
        <time>2016-04-03T14:30:36Z</time>
      </trkpt>
      <trkpt lat="44.08746" lon="3.58712">
        <ele>568.28</ele>
        <time>2016-04-03T14:30:37Z</time>
      </trkpt>
      <trkpt lat="44.08735" lon="3.58724">
        <ele>568.76</ele>
        <time>2016-04-03T14:30:38Z</time>
      </trkpt>
      <trkpt lat="44.08722" lon="3.58748">
        <ele>570.2</ele>
        <time>2016-04-03T14:30:39Z</time>
      </trkpt>
      <trkpt lat="44.08718" lon="3.58765">
        <ele>569.72</ele>
        <time>2016-04-03T14:30:40Z</time>
      </trkpt>
      <trkpt lat="44.08721" lon="3.58779">
        <ele>568.76</ele>
        <time>2016-04-03T14:30:41Z</time>
      </trkpt>
      <trkpt lat="44.08723" lon="3.58796">
        <ele>568.28</ele>
        <time>2016-04-03T14:30:42Z</time>
      </trkpt>
      <trkpt lat="44.08722" lon="3.58815">
        <ele>568.28</ele>
        <time>2016-04-03T14:30:43Z</time>
      </trkpt>
      <trkpt lat="44.0871" lon="3.58948">
        <ele>570.68</ele>
        <time>2016-04-03T14:30:50Z</time>
      </trkpt>
      <trkpt lat="44.08706" lon="3.5896">
        <ele>571.16</ele>
        <time>2016-04-03T14:30:51Z</time>
      </trkpt>
      <trkpt lat="44.08701" lon="3.58967">
        <ele>573.08</ele>
        <time>2016-04-03T14:30:52Z</time>
      </trkpt>
      <trkpt lat="44.08692" lon="3.58966">
        <ele>573.56</ele>
        <time>2016-04-03T14:30:53Z</time>
      </trkpt>
      <trkpt lat="44.0868" lon="3.58953">
        <ele>575.97</ele>
        <time>2016-04-03T14:30:55Z</time>
      </trkpt>
      <trkpt lat="44.08684" lon="3.58938">
        <ele>575.49</ele>
        <time>2016-04-03T14:30:56Z</time>
      </trkpt>
      <trkpt lat="44.08689" lon="3.58925">
        <ele>576.45</ele>
        <time>2016-04-03T14:30:57Z</time>
      </trkpt>
      <trkpt lat="44.08694" lon="3.58913">
        <ele>577.89</ele>
        <time>2016-04-03T14:30:58Z</time>
      </trkpt>
      <trkpt lat="44.08699" lon="3.589">
        <ele>577.41</ele>
        <time>2016-04-03T14:30:59Z</time>
      </trkpt>
      <trkpt lat="44.08702" lon="3.58885">
        <ele>578.37</ele>
        <time>2016-04-03T14:31:00Z</time>
      </trkpt>
      <trkpt lat="44.08704" lon="3.58871">
        <ele>579.33</ele>
        <time>2016-04-03T14:31:01Z</time>
      </trkpt>
      <trkpt lat="44.08705" lon="3.58857">
        <ele>580.29</ele>
        <time>2016-04-03T14:31:02Z</time>
      </trkpt>
      <trkpt lat="44.08706" lon="3.58841">
        <ele>581.25</ele>
        <time>2016-04-03T14:31:03Z</time>
      </trkpt>
      <trkpt lat="44.08698" lon="3.58698">
        <ele>588.95</ele>
        <time>2016-04-03T14:31:11Z</time>
      </trkpt>
      <trkpt lat="44.08698" lon="3.58659">
        <ele>590.87</ele>
        <time>2016-04-03T14:31:13Z</time>
      </trkpt>
      <trkpt lat="44.08701" lon="3.58644">
        <ele>590.87</ele>
        <time>2016-04-03T14:31:14Z</time>
      </trkpt>
      <trkpt lat="44.08705" lon="3.58628">
        <ele>592.31</ele>
        <time>2016-04-03T14:31:15Z</time>
      </trkpt>
      <trkpt lat="44.08711" lon="3.58618">
        <ele>592.79</ele>
        <time>2016-04-03T14:31:16Z</time>
      </trkpt>
      <trkpt lat="44.08721" lon="3.5861">
        <ele>593.75</ele>
        <time>2016-04-03T14:31:17Z</time>
      </trkpt>
      <trkpt lat="44.08739" lon="3.58604">
        <ele>595.67</ele>
        <time>2016-04-03T14:31:18Z</time>
      </trkpt>
      <trkpt lat="44.08768" lon="3.58605">
        <ele>598.08</ele>
        <time>2016-04-03T14:31:20Z</time>
      </trkpt>
      <trkpt lat="44.08784" lon="3.5861">
        <ele>599.04</ele>
        <time>2016-04-03T14:31:21Z</time>
      </trkpt>
      <trkpt lat="44.08797" lon="3.58616">
        <ele>600.48</ele>
        <time>2016-04-03T14:31:22Z</time>
      </trkpt>
      <trkpt lat="44.08813" lon="3.58619">
        <ele>601.44</ele>
        <time>2016-04-03T14:31:23Z</time>
      </trkpt>
      <trkpt lat="44.08842" lon="3.58614">
        <ele>602.88</ele>
        <time>2016-04-03T14:31:25Z</time>
      </trkpt>
      <trkpt lat="44.08855" lon="3.58607">
        <ele>603.36</ele>
        <time>2016-04-03T14:31:26Z</time>
      </trkpt>
      <trkpt lat="44.08864" lon="3.58596">
        <ele>603.85</ele>
        <time>2016-04-03T14:31:27Z</time>
      </trkpt>
      <trkpt lat="44.08874" lon="3.58557">
        <ele>604.33</ele>
        <time>2016-04-03T14:31:29Z</time>
      </trkpt>
      <trkpt lat="44.08876" lon="3.58537">
        <ele>605.29</ele>
        <time>2016-04-03T14:31:30Z</time>
      </trkpt>
      <trkpt lat="44.08873" lon="3.58519">
        <ele>605.29</ele>
        <time>2016-04-03T14:31:31Z</time>
      </trkpt>
      <trkpt lat="44.08869" lon="3.585">
        <ele>606.25</ele>
        <time>2016-04-03T14:31:32Z</time>
      </trkpt>
      <trkpt lat="44.08864" lon="3.58482">
        <ele>607.69</ele>
        <time>2016-04-03T14:31:33Z</time>
      </trkpt>
      <trkpt lat="44.08859" lon="3.58463">
        <ele>608.17</ele>
        <time>2016-04-03T14:31:34Z</time>
      </trkpt>
      <trkpt lat="44.08854" lon="3.58444">
        <ele>609.13</ele>
        <time>2016-04-03T14:31:35Z</time>
      </trkpt>
      <trkpt lat="44.08851" lon="3.58424">
        <ele>610.09</ele>
        <time>2016-04-03T14:31:36Z</time>
      </trkpt>
      <trkpt lat="44.0885" lon="3.58404">
        <ele>610.57</ele>
        <time>2016-04-03T14:31:37Z</time>
      </trkpt>
      <trkpt lat="44.0885" lon="3.58383">
        <ele>611.54</ele>
        <time>2016-04-03T14:31:38Z</time>
      </trkpt>
      <trkpt lat="44.0885" lon="3.58361">
        <ele>612.5</ele>
        <time>2016-04-03T14:31:39Z</time>
      </trkpt>
      <trkpt lat="44.08853" lon="3.58226">
        <ele>618.75</ele>
        <time>2016-04-03T14:31:46Z</time>
      </trkpt>
      <trkpt lat="44.08858" lon="3.58211">
        <ele>619.23</ele>
        <time>2016-04-03T14:31:47Z</time>
      </trkpt>
      <trkpt lat="44.08866" lon="3.58199">
        <ele>620.19</ele>
        <time>2016-04-03T14:31:48Z</time>
      </trkpt>
      <trkpt lat="44.08877" lon="3.58194">
        <ele>621.15</ele>
        <time>2016-04-03T14:31:49Z</time>
      </trkpt>
      <trkpt lat="44.08889" lon="3.58196">
        <ele>622.11</ele>
        <time>2016-04-03T14:31:50Z</time>
      </trkpt>
      <trkpt lat="44.08898" lon="3.58205">
        <ele>623.07</ele>
        <time>2016-04-03T14:31:51Z</time>
      </trkpt>
      <trkpt lat="44.08906" lon="3.58215">
        <ele>624.03</ele>
        <time>2016-04-03T14:31:52Z</time>
      </trkpt>
      <trkpt lat="44.08915" lon="3.58223">
        <ele>624.51</ele>
        <time>2016-04-03T14:31:53Z</time>
      </trkpt>
      <trkpt lat="44.08924" lon="3.58228">
        <ele>624.99</ele>
        <time>2016-04-03T14:31:54Z</time>
      </trkpt>
      <trkpt lat="44.08934" lon="3.58225">
        <ele>625.47</ele>
        <time>2016-04-03T14:31:55Z</time>
      </trkpt>
      <trkpt lat="44.08942" lon="3.58216">
        <ele>625.96</ele>
        <time>2016-04-03T14:31:56Z</time>
      </trkpt>
      <trkpt lat="44.08948" lon="3.58203">
        <ele>625.96</ele>
        <time>2016-04-03T14:31:57Z</time>
      </trkpt>
      <trkpt lat="44.08953" lon="3.58187">
        <ele>627.4</ele>
        <time>2016-04-03T14:31:58Z</time>
      </trkpt>
      <trkpt lat="44.08959" lon="3.58169">
        <ele>628.36</ele>
        <time>2016-04-03T14:31:59Z</time>
      </trkpt>
      <trkpt lat="44.09028" lon="3.58026">
        <ele>636.05</ele>
        <time>2016-04-03T14:32:08Z</time>
      </trkpt>
      <trkpt lat="44.09035" lon="3.58015">
        <ele>637.01</ele>
        <time>2016-04-03T14:32:09Z</time>
      </trkpt>
      <trkpt lat="44.09045" lon="3.5801">
        <ele>637.49</ele>
        <time>2016-04-03T14:32:10Z</time>
      </trkpt>
      <trkpt lat="44.09055" lon="3.58009">
        <ele>638.45</ele>
        <time>2016-04-03T14:32:11Z</time>
      </trkpt>
      <trkpt lat="44.09064" lon="3.58016">
        <ele>638.93</ele>
        <time>2016-04-03T14:32:12Z</time>
      </trkpt>
      <trkpt lat="44.09073" lon="3.58026">
        <ele>639.41</ele>
        <time>2016-04-03T14:32:13Z</time>
      </trkpt>
      <trkpt lat="44.0908" lon="3.58038">
        <ele>640.38</ele>
        <time>2016-04-03T14:32:14Z</time>
      </trkpt>
      <trkpt lat="44.09086" lon="3.58052">
        <ele>640.86</ele>
        <time>2016-04-03T14:32:15Z</time>
      </trkpt>
      <trkpt lat="44.09091" lon="3.58068">
        <ele>641.82</ele>
        <time>2016-04-03T14:32:16Z</time>
      </trkpt>
      <trkpt lat="44.09097" lon="3.58083">
        <ele>642.3</ele>
        <time>2016-04-03T14:32:17Z</time>
      </trkpt>
      <trkpt lat="44.0911" lon="3.5811">
        <ele>642.78</ele>
        <time>2016-04-03T14:32:19Z</time>
      </trkpt>
      <trkpt lat="44.09117" lon="3.5812">
        <ele>643.26</ele>
        <time>2016-04-03T14:32:20Z</time>
      </trkpt>
      <trkpt lat="44.09126" lon="3.5812">
        <ele>643.74</ele>
        <time>2016-04-03T14:32:21Z</time>
      </trkpt>
      <trkpt lat="44.09136" lon="3.58113">
        <ele>643.74</ele>
        <time>2016-04-03T14:32:22Z</time>
      </trkpt>
      <trkpt lat="44.09145" lon="3.58104">
        <ele>643.74</ele>
        <time>2016-04-03T14:32:23Z</time>
      </trkpt>
      <trkpt lat="44.09153" lon="3.58093">
        <ele>644.7</ele>
        <time>2016-04-03T14:32:24Z</time>
      </trkpt>
      <trkpt lat="44.09161" lon="3.58079">
        <ele>645.66</ele>
        <time>2016-04-03T14:32:25Z</time>
      </trkpt>
      <trkpt lat="44.09169" lon="3.58065">
        <ele>646.14</ele>
        <time>2016-04-03T14:32:26Z</time>
      </trkpt>
      <trkpt lat="44.0928" lon="3.57866">
        <ele>656.72</ele>
        <time>2016-04-03T14:32:39Z</time>
      </trkpt>
      <trkpt lat="44.09302" lon="3.57815">
        <ele>659.6</ele>
        <time>2016-04-03T14:32:42Z</time>
      </trkpt>
      <trkpt lat="44.09331" lon="3.57725">
        <ele>663.93</ele>
        <time>2016-04-03T14:32:47Z</time>
      </trkpt>
      <trkpt lat="44.09335" lon="3.57706">
        <ele>664.89</ele>
        <time>2016-04-03T14:32:48Z</time>
      </trkpt>
      <trkpt lat="44.09336" lon="3.57686">
        <ele>665.37</ele>
        <time>2016-04-03T14:32:49Z</time>
      </trkpt>
      <trkpt lat="44.09336" lon="3.57667">
        <ele>666.33</ele>
        <time>2016-04-03T14:32:50Z</time>
      </trkpt>
      <trkpt lat="44.09336" lon="3.57648">
        <ele>667.29</ele>
        <time>2016-04-03T14:32:51Z</time>
      </trkpt>
      <trkpt lat="44.09339" lon="3.5763">
        <ele>668.25</ele>
        <time>2016-04-03T14:32:52Z</time>
      </trkpt>
      <trkpt lat="44.09342" lon="3.57614">
        <ele>669.22</ele>
        <time>2016-04-03T14:32:53Z</time>
      </trkpt>
      <trkpt lat="44.09348" lon="3.576">
        <ele>669.7</ele>
        <time>2016-04-03T14:32:54Z</time>
      </trkpt>
      <trkpt lat="44.09356" lon="3.5759">
        <ele>669.7</ele>
        <time>2016-04-03T14:32:55Z</time>
      </trkpt>
      <trkpt lat="44.09366" lon="3.5758">
        <ele>672.1</ele>
        <time>2016-04-03T14:32:56Z</time>
      </trkpt>
      <trkpt lat="44.09372" lon="3.57567">
        <ele>673.06</ele>
        <time>2016-04-03T14:32:57Z</time>
      </trkpt>
      <trkpt lat="44.09374" lon="3.57551">
        <ele>673.54</ele>
        <time>2016-04-03T14:32:58Z</time>
      </trkpt>
      <trkpt lat="44.09372" lon="3.57534">
        <ele>674.5</ele>
        <time>2016-04-03T14:32:59Z</time>
      </trkpt>
      <trkpt lat="44.09369" lon="3.57517">
        <ele>674.98</ele>
        <time>2016-04-03T14:33:00Z</time>
      </trkpt>
      <trkpt lat="44.09365" lon="3.575">
        <ele>675.94</ele>
        <time>2016-04-03T14:33:01Z</time>
      </trkpt>
      <trkpt lat="44.0936" lon="3.57467">
        <ele>676.91</ele>
        <time>2016-04-03T14:33:03Z</time>
      </trkpt>
      <trkpt lat="44.0936" lon="3.57452">
        <ele>676.91</ele>
        <time>2016-04-03T14:33:04Z</time>
      </trkpt>
      <trkpt lat="44.09363" lon="3.57439">
        <ele>676.91</ele>
        <time>2016-04-03T14:33:05Z</time>
      </trkpt>
      <trkpt lat="44.0937" lon="3.5743">
        <ele>676.42</ele>
        <time>2016-04-03T14:33:06Z</time>
      </trkpt>
      <trkpt lat="44.0938" lon="3.57423">
        <ele>676.42</ele>
        <time>2016-04-03T14:33:07Z</time>
      </trkpt>
      <trkpt lat="44.09388" lon="3.57413">
        <ele>676.42</ele>
        <time>2016-04-03T14:33:08Z</time>
      </trkpt>
      <trkpt lat="44.09394" lon="3.574">
        <ele>676.91</ele>
        <time>2016-04-03T14:33:09Z</time>
      </trkpt>
      <trkpt lat="44.094" lon="3.57385">
        <ele>677.87</ele>
        <time>2016-04-03T14:33:10Z</time>
      </trkpt>
      <trkpt lat="44.09406" lon="3.57369">
        <ele>678.83</ele>
        <time>2016-04-03T14:33:11Z</time>
      </trkpt>
      <trkpt lat="44.09418" lon="3.57317">
        <ele>682.19</ele>
        <time>2016-04-03T14:33:14Z</time>
      </trkpt>
      <trkpt lat="44.09418" lon="3.57299">
        <ele>683.15</ele>
        <time>2016-04-03T14:33:15Z</time>
      </trkpt>
      <trkpt lat="44.09416" lon="3.57281">
        <ele>684.12</ele>
        <time>2016-04-03T14:33:16Z</time>
      </trkpt>
      <trkpt lat="44.09415" lon="3.57263">
        <ele>685.08</ele>
        <time>2016-04-03T14:33:17Z</time>
      </trkpt>
      <trkpt lat="44.09414" lon="3.57245">
        <ele>686.04</ele>
        <time>2016-04-03T14:33:18Z</time>
      </trkpt>
      <trkpt lat="44.09414" lon="3.57226">
        <ele>687</ele>
        <time>2016-04-03T14:33:19Z</time>
      </trkpt>
      <trkpt lat="44.09415" lon="3.57192">
        <ele>688.44</ele>
        <time>2016-04-03T14:33:21Z</time>
      </trkpt>
      <trkpt lat="44.09418" lon="3.57176">
        <ele>688.92</ele>
        <time>2016-04-03T14:33:22Z</time>
      </trkpt>
      <trkpt lat="44.09425" lon="3.57162">
        <ele>688.92</ele>
        <time>2016-04-03T14:33:23Z</time>
      </trkpt>
      <trkpt lat="44.09433" lon="3.57149">
        <ele>689.4</ele>
        <time>2016-04-03T14:33:24Z</time>
      </trkpt>
      <trkpt lat="44.09443" lon="3.57138">
        <ele>690.36</ele>
        <time>2016-04-03T14:33:25Z</time>
      </trkpt>
      <trkpt lat="44.09452" lon="3.57128">
        <ele>691.33</ele>
        <time>2016-04-03T14:33:26Z</time>
      </trkpt>
      <trkpt lat="44.09459" lon="3.57118">
        <ele>691.81</ele>
        <time>2016-04-03T14:33:27Z</time>
      </trkpt>
      <trkpt lat="44.09464" lon="3.57107">
        <ele>692.29</ele>
        <time>2016-04-03T14:33:28Z</time>
      </trkpt>
      <trkpt lat="44.09464" lon="3.57097">
        <ele>692.77</ele>
        <time>2016-04-03T14:33:29Z</time>
      </trkpt>
      <trkpt lat="44.09461" lon="3.57088">
        <ele>693.25</ele>
        <time>2016-04-03T14:33:30Z</time>
      </trkpt>
      <trkpt lat="44.09457" lon="3.57082">
        <ele>694.21</ele>
        <time>2016-04-03T14:33:31Z</time>
      </trkpt>
      <trkpt lat="44.09451" lon="3.57082">
        <ele>695.17</ele>
        <time>2016-04-03T14:33:32Z</time>
      </trkpt>
      <trkpt lat="44.09444" lon="3.57087">
        <ele>696.13</ele>
        <time>2016-04-03T14:33:33Z</time>
      </trkpt>
      <trkpt lat="44.09438" lon="3.57094">
        <ele>696.61</ele>
        <time>2016-04-03T14:33:34Z</time>
      </trkpt>
      <trkpt lat="44.09433" lon="3.57106">
        <ele>696.61</ele>
        <time>2016-04-03T14:33:35Z</time>
      </trkpt>
      <trkpt lat="44.0943" lon="3.57118">
        <ele>696.61</ele>
        <time>2016-04-03T14:33:36Z</time>
      </trkpt>
      <trkpt lat="44.09427" lon="3.5713">
        <ele>697.09</ele>
        <time>2016-04-03T14:33:37Z</time>
      </trkpt>
      <trkpt lat="44.09422" lon="3.57142">
        <ele>698.05</ele>
        <time>2016-04-03T14:33:38Z</time>
      </trkpt>
      <trkpt lat="44.09416" lon="3.57151">
        <ele>699.5</ele>
        <time>2016-04-03T14:33:39Z</time>
      </trkpt>
      <trkpt lat="44.09408" lon="3.57158">
        <ele>699.5</ele>
        <time>2016-04-03T14:33:40Z</time>
      </trkpt>
      <trkpt lat="44.09402" lon="3.57165">
        <ele>702.38</ele>
        <time>2016-04-03T14:33:41Z</time>
      </trkpt>
      <trkpt lat="44.09394" lon="3.57174">
        <ele>702.86</ele>
        <time>2016-04-03T14:33:42Z</time>
      </trkpt>
      <trkpt lat="44.09387" lon="3.57185">
        <ele>703.82</ele>
        <time>2016-04-03T14:33:43Z</time>
      </trkpt>
      <trkpt lat="44.09383" lon="3.57198">
        <ele>704.3</ele>
        <time>2016-04-03T14:33:44Z</time>
      </trkpt>
      <trkpt lat="44.09384" lon="3.57213">
        <ele>704.78</ele>
        <time>2016-04-03T14:33:45Z</time>
      </trkpt>
      <trkpt lat="44.09387" lon="3.57227">
        <ele>705.75</ele>
        <time>2016-04-03T14:33:46Z</time>
      </trkpt>
      <trkpt lat="44.09388" lon="3.57242">
        <ele>706.23</ele>
        <time>2016-04-03T14:33:47Z</time>
      </trkpt>
      <trkpt lat="44.09388" lon="3.57258">
        <ele>706.71</ele>
        <time>2016-04-03T14:33:48Z</time>
      </trkpt>
      <trkpt lat="44.09386" lon="3.57274">
        <ele>707.19</ele>
        <time>2016-04-03T14:33:49Z</time>
      </trkpt>
      <trkpt lat="44.09385" lon="3.57289">
        <ele>707.67</ele>
        <time>2016-04-03T14:33:50Z</time>
      </trkpt>
      <trkpt lat="44.09385" lon="3.57303">
        <ele>708.15</ele>
        <time>2016-04-03T14:33:51Z</time>
      </trkpt>
      <trkpt lat="44.09386" lon="3.57316">
        <ele>708.63</ele>
        <time>2016-04-03T14:33:52Z</time>
      </trkpt>
      <trkpt lat="44.09384" lon="3.5733">
        <ele>709.11</ele>
        <time>2016-04-03T14:33:53Z</time>
      </trkpt>
      <trkpt lat="44.09381" lon="3.57343">
        <ele>709.59</ele>
        <time>2016-04-03T14:33:54Z</time>
      </trkpt>
      <trkpt lat="44.09376" lon="3.57355">
        <ele>710.07</ele>
        <time>2016-04-03T14:33:55Z</time>
      </trkpt>
      <trkpt lat="44.09371" lon="3.57367">
        <ele>710.55</ele>
        <time>2016-04-03T14:33:56Z</time>
      </trkpt>
      <trkpt lat="44.09364" lon="3.57379">
        <ele>711.03</ele>
        <time>2016-04-03T14:33:57Z</time>
      </trkpt>
      <trkpt lat="44.09355" lon="3.57389">
        <ele>711.99</ele>
        <time>2016-04-03T14:33:58Z</time>
      </trkpt>
      <trkpt lat="44.09345" lon="3.57396">
        <ele>712.95</ele>
        <time>2016-04-03T14:33:59Z</time>
      </trkpt>
      <trkpt lat="44.09335" lon="3.57404">
        <ele>713.92</ele>
        <time>2016-04-03T14:34:00Z</time>
      </trkpt>
      <trkpt lat="44.09327" lon="3.57413">
        <ele>717.76</ele>
        <time>2016-04-03T14:34:01Z</time>
      </trkpt>
      <trkpt lat="44.09315" lon="3.57424">
        <ele>715.84</ele>
        <time>2016-04-03T14:34:02Z</time>
      </trkpt>
      <trkpt lat="44.09306" lon="3.57435">
        <ele>716.8</ele>
        <time>2016-04-03T14:34:03Z</time>
      </trkpt>
      <trkpt lat="44.093" lon="3.57449">
        <ele>717.28</ele>
        <time>2016-04-03T14:34:04Z</time>
      </trkpt>
      <trkpt lat="44.09294" lon="3.57465">
        <ele>717.28</ele>
        <time>2016-04-03T14:34:05Z</time>
      </trkpt>
      <trkpt lat="44.0929" lon="3.57482">
        <ele>716.32</ele>
        <time>2016-04-03T14:34:06Z</time>
      </trkpt>
      <trkpt lat="44.09289" lon="3.57499">
        <ele>715.84</ele>
        <time>2016-04-03T14:34:07Z</time>
      </trkpt>
      <trkpt lat="44.09287" lon="3.57516">
        <ele>716.32</ele>
        <time>2016-04-03T14:34:08Z</time>
      </trkpt>
      <trkpt lat="44.09283" lon="3.57531">
        <ele>716.8</ele>
        <time>2016-04-03T14:34:09Z</time>
      </trkpt>
      <trkpt lat="44.09276" lon="3.57544">
        <ele>717.28</ele>
        <time>2016-04-03T14:34:10Z</time>
      </trkpt>
      <trkpt lat="44.09266" lon="3.57555">
        <ele>716.32</ele>
        <time>2016-04-03T14:34:11Z</time>
      </trkpt>
      <trkpt lat="44.09258" lon="3.57567">
        <ele>716.32</ele>
        <time>2016-04-03T14:34:12Z</time>
      </trkpt>
      <trkpt lat="44.0925" lon="3.57582">
        <ele>715.84</ele>
        <time>2016-04-03T14:34:13Z</time>
      </trkpt>
      <trkpt lat="44.09242" lon="3.57598">
        <ele>713.92</ele>
        <time>2016-04-03T14:34:14Z</time>
      </trkpt>
      <trkpt lat="44.09236" lon="3.57615">
        <ele>711.99</ele>
        <time>2016-04-03T14:34:15Z</time>
      </trkpt>
      <trkpt lat="44.09231" lon="3.57634">
        <ele>709.59</ele>
        <time>2016-04-03T14:34:16Z</time>
      </trkpt>
      <trkpt lat="44.09227" lon="3.57652">
        <ele>708.15</ele>
        <time>2016-04-03T14:34:17Z</time>
      </trkpt>
      <trkpt lat="44.09222" lon="3.57671">
        <ele>707.67</ele>
        <time>2016-04-03T14:34:18Z</time>
      </trkpt>
      <trkpt lat="44.09222" lon="3.57689">
        <ele>712.95</ele>
        <time>2016-04-03T14:34:19Z</time>
      </trkpt>
      <trkpt lat="44.09163" lon="3.57805">
        <ele>727.86</ele>
        <time>2016-04-03T14:34:27Z</time>
      </trkpt>
      <trkpt lat="44.09155" lon="3.57813">
        <ele>728.82</ele>
        <time>2016-04-03T14:34:28Z</time>
      </trkpt>
      <trkpt lat="44.09146" lon="3.57819">
        <ele>729.78</ele>
        <time>2016-04-03T14:34:29Z</time>
      </trkpt>
      <trkpt lat="44.09138" lon="3.57817">
        <ele>730.74</ele>
        <time>2016-04-03T14:34:30Z</time>
      </trkpt>
      <trkpt lat="44.0913" lon="3.57812">
        <ele>731.7</ele>
        <time>2016-04-03T14:34:31Z</time>
      </trkpt>
      <trkpt lat="44.09124" lon="3.57802">
        <ele>732.18</ele>
        <time>2016-04-03T14:34:32Z</time>
      </trkpt>
      <trkpt lat="44.09119" lon="3.57789">
        <ele>733.62</ele>
        <time>2016-04-03T14:34:33Z</time>
      </trkpt>
      <trkpt lat="44.09114" lon="3.57775">
        <ele>734.58</ele>
        <time>2016-04-03T14:34:34Z</time>
      </trkpt>
      <trkpt lat="44.0911" lon="3.57759">
        <ele>735.07</ele>
        <time>2016-04-03T14:34:35Z</time>
      </trkpt>
      <trkpt lat="44.09105" lon="3.57743">
        <ele>736.03</ele>
        <time>2016-04-03T14:34:36Z</time>
      </trkpt>
      <trkpt lat="44.09099" lon="3.57728">
        <ele>736.99</ele>
        <time>2016-04-03T14:34:37Z</time>
      </trkpt>
      <trkpt lat="44.09092" lon="3.57713">
        <ele>737.47</ele>
        <time>2016-04-03T14:34:38Z</time>
      </trkpt>
      <trkpt lat="44.09083" lon="3.577">
        <ele>737.95</ele>
        <time>2016-04-03T14:34:39Z</time>
      </trkpt>
      <trkpt lat="44.09073" lon="3.57689">
        <ele>739.39</ele>
        <time>2016-04-03T14:34:40Z</time>
      </trkpt>
      <trkpt lat="44.09043" lon="3.57662">
        <ele>740.83</ele>
        <time>2016-04-03T14:34:43Z</time>
      </trkpt>
      <trkpt lat="44.09032" lon="3.57659">
        <ele>741.31</ele>
        <time>2016-04-03T14:34:44Z</time>
      </trkpt>
      <trkpt lat="44.09021" lon="3.5766">
        <ele>742.28</ele>
        <time>2016-04-03T14:34:45Z</time>
      </trkpt>
      <trkpt lat="44.09012" lon="3.57668">
        <ele>743.24</ele>
        <time>2016-04-03T14:34:46Z</time>
      </trkpt>
      <trkpt lat="44.09009" lon="3.57678">
        <ele>745.16</ele>
        <time>2016-04-03T14:34:47Z</time>
      </trkpt>
      <trkpt lat="44.09007" lon="3.57691">
        <ele>747.08</ele>
        <time>2016-04-03T14:34:48Z</time>
      </trkpt>
      <trkpt lat="44.08996" lon="3.57707">
        <ele>748.04</ele>
        <time>2016-04-03T14:34:49Z</time>
      </trkpt>
      <trkpt lat="44.08988" lon="3.57723">
        <ele>749.49</ele>
        <time>2016-04-03T14:34:50Z</time>
      </trkpt>
      <trkpt lat="44.0898" lon="3.57738">
        <ele>750.45</ele>
        <time>2016-04-03T14:34:51Z</time>
      </trkpt>
      <trkpt lat="44.0897" lon="3.57753">
        <ele>751.41</ele>
        <time>2016-04-03T14:34:52Z</time>
      </trkpt>
      <trkpt lat="44.08959" lon="3.57767">
        <ele>752.37</ele>
        <time>2016-04-03T14:34:53Z</time>
      </trkpt>
      <trkpt lat="44.08948" lon="3.57781">
        <ele>753.33</ele>
        <time>2016-04-03T14:34:54Z</time>
      </trkpt>
      <trkpt lat="44.08881" lon="3.57849">
        <ele>756.69</ele>
        <time>2016-04-03T14:35:00Z</time>
      </trkpt>
      <trkpt lat="44.08871" lon="3.57854">
        <ele>757.18</ele>
        <time>2016-04-03T14:35:01Z</time>
      </trkpt>
      <trkpt lat="44.08859" lon="3.57853">
        <ele>757.66</ele>
        <time>2016-04-03T14:35:02Z</time>
      </trkpt>
      <trkpt lat="44.08848" lon="3.5785">
        <ele>758.14</ele>
        <time>2016-04-03T14:35:03Z</time>
      </trkpt>
      <trkpt lat="44.08835" lon="3.57847">
        <ele>759.1</ele>
        <time>2016-04-03T14:35:04Z</time>
      </trkpt>
      <trkpt lat="44.08796" lon="3.57838">
        <ele>760.54</ele>
        <time>2016-04-03T14:35:07Z</time>
      </trkpt>
      <trkpt lat="44.08784" lon="3.5783">
        <ele>761.5</ele>
        <time>2016-04-03T14:35:08Z</time>
      </trkpt>
      <trkpt lat="44.08772" lon="3.5782">
        <ele>762.46</ele>
        <time>2016-04-03T14:35:09Z</time>
      </trkpt>
      <trkpt lat="44.08761" lon="3.57807">
        <ele>763.42</ele>
        <time>2016-04-03T14:35:10Z</time>
      </trkpt>
      <trkpt lat="44.0875" lon="3.57795">
        <ele>764.39</ele>
        <time>2016-04-03T14:35:11Z</time>
      </trkpt>
      <trkpt lat="44.08718" lon="3.57769">
        <ele>769.67</ele>
        <time>2016-04-03T14:35:14Z</time>
      </trkpt>
      <trkpt lat="44.08708" lon="3.57763">
        <ele>770.15</ele>
        <time>2016-04-03T14:35:15Z</time>
      </trkpt>
      <trkpt lat="44.08698" lon="3.57761">
        <ele>771.11</ele>
        <time>2016-04-03T14:35:16Z</time>
      </trkpt>
      <trkpt lat="44.08691" lon="3.57763">
        <ele>772.08</ele>
        <time>2016-04-03T14:35:17Z</time>
      </trkpt>
      <trkpt lat="44.08688" lon="3.57771">
        <ele>774</ele>
        <time>2016-04-03T14:35:18Z</time>
      </trkpt>
      <trkpt lat="44.08683" lon="3.57779">
        <ele>775.92</ele>
        <time>2016-04-03T14:35:19Z</time>
      </trkpt>
      <trkpt lat="44.08674" lon="3.57793">
        <ele>778.81</ele>
        <time>2016-04-03T14:35:20Z</time>
      </trkpt>
      <trkpt lat="44.08664" lon="3.57806">
        <ele>779.29</ele>
        <time>2016-04-03T14:35:21Z</time>
      </trkpt>
      <trkpt lat="44.08656" lon="3.5782">
        <ele>780.73</ele>
        <time>2016-04-03T14:35:22Z</time>
      </trkpt>
      <trkpt lat="44.08649" lon="3.57834">
        <ele>782.65</ele>
        <time>2016-04-03T14:35:23Z</time>
      </trkpt>
      <trkpt lat="44.08643" lon="3.57853">
        <ele>783.13</ele>
        <time>2016-04-03T14:35:24Z</time>
      </trkpt>
      <trkpt lat="44.08638" lon="3.5787">
        <ele>783.61</ele>
        <time>2016-04-03T14:35:25Z</time>
      </trkpt>
      <trkpt lat="44.08636" lon="3.57885">
        <ele>782.65</ele>
        <time>2016-04-03T14:35:26Z</time>
      </trkpt>
      <trkpt lat="44.08637" lon="3.57902">
        <ele>781.69</ele>
        <time>2016-04-03T14:35:27Z</time>
      </trkpt>
      <trkpt lat="44.08641" lon="3.5792">
        <ele>781.21</ele>
        <time>2016-04-03T14:35:28Z</time>
      </trkpt>
      <trkpt lat="44.08643" lon="3.57939">
        <ele>781.21</ele>
        <time>2016-04-03T14:35:29Z</time>
      </trkpt>
      <trkpt lat="44.08645" lon="3.5796">
        <ele>781.69</ele>
        <time>2016-04-03T14:35:30Z</time>
      </trkpt>
      <trkpt lat="44.08647" lon="3.5798">
        <ele>782.65</ele>
        <time>2016-04-03T14:35:31Z</time>
      </trkpt>
      <trkpt lat="44.08645" lon="3.58022">
        <ele>783.13</ele>
        <time>2016-04-03T14:35:33Z</time>
      </trkpt>
      <trkpt lat="44.08641" lon="3.58043">
        <ele>783.61</ele>
        <time>2016-04-03T14:35:34Z</time>
      </trkpt>
      <trkpt lat="44.08627" lon="3.58117">
        <ele>786.98</ele>
        <time>2016-04-03T14:35:38Z</time>
      </trkpt>
      <trkpt lat="44.08616" lon="3.58128">
        <ele>785.05</ele>
        <time>2016-04-03T14:35:39Z</time>
      </trkpt>
      <trkpt lat="44.08605" lon="3.58134">
        <ele>784.57</ele>
        <time>2016-04-03T14:35:40Z</time>
      </trkpt>
      <trkpt lat="44.08593" lon="3.58136">
        <ele>784.57</ele>
        <time>2016-04-03T14:35:41Z</time>
      </trkpt>
      <trkpt lat="44.08581" lon="3.58133">
        <ele>786.02</ele>
        <time>2016-04-03T14:35:42Z</time>
      </trkpt>
      <trkpt lat="44.08569" lon="3.58129">
        <ele>787.46</ele>
        <time>2016-04-03T14:35:43Z</time>
      </trkpt>
      <trkpt lat="44.08556" lon="3.58125">
        <ele>788.42</ele>
        <time>2016-04-03T14:35:44Z</time>
      </trkpt>
      <trkpt lat="44.08522" lon="3.58117">
        <ele>789.38</ele>
        <time>2016-04-03T14:35:47Z</time>
      </trkpt>
      <trkpt lat="44.08513" lon="3.5812">
        <ele>789.38</ele>
        <time>2016-04-03T14:35:48Z</time>
      </trkpt>
      <trkpt lat="44.08505" lon="3.58124">
        <ele>789.38</ele>
        <time>2016-04-03T14:35:49Z</time>
      </trkpt>
      <trkpt lat="44.08496" lon="3.5813">
        <ele>788.9</ele>
        <time>2016-04-03T14:35:50Z</time>
      </trkpt>
      <trkpt lat="44.08487" lon="3.58138">
        <ele>788.42</ele>
        <time>2016-04-03T14:35:51Z</time>
      </trkpt>
      <trkpt lat="44.08477" lon="3.58145">
        <ele>788.42</ele>
        <time>2016-04-03T14:35:52Z</time>
      </trkpt>
      <trkpt lat="44.08464" lon="3.58151">
        <ele>788.42</ele>
        <time>2016-04-03T14:35:53Z</time>
      </trkpt>
      <trkpt lat="44.08451" lon="3.58155">
        <ele>788.9</ele>
        <time>2016-04-03T14:35:54Z</time>
      </trkpt>
      <trkpt lat="44.08436" lon="3.5816">
        <ele>789.86</ele>
        <time>2016-04-03T14:35:55Z</time>
      </trkpt>
      <trkpt lat="44.08399" lon="3.58167">
        <ele>792.74</ele>
        <time>2016-04-03T14:35:58Z</time>
      </trkpt>
      <trkpt lat="44.0839" lon="3.58172">
        <ele>793.22</ele>
        <time>2016-04-03T14:35:59Z</time>
      </trkpt>
      <trkpt lat="44.08384" lon="3.58193">
        <ele>796.11</ele>
        <time>2016-04-03T14:36:00Z</time>
      </trkpt>
      <trkpt lat="44.08377" lon="3.58204">
        <ele>797.07</ele>
        <time>2016-04-03T14:36:01Z</time>
      </trkpt>
      <trkpt lat="44.08378" lon="3.58211">
        <ele>797.55</ele>
        <time>2016-04-03T14:36:02Z</time>
      </trkpt>
      <trkpt lat="44.08379" lon="3.58224">
        <ele>798.51</ele>
        <time>2016-04-03T14:36:03Z</time>
      </trkpt>
      <trkpt lat="44.08376" lon="3.58241">
        <ele>799.47</ele>
        <time>2016-04-03T14:36:04Z</time>
      </trkpt>
      <trkpt lat="44.08373" lon="3.58257">
        <ele>800.44</ele>
        <time>2016-04-03T14:36:05Z</time>
      </trkpt>
      <trkpt lat="44.08368" lon="3.58352">
        <ele>805.72</ele>
        <time>2016-04-03T14:36:11Z</time>
      </trkpt>
      <trkpt lat="44.0837" lon="3.58366">
        <ele>806.2</ele>
        <time>2016-04-03T14:36:12Z</time>
      </trkpt>
      <trkpt lat="44.08371" lon="3.58401">
        <ele>807.16</ele>
        <time>2016-04-03T14:36:15Z</time>
      </trkpt>
      <trkpt lat="44.08365" lon="3.5841">
        <ele>807.16</ele>
        <time>2016-04-03T14:36:16Z</time>
      </trkpt>
      <trkpt lat="44.08357" lon="3.58414">
        <ele>807.16</ele>
        <time>2016-04-03T14:36:17Z</time>
      </trkpt>
      <trkpt lat="44.08348" lon="3.58412">
        <ele>808.13</ele>
        <time>2016-04-03T14:36:18Z</time>
      </trkpt>
      <trkpt lat="44.08343" lon="3.58405">
        <ele>809.09</ele>
        <time>2016-04-03T14:36:19Z</time>
      </trkpt>
      <trkpt lat="44.08341" lon="3.58394">
        <ele>810.53</ele>
        <time>2016-04-03T14:36:20Z</time>
      </trkpt>
      <trkpt lat="44.0834" lon="3.5838">
        <ele>809.57</ele>
        <time>2016-04-03T14:36:21Z</time>
      </trkpt>
      <trkpt lat="44.08341" lon="3.58367">
        <ele>810.05</ele>
        <time>2016-04-03T14:36:22Z</time>
      </trkpt>
      <trkpt lat="44.08345" lon="3.58348">
        <ele>810.05</ele>
        <time>2016-04-03T14:36:23Z</time>
      </trkpt>
      <trkpt lat="44.08347" lon="3.58328">
        <ele>811.49</ele>
        <time>2016-04-03T14:36:24Z</time>
      </trkpt>
      <trkpt lat="44.08347" lon="3.58212">
        <ele>817.26</ele>
        <time>2016-04-03T14:36:31Z</time>
      </trkpt>
      <trkpt lat="44.08342" lon="3.58167">
        <ele>819.18</ele>
        <time>2016-04-03T14:36:34Z</time>
      </trkpt>
      <trkpt lat="44.08343" lon="3.58152">
        <ele>819.66</ele>
        <time>2016-04-03T14:36:35Z</time>
      </trkpt>
      <trkpt lat="44.08344" lon="3.58138">
        <ele>820.14</ele>
        <time>2016-04-03T14:36:36Z</time>
      </trkpt>
      <trkpt lat="44.08347" lon="3.58127">
        <ele>819.66</ele>
        <time>2016-04-03T14:36:37Z</time>
      </trkpt>
      <trkpt lat="44.08352" lon="3.58119">
        <ele>818.7</ele>
        <time>2016-04-03T14:36:38Z</time>
      </trkpt>
      <trkpt lat="44.0836" lon="3.58115">
        <ele>818.7</ele>
        <time>2016-04-03T14:36:39Z</time>
      </trkpt>
      <trkpt lat="44.08378" lon="3.58112">
        <ele>820.62</ele>
        <time>2016-04-03T14:36:40Z</time>
      </trkpt>
      <trkpt lat="44.08397" lon="3.58111">
        <ele>823.99</ele>
        <time>2016-04-03T14:36:41Z</time>
      </trkpt>
      <trkpt lat="44.0841" lon="3.58107">
        <ele>825.43</ele>
        <time>2016-04-03T14:36:42Z</time>
      </trkpt>
      <trkpt lat="44.08422" lon="3.58102">
        <ele>826.87</ele>
        <time>2016-04-03T14:36:43Z</time>
      </trkpt>
      <trkpt lat="44.08434" lon="3.58094">
        <ele>828.31</ele>
        <time>2016-04-03T14:36:44Z</time>
      </trkpt>
      <trkpt lat="44.08445" lon="3.58085">
        <ele>829.27</ele>
        <time>2016-04-03T14:36:45Z</time>
      </trkpt>
      <trkpt lat="44.08457" lon="3.58076">
        <ele>830.24</ele>
        <time>2016-04-03T14:36:46Z</time>
      </trkpt>
      <trkpt lat="44.08545" lon="3.57994">
        <ele>833.6</ele>
        <time>2016-04-03T14:36:54Z</time>
      </trkpt>
      <trkpt lat="44.08555" lon="3.5798">
        <ele>834.56</ele>
        <time>2016-04-03T14:36:55Z</time>
      </trkpt>
      <trkpt lat="44.08558" lon="3.57964">
        <ele>834.56</ele>
        <time>2016-04-03T14:36:56Z</time>
      </trkpt>
      <trkpt lat="44.08558" lon="3.57946">
        <ele>836</ele>
        <time>2016-04-03T14:36:57Z</time>
      </trkpt>
      <trkpt lat="44.08555" lon="3.57927">
        <ele>836.96</ele>
        <time>2016-04-03T14:36:58Z</time>
      </trkpt>
      <trkpt lat="44.0855" lon="3.57908">
        <ele>837.93</ele>
        <time>2016-04-03T14:36:59Z</time>
      </trkpt>
      <trkpt lat="44.08544" lon="3.57891">
        <ele>838.89</ele>
        <time>2016-04-03T14:37:00Z</time>
      </trkpt>
      <trkpt lat="44.08537" lon="3.57874">
        <ele>839.37</ele>
        <time>2016-04-03T14:37:01Z</time>
      </trkpt>
      <trkpt lat="44.08529" lon="3.57857">
        <ele>840.33</ele>
        <time>2016-04-03T14:37:02Z</time>
      </trkpt>
      <trkpt lat="44.08508" lon="3.57759">
        <ele>843.21</ele>
        <time>2016-04-03T14:37:08Z</time>
      </trkpt>
      <trkpt lat="44.08514" lon="3.57744">
        <ele>842.73</ele>
        <time>2016-04-03T14:37:09Z</time>
      </trkpt>
      <trkpt lat="44.08524" lon="3.5773">
        <ele>842.25</ele>
        <time>2016-04-03T14:37:10Z</time>
      </trkpt>
      <trkpt lat="44.08536" lon="3.57717">
        <ele>842.25</ele>
        <time>2016-04-03T14:37:11Z</time>
      </trkpt>
      <trkpt lat="44.08546" lon="3.57704">
        <ele>842.25</ele>
        <time>2016-04-03T14:37:12Z</time>
      </trkpt>
      <trkpt lat="44.08582" lon="3.5766">
        <ele>841.77</ele>
        <time>2016-04-03T14:37:16Z</time>
      </trkpt>
      <trkpt lat="44.0859" lon="3.57649">
        <ele>844.18</ele>
        <time>2016-04-03T14:37:17Z</time>
      </trkpt>
      <trkpt lat="44.08597" lon="3.57638">
        <ele>847.06</ele>
        <time>2016-04-03T14:37:18Z</time>
      </trkpt>
      <trkpt lat="44.08601" lon="3.57624">
        <ele>848.98</ele>
        <time>2016-04-03T14:37:19Z</time>
      </trkpt>
      <trkpt lat="44.08604" lon="3.57611">
        <ele>850.42</ele>
        <time>2016-04-03T14:37:20Z</time>
      </trkpt>
      <trkpt lat="44.08607" lon="3.57598">
        <ele>851.38</ele>
        <time>2016-04-03T14:37:21Z</time>
      </trkpt>
      <trkpt lat="44.08612" lon="3.57586">
        <ele>853.31</ele>
        <time>2016-04-03T14:37:22Z</time>
      </trkpt>
      <trkpt lat="44.08618" lon="3.57574">
        <ele>854.75</ele>
        <time>2016-04-03T14:37:23Z</time>
      </trkpt>
      <trkpt lat="44.08623" lon="3.57563">
        <ele>855.23</ele>
        <time>2016-04-03T14:37:24Z</time>
      </trkpt>
      <trkpt lat="44.0863" lon="3.57554">
        <ele>856.67</ele>
        <time>2016-04-03T14:37:25Z</time>
      </trkpt>
      <trkpt lat="44.08639" lon="3.57546">
        <ele>858.59</ele>
        <time>2016-04-03T14:37:26Z</time>
      </trkpt>
      <trkpt lat="44.08648" lon="3.5754">
        <ele>859.56</ele>
        <time>2016-04-03T14:37:27Z</time>
      </trkpt>
      <trkpt lat="44.08659" lon="3.57538">
        <ele>860.04</ele>
        <time>2016-04-03T14:37:28Z</time>
      </trkpt>
      <trkpt lat="44.0867" lon="3.57537">
        <ele>860.04</ele>
        <time>2016-04-03T14:37:29Z</time>
      </trkpt>
      <trkpt lat="44.08681" lon="3.57537">
        <ele>860.52</ele>
        <time>2016-04-03T14:37:30Z</time>
      </trkpt>
      <trkpt lat="44.08694" lon="3.5754">
        <ele>861.48</ele>
        <time>2016-04-03T14:37:31Z</time>
      </trkpt>
      <trkpt lat="44.08705" lon="3.57546">
        <ele>861.96</ele>
        <time>2016-04-03T14:37:32Z</time>
      </trkpt>
      <trkpt lat="44.08715" lon="3.57554">
        <ele>862.92</ele>
        <time>2016-04-03T14:37:33Z</time>
      </trkpt>
      <trkpt lat="44.08725" lon="3.57563">
        <ele>863.4</ele>
        <time>2016-04-03T14:37:34Z</time>
      </trkpt>
      <trkpt lat="44.08779" lon="3.57598">
        <ele>867.25</ele>
        <time>2016-04-03T14:37:39Z</time>
      </trkpt>
      <trkpt lat="44.0879" lon="3.57596">
        <ele>867.73</ele>
        <time>2016-04-03T14:37:40Z</time>
      </trkpt>
      <trkpt lat="44.088" lon="3.5759">
        <ele>868.21</ele>
        <time>2016-04-03T14:37:41Z</time>
      </trkpt>
      <trkpt lat="44.08808" lon="3.57583">
        <ele>868.21</ele>
        <time>2016-04-03T14:37:42Z</time>
      </trkpt>
      <trkpt lat="44.08814" lon="3.57567">
        <ele>868.21</ele>
        <time>2016-04-03T14:37:43Z</time>
      </trkpt>
      <trkpt lat="44.0882" lon="3.5755">
        <ele>869.17</ele>
        <time>2016-04-03T14:37:44Z</time>
      </trkpt>
      <trkpt lat="44.08825" lon="3.57534">
        <ele>870.13</ele>
        <time>2016-04-03T14:37:45Z</time>
      </trkpt>
      <trkpt lat="44.08828" lon="3.57514">
        <ele>871.09</ele>
        <time>2016-04-03T14:37:46Z</time>
      </trkpt>
      <trkpt lat="44.08832" lon="3.57494">
        <ele>872.53</ele>
        <time>2016-04-03T14:37:47Z</time>
      </trkpt>
      <trkpt lat="44.08864" lon="3.5734">
        <ele>879.26</ele>
        <time>2016-04-03T14:37:55Z</time>
      </trkpt>
      <trkpt lat="44.08869" lon="3.57324">
        <ele>879.74</ele>
        <time>2016-04-03T14:37:56Z</time>
      </trkpt>
      <trkpt lat="44.08879" lon="3.57316">
        <ele>881.67</ele>
        <time>2016-04-03T14:37:57Z</time>
      </trkpt>
      <trkpt lat="44.08891" lon="3.57309">
        <ele>883.11</ele>
        <time>2016-04-03T14:37:58Z</time>
      </trkpt>
      <trkpt lat="44.08905" lon="3.57305">
        <ele>883.59</ele>
        <time>2016-04-03T14:37:59Z</time>
      </trkpt>
      <trkpt lat="44.0892" lon="3.573">
        <ele>884.07</ele>
        <time>2016-04-03T14:38:00Z</time>
      </trkpt>
      <trkpt lat="44.08936" lon="3.57301">
        <ele>884.55</ele>
        <time>2016-04-03T14:38:01Z</time>
      </trkpt>
      <trkpt lat="44.08952" lon="3.57305">
        <ele>885.51</ele>
        <time>2016-04-03T14:38:02Z</time>
      </trkpt>
      <trkpt lat="44.08967" lon="3.57313">
        <ele>886.47</ele>
        <time>2016-04-03T14:38:03Z</time>
      </trkpt>
      <trkpt lat="44.0898" lon="3.57324">
        <ele>887.91</ele>
        <time>2016-04-03T14:38:04Z</time>
      </trkpt>
      <trkpt lat="44.08993" lon="3.57334">
        <ele>888.4</ele>
        <time>2016-04-03T14:38:05Z</time>
      </trkpt>
      <trkpt lat="44.09006" lon="3.57342">
        <ele>889.36</ele>
        <time>2016-04-03T14:38:06Z</time>
      </trkpt>
      <trkpt lat="44.0903" lon="3.57349">
        <ele>889.84</ele>
        <time>2016-04-03T14:38:08Z</time>
      </trkpt>
      <trkpt lat="44.09043" lon="3.57342">
        <ele>889.84</ele>
        <time>2016-04-03T14:38:09Z</time>
      </trkpt>
      <trkpt lat="44.09052" lon="3.57332">
        <ele>889.36</ele>
        <time>2016-04-03T14:38:10Z</time>
      </trkpt>
      <trkpt lat="44.09061" lon="3.57319">
        <ele>889.84</ele>
        <time>2016-04-03T14:38:11Z</time>
      </trkpt>
      <trkpt lat="44.0907" lon="3.57303">
        <ele>890.8</ele>
        <time>2016-04-03T14:38:12Z</time>
      </trkpt>
      <trkpt lat="44.09077" lon="3.57285">
        <ele>891.28</ele>
        <time>2016-04-03T14:38:13Z</time>
      </trkpt>
      <trkpt lat="44.09083" lon="3.57267">
        <ele>892.24</ele>
        <time>2016-04-03T14:38:14Z</time>
      </trkpt>
      <trkpt lat="44.09087" lon="3.5725">
        <ele>892.72</ele>
        <time>2016-04-03T14:38:15Z</time>
      </trkpt>
      <trkpt lat="44.09089" lon="3.57232">
        <ele>893.2</ele>
        <time>2016-04-03T14:38:16Z</time>
      </trkpt>
      <trkpt lat="44.09088" lon="3.57213">
        <ele>894.16</ele>
        <time>2016-04-03T14:38:17Z</time>
      </trkpt>
      <trkpt lat="44.09085" lon="3.57194">
        <ele>895.12</ele>
        <time>2016-04-03T14:38:18Z</time>
      </trkpt>
      <trkpt lat="44.09081" lon="3.57176">
        <ele>896.09</ele>
        <time>2016-04-03T14:38:19Z</time>
      </trkpt>
      <trkpt lat="44.09074" lon="3.57117">
        <ele>898.49</ele>
        <time>2016-04-03T14:38:22Z</time>
      </trkpt>
      <trkpt lat="44.09075" lon="3.57098">
        <ele>899.93</ele>
        <time>2016-04-03T14:38:23Z</time>
      </trkpt>
      <trkpt lat="44.09078" lon="3.57077">
        <ele>900.89</ele>
        <time>2016-04-03T14:38:24Z</time>
      </trkpt>
      <trkpt lat="44.09105" lon="3.56959">
        <ele>907.14</ele>
        <time>2016-04-03T14:38:30Z</time>
      </trkpt>
      <trkpt lat="44.09107" lon="3.5694">
        <ele>908.1</ele>
        <time>2016-04-03T14:38:31Z</time>
      </trkpt>
      <trkpt lat="44.09106" lon="3.5692">
        <ele>908.58</ele>
        <time>2016-04-03T14:38:32Z</time>
      </trkpt>
      <trkpt lat="44.09102" lon="3.569">
        <ele>909.06</ele>
        <time>2016-04-03T14:38:33Z</time>
      </trkpt>
      <trkpt lat="44.09095" lon="3.56882">
        <ele>910.03</ele>
        <time>2016-04-03T14:38:34Z</time>
      </trkpt>
      <trkpt lat="44.09084" lon="3.56868">
        <ele>910.99</ele>
        <time>2016-04-03T14:38:35Z</time>
      </trkpt>
      <trkpt lat="44.09072" lon="3.56858">
        <ele>911.47</ele>
        <time>2016-04-03T14:38:36Z</time>
      </trkpt>
      <trkpt lat="44.0906" lon="3.56849">
        <ele>912.43</ele>
        <time>2016-04-03T14:38:37Z</time>
      </trkpt>
      <trkpt lat="44.09051" lon="3.56838">
        <ele>912.91</ele>
        <time>2016-04-03T14:38:38Z</time>
      </trkpt>
      <trkpt lat="44.09043" lon="3.56825">
        <ele>914.35</ele>
        <time>2016-04-03T14:38:39Z</time>
      </trkpt>
      <trkpt lat="44.09037" lon="3.5681">
        <ele>914.83</ele>
        <time>2016-04-03T14:38:40Z</time>
      </trkpt>
      <trkpt lat="44.09036" lon="3.56793">
        <ele>914.83</ele>
        <time>2016-04-03T14:38:41Z</time>
      </trkpt>
      <trkpt lat="44.09039" lon="3.56775">
        <ele>914.35</ele>
        <time>2016-04-03T14:38:42Z</time>
      </trkpt>
      <trkpt lat="44.0905" lon="3.56759">
        <ele>916.27</ele>
        <time>2016-04-03T14:38:43Z</time>
      </trkpt>
      <trkpt lat="44.09063" lon="3.56749">
        <ele>919.64</ele>
        <time>2016-04-03T14:38:44Z</time>
      </trkpt>
      <trkpt lat="44.09073" lon="3.56741">
        <ele>920.12</ele>
        <time>2016-04-03T14:38:45Z</time>
      </trkpt>
      <trkpt lat="44.09081" lon="3.56729">
        <ele>920.6</ele>
        <time>2016-04-03T14:38:46Z</time>
      </trkpt>
      <trkpt lat="44.09087" lon="3.56715">
        <ele>921.08</ele>
        <time>2016-04-03T14:38:47Z</time>
      </trkpt>
      <trkpt lat="44.09093" lon="3.56701">
        <ele>922.04</ele>
        <time>2016-04-03T14:38:48Z</time>
      </trkpt>
      <trkpt lat="44.09099" lon="3.56688">
        <ele>922.52</ele>
        <time>2016-04-03T14:38:49Z</time>
      </trkpt>
      <trkpt lat="44.09107" lon="3.56678">
        <ele>922.52</ele>
        <time>2016-04-03T14:38:50Z</time>
      </trkpt>
      <trkpt lat="44.09116" lon="3.56672">
        <ele>922.52</ele>
        <time>2016-04-03T14:38:51Z</time>
      </trkpt>
      <trkpt lat="44.09128" lon="3.56668">
        <ele>924.45</ele>
        <time>2016-04-03T14:38:52Z</time>
      </trkpt>
      <trkpt lat="44.09141" lon="3.56664">
        <ele>923.96</ele>
        <time>2016-04-03T14:38:53Z</time>
      </trkpt>
      <trkpt lat="44.09158" lon="3.56661">
        <ele>925.41</ele>
        <time>2016-04-03T14:38:54Z</time>
      </trkpt>
      <trkpt lat="44.09216" lon="3.56641">
        <ele>930.21</ele>
        <time>2016-04-03T14:38:58Z</time>
      </trkpt>
      <trkpt lat="44.09227" lon="3.56631">
        <ele>930.69</ele>
        <time>2016-04-03T14:38:59Z</time>
      </trkpt>
      <trkpt lat="44.09236" lon="3.56616">
        <ele>931.65</ele>
        <time>2016-04-03T14:39:00Z</time>
      </trkpt>
      <trkpt lat="44.09245" lon="3.56601">
        <ele>932.62</ele>
        <time>2016-04-03T14:39:01Z</time>
      </trkpt>
      <trkpt lat="44.09252" lon="3.56585">
        <ele>933.58</ele>
        <time>2016-04-03T14:39:02Z</time>
      </trkpt>
      <trkpt lat="44.09264" lon="3.56554">
        <ele>935.02</ele>
        <time>2016-04-03T14:39:04Z</time>
      </trkpt>
      <trkpt lat="44.09265" lon="3.56536">
        <ele>935.5</ele>
        <time>2016-04-03T14:39:05Z</time>
      </trkpt>
      <trkpt lat="44.09263" lon="3.56518">
        <ele>936.46</ele>
        <time>2016-04-03T14:39:06Z</time>
      </trkpt>
      <trkpt lat="44.09259" lon="3.56501">
        <ele>936.94</ele>
        <time>2016-04-03T14:39:07Z</time>
      </trkpt>
      <trkpt lat="44.09253" lon="3.56487">
        <ele>937.9</ele>
        <time>2016-04-03T14:39:08Z</time>
      </trkpt>
      <trkpt lat="44.09251" lon="3.56471">
        <ele>940.31</ele>
        <time>2016-04-03T14:39:09Z</time>
      </trkpt>
      <trkpt lat="44.09247" lon="3.56462">
        <ele>942.23</ele>
        <time>2016-04-03T14:39:10Z</time>
      </trkpt>
      <trkpt lat="44.09251" lon="3.56446">
        <ele>944.63</ele>
        <time>2016-04-03T14:39:12Z</time>
      </trkpt>
      <trkpt lat="44.09267" lon="3.56438">
        <ele>949.92</ele>
        <time>2016-04-03T14:39:14Z</time>
      </trkpt>
      <trkpt lat="44.09279" lon="3.56436">
        <ele>950.4</ele>
        <time>2016-04-03T14:39:15Z</time>
      </trkpt>
      <trkpt lat="44.09295" lon="3.56432">
        <ele>951.84</ele>
        <time>2016-04-03T14:39:16Z</time>
      </trkpt>
      <trkpt lat="44.09311" lon="3.56427">
        <ele>952.32</ele>
        <time>2016-04-03T14:39:17Z</time>
      </trkpt>
      <trkpt lat="44.09325" lon="3.56422">
        <ele>952.32</ele>
        <time>2016-04-03T14:39:18Z</time>
      </trkpt>
      <trkpt lat="44.09338" lon="3.56411">
        <ele>951.36</ele>
        <time>2016-04-03T14:39:19Z</time>
      </trkpt>
      <trkpt lat="44.0935" lon="3.56398">
        <ele>949.92</ele>
        <time>2016-04-03T14:39:20Z</time>
      </trkpt>
      <trkpt lat="44.09386" lon="3.56368">
        <ele>950.88</ele>
        <time>2016-04-03T14:39:23Z</time>
      </trkpt>
      <trkpt lat="44.09398" lon="3.56368">
        <ele>951.36</ele>
        <time>2016-04-03T14:39:24Z</time>
      </trkpt>
      <trkpt lat="44.0941" lon="3.56367">
        <ele>951.84</ele>
        <time>2016-04-03T14:39:25Z</time>
      </trkpt>
      <trkpt lat="44.09422" lon="3.56361">
        <ele>951.36</ele>
        <time>2016-04-03T14:39:26Z</time>
      </trkpt>
      <trkpt lat="44.09433" lon="3.56348">
        <ele>950.88</ele>
        <time>2016-04-03T14:39:27Z</time>
      </trkpt>
      <trkpt lat="44.09445" lon="3.56339">
        <ele>950.88</ele>
        <time>2016-04-03T14:39:28Z</time>
      </trkpt>
      <trkpt lat="44.09456" lon="3.56327">
        <ele>951.36</ele>
        <time>2016-04-03T14:39:29Z</time>
      </trkpt>
      <trkpt lat="44.09465" lon="3.56312">
        <ele>952.32</ele>
        <time>2016-04-03T14:39:30Z</time>
      </trkpt>
      <trkpt lat="44.09473" lon="3.56295">
        <ele>952.8</ele>
        <time>2016-04-03T14:39:31Z</time>
      </trkpt>
      <trkpt lat="44.09479" lon="3.56277">
        <ele>953.77</ele>
        <time>2016-04-03T14:39:32Z</time>
      </trkpt>
      <trkpt lat="44.09483" lon="3.56258">
        <ele>953.77</ele>
        <time>2016-04-03T14:39:33Z</time>
      </trkpt>
      <trkpt lat="44.09486" lon="3.56238">
        <ele>954.25</ele>
        <time>2016-04-03T14:39:34Z</time>
      </trkpt>
      <trkpt lat="44.09489" lon="3.5622">
        <ele>955.21</ele>
        <time>2016-04-03T14:39:35Z</time>
      </trkpt>
      <trkpt lat="44.09505" lon="3.56109">
        <ele>960.49</ele>
        <time>2016-04-03T14:39:41Z</time>
      </trkpt>
      <trkpt lat="44.09509" lon="3.56092">
        <ele>960.98</ele>
        <time>2016-04-03T14:39:42Z</time>
      </trkpt>
      <trkpt lat="44.09515" lon="3.56076">
        <ele>961.46</ele>
        <time>2016-04-03T14:39:43Z</time>
      </trkpt>
      <trkpt lat="44.09521" lon="3.56061">
        <ele>961.94</ele>
        <time>2016-04-03T14:39:44Z</time>
      </trkpt>
      <trkpt lat="44.09531" lon="3.56048">
        <ele>963.38</ele>
        <time>2016-04-03T14:39:45Z</time>
      </trkpt>
      <trkpt lat="44.09543" lon="3.56037">
        <ele>965.78</ele>
        <time>2016-04-03T14:39:46Z</time>
      </trkpt>
      <trkpt lat="44.0956" lon="3.56028">
        <ele>968.18</ele>
        <time>2016-04-03T14:39:47Z</time>
      </trkpt>
      <trkpt lat="44.09574" lon="3.56024">
        <ele>968.67</ele>
        <time>2016-04-03T14:39:48Z</time>
      </trkpt>
      <trkpt lat="44.09588" lon="3.56019">
        <ele>969.63</ele>
        <time>2016-04-03T14:39:49Z</time>
      </trkpt>
      <trkpt lat="44.09628" lon="3.56003">
        <ele>972.51</ele>
        <time>2016-04-03T14:39:52Z</time>
      </trkpt>
      <trkpt lat="44.09641" lon="3.56002">
        <ele>973.95</ele>
        <time>2016-04-03T14:39:53Z</time>
      </trkpt>
      <trkpt lat="44.09655" lon="3.56002">
        <ele>974.43</ele>
        <time>2016-04-03T14:39:54Z</time>
      </trkpt>
      <trkpt lat="44.09668" lon="3.56">
        <ele>974.43</ele>
        <time>2016-04-03T14:39:55Z</time>
      </trkpt>
      <trkpt lat="44.09681" lon="3.55991">
        <ele>974.43</ele>
        <time>2016-04-03T14:39:56Z</time>
      </trkpt>
      <trkpt lat="44.09693" lon="3.55981">
        <ele>973.95</ele>
        <time>2016-04-03T14:39:57Z</time>
      </trkpt>
      <trkpt lat="44.09705" lon="3.55968">
        <ele>974.91</ele>
        <time>2016-04-03T14:39:58Z</time>
      </trkpt>
      <trkpt lat="44.09716" lon="3.55953">
        <ele>975.39</ele>
        <time>2016-04-03T14:39:59Z</time>
      </trkpt>
      <trkpt lat="44.09726" lon="3.55938">
        <ele>975.88</ele>
        <time>2016-04-03T14:40:00Z</time>
      </trkpt>
      <trkpt lat="44.09735" lon="3.55923">
        <ele>976.36</ele>
        <time>2016-04-03T14:40:01Z</time>
      </trkpt>
      <trkpt lat="44.09743" lon="3.55906">
        <ele>977.32</ele>
        <time>2016-04-03T14:40:02Z</time>
      </trkpt>
      <trkpt lat="44.09748" lon="3.55887">
        <ele>978.28</ele>
        <time>2016-04-03T14:40:03Z</time>
      </trkpt>
      <trkpt lat="44.09754" lon="3.55868">
        <ele>978.76</ele>
        <time>2016-04-03T14:40:04Z</time>
      </trkpt>
      <trkpt lat="44.0976" lon="3.55852">
        <ele>980.2</ele>
        <time>2016-04-03T14:40:05Z</time>
      </trkpt>
      <trkpt lat="44.09784" lon="3.55769">
        <ele>983.57</ele>
        <time>2016-04-03T14:40:10Z</time>
      </trkpt>
      <trkpt lat="44.09786" lon="3.55752">
        <ele>984.05</ele>
        <time>2016-04-03T14:40:11Z</time>
      </trkpt>
      <trkpt lat="44.0979" lon="3.55716">
        <ele>985.97</ele>
        <time>2016-04-03T14:40:13Z</time>
      </trkpt>
      <trkpt lat="44.09795" lon="3.55699">
        <ele>986.45</ele>
        <time>2016-04-03T14:40:14Z</time>
      </trkpt>
      <trkpt lat="44.09802" lon="3.55683">
        <ele>986.93</ele>
        <time>2016-04-03T14:40:15Z</time>
      </trkpt>
      <trkpt lat="44.09811" lon="3.55669">
        <ele>987.41</ele>
        <time>2016-04-03T14:40:16Z</time>
      </trkpt>
      <trkpt lat="44.09821" lon="3.55659">
        <ele>987.89</ele>
        <time>2016-04-03T14:40:17Z</time>
      </trkpt>
      <trkpt lat="44.09831" lon="3.55652">
        <ele>988.37</ele>
        <time>2016-04-03T14:40:18Z</time>
      </trkpt>
      <trkpt lat="44.0984" lon="3.55647">
        <ele>988.85</ele>
        <time>2016-04-03T14:40:19Z</time>
      </trkpt>
      <trkpt lat="44.09862" lon="3.55632">
        <ele>991.26</ele>
        <time>2016-04-03T14:40:22Z</time>
      </trkpt>
      <trkpt lat="44.09865" lon="3.55624">
        <ele>991.26</ele>
        <time>2016-04-03T14:40:23Z</time>
      </trkpt>
      <trkpt lat="44.09864" lon="3.55619">
        <ele>990.3</ele>
        <time>2016-04-03T14:40:24Z</time>
      </trkpt>
      <trkpt lat="44.09859" lon="3.55615">
        <ele>990.78</ele>
        <time>2016-04-03T14:40:25Z</time>
      </trkpt>
      <trkpt lat="44.09859" lon="3.55618">
        <ele>993.18</ele>
        <time>2016-04-03T14:40:26Z</time>
      </trkpt>
      <trkpt lat="44.09853" lon="3.55617">
        <ele>994.62</ele>
        <time>2016-04-03T14:40:27Z</time>
      </trkpt>
      <trkpt lat="44.09848" lon="3.55618">
        <ele>996.54</ele>
        <time>2016-04-03T14:40:28Z</time>
      </trkpt>
      <trkpt lat="44.09837" lon="3.55621">
        <ele>995.58</ele>
        <time>2016-04-03T14:40:29Z</time>
      </trkpt>
      <trkpt lat="44.09826" lon="3.55628">
        <ele>998.47</ele>
        <time>2016-04-03T14:40:30Z</time>
      </trkpt>
      <trkpt lat="44.09813" lon="3.55637">
        <ele>998.95</ele>
        <time>2016-04-03T14:40:31Z</time>
      </trkpt>
      <trkpt lat="44.09806" lon="3.55643">
        <ele>999.91</ele>
        <time>2016-04-03T14:40:32Z</time>
      </trkpt>
      <trkpt lat="44.09765" lon="3.55684">
        <ele>1002.79</ele>
        <time>2016-04-03T14:40:37Z</time>
      </trkpt>
      <trkpt lat="44.09759" lon="3.55694">
        <ele>1002.79</ele>
        <time>2016-04-03T14:40:38Z</time>
      </trkpt>
      <trkpt lat="44.09753" lon="3.55705">
        <ele>1002.31</ele>
        <time>2016-04-03T14:40:39Z</time>
      </trkpt>
      <trkpt lat="44.09748" lon="3.55717">
        <ele>1001.83</ele>
        <time>2016-04-03T14:40:40Z</time>
      </trkpt>
      <trkpt lat="44.09745" lon="3.55731">
        <ele>1000.87</ele>
        <time>2016-04-03T14:40:41Z</time>
      </trkpt>
      <trkpt lat="44.09743" lon="3.55746">
        <ele>1000.39</ele>
        <time>2016-04-03T14:40:42Z</time>
      </trkpt>
      <trkpt lat="44.09738" lon="3.55762">
        <ele>999.91</ele>
        <time>2016-04-03T14:40:43Z</time>
      </trkpt>
      <trkpt lat="44.09734" lon="3.55777">
        <ele>1001.35</ele>
        <time>2016-04-03T14:40:44Z</time>
      </trkpt>
      <trkpt lat="44.09727" lon="3.55791">
        <ele>1001.83</ele>
        <time>2016-04-03T14:40:45Z</time>
      </trkpt>
      <trkpt lat="44.0972" lon="3.55804">
        <ele>1002.31</ele>
        <time>2016-04-03T14:40:46Z</time>
      </trkpt>
      <trkpt lat="44.09669" lon="3.55889">
        <ele>1005.2</ele>
        <time>2016-04-03T14:40:52Z</time>
      </trkpt>
      <trkpt lat="44.09659" lon="3.55899">
        <ele>1005.2</ele>
        <time>2016-04-03T14:40:53Z</time>
      </trkpt>
      <trkpt lat="44.09648" lon="3.55902">
        <ele>1005.68</ele>
        <time>2016-04-03T14:40:54Z</time>
      </trkpt>
      <trkpt lat="44.09634" lon="3.55906">
        <ele>1007.6</ele>
        <time>2016-04-03T14:40:55Z</time>
      </trkpt>
      <trkpt lat="44.09624" lon="3.55901">
        <ele>1009.52</ele>
        <time>2016-04-03T14:40:56Z</time>
      </trkpt>
      <trkpt lat="44.09614" lon="3.55892">
        <ele>1011.44</ele>
        <time>2016-04-03T14:40:57Z</time>
      </trkpt>
      <trkpt lat="44.09604" lon="3.55883">
        <ele>1012.89</ele>
        <time>2016-04-03T14:40:58Z</time>
      </trkpt>
      <trkpt lat="44.09594" lon="3.55876">
        <ele>1013.85</ele>
        <time>2016-04-03T14:40:59Z</time>
      </trkpt>
      <trkpt lat="44.09569" lon="3.55866">
        <ele>1018.17</ele>
        <time>2016-04-03T14:41:01Z</time>
      </trkpt>
      <trkpt lat="44.09557" lon="3.55862">
        <ele>1018.65</ele>
        <time>2016-04-03T14:41:02Z</time>
      </trkpt>
      <trkpt lat="44.09546" lon="3.55859">
        <ele>1019.13</ele>
        <time>2016-04-03T14:41:03Z</time>
      </trkpt>
      <trkpt lat="44.09536" lon="3.55864">
        <ele>1020.58</ele>
        <time>2016-04-03T14:41:04Z</time>
      </trkpt>
      <trkpt lat="44.09525" lon="3.55872">
        <ele>1022.02</ele>
        <time>2016-04-03T14:41:05Z</time>
      </trkpt>
      <trkpt lat="44.09514" lon="3.55881">
        <ele>1022.98</ele>
        <time>2016-04-03T14:41:06Z</time>
      </trkpt>
      <trkpt lat="44.09504" lon="3.55892">
        <ele>1023.94</ele>
        <time>2016-04-03T14:41:07Z</time>
      </trkpt>
      <trkpt lat="44.09495" lon="3.55908">
        <ele>1024.9</ele>
        <time>2016-04-03T14:41:08Z</time>
      </trkpt>
      <trkpt lat="44.0949" lon="3.55919">
        <ele>1025.38</ele>
        <time>2016-04-03T14:41:09Z</time>
      </trkpt>
      <trkpt lat="44.09481" lon="3.5593">
        <ele>1025.86</ele>
        <time>2016-04-03T14:41:10Z</time>
      </trkpt>
      <trkpt lat="44.09471" lon="3.55939">
        <ele>1024.9</ele>
        <time>2016-04-03T14:41:11Z</time>
      </trkpt>
      <trkpt lat="44.09459" lon="3.55943">
        <ele>1024.9</ele>
        <time>2016-04-03T14:41:12Z</time>
      </trkpt>
      <trkpt lat="44.09446" lon="3.55947">
        <ele>1025.38</ele>
        <time>2016-04-03T14:41:13Z</time>
      </trkpt>
      <trkpt lat="44.09434" lon="3.55947">
        <ele>1026.34</ele>
        <time>2016-04-03T14:41:14Z</time>
      </trkpt>
      <trkpt lat="44.09422" lon="3.55946">
        <ele>1027.31</ele>
        <time>2016-04-03T14:41:15Z</time>
      </trkpt>
      <trkpt lat="44.09411" lon="3.55946">
        <ele>1027.31</ele>
        <time>2016-04-03T14:41:16Z</time>
      </trkpt>
      <trkpt lat="44.09401" lon="3.55949">
        <ele>1027.31</ele>
        <time>2016-04-03T14:41:17Z</time>
      </trkpt>
      <trkpt lat="44.09392" lon="3.55959">
        <ele>1028.27</ele>
        <time>2016-04-03T14:41:18Z</time>
      </trkpt>
      <trkpt lat="44.09389" lon="3.55976">
        <ele>1029.71</ele>
        <time>2016-04-03T14:41:19Z</time>
      </trkpt>
      <trkpt lat="44.09386" lon="3.5599">
        <ele>1030.19</ele>
        <time>2016-04-03T14:41:20Z</time>
      </trkpt>
      <trkpt lat="44.09385" lon="3.56005">
        <ele>1031.15</ele>
        <time>2016-04-03T14:41:21Z</time>
      </trkpt>
      <trkpt lat="44.09388" lon="3.56019">
        <ele>1032.11</ele>
        <time>2016-04-03T14:41:22Z</time>
      </trkpt>
      <trkpt lat="44.09391" lon="3.56033">
        <ele>1031.63</ele>
        <time>2016-04-03T14:41:23Z</time>
      </trkpt>
      <trkpt lat="44.09395" lon="3.56048">
        <ele>1032.59</ele>
        <time>2016-04-03T14:41:24Z</time>
      </trkpt>
      <trkpt lat="44.09397" lon="3.56064">
        <ele>1032.59</ele>
        <time>2016-04-03T14:41:25Z</time>
      </trkpt>
      <trkpt lat="44.09397" lon="3.56079">
        <ele>1033.07</ele>
        <time>2016-04-03T14:41:26Z</time>
      </trkpt>
      <trkpt lat="44.09395" lon="3.56096">
        <ele>1034.52</ele>
        <time>2016-04-03T14:41:27Z</time>
      </trkpt>
      <trkpt lat="44.0939" lon="3.56111">
        <ele>1035.48</ele>
        <time>2016-04-03T14:41:28Z</time>
      </trkpt>
      <trkpt lat="44.09385" lon="3.56128">
        <ele>1035.96</ele>
        <time>2016-04-03T14:41:29Z</time>
      </trkpt>
      <trkpt lat="44.09359" lon="3.56191">
        <ele>1037.4</ele>
        <time>2016-04-03T14:41:33Z</time>
      </trkpt>
      <trkpt lat="44.09351" lon="3.56204">
        <ele>1037.88</ele>
        <time>2016-04-03T14:41:34Z</time>
      </trkpt>
      <trkpt lat="44.09341" lon="3.56214">
        <ele>1038.36</ele>
        <time>2016-04-03T14:41:35Z</time>
      </trkpt>
      <trkpt lat="44.0933" lon="3.56222">
        <ele>1037.88</ele>
        <time>2016-04-03T14:41:36Z</time>
      </trkpt>
      <trkpt lat="44.09315" lon="3.56227">
        <ele>1038.84</ele>
        <time>2016-04-03T14:41:37Z</time>
      </trkpt>
      <trkpt lat="44.09304" lon="3.56227">
        <ele>1039.8</ele>
        <time>2016-04-03T14:41:38Z</time>
      </trkpt>
      <trkpt lat="44.09293" lon="3.56222">
        <ele>1041.25</ele>
        <time>2016-04-03T14:41:39Z</time>
      </trkpt>
      <trkpt lat="44.09284" lon="3.56214">
        <ele>1041.73</ele>
        <time>2016-04-03T14:41:40Z</time>
      </trkpt>
      <trkpt lat="44.09274" lon="3.56206">
        <ele>1042.21</ele>
        <time>2016-04-03T14:41:41Z</time>
      </trkpt>
      <trkpt lat="44.09265" lon="3.56198">
        <ele>1042.21</ele>
        <time>2016-04-03T14:41:42Z</time>
      </trkpt>
      <trkpt lat="44.09255" lon="3.56192">
        <ele>1043.17</ele>
        <time>2016-04-03T14:41:43Z</time>
      </trkpt>
      <trkpt lat="44.09243" lon="3.56192">
        <ele>1043.65</ele>
        <time>2016-04-03T14:41:44Z</time>
      </trkpt>
      <trkpt lat="44.09237" lon="3.56196">
        <ele>1044.13</ele>
        <time>2016-04-03T14:41:45Z</time>
      </trkpt>
      <trkpt lat="44.09229" lon="3.562">
        <ele>1044.61</ele>
        <time>2016-04-03T14:41:46Z</time>
      </trkpt>
      <trkpt lat="44.0922" lon="3.56207">
        <ele>1044.61</ele>
        <time>2016-04-03T14:41:47Z</time>
      </trkpt>
      <trkpt lat="44.09209" lon="3.56216">
        <ele>1045.57</ele>
        <time>2016-04-03T14:41:48Z</time>
      </trkpt>
      <trkpt lat="44.09185" lon="3.56227">
        <ele>1047.49</ele>
        <time>2016-04-03T14:41:50Z</time>
      </trkpt>
      <trkpt lat="44.09172" lon="3.56229">
        <ele>1049.9</ele>
        <time>2016-04-03T14:41:51Z</time>
      </trkpt>
      <trkpt lat="44.09158" lon="3.56227">
        <ele>1050.38</ele>
        <time>2016-04-03T14:41:52Z</time>
      </trkpt>
      <trkpt lat="44.0911" lon="3.56236">
        <ele>1053.74</ele>
        <time>2016-04-03T14:41:56Z</time>
      </trkpt>
      <trkpt lat="44.09045" lon="3.56268">
        <ele>1059.99</ele>
        <time>2016-04-03T14:42:02Z</time>
      </trkpt>
      <trkpt lat="44.09038" lon="3.56279">
        <ele>1060.47</ele>
        <time>2016-04-03T14:42:03Z</time>
      </trkpt>
      <trkpt lat="44.0903" lon="3.56289">
        <ele>1060.47</ele>
        <time>2016-04-03T14:42:04Z</time>
      </trkpt>
      <trkpt lat="44.0902" lon="3.56299">
        <ele>1060.95</ele>
        <time>2016-04-03T14:42:05Z</time>
      </trkpt>
      <trkpt lat="44.0901" lon="3.56309">
        <ele>1061.43</ele>
        <time>2016-04-03T14:42:06Z</time>
      </trkpt>
      <trkpt lat="44.09001" lon="3.56318">
        <ele>1061.91</ele>
        <time>2016-04-03T14:42:07Z</time>
      </trkpt>
      <trkpt lat="44.08989" lon="3.56337">
        <ele>1061.43</ele>
        <time>2016-04-03T14:42:09Z</time>
      </trkpt>
      <trkpt lat="44.08988" lon="3.56351">
        <ele>1060.47</ele>
        <time>2016-04-03T14:42:10Z</time>
      </trkpt>
      <trkpt lat="44.0899" lon="3.56365">
        <ele>1059.03</ele>
        <time>2016-04-03T14:42:11Z</time>
      </trkpt>
      <trkpt lat="44.08997" lon="3.56382">
        <ele>1061.91</ele>
        <time>2016-04-03T14:42:12Z</time>
      </trkpt>
      <trkpt lat="44.09001" lon="3.56397">
        <ele>1062.39</ele>
        <time>2016-04-03T14:42:13Z</time>
      </trkpt>
      <trkpt lat="44.09006" lon="3.56409">
        <ele>1063.84</ele>
        <time>2016-04-03T14:42:14Z</time>
      </trkpt>
      <trkpt lat="44.09007" lon="3.56422">
        <ele>1063.84</ele>
        <time>2016-04-03T14:42:15Z</time>
      </trkpt>
      <trkpt lat="44.09006" lon="3.56434">
        <ele>1064.32</ele>
        <time>2016-04-03T14:42:16Z</time>
      </trkpt>
      <trkpt lat="44.09001" lon="3.56445">
        <ele>1064.32</ele>
        <time>2016-04-03T14:42:17Z</time>
      </trkpt>
      <trkpt lat="44.08995" lon="3.56453">
        <ele>1066.72</ele>
        <time>2016-04-03T14:42:18Z</time>
      </trkpt>
      <trkpt lat="44.08984" lon="3.56459">
        <ele>1067.68</ele>
        <time>2016-04-03T14:42:19Z</time>
      </trkpt>
      <trkpt lat="44.08971" lon="3.56463">
        <ele>1069.12</ele>
        <time>2016-04-03T14:42:20Z</time>
      </trkpt>
      <trkpt lat="44.08959" lon="3.56469">
        <ele>1070.08</ele>
        <time>2016-04-03T14:42:21Z</time>
      </trkpt>
      <trkpt lat="44.08947" lon="3.56477">
        <ele>1071.53</ele>
        <time>2016-04-03T14:42:22Z</time>
      </trkpt>
      <trkpt lat="44.08912" lon="3.56518">
        <ele>1076.81</ele>
        <time>2016-04-03T14:42:26Z</time>
      </trkpt>
      <trkpt lat="44.08907" lon="3.56531">
        <ele>1077.29</ele>
        <time>2016-04-03T14:42:27Z</time>
      </trkpt>
      <trkpt lat="44.08904" lon="3.56547">
        <ele>1077.78</ele>
        <time>2016-04-03T14:42:28Z</time>
      </trkpt>
      <trkpt lat="44.089" lon="3.56561">
        <ele>1077.78</ele>
        <time>2016-04-03T14:42:29Z</time>
      </trkpt>
      <trkpt lat="44.08896" lon="3.56574">
        <ele>1077.29</ele>
        <time>2016-04-03T14:42:30Z</time>
      </trkpt>
      <trkpt lat="44.08882" lon="3.56608">
        <ele>1078.26</ele>
        <time>2016-04-03T14:42:33Z</time>
      </trkpt>
      <trkpt lat="44.08876" lon="3.56615">
        <ele>1078.26</ele>
        <time>2016-04-03T14:42:34Z</time>
      </trkpt>
      <trkpt lat="44.08867" lon="3.56615">
        <ele>1077.78</ele>
        <time>2016-04-03T14:42:35Z</time>
      </trkpt>
      <trkpt lat="44.08861" lon="3.56608">
        <ele>1077.29</ele>
        <time>2016-04-03T14:42:36Z</time>
      </trkpt>
      <trkpt lat="44.08856" lon="3.56587">
        <ele>1076.33</ele>
        <time>2016-04-03T14:42:38Z</time>
      </trkpt>
      <trkpt lat="44.08857" lon="3.56575">
        <ele>1075.37</ele>
        <time>2016-04-03T14:42:39Z</time>
      </trkpt>
      <trkpt lat="44.08861" lon="3.56563">
        <ele>1074.89</ele>
        <time>2016-04-03T14:42:40Z</time>
      </trkpt>
      <trkpt lat="44.08868" lon="3.56549">
        <ele>1074.41</ele>
        <time>2016-04-03T14:42:41Z</time>
      </trkpt>
      <trkpt lat="44.08874" lon="3.56534">
        <ele>1074.41</ele>
        <time>2016-04-03T14:42:42Z</time>
      </trkpt>
      <trkpt lat="44.08929" lon="3.5643">
        <ele>1070.57</ele>
        <time>2016-04-03T14:42:50Z</time>
      </trkpt>
      <trkpt lat="44.08962" lon="3.56399">
        <ele>1081.14</ele>
        <time>2016-04-03T14:42:53Z</time>
      </trkpt>
      <trkpt lat="44.08963" lon="3.56384">
        <ele>1081.62</ele>
        <time>2016-04-03T14:42:54Z</time>
      </trkpt>
      <trkpt lat="44.08962" lon="3.56372">
        <ele>1081.62</ele>
        <time>2016-04-03T14:42:55Z</time>
      </trkpt>
      <trkpt lat="44.08957" lon="3.56362">
        <ele>1082.1</ele>
        <time>2016-04-03T14:42:56Z</time>
      </trkpt>
      <trkpt lat="44.0895" lon="3.56352">
        <ele>1084.02</ele>
        <time>2016-04-03T14:42:57Z</time>
      </trkpt>
      <trkpt lat="44.08945" lon="3.5634">
        <ele>1085.47</ele>
        <time>2016-04-03T14:42:58Z</time>
      </trkpt>
      <trkpt lat="44.08942" lon="3.56328">
        <ele>1086.43</ele>
        <time>2016-04-03T14:42:59Z</time>
      </trkpt>
      <trkpt lat="44.08946" lon="3.56313">
        <ele>1086.43</ele>
        <time>2016-04-03T14:43:00Z</time>
      </trkpt>
      <trkpt lat="44.08951" lon="3.56302">
        <ele>1086.43</ele>
        <time>2016-04-03T14:43:01Z</time>
      </trkpt>
      <trkpt lat="44.08957" lon="3.56292">
        <ele>1086.43</ele>
        <time>2016-04-03T14:43:02Z</time>
      </trkpt>
      <trkpt lat="44.08964" lon="3.56282">
        <ele>1086.43</ele>
        <time>2016-04-03T14:43:03Z</time>
      </trkpt>
      <trkpt lat="44.08971" lon="3.5627">
        <ele>1086.91</ele>
        <time>2016-04-03T14:43:04Z</time>
      </trkpt>
      <trkpt lat="44.08978" lon="3.56257">
        <ele>1087.87</ele>
        <time>2016-04-03T14:43:05Z</time>
      </trkpt>
      <trkpt lat="44.08981" lon="3.56243">
        <ele>1087.87</ele>
        <time>2016-04-03T14:43:06Z</time>
      </trkpt>
      <trkpt lat="44.08982" lon="3.56227">
        <ele>1088.83</ele>
        <time>2016-04-03T14:43:07Z</time>
      </trkpt>
      <trkpt lat="44.08986" lon="3.56211">
        <ele>1089.31</ele>
        <time>2016-04-03T14:43:08Z</time>
      </trkpt>
      <trkpt lat="44.0899" lon="3.56197">
        <ele>1090.75</ele>
        <time>2016-04-03T14:43:09Z</time>
      </trkpt>
      <trkpt lat="44.08996" lon="3.56183">
        <ele>1091.71</ele>
        <time>2016-04-03T14:43:10Z</time>
      </trkpt>
      <trkpt lat="44.09003" lon="3.5617">
        <ele>1092.68</ele>
        <time>2016-04-03T14:43:11Z</time>
      </trkpt>
      <trkpt lat="44.09011" lon="3.56159">
        <ele>1093.64</ele>
        <time>2016-04-03T14:43:12Z</time>
      </trkpt>
      <trkpt lat="44.0902" lon="3.56149">
        <ele>1093.64</ele>
        <time>2016-04-03T14:43:13Z</time>
      </trkpt>
      <trkpt lat="44.09088" lon="3.56102">
        <ele>1113.34</ele>
        <time>2016-04-03T14:43:19Z</time>
      </trkpt>
      <trkpt lat="44.0911" lon="3.56091">
        <ele>1114.31</ele>
        <time>2016-04-03T14:43:21Z</time>
      </trkpt>
      <trkpt lat="44.09123" lon="3.5609">
        <ele>1114.79</ele>
        <time>2016-04-03T14:43:22Z</time>
      </trkpt>
      <trkpt lat="44.09152" lon="3.5608">
        <ele>1115.27</ele>
        <time>2016-04-03T14:43:24Z</time>
      </trkpt>
      <trkpt lat="44.09165" lon="3.56072">
        <ele>1115.27</ele>
        <time>2016-04-03T14:43:25Z</time>
      </trkpt>
      <trkpt lat="44.09176" lon="3.56062">
        <ele>1115.75</ele>
        <time>2016-04-03T14:43:26Z</time>
      </trkpt>
      <trkpt lat="44.09187" lon="3.5605">
        <ele>1116.23</ele>
        <time>2016-04-03T14:43:27Z</time>
      </trkpt>
      <trkpt lat="44.09197" lon="3.56039">
        <ele>1116.71</ele>
        <time>2016-04-03T14:43:28Z</time>
      </trkpt>
      <trkpt lat="44.09233" lon="3.55989">
        <ele>1119.11</ele>
        <time>2016-04-03T14:43:32Z</time>
      </trkpt>
      <trkpt lat="44.0924" lon="3.55975">
        <ele>1119.59</ele>
        <time>2016-04-03T14:43:33Z</time>
      </trkpt>
      <trkpt lat="44.09245" lon="3.55959">
        <ele>1120.55</ele>
        <time>2016-04-03T14:43:34Z</time>
      </trkpt>
      <trkpt lat="44.09248" lon="3.55941">
        <ele>1120.55</ele>
        <time>2016-04-03T14:43:35Z</time>
      </trkpt>
      <trkpt lat="44.09249" lon="3.55922">
        <ele>1121.03</ele>
        <time>2016-04-03T14:43:36Z</time>
      </trkpt>
      <trkpt lat="44.09249" lon="3.55904">
        <ele>1121.52</ele>
        <time>2016-04-03T14:43:37Z</time>
      </trkpt>
      <trkpt lat="44.09247" lon="3.55886">
        <ele>1122.48</ele>
        <time>2016-04-03T14:43:38Z</time>
      </trkpt>
      <trkpt lat="44.09245" lon="3.55868">
        <ele>1122.96</ele>
        <time>2016-04-03T14:43:39Z</time>
      </trkpt>
      <trkpt lat="44.09245" lon="3.55851">
        <ele>1123.92</ele>
        <time>2016-04-03T14:43:40Z</time>
      </trkpt>
      <trkpt lat="44.09246" lon="3.55834">
        <ele>1124.4</ele>
        <time>2016-04-03T14:43:41Z</time>
      </trkpt>
      <trkpt lat="44.09251" lon="3.55817">
        <ele>1124.4</ele>
        <time>2016-04-03T14:43:42Z</time>
      </trkpt>
      <trkpt lat="44.09257" lon="3.55803">
        <ele>1124.4</ele>
        <time>2016-04-03T14:43:43Z</time>
      </trkpt>
      <trkpt lat="44.09265" lon="3.55791">
        <ele>1123.92</ele>
        <time>2016-04-03T14:43:44Z</time>
      </trkpt>
      <trkpt lat="44.09275" lon="3.55782">
        <ele>1123.92</ele>
        <time>2016-04-03T14:43:45Z</time>
      </trkpt>
      <trkpt lat="44.09289" lon="3.55776">
        <ele>1123.92</ele>
        <time>2016-04-03T14:43:46Z</time>
      </trkpt>
      <trkpt lat="44.09308" lon="3.55775">
        <ele>1127.76</ele>
        <time>2016-04-03T14:43:47Z</time>
      </trkpt>
      <trkpt lat="44.09325" lon="3.55777">
        <ele>1130.65</ele>
        <time>2016-04-03T14:43:48Z</time>
      </trkpt>
      <trkpt lat="44.09342" lon="3.55772">
        <ele>1133.53</ele>
        <time>2016-04-03T14:43:49Z</time>
      </trkpt>
      <trkpt lat="44.09383" lon="3.55755">
        <ele>1134.49</ele>
        <time>2016-04-03T14:43:52Z</time>
      </trkpt>
      <trkpt lat="44.09394" lon="3.55746">
        <ele>1134.49</ele>
        <time>2016-04-03T14:43:53Z</time>
      </trkpt>
      <trkpt lat="44.09404" lon="3.55733">
        <ele>1134.49</ele>
        <time>2016-04-03T14:43:54Z</time>
      </trkpt>
      <trkpt lat="44.09412" lon="3.55718">
        <ele>1135.45</ele>
        <time>2016-04-03T14:43:55Z</time>
      </trkpt>
      <trkpt lat="44.09421" lon="3.55703">
        <ele>1135.94</ele>
        <time>2016-04-03T14:43:56Z</time>
      </trkpt>
      <trkpt lat="44.09432" lon="3.5569">
        <ele>1136.42</ele>
        <time>2016-04-03T14:43:57Z</time>
      </trkpt>
      <trkpt lat="44.09443" lon="3.55679">
        <ele>1136.42</ele>
        <time>2016-04-03T14:43:58Z</time>
      </trkpt>
      <trkpt lat="44.09455" lon="3.55669">
        <ele>1136.9</ele>
        <time>2016-04-03T14:43:59Z</time>
      </trkpt>
      <trkpt lat="44.09466" lon="3.55658">
        <ele>1136.42</ele>
        <time>2016-04-03T14:44:00Z</time>
      </trkpt>
      <trkpt lat="44.09499" lon="3.55623">
        <ele>1138.82</ele>
        <time>2016-04-03T14:44:03Z</time>
      </trkpt>
      <trkpt lat="44.09509" lon="3.55609">
        <ele>1139.78</ele>
        <time>2016-04-03T14:44:04Z</time>
      </trkpt>
      <trkpt lat="44.09517" lon="3.55593">
        <ele>1140.74</ele>
        <time>2016-04-03T14:44:05Z</time>
      </trkpt>
      <trkpt lat="44.0961" lon="3.55465">
        <ele>1146.51</ele>
        <time>2016-04-03T14:44:14Z</time>
      </trkpt>
      <trkpt lat="44.09698" lon="3.55351">
        <ele>1150.35</ele>
        <time>2016-04-03T14:44:22Z</time>
      </trkpt>
      <trkpt lat="44.0975" lon="3.55299">
        <ele>1152.76</ele>
        <time>2016-04-03T14:44:27Z</time>
      </trkpt>
      <trkpt lat="44.09765" lon="3.55292">
        <ele>1156.6</ele>
        <time>2016-04-03T14:44:28Z</time>
      </trkpt>
      <trkpt lat="44.09788" lon="3.55277">
        <ele>1158.53</ele>
        <time>2016-04-03T14:44:30Z</time>
      </trkpt>
      <trkpt lat="44.09796" lon="3.55268">
        <ele>1159.49</ele>
        <time>2016-04-03T14:44:31Z</time>
      </trkpt>
      <trkpt lat="44.09801" lon="3.55253">
        <ele>1160.45</ele>
        <time>2016-04-03T14:44:32Z</time>
      </trkpt>
      <trkpt lat="44.09801" lon="3.55239">
        <ele>1161.41</ele>
        <time>2016-04-03T14:44:33Z</time>
      </trkpt>
      <trkpt lat="44.09796" lon="3.55227">
        <ele>1162.85</ele>
        <time>2016-04-03T14:44:34Z</time>
      </trkpt>
      <trkpt lat="44.09784" lon="3.55218">
        <ele>1161.41</ele>
        <time>2016-04-03T14:44:35Z</time>
      </trkpt>
      <trkpt lat="44.09778" lon="3.55208">
        <ele>1162.37</ele>
        <time>2016-04-03T14:44:36Z</time>
      </trkpt>
      <trkpt lat="44.09766" lon="3.55196">
        <ele>1163.81</ele>
        <time>2016-04-03T14:44:37Z</time>
      </trkpt>
      <trkpt lat="44.09754" lon="3.55185">
        <ele>1165.26</ele>
        <time>2016-04-03T14:44:38Z</time>
      </trkpt>
      <trkpt lat="44.09744" lon="3.55175">
        <ele>1166.22</ele>
        <time>2016-04-03T14:44:39Z</time>
      </trkpt>
      <trkpt lat="44.09726" lon="3.55156">
        <ele>1167.66</ele>
        <time>2016-04-03T14:44:41Z</time>
      </trkpt>
      <trkpt lat="44.09719" lon="3.55142">
        <ele>1168.14</ele>
        <time>2016-04-03T14:44:42Z</time>
      </trkpt>
      <trkpt lat="44.09716" lon="3.55125">
        <ele>1168.62</ele>
        <time>2016-04-03T14:44:43Z</time>
      </trkpt>
      <trkpt lat="44.09722" lon="3.5511">
        <ele>1168.14</ele>
        <time>2016-04-03T14:44:44Z</time>
      </trkpt>
      <trkpt lat="44.09732" lon="3.55097">
        <ele>1169.1</ele>
        <time>2016-04-03T14:44:45Z</time>
      </trkpt>
      <trkpt lat="44.09744" lon="3.55091">
        <ele>1170.06</ele>
        <time>2016-04-03T14:44:46Z</time>
      </trkpt>
      <trkpt lat="44.09756" lon="3.55083">
        <ele>1171.02</ele>
        <time>2016-04-03T14:44:47Z</time>
      </trkpt>
      <trkpt lat="44.09771" lon="3.5508">
        <ele>1171.5</ele>
        <time>2016-04-03T14:44:48Z</time>
      </trkpt>
      <trkpt lat="44.09786" lon="3.5508">
        <ele>1171.98</ele>
        <time>2016-04-03T14:44:49Z</time>
      </trkpt>
      <trkpt lat="44.09799" lon="3.55079">
        <ele>1172.47</ele>
        <time>2016-04-03T14:44:50Z</time>
      </trkpt>
      <trkpt lat="44.09812" lon="3.55075">
        <ele>1172.95</ele>
        <time>2016-04-03T14:44:51Z</time>
      </trkpt>
      <trkpt lat="44.09822" lon="3.55067">
        <ele>1172.95</ele>
        <time>2016-04-03T14:44:52Z</time>
      </trkpt>
      <trkpt lat="44.0983" lon="3.55054">
        <ele>1173.43</ele>
        <time>2016-04-03T14:44:53Z</time>
      </trkpt>
      <trkpt lat="44.09837" lon="3.55039">
        <ele>1173.91</ele>
        <time>2016-04-03T14:44:54Z</time>
      </trkpt>
      <trkpt lat="44.09844" lon="3.55024">
        <ele>1174.87</ele>
        <time>2016-04-03T14:44:55Z</time>
      </trkpt>
      <trkpt lat="44.09864" lon="3.55006">
        <ele>1175.83</ele>
        <time>2016-04-03T14:44:57Z</time>
      </trkpt>
      <trkpt lat="44.09875" lon="3.55001">
        <ele>1177.27</ele>
        <time>2016-04-03T14:44:58Z</time>
      </trkpt>
      <trkpt lat="44.09885" lon="3.55">
        <ele>1177.75</ele>
        <time>2016-04-03T14:44:59Z</time>
      </trkpt>
      <trkpt lat="44.09907" lon="3.54992">
        <ele>1179.19</ele>
        <time>2016-04-03T14:45:01Z</time>
      </trkpt>
      <trkpt lat="44.09918" lon="3.54984">
        <ele>1180.16</ele>
        <time>2016-04-03T14:45:02Z</time>
      </trkpt>
      <trkpt lat="44.09928" lon="3.54975">
        <ele>1181.12</ele>
        <time>2016-04-03T14:45:03Z</time>
      </trkpt>
      <trkpt lat="44.09936" lon="3.54966">
        <ele>1182.08</ele>
        <time>2016-04-03T14:45:04Z</time>
      </trkpt>
      <trkpt lat="44.09943" lon="3.54955">
        <ele>1183.04</ele>
        <time>2016-04-03T14:45:05Z</time>
      </trkpt>
      <trkpt lat="44.09944" lon="3.5494">
        <ele>1183.52</ele>
        <time>2016-04-03T14:45:06Z</time>
      </trkpt>
      <trkpt lat="44.09941" lon="3.5493">
        <ele>1184.48</ele>
        <time>2016-04-03T14:45:07Z</time>
      </trkpt>
      <trkpt lat="44.09926" lon="3.54921">
        <ele>1185.44</ele>
        <time>2016-04-03T14:45:09Z</time>
      </trkpt>
      <trkpt lat="44.09917" lon="3.54923">
        <ele>1186.4</ele>
        <time>2016-04-03T14:45:10Z</time>
      </trkpt>
      <trkpt lat="44.09908" lon="3.54926">
        <ele>1186.88</ele>
        <time>2016-04-03T14:45:11Z</time>
      </trkpt>
      <trkpt lat="44.09897" lon="3.54931">
        <ele>1187.37</ele>
        <time>2016-04-03T14:45:12Z</time>
      </trkpt>
      <trkpt lat="44.09884" lon="3.54936">
        <ele>1188.81</ele>
        <time>2016-04-03T14:45:13Z</time>
      </trkpt>
      <trkpt lat="44.09871" lon="3.54938">
        <ele>1189.29</ele>
        <time>2016-04-03T14:45:14Z</time>
      </trkpt>
      <trkpt lat="44.09846" lon="3.54944">
        <ele>1190.73</ele>
        <time>2016-04-03T14:45:16Z</time>
      </trkpt>
      <trkpt lat="44.09834" lon="3.54949">
        <ele>1191.21</ele>
        <time>2016-04-03T14:45:17Z</time>
      </trkpt>
      <trkpt lat="44.09734" lon="3.54973">
        <ele>1198.42</ele>
        <time>2016-04-03T14:45:26Z</time>
      </trkpt>
      <trkpt lat="44.09612" lon="3.55007">
        <ele>1206.59</ele>
        <time>2016-04-03T14:45:35Z</time>
      </trkpt>
      <trkpt lat="44.09559" lon="3.55008">
        <ele>1209.96</ele>
        <time>2016-04-03T14:45:39Z</time>
      </trkpt>
      <trkpt lat="44.09546" lon="3.55004">
        <ele>1210.92</ele>
        <time>2016-04-03T14:45:40Z</time>
      </trkpt>
      <trkpt lat="44.09535" lon="3.54997">
        <ele>1211.88</ele>
        <time>2016-04-03T14:45:41Z</time>
      </trkpt>
      <trkpt lat="44.09525" lon="3.54986">
        <ele>1212.36</ele>
        <time>2016-04-03T14:45:42Z</time>
      </trkpt>
      <trkpt lat="44.09517" lon="3.54975">
        <ele>1212.84</ele>
        <time>2016-04-03T14:45:43Z</time>
      </trkpt>
      <trkpt lat="44.09511" lon="3.54964">
        <ele>1213.32</ele>
        <time>2016-04-03T14:45:44Z</time>
      </trkpt>
      <trkpt lat="44.09506" lon="3.54954">
        <ele>1213.8</ele>
        <time>2016-04-03T14:45:45Z</time>
      </trkpt>
      <trkpt lat="44.09496" lon="3.54938">
        <ele>1216.21</ele>
        <time>2016-04-03T14:45:51Z</time>
      </trkpt>
      <trkpt lat="44.09499" lon="3.54937">
        <ele>1213.8</ele>
        <time>2016-04-03T14:46:14Z</time>
      </trkpt>
      <trkpt lat="44.095" lon="3.54937">
        <ele>1213.8</ele>
        <time>2016-04-03T14:46:32Z</time>
      </trkpt>
      <trkpt lat="44.095" lon="3.54934">
        <ele>1207.55</ele>
        <time>2016-04-03T14:51:17Z</time>
      </trkpt>
      <trkpt lat="44.095" lon="3.54936">
        <ele>1209.48</ele>
        <time>2016-04-03T14:52:07Z</time>
      </trkpt>
      <trkpt lat="44.095" lon="3.54936">
        <ele>1209.96</ele>
        <time>2016-04-03T14:52:27Z</time>
      </trkpt>
      <trkpt lat="44.0949" lon="3.54928">
        <ele>1209.96</ele>
        <time>2016-04-03T14:52:31Z</time>
      </trkpt>
      <trkpt lat="44.09484" lon="3.54921">
        <ele>1209.96</ele>
        <time>2016-04-03T14:52:32Z</time>
      </trkpt>
      <trkpt lat="44.0941" lon="3.54839">
        <ele>1212.84</ele>
        <time>2016-04-03T14:52:41Z</time>
      </trkpt>
      <trkpt lat="44.09269" lon="3.54745">
        <ele>1218.61</ele>
        <time>2016-04-03T14:52:53Z</time>
      </trkpt>
      <trkpt lat="44.09243" lon="3.54725">
        <ele>1220.05</ele>
        <time>2016-04-03T14:52:56Z</time>
      </trkpt>
      <trkpt lat="44.09238" lon="3.54717">
        <ele>1220.53</ele>
        <time>2016-04-03T14:52:57Z</time>
      </trkpt>
      <trkpt lat="44.09236" lon="3.54708">
        <ele>1221.01</ele>
        <time>2016-04-03T14:52:58Z</time>
      </trkpt>
      <trkpt lat="44.09233" lon="3.54701">
        <ele>1221.01</ele>
        <time>2016-04-03T14:52:59Z</time>
      </trkpt>
      <trkpt lat="44.09229" lon="3.54696">
        <ele>1221.49</ele>
        <time>2016-04-03T14:53:00Z</time>
      </trkpt>
      <trkpt lat="44.09223" lon="3.5469">
        <ele>1221.97</ele>
        <time>2016-04-03T14:53:01Z</time>
      </trkpt>
      <trkpt lat="44.09217" lon="3.54683">
        <ele>1221.97</ele>
        <time>2016-04-03T14:53:02Z</time>
      </trkpt>
      <trkpt lat="44.09211" lon="3.54674">
        <ele>1222.45</ele>
        <time>2016-04-03T14:53:03Z</time>
      </trkpt>
      <trkpt lat="44.09204" lon="3.54664">
        <ele>1222.93</ele>
        <time>2016-04-03T14:53:04Z</time>
      </trkpt>
      <trkpt lat="44.09147" lon="3.54527">
        <ele>1221.01</ele>
        <time>2016-04-03T14:53:13Z</time>
      </trkpt>
      <trkpt lat="44.09071" lon="3.54343">
        <ele>1217.65</ele>
        <time>2016-04-03T14:53:24Z</time>
      </trkpt>
      <trkpt lat="44.09068" lon="3.54324">
        <ele>1217.65</ele>
        <time>2016-04-03T14:53:25Z</time>
      </trkpt>
      <trkpt lat="44.09067" lon="3.54304">
        <ele>1217.17</ele>
        <time>2016-04-03T14:53:26Z</time>
      </trkpt>
      <trkpt lat="44.09068" lon="3.54107">
        <ele>1213.8</ele>
        <time>2016-04-03T14:53:35Z</time>
      </trkpt>
      <trkpt lat="44.09063" lon="3.54044">
        <ele>1212.36</ele>
        <time>2016-04-03T14:53:38Z</time>
      </trkpt>
      <trkpt lat="44.09059" lon="3.54024">
        <ele>1211.88</ele>
        <time>2016-04-03T14:53:39Z</time>
      </trkpt>
      <trkpt lat="44.09053" lon="3.54005">
        <ele>1211.88</ele>
        <time>2016-04-03T14:53:40Z</time>
      </trkpt>
      <trkpt lat="44.09045" lon="3.53987">
        <ele>1210.92</ele>
        <time>2016-04-03T14:53:41Z</time>
      </trkpt>
      <trkpt lat="44.09034" lon="3.53969">
        <ele>1210.92</ele>
        <time>2016-04-03T14:53:42Z</time>
      </trkpt>
      <trkpt lat="44.09024" lon="3.53951">
        <ele>1210.92</ele>
        <time>2016-04-03T14:53:43Z</time>
      </trkpt>
      <trkpt lat="44.08966" lon="3.53846">
        <ele>1209.48</ele>
        <time>2016-04-03T14:53:49Z</time>
      </trkpt>
      <trkpt lat="44.08955" lon="3.53832">
        <ele>1209.48</ele>
        <time>2016-04-03T14:53:50Z</time>
      </trkpt>
      <trkpt lat="44.08943" lon="3.5382">
        <ele>1209</ele>
        <time>2016-04-03T14:53:51Z</time>
      </trkpt>
      <trkpt lat="44.08929" lon="3.53811">
        <ele>1209</ele>
        <time>2016-04-03T14:53:52Z</time>
      </trkpt>
      <trkpt lat="44.08914" lon="3.53803">
        <ele>1209</ele>
        <time>2016-04-03T14:53:53Z</time>
      </trkpt>
      <trkpt lat="44.08899" lon="3.53796">
        <ele>1209</ele>
        <time>2016-04-03T14:53:54Z</time>
      </trkpt>
      <trkpt lat="44.08883" lon="3.5379">
        <ele>1208.51</ele>
        <time>2016-04-03T14:53:55Z</time>
      </trkpt>
      <trkpt lat="44.08786" lon="3.53743">
        <ele>1206.11</ele>
        <time>2016-04-03T14:54:03Z</time>
      </trkpt>
      <trkpt lat="44.0878" lon="3.53745">
        <ele>1206.11</ele>
        <time>2016-04-03T14:54:04Z</time>
      </trkpt>
      <trkpt lat="44.08776" lon="3.53748">
        <ele>1206.11</ele>
        <time>2016-04-03T14:54:05Z</time>
      </trkpt>
      <trkpt lat="44.08776" lon="3.53754">
        <ele>1206.11</ele>
        <time>2016-04-03T14:54:06Z</time>
      </trkpt>
      <trkpt lat="44.08778" lon="3.53759">
        <ele>1205.63</ele>
        <time>2016-04-03T14:54:07Z</time>
      </trkpt>
      <trkpt lat="44.08779" lon="3.53765">
        <ele>1205.63</ele>
        <time>2016-04-03T14:54:08Z</time>
      </trkpt>
      <trkpt lat="44.08782" lon="3.5377">
        <ele>1205.15</ele>
        <time>2016-04-03T14:54:09Z</time>
      </trkpt>
      <trkpt lat="44.08788" lon="3.53775">
        <ele>1204.19</ele>
        <time>2016-04-03T14:54:10Z</time>
      </trkpt>
      <trkpt lat="44.08796" lon="3.53781">
        <ele>1203.23</ele>
        <time>2016-04-03T14:54:11Z</time>
      </trkpt>
      <trkpt lat="44.08807" lon="3.53789">
        <ele>1202.27</ele>
        <time>2016-04-03T14:54:12Z</time>
      </trkpt>
      <trkpt lat="44.08818" lon="3.53798">
        <ele>1202.27</ele>
        <time>2016-04-03T14:54:13Z</time>
      </trkpt>
      <trkpt lat="44.08858" lon="3.53835">
        <ele>1200.82</ele>
        <time>2016-04-03T14:54:17Z</time>
      </trkpt>
      <trkpt lat="44.08865" lon="3.53848">
        <ele>1200.34</ele>
        <time>2016-04-03T14:54:18Z</time>
      </trkpt>
      <trkpt lat="44.08871" lon="3.53861">
        <ele>1199.38</ele>
        <time>2016-04-03T14:54:19Z</time>
      </trkpt>
      <trkpt lat="44.0887" lon="3.53876">
        <ele>1198.9</ele>
        <time>2016-04-03T14:54:20Z</time>
      </trkpt>
      <trkpt lat="44.08863" lon="3.53892">
        <ele>1198.9</ele>
        <time>2016-04-03T14:54:21Z</time>
      </trkpt>
      <trkpt lat="44.0885" lon="3.53906">
        <ele>1198.9</ele>
        <time>2016-04-03T14:54:22Z</time>
      </trkpt>
      <trkpt lat="44.08838" lon="3.53915">
        <ele>1198.42</ele>
        <time>2016-04-03T14:54:23Z</time>
      </trkpt>
      <trkpt lat="44.08825" lon="3.53918">
        <ele>1197.94</ele>
        <time>2016-04-03T14:54:24Z</time>
      </trkpt>
      <trkpt lat="44.08811" lon="3.53922">
        <ele>1198.42</ele>
        <time>2016-04-03T14:54:25Z</time>
      </trkpt>
      <trkpt lat="44.08796" lon="3.53926">
        <ele>1197.46</ele>
        <time>2016-04-03T14:54:26Z</time>
      </trkpt>
      <trkpt lat="44.08781" lon="3.53928">
        <ele>1196.98</ele>
        <time>2016-04-03T14:54:27Z</time>
      </trkpt>
      <trkpt lat="44.08766" lon="3.53929">
        <ele>1196.5</ele>
        <time>2016-04-03T14:54:28Z</time>
      </trkpt>
      <trkpt lat="44.08689" lon="3.53931">
        <ele>1192.17</ele>
        <time>2016-04-03T14:54:33Z</time>
      </trkpt>
      <trkpt lat="44.08674" lon="3.53927">
        <ele>1190.73</ele>
        <time>2016-04-03T14:54:34Z</time>
      </trkpt>
      <trkpt lat="44.08556" lon="3.5387">
        <ele>1185.44</ele>
        <time>2016-04-03T14:54:42Z</time>
      </trkpt>
      <trkpt lat="44.08489" lon="3.53807">
        <ele>1183.52</ele>
        <time>2016-04-03T14:54:47Z</time>
      </trkpt>
      <trkpt lat="44.08478" lon="3.53791">
        <ele>1183.04</ele>
        <time>2016-04-03T14:54:48Z</time>
      </trkpt>
      <trkpt lat="44.08468" lon="3.53775">
        <ele>1182.08</ele>
        <time>2016-04-03T14:54:49Z</time>
      </trkpt>
      <trkpt lat="44.08447" lon="3.53745">
        <ele>1180.64</ele>
        <time>2016-04-03T14:54:51Z</time>
      </trkpt>
      <trkpt lat="44.08436" lon="3.53733">
        <ele>1179.67</ele>
        <time>2016-04-03T14:54:52Z</time>
      </trkpt>
      <trkpt lat="44.08423" lon="3.53726">
        <ele>1178.71</ele>
        <time>2016-04-03T14:54:53Z</time>
      </trkpt>
      <trkpt lat="44.0841" lon="3.53724">
        <ele>1177.75</ele>
        <time>2016-04-03T14:54:54Z</time>
      </trkpt>
      <trkpt lat="44.08397" lon="3.53726">
        <ele>1177.27</ele>
        <time>2016-04-03T14:54:55Z</time>
      </trkpt>
      <trkpt lat="44.08387" lon="3.53734">
        <ele>1176.79</ele>
        <time>2016-04-03T14:54:56Z</time>
      </trkpt>
      <trkpt lat="44.08379" lon="3.53746">
        <ele>1175.35</ele>
        <time>2016-04-03T14:54:57Z</time>
      </trkpt>
      <trkpt lat="44.08374" lon="3.53765">
        <ele>1174.39</ele>
        <time>2016-04-03T14:54:58Z</time>
      </trkpt>
      <trkpt lat="44.08371" lon="3.53782">
        <ele>1173.43</ele>
        <time>2016-04-03T14:54:59Z</time>
      </trkpt>
      <trkpt lat="44.08368" lon="3.538">
        <ele>1173.43</ele>
        <time>2016-04-03T14:55:00Z</time>
      </trkpt>
      <trkpt lat="44.08365" lon="3.53819">
        <ele>1172.95</ele>
        <time>2016-04-03T14:55:01Z</time>
      </trkpt>
      <trkpt lat="44.08342" lon="3.5387">
        <ele>1170.54</ele>
        <time>2016-04-03T14:55:04Z</time>
      </trkpt>
      <trkpt lat="44.08332" lon="3.53883">
        <ele>1169.1</ele>
        <time>2016-04-03T14:55:05Z</time>
      </trkpt>
      <trkpt lat="44.08322" lon="3.53897">
        <ele>1167.66</ele>
        <time>2016-04-03T14:55:06Z</time>
      </trkpt>
      <trkpt lat="44.08312" lon="3.53911">
        <ele>1167.66</ele>
        <time>2016-04-03T14:55:07Z</time>
      </trkpt>
      <trkpt lat="44.08305" lon="3.53929">
        <ele>1167.18</ele>
        <time>2016-04-03T14:55:08Z</time>
      </trkpt>
      <trkpt lat="44.08297" lon="3.53945">
        <ele>1167.18</ele>
        <time>2016-04-03T14:55:09Z</time>
      </trkpt>
      <trkpt lat="44.08288" lon="3.5396">
        <ele>1166.7</ele>
        <time>2016-04-03T14:55:10Z</time>
      </trkpt>
      <trkpt lat="44.08277" lon="3.53971">
        <ele>1166.7</ele>
        <time>2016-04-03T14:55:11Z</time>
      </trkpt>
      <trkpt lat="44.08264" lon="3.53981">
        <ele>1166.22</ele>
        <time>2016-04-03T14:55:12Z</time>
      </trkpt>
      <trkpt lat="44.08252" lon="3.53992">
        <ele>1166.22</ele>
        <time>2016-04-03T14:55:13Z</time>
      </trkpt>
      <trkpt lat="44.08241" lon="3.54003">
        <ele>1166.22</ele>
        <time>2016-04-03T14:55:14Z</time>
      </trkpt>
      <trkpt lat="44.0823" lon="3.54015">
        <ele>1165.74</ele>
        <time>2016-04-03T14:55:15Z</time>
      </trkpt>
      <trkpt lat="44.08209" lon="3.54034">
        <ele>1164.29</ele>
        <time>2016-04-03T14:55:17Z</time>
      </trkpt>
      <trkpt lat="44.08199" lon="3.54041">
        <ele>1163.33</ele>
        <time>2016-04-03T14:55:18Z</time>
      </trkpt>
      <trkpt lat="44.08187" lon="3.54041">
        <ele>1163.81</ele>
        <time>2016-04-03T14:55:19Z</time>
      </trkpt>
      <trkpt lat="44.0818" lon="3.54033">
        <ele>1163.33</ele>
        <time>2016-04-03T14:55:20Z</time>
      </trkpt>
      <trkpt lat="44.08172" lon="3.54024">
        <ele>1163.33</ele>
        <time>2016-04-03T14:55:21Z</time>
      </trkpt>
      <trkpt lat="44.08167" lon="3.5401">
        <ele>1162.85</ele>
        <time>2016-04-03T14:55:22Z</time>
      </trkpt>
      <trkpt lat="44.08164" lon="3.53996">
        <ele>1162.37</ele>
        <time>2016-04-03T14:55:23Z</time>
      </trkpt>
      <trkpt lat="44.08162" lon="3.53982">
        <ele>1161.89</ele>
        <time>2016-04-03T14:55:24Z</time>
      </trkpt>
      <trkpt lat="44.08166" lon="3.53968">
        <ele>1160.93</ele>
        <time>2016-04-03T14:55:25Z</time>
      </trkpt>
      <trkpt lat="44.08173" lon="3.53952">
        <ele>1160.93</ele>
        <time>2016-04-03T14:55:26Z</time>
      </trkpt>
      <trkpt lat="44.08181" lon="3.53934">
        <ele>1160.93</ele>
        <time>2016-04-03T14:55:27Z</time>
      </trkpt>
      <trkpt lat="44.08188" lon="3.53916">
        <ele>1160.93</ele>
        <time>2016-04-03T14:55:28Z</time>
      </trkpt>
      <trkpt lat="44.0821" lon="3.53768">
        <ele>1163.33</ele>
        <time>2016-04-03T14:55:36Z</time>
      </trkpt>
      <trkpt lat="44.082" lon="3.53721">
        <ele>1164.77</ele>
        <time>2016-04-03T14:55:39Z</time>
      </trkpt>
      <trkpt lat="44.0819" lon="3.53707">
        <ele>1166.7</ele>
        <time>2016-04-03T14:55:40Z</time>
      </trkpt>
      <trkpt lat="44.08173" lon="3.53698">
        <ele>1164.29</ele>
        <time>2016-04-03T14:55:41Z</time>
      </trkpt>
      <trkpt lat="44.08158" lon="3.53691">
        <ele>1166.22</ele>
        <time>2016-04-03T14:55:42Z</time>
      </trkpt>
      <trkpt lat="44.08142" lon="3.53684">
        <ele>1166.7</ele>
        <time>2016-04-03T14:55:43Z</time>
      </trkpt>
      <trkpt lat="44.08125" lon="3.53678">
        <ele>1167.18</ele>
        <time>2016-04-03T14:55:44Z</time>
      </trkpt>
      <trkpt lat="44.07975" lon="3.5361">
        <ele>1172.95</ele>
        <time>2016-04-03T14:55:54Z</time>
      </trkpt>
      <trkpt lat="44.07961" lon="3.53598">
        <ele>1173.43</ele>
        <time>2016-04-03T14:55:55Z</time>
      </trkpt>
      <trkpt lat="44.07868" lon="3.53495">
        <ele>1176.79</ele>
        <time>2016-04-03T14:56:03Z</time>
      </trkpt>
      <trkpt lat="44.0786" lon="3.53479">
        <ele>1176.79</ele>
        <time>2016-04-03T14:56:04Z</time>
      </trkpt>
      <trkpt lat="44.07846" lon="3.53442">
        <ele>1177.75</ele>
        <time>2016-04-03T14:56:06Z</time>
      </trkpt>
      <trkpt lat="44.07842" lon="3.53421">
        <ele>1178.23</ele>
        <time>2016-04-03T14:56:07Z</time>
      </trkpt>
      <trkpt lat="44.0784" lon="3.53399">
        <ele>1178.23</ele>
        <time>2016-04-03T14:56:08Z</time>
      </trkpt>
      <trkpt lat="44.0784" lon="3.53376">
        <ele>1177.75</ele>
        <time>2016-04-03T14:56:09Z</time>
      </trkpt>
      <trkpt lat="44.07839" lon="3.53354">
        <ele>1177.75</ele>
        <time>2016-04-03T14:56:10Z</time>
      </trkpt>
      <trkpt lat="44.07812" lon="3.53224">
        <ele>1180.64</ele>
        <time>2016-04-03T14:56:17Z</time>
      </trkpt>
      <trkpt lat="44.07804" lon="3.53213">
        <ele>1181.12</ele>
        <time>2016-04-03T14:56:18Z</time>
      </trkpt>
      <trkpt lat="44.07791" lon="3.53205">
        <ele>1181.6</ele>
        <time>2016-04-03T14:56:19Z</time>
      </trkpt>
      <trkpt lat="44.0778" lon="3.53207">
        <ele>1181.6</ele>
        <time>2016-04-03T14:56:20Z</time>
      </trkpt>
      <trkpt lat="44.07766" lon="3.53211">
        <ele>1183.04</ele>
        <time>2016-04-03T14:56:21Z</time>
      </trkpt>
      <trkpt lat="44.07754" lon="3.53216">
        <ele>1184</ele>
        <time>2016-04-03T14:56:22Z</time>
      </trkpt>
      <trkpt lat="44.07742" lon="3.53222">
        <ele>1183.52</ele>
        <time>2016-04-03T14:56:23Z</time>
      </trkpt>
      <trkpt lat="44.07729" lon="3.53229">
        <ele>1183.52</ele>
        <time>2016-04-03T14:56:24Z</time>
      </trkpt>
      <trkpt lat="44.07714" lon="3.53237">
        <ele>1184.96</ele>
        <time>2016-04-03T14:56:25Z</time>
      </trkpt>
      <trkpt lat="44.07655" lon="3.53266">
        <ele>1188.33</ele>
        <time>2016-04-03T14:56:29Z</time>
      </trkpt>
      <trkpt lat="44.07642" lon="3.53275">
        <ele>1188.81</ele>
        <time>2016-04-03T14:56:30Z</time>
      </trkpt>
      <trkpt lat="44.0763" lon="3.53286">
        <ele>1189.29</ele>
        <time>2016-04-03T14:56:31Z</time>
      </trkpt>
      <trkpt lat="44.07588" lon="3.53335">
        <ele>1192.17</ele>
        <time>2016-04-03T14:56:35Z</time>
      </trkpt>
      <trkpt lat="44.07582" lon="3.53349">
        <ele>1192.65</ele>
        <time>2016-04-03T14:56:36Z</time>
      </trkpt>
      <trkpt lat="44.07576" lon="3.53366">
        <ele>1192.65</ele>
        <time>2016-04-03T14:56:37Z</time>
      </trkpt>
      <trkpt lat="44.07572" lon="3.53383">
        <ele>1193.61</ele>
        <time>2016-04-03T14:56:38Z</time>
      </trkpt>
      <trkpt lat="44.07567" lon="3.53401">
        <ele>1194.09</ele>
        <time>2016-04-03T14:56:39Z</time>
      </trkpt>
      <trkpt lat="44.07561" lon="3.53417">
        <ele>1194.58</ele>
        <time>2016-04-03T14:56:40Z</time>
      </trkpt>
      <trkpt lat="44.07555" lon="3.53432">
        <ele>1194.58</ele>
        <time>2016-04-03T14:56:41Z</time>
      </trkpt>
      <trkpt lat="44.07546" lon="3.53442">
        <ele>1194.58</ele>
        <time>2016-04-03T14:56:42Z</time>
      </trkpt>
      <trkpt lat="44.07537" lon="3.53445">
        <ele>1194.58</ele>
        <time>2016-04-03T14:56:43Z</time>
      </trkpt>
      <trkpt lat="44.07528" lon="3.53441">
        <ele>1195.06</ele>
        <time>2016-04-03T14:56:44Z</time>
      </trkpt>
      <trkpt lat="44.07515" lon="3.53429">
        <ele>1196.98</ele>
        <time>2016-04-03T14:56:45Z</time>
      </trkpt>
      <trkpt lat="44.07506" lon="3.53419">
        <ele>1197.94</ele>
        <time>2016-04-03T14:56:46Z</time>
      </trkpt>
      <trkpt lat="44.07497" lon="3.53408">
        <ele>1197.94</ele>
        <time>2016-04-03T14:56:47Z</time>
      </trkpt>
      <trkpt lat="44.07486" lon="3.53399">
        <ele>1197.94</ele>
        <time>2016-04-03T14:56:48Z</time>
      </trkpt>
      <trkpt lat="44.07474" lon="3.53393">
        <ele>1197.94</ele>
        <time>2016-04-03T14:56:49Z</time>
      </trkpt>
      <trkpt lat="44.07461" lon="3.53391">
        <ele>1198.42</ele>
        <time>2016-04-03T14:56:50Z</time>
      </trkpt>
      <trkpt lat="44.07446" lon="3.5339">
        <ele>1198.42</ele>
        <time>2016-04-03T14:56:51Z</time>
      </trkpt>
      <trkpt lat="44.0738" lon="3.53393">
        <ele>1199.86</ele>
        <time>2016-04-03T14:56:56Z</time>
      </trkpt>
      <trkpt lat="44.07369" lon="3.53398">
        <ele>1200.34</ele>
        <time>2016-04-03T14:56:57Z</time>
      </trkpt>
      <trkpt lat="44.07359" lon="3.53409">
        <ele>1200.34</ele>
        <time>2016-04-03T14:56:58Z</time>
      </trkpt>
      <trkpt lat="44.0735" lon="3.53423">
        <ele>1200.34</ele>
        <time>2016-04-03T14:56:59Z</time>
      </trkpt>
      <trkpt lat="44.07342" lon="3.53439">
        <ele>1200.34</ele>
        <time>2016-04-03T14:57:00Z</time>
      </trkpt>
      <trkpt lat="44.07336" lon="3.53457">
        <ele>1200.34</ele>
        <time>2016-04-03T14:57:01Z</time>
      </trkpt>
      <trkpt lat="44.07331" lon="3.53477">
        <ele>1200.34</ele>
        <time>2016-04-03T14:57:02Z</time>
      </trkpt>
      <trkpt lat="44.07314" lon="3.53534">
        <ele>1200.34</ele>
        <time>2016-04-03T14:57:05Z</time>
      </trkpt>
      <trkpt lat="44.07306" lon="3.53551">
        <ele>1199.86</ele>
        <time>2016-04-03T14:57:06Z</time>
      </trkpt>
      <trkpt lat="44.07298" lon="3.53567">
        <ele>1199.86</ele>
        <time>2016-04-03T14:57:07Z</time>
      </trkpt>
      <trkpt lat="44.07289" lon="3.53583">
        <ele>1199.86</ele>
        <time>2016-04-03T14:57:08Z</time>
      </trkpt>
      <trkpt lat="44.07281" lon="3.53599">
        <ele>1199.38</ele>
        <time>2016-04-03T14:57:09Z</time>
      </trkpt>
      <trkpt lat="44.07276" lon="3.53616">
        <ele>1199.38</ele>
        <time>2016-04-03T14:57:10Z</time>
      </trkpt>
      <trkpt lat="44.07274" lon="3.53634">
        <ele>1199.38</ele>
        <time>2016-04-03T14:57:11Z</time>
      </trkpt>
      <trkpt lat="44.07275" lon="3.53653">
        <ele>1199.38</ele>
        <time>2016-04-03T14:57:12Z</time>
      </trkpt>
      <trkpt lat="44.07275" lon="3.53671">
        <ele>1198.9</ele>
        <time>2016-04-03T14:57:13Z</time>
      </trkpt>
      <trkpt lat="44.07275" lon="3.5369">
        <ele>1199.38</ele>
        <time>2016-04-03T14:57:14Z</time>
      </trkpt>
      <trkpt lat="44.0727" lon="3.53708">
        <ele>1198.9</ele>
        <time>2016-04-03T14:57:15Z</time>
      </trkpt>
      <trkpt lat="44.07264" lon="3.53726">
        <ele>1198.9</ele>
        <time>2016-04-03T14:57:16Z</time>
      </trkpt>
      <trkpt lat="44.0726" lon="3.53745">
        <ele>1198.9</ele>
        <time>2016-04-03T14:57:17Z</time>
      </trkpt>
      <trkpt lat="44.07258" lon="3.53765">
        <ele>1198.42</ele>
        <time>2016-04-03T14:57:18Z</time>
      </trkpt>
      <trkpt lat="44.07258" lon="3.53783">
        <ele>1198.9</ele>
        <time>2016-04-03T14:57:19Z</time>
      </trkpt>
      <trkpt lat="44.07249" lon="3.53829">
        <ele>1197.46</ele>
        <time>2016-04-03T14:57:22Z</time>
      </trkpt>
      <trkpt lat="44.07229" lon="3.53835">
        <ele>1196.02</ele>
        <time>2016-04-03T14:57:24Z</time>
      </trkpt>
      <trkpt lat="44.07218" lon="3.53833">
        <ele>1196.02</ele>
        <time>2016-04-03T14:57:25Z</time>
      </trkpt>
      <trkpt lat="44.07206" lon="3.53828">
        <ele>1196.5</ele>
        <time>2016-04-03T14:57:26Z</time>
      </trkpt>
      <trkpt lat="44.07197" lon="3.53814">
        <ele>1196.02</ele>
        <time>2016-04-03T14:57:27Z</time>
      </trkpt>
      <trkpt lat="44.07188" lon="3.53801">
        <ele>1195.54</ele>
        <time>2016-04-03T14:57:28Z</time>
      </trkpt>
      <trkpt lat="44.0718" lon="3.53785">
        <ele>1195.54</ele>
        <time>2016-04-03T14:57:29Z</time>
      </trkpt>
      <trkpt lat="44.07175" lon="3.53768">
        <ele>1195.06</ele>
        <time>2016-04-03T14:57:30Z</time>
      </trkpt>
      <trkpt lat="44.07171" lon="3.53751">
        <ele>1195.06</ele>
        <time>2016-04-03T14:57:31Z</time>
      </trkpt>
      <trkpt lat="44.07166" lon="3.53736">
        <ele>1195.06</ele>
        <time>2016-04-03T14:57:32Z</time>
      </trkpt>
      <trkpt lat="44.07159" lon="3.53722">
        <ele>1194.58</ele>
        <time>2016-04-03T14:57:33Z</time>
      </trkpt>
      <trkpt lat="44.07152" lon="3.5371">
        <ele>1194.58</ele>
        <time>2016-04-03T14:57:34Z</time>
      </trkpt>
      <trkpt lat="44.07143" lon="3.53702">
        <ele>1194.58</ele>
        <time>2016-04-03T14:57:35Z</time>
      </trkpt>
      <trkpt lat="44.07132" lon="3.53697">
        <ele>1194.09</ele>
        <time>2016-04-03T14:57:36Z</time>
      </trkpt>
      <trkpt lat="44.0712" lon="3.53699">
        <ele>1194.09</ele>
        <time>2016-04-03T14:57:37Z</time>
      </trkpt>
      <trkpt lat="44.07107" lon="3.53706">
        <ele>1194.09</ele>
        <time>2016-04-03T14:57:38Z</time>
      </trkpt>
      <trkpt lat="44.07096" lon="3.53716">
        <ele>1194.09</ele>
        <time>2016-04-03T14:57:39Z</time>
      </trkpt>
      <trkpt lat="44.07086" lon="3.53728">
        <ele>1193.61</ele>
        <time>2016-04-03T14:57:40Z</time>
      </trkpt>
      <trkpt lat="44.07077" lon="3.53742">
        <ele>1193.61</ele>
        <time>2016-04-03T14:57:41Z</time>
      </trkpt>
      <trkpt lat="44.07068" lon="3.53756">
        <ele>1193.13</ele>
        <time>2016-04-03T14:57:42Z</time>
      </trkpt>
      <trkpt lat="44.0703" lon="3.53814">
        <ele>1192.17</ele>
        <time>2016-04-03T14:57:47Z</time>
      </trkpt>
      <trkpt lat="44.07021" lon="3.53822">
        <ele>1191.69</ele>
        <time>2016-04-03T14:57:48Z</time>
      </trkpt>
      <trkpt lat="44.07012" lon="3.53827">
        <ele>1191.69</ele>
        <time>2016-04-03T14:57:49Z</time>
      </trkpt>
      <trkpt lat="44.07001" lon="3.53829">
        <ele>1192.17</ele>
        <time>2016-04-03T14:57:50Z</time>
      </trkpt>
      <trkpt lat="44.06991" lon="3.53829">
        <ele>1192.17</ele>
        <time>2016-04-03T14:57:51Z</time>
      </trkpt>
      <trkpt lat="44.06981" lon="3.53828">
        <ele>1192.17</ele>
        <time>2016-04-03T14:57:52Z</time>
      </trkpt>
      <trkpt lat="44.06942" lon="3.53824">
        <ele>1191.69</ele>
        <time>2016-04-03T14:57:56Z</time>
      </trkpt>
      <trkpt lat="44.06931" lon="3.53826">
        <ele>1191.21</ele>
        <time>2016-04-03T14:57:57Z</time>
      </trkpt>
      <trkpt lat="44.06921" lon="3.53831">
        <ele>1191.21</ele>
        <time>2016-04-03T14:57:58Z</time>
      </trkpt>
      <trkpt lat="44.06912" lon="3.53837">
        <ele>1191.21</ele>
        <time>2016-04-03T14:57:59Z</time>
      </trkpt>
      <trkpt lat="44.06903" lon="3.53845">
        <ele>1191.21</ele>
        <time>2016-04-03T14:58:00Z</time>
      </trkpt>
      <trkpt lat="44.06894" lon="3.53855">
        <ele>1190.73</ele>
        <time>2016-04-03T14:58:01Z</time>
      </trkpt>
      <trkpt lat="44.06887" lon="3.53865">
        <ele>1190.73</ele>
        <time>2016-04-03T14:58:02Z</time>
      </trkpt>
      <trkpt lat="44.0688" lon="3.53876">
        <ele>1190.73</ele>
        <time>2016-04-03T14:58:03Z</time>
      </trkpt>
      <trkpt lat="44.06875" lon="3.53889">
        <ele>1190.25</ele>
        <time>2016-04-03T14:58:04Z</time>
      </trkpt>
      <trkpt lat="44.06871" lon="3.53902">
        <ele>1190.25</ele>
        <time>2016-04-03T14:58:05Z</time>
      </trkpt>
      <trkpt lat="44.0687" lon="3.53916">
        <ele>1190.25</ele>
        <time>2016-04-03T14:58:06Z</time>
      </trkpt>
      <trkpt lat="44.06871" lon="3.53931">
        <ele>1190.25</ele>
        <time>2016-04-03T14:58:07Z</time>
      </trkpt>
      <trkpt lat="44.06874" lon="3.53945">
        <ele>1189.77</ele>
        <time>2016-04-03T14:58:08Z</time>
      </trkpt>
      <trkpt lat="44.06879" lon="3.53958">
        <ele>1189.29</ele>
        <time>2016-04-03T14:58:09Z</time>
      </trkpt>
      <trkpt lat="44.06886" lon="3.5397">
        <ele>1189.29</ele>
        <time>2016-04-03T14:58:10Z</time>
      </trkpt>
      <trkpt lat="44.06896" lon="3.5398">
        <ele>1189.77</ele>
        <time>2016-04-03T14:58:11Z</time>
      </trkpt>
      <trkpt lat="44.06905" lon="3.53991">
        <ele>1189.29</ele>
        <time>2016-04-03T14:58:12Z</time>
      </trkpt>
      <trkpt lat="44.06987" lon="3.54131">
        <ele>1191.21</ele>
        <time>2016-04-03T14:58:23Z</time>
      </trkpt>
      <trkpt lat="44.0699" lon="3.54143">
        <ele>1190.73</ele>
        <time>2016-04-03T14:58:24Z</time>
      </trkpt>
      <trkpt lat="44.0699" lon="3.54157">
        <ele>1191.21</ele>
        <time>2016-04-03T14:58:25Z</time>
      </trkpt>
      <trkpt lat="44.06986" lon="3.54169">
        <ele>1191.21</ele>
        <time>2016-04-03T14:58:26Z</time>
      </trkpt>
      <trkpt lat="44.06979" lon="3.54181">
        <ele>1190.25</ele>
        <time>2016-04-03T14:58:27Z</time>
      </trkpt>
      <trkpt lat="44.0697" lon="3.5419">
        <ele>1189.77</ele>
        <time>2016-04-03T14:58:28Z</time>
      </trkpt>
      <trkpt lat="44.06959" lon="3.54195">
        <ele>1188.81</ele>
        <time>2016-04-03T14:58:29Z</time>
      </trkpt>
      <trkpt lat="44.06946" lon="3.54197">
        <ele>1188.33</ele>
        <time>2016-04-03T14:58:30Z</time>
      </trkpt>
      <trkpt lat="44.06931" lon="3.54193">
        <ele>1189.77</ele>
        <time>2016-04-03T14:58:31Z</time>
      </trkpt>
      <trkpt lat="44.06919" lon="3.54193">
        <ele>1189.29</ele>
        <time>2016-04-03T14:58:32Z</time>
      </trkpt>
      <trkpt lat="44.06907" lon="3.54195">
        <ele>1189.29</ele>
        <time>2016-04-03T14:58:33Z</time>
      </trkpt>
      <trkpt lat="44.06896" lon="3.54199">
        <ele>1188.81</ele>
        <time>2016-04-03T14:58:34Z</time>
      </trkpt>
      <trkpt lat="44.06885" lon="3.54207">
        <ele>1189.29</ele>
        <time>2016-04-03T14:58:35Z</time>
      </trkpt>
      <trkpt lat="44.06877" lon="3.54218">
        <ele>1189.29</ele>
        <time>2016-04-03T14:58:36Z</time>
      </trkpt>
      <trkpt lat="44.06869" lon="3.54232">
        <ele>1189.29</ele>
        <time>2016-04-03T14:58:37Z</time>
      </trkpt>
      <trkpt lat="44.06862" lon="3.54247">
        <ele>1189.29</ele>
        <time>2016-04-03T14:58:38Z</time>
      </trkpt>
      <trkpt lat="44.06856" lon="3.54262">
        <ele>1189.29</ele>
        <time>2016-04-03T14:58:39Z</time>
      </trkpt>
      <trkpt lat="44.06837" lon="3.54309">
        <ele>1188.33</ele>
        <time>2016-04-03T14:58:42Z</time>
      </trkpt>
      <trkpt lat="44.06798" lon="3.54391">
        <ele>1186.88</ele>
        <time>2016-04-03T14:58:48Z</time>
      </trkpt>
      <trkpt lat="44.06789" lon="3.54397">
        <ele>1185.92</ele>
        <time>2016-04-03T14:58:49Z</time>
      </trkpt>
      <trkpt lat="44.0678" lon="3.54397">
        <ele>1184.96</ele>
        <time>2016-04-03T14:58:50Z</time>
      </trkpt>
      <trkpt lat="44.06771" lon="3.54387">
        <ele>1186.88</ele>
        <time>2016-04-03T14:58:51Z</time>
      </trkpt>
      <trkpt lat="44.06761" lon="3.54375">
        <ele>1187.37</ele>
        <time>2016-04-03T14:58:52Z</time>
      </trkpt>
      <trkpt lat="44.06754" lon="3.54361">
        <ele>1186.4</ele>
        <time>2016-04-03T14:58:53Z</time>
      </trkpt>
      <trkpt lat="44.06752" lon="3.54345">
        <ele>1186.88</ele>
        <time>2016-04-03T14:58:54Z</time>
      </trkpt>
      <trkpt lat="44.06752" lon="3.5433">
        <ele>1187.85</ele>
        <time>2016-04-03T14:58:55Z</time>
      </trkpt>
      <trkpt lat="44.06754" lon="3.54313">
        <ele>1188.81</ele>
        <time>2016-04-03T14:58:56Z</time>
      </trkpt>
      <trkpt lat="44.06757" lon="3.54293">
        <ele>1189.77</ele>
        <time>2016-04-03T14:58:57Z</time>
      </trkpt>
      <trkpt lat="44.06762" lon="3.54268">
        <ele>1190.25</ele>
        <time>2016-04-03T14:58:58Z</time>
      </trkpt>
      <trkpt lat="44.06765" lon="3.54247">
        <ele>1191.21</ele>
        <time>2016-04-03T14:58:59Z</time>
      </trkpt>
      <trkpt lat="44.0676" lon="3.54145">
        <ele>1193.13</ele>
        <time>2016-04-03T14:59:05Z</time>
      </trkpt>
      <trkpt lat="44.06754" lon="3.54132">
        <ele>1193.61</ele>
        <time>2016-04-03T14:59:06Z</time>
      </trkpt>
      <trkpt lat="44.06746" lon="3.54122">
        <ele>1194.09</ele>
        <time>2016-04-03T14:59:07Z</time>
      </trkpt>
      <trkpt lat="44.06733" lon="3.54118">
        <ele>1195.06</ele>
        <time>2016-04-03T14:59:08Z</time>
      </trkpt>
      <trkpt lat="44.06721" lon="3.5411">
        <ele>1195.54</ele>
        <time>2016-04-03T14:59:09Z</time>
      </trkpt>
      <trkpt lat="44.0671" lon="3.54103">
        <ele>1196.98</ele>
        <time>2016-04-03T14:59:10Z</time>
      </trkpt>
      <trkpt lat="44.06697" lon="3.54096">
        <ele>1196.98</ele>
        <time>2016-04-03T14:59:11Z</time>
      </trkpt>
      <trkpt lat="44.06675" lon="3.54083">
        <ele>1196.98</ele>
        <time>2016-04-03T14:59:13Z</time>
      </trkpt>
      <trkpt lat="44.06664" lon="3.5408">
        <ele>1197.46</ele>
        <time>2016-04-03T14:59:14Z</time>
      </trkpt>
      <trkpt lat="44.06654" lon="3.54081">
        <ele>1198.9</ele>
        <time>2016-04-03T14:59:15Z</time>
      </trkpt>
      <trkpt lat="44.06644" lon="3.54089">
        <ele>1199.38</ele>
        <time>2016-04-03T14:59:16Z</time>
      </trkpt>
      <trkpt lat="44.06635" lon="3.54096">
        <ele>1200.82</ele>
        <time>2016-04-03T14:59:17Z</time>
      </trkpt>
      <trkpt lat="44.06627" lon="3.54104">
        <ele>1201.79</ele>
        <time>2016-04-03T14:59:18Z</time>
      </trkpt>
      <trkpt lat="44.06619" lon="3.54114">
        <ele>1203.23</ele>
        <time>2016-04-03T14:59:19Z</time>
      </trkpt>
      <trkpt lat="44.06592" lon="3.54137">
        <ele>1205.15</ele>
        <time>2016-04-03T14:59:22Z</time>
      </trkpt>
      <trkpt lat="44.06582" lon="3.54142">
        <ele>1206.11</ele>
        <time>2016-04-03T14:59:23Z</time>
      </trkpt>
      <trkpt lat="44.06572" lon="3.54146">
        <ele>1205.63</ele>
        <time>2016-04-03T14:59:24Z</time>
      </trkpt>
      <trkpt lat="44.06564" lon="3.54148">
        <ele>1205.63</ele>
        <time>2016-04-03T14:59:25Z</time>
      </trkpt>
      <trkpt lat="44.06557" lon="3.54149">
        <ele>1206.11</ele>
        <time>2016-04-03T14:59:26Z</time>
      </trkpt>
      <trkpt lat="44.06552" lon="3.54149">
        <ele>1206.11</ele>
        <time>2016-04-03T14:59:27Z</time>
      </trkpt>
      <trkpt lat="44.06549" lon="3.54149">
        <ele>1206.11</ele>
        <time>2016-04-03T14:59:28Z</time>
      </trkpt>
      <trkpt lat="44.06548" lon="3.5415">
        <ele>1205.15</ele>
        <time>2016-04-03T14:59:35Z</time>
      </trkpt>
      <trkpt lat="44.06516" lon="3.54152">
        <ele>1206.11</ele>
        <time>2016-04-03T14:59:39Z</time>
      </trkpt>
      <trkpt lat="44.06503" lon="3.54155">
        <ele>1206.11</ele>
        <time>2016-04-03T14:59:40Z</time>
      </trkpt>
      <trkpt lat="44.06487" lon="3.54162">
        <ele>1206.59</ele>
        <time>2016-04-03T14:59:41Z</time>
      </trkpt>
      <trkpt lat="44.06473" lon="3.54171">
        <ele>1207.55</ele>
        <time>2016-04-03T14:59:42Z</time>
      </trkpt>
      <trkpt lat="44.0646" lon="3.54179">
        <ele>1208.03</ele>
        <time>2016-04-03T14:59:43Z</time>
      </trkpt>
      <trkpt lat="44.06448" lon="3.54188">
        <ele>1208.03</ele>
        <time>2016-04-03T14:59:44Z</time>
      </trkpt>
      <trkpt lat="44.06437" lon="3.54198">
        <ele>1208.51</ele>
        <time>2016-04-03T14:59:45Z</time>
      </trkpt>
      <trkpt lat="44.06427" lon="3.54211">
        <ele>1209</ele>
        <time>2016-04-03T14:59:46Z</time>
      </trkpt>
      <trkpt lat="44.06418" lon="3.54225">
        <ele>1209.48</ele>
        <time>2016-04-03T14:59:47Z</time>
      </trkpt>
      <trkpt lat="44.0641" lon="3.54241">
        <ele>1210.44</ele>
        <time>2016-04-03T14:59:48Z</time>
      </trkpt>
      <trkpt lat="44.06404" lon="3.54257">
        <ele>1210.92</ele>
        <time>2016-04-03T14:59:49Z</time>
      </trkpt>
      <trkpt lat="44.06398" lon="3.54272">
        <ele>1211.4</ele>
        <time>2016-04-03T14:59:50Z</time>
      </trkpt>
      <trkpt lat="44.06395" lon="3.54288">
        <ele>1212.36</ele>
        <time>2016-04-03T14:59:51Z</time>
      </trkpt>
      <trkpt lat="44.06393" lon="3.54303">
        <ele>1213.8</ele>
        <time>2016-04-03T14:59:52Z</time>
      </trkpt>
      <trkpt lat="44.06392" lon="3.54316">
        <ele>1214.76</ele>
        <time>2016-04-03T14:59:53Z</time>
      </trkpt>
      <trkpt lat="44.0639" lon="3.5433">
        <ele>1215.24</ele>
        <time>2016-04-03T14:59:54Z</time>
      </trkpt>
      <trkpt lat="44.06387" lon="3.54344">
        <ele>1216.21</ele>
        <time>2016-04-03T14:59:55Z</time>
      </trkpt>
      <trkpt lat="44.0638" lon="3.54355">
        <ele>1216.21</ele>
        <time>2016-04-03T14:59:56Z</time>
      </trkpt>
      <trkpt lat="44.06371" lon="3.54365">
        <ele>1216.69</ele>
        <time>2016-04-03T14:59:57Z</time>
      </trkpt>
      <trkpt lat="44.0636" lon="3.54373">
        <ele>1216.69</ele>
        <time>2016-04-03T14:59:58Z</time>
      </trkpt>
      <trkpt lat="44.06347" lon="3.5438">
        <ele>1217.65</ele>
        <time>2016-04-03T14:59:59Z</time>
      </trkpt>
      <trkpt lat="44.06333" lon="3.54385">
        <ele>1219.09</ele>
        <time>2016-04-03T15:00:00Z</time>
      </trkpt>
      <trkpt lat="44.06321" lon="3.54394">
        <ele>1220.53</ele>
        <time>2016-04-03T15:00:01Z</time>
      </trkpt>
      <trkpt lat="44.06313" lon="3.54407">
        <ele>1221.01</ele>
        <time>2016-04-03T15:00:02Z</time>
      </trkpt>
      <trkpt lat="44.06303" lon="3.54418">
        <ele>1222.45</ele>
        <time>2016-04-03T15:00:03Z</time>
      </trkpt>
      <trkpt lat="44.06295" lon="3.5443">
        <ele>1224.38</ele>
        <time>2016-04-03T15:00:04Z</time>
      </trkpt>
      <trkpt lat="44.06288" lon="3.54443">
        <ele>1225.34</ele>
        <time>2016-04-03T15:00:05Z</time>
      </trkpt>
      <trkpt lat="44.06281" lon="3.54468">
        <ele>1226.3</ele>
        <time>2016-04-03T15:00:07Z</time>
      </trkpt>
      <trkpt lat="44.06283" lon="3.54484">
        <ele>1226.78</ele>
        <time>2016-04-03T15:00:08Z</time>
      </trkpt>
      <trkpt lat="44.06288" lon="3.54501">
        <ele>1227.26</ele>
        <time>2016-04-03T15:00:09Z</time>
      </trkpt>
      <trkpt lat="44.0629" lon="3.54519">
        <ele>1226.78</ele>
        <time>2016-04-03T15:00:10Z</time>
      </trkpt>
      <trkpt lat="44.0629" lon="3.54535">
        <ele>1226.78</ele>
        <time>2016-04-03T15:00:11Z</time>
      </trkpt>
      <trkpt lat="44.06287" lon="3.54551">
        <ele>1227.26</ele>
        <time>2016-04-03T15:00:12Z</time>
      </trkpt>
      <trkpt lat="44.06282" lon="3.54566">
        <ele>1227.74</ele>
        <time>2016-04-03T15:00:13Z</time>
      </trkpt>
      <trkpt lat="44.06275" lon="3.54579">
        <ele>1227.26</ele>
        <time>2016-04-03T15:00:14Z</time>
      </trkpt>
      <trkpt lat="44.06265" lon="3.54587">
        <ele>1226.3</ele>
        <time>2016-04-03T15:00:15Z</time>
      </trkpt>
      <trkpt lat="44.06252" lon="3.5459">
        <ele>1225.34</ele>
        <time>2016-04-03T15:00:16Z</time>
      </trkpt>
      <trkpt lat="44.06235" lon="3.54587">
        <ele>1228.22</ele>
        <time>2016-04-03T15:00:17Z</time>
      </trkpt>
      <trkpt lat="44.06221" lon="3.5459">
        <ele>1227.26</ele>
        <time>2016-04-03T15:00:18Z</time>
      </trkpt>
      <trkpt lat="44.06205" lon="3.54593">
        <ele>1227.74</ele>
        <time>2016-04-03T15:00:19Z</time>
      </trkpt>
      <trkpt lat="44.06101" lon="3.54608">
        <ele>1233.03</ele>
        <time>2016-04-03T15:00:26Z</time>
      </trkpt>
      <trkpt lat="44.06091" lon="3.54605">
        <ele>1233.51</ele>
        <time>2016-04-03T15:00:27Z</time>
      </trkpt>
      <trkpt lat="44.06084" lon="3.54598">
        <ele>1234.47</ele>
        <time>2016-04-03T15:00:28Z</time>
      </trkpt>
      <trkpt lat="44.06077" lon="3.54587">
        <ele>1235.91</ele>
        <time>2016-04-03T15:00:29Z</time>
      </trkpt>
      <trkpt lat="44.06071" lon="3.54574">
        <ele>1237.35</ele>
        <time>2016-04-03T15:00:30Z</time>
      </trkpt>
      <trkpt lat="44.06068" lon="3.54558">
        <ele>1239.28</ele>
        <time>2016-04-03T15:00:31Z</time>
      </trkpt>
      <trkpt lat="44.06062" lon="3.54547">
        <ele>1240.72</ele>
        <time>2016-04-03T15:00:32Z</time>
      </trkpt>
      <trkpt lat="44.06044" lon="3.54535">
        <ele>1240.72</ele>
        <time>2016-04-03T15:00:34Z</time>
      </trkpt>
      <trkpt lat="44.0603" lon="3.54534">
        <ele>1241.68</ele>
        <time>2016-04-03T15:00:35Z</time>
      </trkpt>
      <trkpt lat="44.06018" lon="3.54532">
        <ele>1241.2</ele>
        <time>2016-04-03T15:00:36Z</time>
      </trkpt>
      <trkpt lat="44.06005" lon="3.54531">
        <ele>1241.68</ele>
        <time>2016-04-03T15:00:37Z</time>
      </trkpt>
      <trkpt lat="44.05992" lon="3.54534">
        <ele>1242.16</ele>
        <time>2016-04-03T15:00:38Z</time>
      </trkpt>
      <trkpt lat="44.0598" lon="3.54539">
        <ele>1242.16</ele>
        <time>2016-04-03T15:00:39Z</time>
      </trkpt>
      <trkpt lat="44.05967" lon="3.54546">
        <ele>1242.64</ele>
        <time>2016-04-03T15:00:40Z</time>
      </trkpt>
      <trkpt lat="44.05955" lon="3.54554">
        <ele>1243.12</ele>
        <time>2016-04-03T15:00:41Z</time>
      </trkpt>
      <trkpt lat="44.05941" lon="3.54563">
        <ele>1244.08</ele>
        <time>2016-04-03T15:00:42Z</time>
      </trkpt>
      <trkpt lat="44.05929" lon="3.54575">
        <ele>1244.56</ele>
        <time>2016-04-03T15:00:43Z</time>
      </trkpt>
      <trkpt lat="44.05917" lon="3.54587">
        <ele>1245.04</ele>
        <time>2016-04-03T15:00:44Z</time>
      </trkpt>
      <trkpt lat="44.05907" lon="3.54601">
        <ele>1245.04</ele>
        <time>2016-04-03T15:00:45Z</time>
      </trkpt>
      <trkpt lat="44.05897" lon="3.54614">
        <ele>1245.53</ele>
        <time>2016-04-03T15:00:46Z</time>
      </trkpt>
      <trkpt lat="44.05867" lon="3.54649">
        <ele>1246.49</ele>
        <time>2016-04-03T15:00:49Z</time>
      </trkpt>
      <trkpt lat="44.05856" lon="3.54656">
        <ele>1246.97</ele>
        <time>2016-04-03T15:00:50Z</time>
      </trkpt>
      <trkpt lat="44.05841" lon="3.54658">
        <ele>1247.93</ele>
        <time>2016-04-03T15:00:51Z</time>
      </trkpt>
      <trkpt lat="44.05826" lon="3.54658">
        <ele>1248.41</ele>
        <time>2016-04-03T15:00:52Z</time>
      </trkpt>
      <trkpt lat="44.05811" lon="3.54656">
        <ele>1248.89</ele>
        <time>2016-04-03T15:00:53Z</time>
      </trkpt>
      <trkpt lat="44.05796" lon="3.54651">
        <ele>1249.85</ele>
        <time>2016-04-03T15:00:54Z</time>
      </trkpt>
      <trkpt lat="44.0578" lon="3.54646">
        <ele>1250.33</ele>
        <time>2016-04-03T15:00:55Z</time>
      </trkpt>
      <trkpt lat="44.057" lon="3.54644">
        <ele>1253.7</ele>
        <time>2016-04-03T15:01:00Z</time>
      </trkpt>
      <trkpt lat="44.05685" lon="3.54648">
        <ele>1254.18</ele>
        <time>2016-04-03T15:01:01Z</time>
      </trkpt>
      <trkpt lat="44.05538" lon="3.54719">
        <ele>1262.35</ele>
        <time>2016-04-03T15:01:10Z</time>
      </trkpt>
      <trkpt lat="44.05523" lon="3.54725">
        <ele>1262.83</ele>
        <time>2016-04-03T15:01:11Z</time>
      </trkpt>
      <trkpt lat="44.05507" lon="3.5473">
        <ele>1263.79</ele>
        <time>2016-04-03T15:01:12Z</time>
      </trkpt>
      <trkpt lat="44.05493" lon="3.54732">
        <ele>1263.79</ele>
        <time>2016-04-03T15:01:13Z</time>
      </trkpt>
      <trkpt lat="44.05411" lon="3.5474">
        <ele>1266.67</ele>
        <time>2016-04-03T15:01:20Z</time>
      </trkpt>
      <trkpt lat="44.05404" lon="3.54745">
        <ele>1267.16</ele>
        <time>2016-04-03T15:01:21Z</time>
      </trkpt>
      <trkpt lat="44.05397" lon="3.54753">
        <ele>1267.64</ele>
        <time>2016-04-03T15:01:22Z</time>
      </trkpt>
      <trkpt lat="44.05396" lon="3.54766">
        <ele>1268.12</ele>
        <time>2016-04-03T15:01:23Z</time>
      </trkpt>
      <trkpt lat="44.05396" lon="3.54779">
        <ele>1268.12</ele>
        <time>2016-04-03T15:01:24Z</time>
      </trkpt>
      <trkpt lat="44.05395" lon="3.54794">
        <ele>1269.08</ele>
        <time>2016-04-03T15:01:25Z</time>
      </trkpt>
      <trkpt lat="44.05396" lon="3.54812">
        <ele>1268.6</ele>
        <time>2016-04-03T15:01:26Z</time>
      </trkpt>
      <trkpt lat="44.05396" lon="3.54831">
        <ele>1268.12</ele>
        <time>2016-04-03T15:01:27Z</time>
      </trkpt>
      <trkpt lat="44.05397" lon="3.54849">
        <ele>1267.64</ele>
        <time>2016-04-03T15:01:28Z</time>
      </trkpt>
      <trkpt lat="44.05399" lon="3.54867">
        <ele>1267.16</ele>
        <time>2016-04-03T15:01:29Z</time>
      </trkpt>
      <trkpt lat="44.05404" lon="3.54886">
        <ele>1267.16</ele>
        <time>2016-04-03T15:01:30Z</time>
      </trkpt>
      <trkpt lat="44.0541" lon="3.54904">
        <ele>1267.16</ele>
        <time>2016-04-03T15:01:31Z</time>
      </trkpt>
      <trkpt lat="44.05451" lon="3.55025">
        <ele>1260.91</ele>
        <time>2016-04-03T15:01:39Z</time>
      </trkpt>
      <trkpt lat="44.05452" lon="3.55035">
        <ele>1260.43</ele>
        <time>2016-04-03T15:01:40Z</time>
      </trkpt>
      <trkpt lat="44.05449" lon="3.5505">
        <ele>1258.02</ele>
        <time>2016-04-03T15:01:42Z</time>
      </trkpt>
      <trkpt lat="44.05441" lon="3.55055">
        <ele>1256.58</ele>
        <time>2016-04-03T15:01:43Z</time>
      </trkpt>
      <trkpt lat="44.05433" lon="3.55056">
        <ele>1254.66</ele>
        <time>2016-04-03T15:01:44Z</time>
      </trkpt>
      <trkpt lat="44.05421" lon="3.55052">
        <ele>1252.74</ele>
        <time>2016-04-03T15:01:45Z</time>
      </trkpt>
      <trkpt lat="44.05408" lon="3.55049">
        <ele>1251.29</ele>
        <time>2016-04-03T15:01:46Z</time>
      </trkpt>
      <trkpt lat="44.0539" lon="3.55036">
        <ele>1253.22</ele>
        <time>2016-04-03T15:01:47Z</time>
      </trkpt>
      <trkpt lat="44.05375" lon="3.55032">
        <ele>1253.22</ele>
        <time>2016-04-03T15:01:48Z</time>
      </trkpt>
      <trkpt lat="44.05363" lon="3.55029">
        <ele>1252.74</ele>
        <time>2016-04-03T15:01:49Z</time>
      </trkpt>
      <trkpt lat="44.0535" lon="3.55029">
        <ele>1252.25</ele>
        <time>2016-04-03T15:01:50Z</time>
      </trkpt>
      <trkpt lat="44.05338" lon="3.55031">
        <ele>1251.77</ele>
        <time>2016-04-03T15:01:51Z</time>
      </trkpt>
      <trkpt lat="44.05325" lon="3.55036">
        <ele>1251.29</ele>
        <time>2016-04-03T15:01:52Z</time>
      </trkpt>
      <trkpt lat="44.05312" lon="3.55043">
        <ele>1250.33</ele>
        <time>2016-04-03T15:01:53Z</time>
      </trkpt>
      <trkpt lat="44.053" lon="3.55051">
        <ele>1249.37</ele>
        <time>2016-04-03T15:01:54Z</time>
      </trkpt>
      <trkpt lat="44.05193" lon="3.5514">
        <ele>1246.97</ele>
        <time>2016-04-03T15:02:03Z</time>
      </trkpt>
      <trkpt lat="44.0518" lon="3.55162">
        <ele>1245.04</ele>
        <time>2016-04-03T15:02:05Z</time>
      </trkpt>
      <trkpt lat="44.05176" lon="3.55174">
        <ele>1244.56</ele>
        <time>2016-04-03T15:02:06Z</time>
      </trkpt>
      <trkpt lat="44.05175" lon="3.55189">
        <ele>1243.6</ele>
        <time>2016-04-03T15:02:07Z</time>
      </trkpt>
      <trkpt lat="44.05172" lon="3.55204">
        <ele>1242.16</ele>
        <time>2016-04-03T15:02:08Z</time>
      </trkpt>
      <trkpt lat="44.05174" lon="3.5522">
        <ele>1241.2</ele>
        <time>2016-04-03T15:02:09Z</time>
      </trkpt>
      <trkpt lat="44.05179" lon="3.55235">
        <ele>1241.2</ele>
        <time>2016-04-03T15:02:10Z</time>
      </trkpt>
      <trkpt lat="44.05184" lon="3.55248">
        <ele>1240.72</ele>
        <time>2016-04-03T15:02:11Z</time>
      </trkpt>
      <trkpt lat="44.05188" lon="3.55261">
        <ele>1239.76</ele>
        <time>2016-04-03T15:02:12Z</time>
      </trkpt>
      <trkpt lat="44.05191" lon="3.55287">
        <ele>1238.32</ele>
        <time>2016-04-03T15:02:14Z</time>
      </trkpt>
      <trkpt lat="44.05191" lon="3.553">
        <ele>1237.35</ele>
        <time>2016-04-03T15:02:15Z</time>
      </trkpt>
      <trkpt lat="44.05188" lon="3.55312">
        <ele>1237.35</ele>
        <time>2016-04-03T15:02:16Z</time>
      </trkpt>
      <trkpt lat="44.05181" lon="3.55323">
        <ele>1235.91</ele>
        <time>2016-04-03T15:02:17Z</time>
      </trkpt>
      <trkpt lat="44.05171" lon="3.5533">
        <ele>1234.95</ele>
        <time>2016-04-03T15:02:18Z</time>
      </trkpt>
      <trkpt lat="44.05155" lon="3.55328">
        <ele>1235.91</ele>
        <time>2016-04-03T15:02:19Z</time>
      </trkpt>
      <trkpt lat="44.05142" lon="3.55329">
        <ele>1235.43</ele>
        <time>2016-04-03T15:02:20Z</time>
      </trkpt>
      <trkpt lat="44.0513" lon="3.5533">
        <ele>1234.95</ele>
        <time>2016-04-03T15:02:21Z</time>
      </trkpt>
      <trkpt lat="44.05118" lon="3.55328">
        <ele>1234.47</ele>
        <time>2016-04-03T15:02:22Z</time>
      </trkpt>
      <trkpt lat="44.05106" lon="3.55326">
        <ele>1233.51</ele>
        <time>2016-04-03T15:02:23Z</time>
      </trkpt>
      <trkpt lat="44.05088" lon="3.55325">
        <ele>1232.07</ele>
        <time>2016-04-03T15:02:25Z</time>
      </trkpt>
      <trkpt lat="44.0508" lon="3.55327">
        <ele>1231.11</ele>
        <time>2016-04-03T15:02:26Z</time>
      </trkpt>
      <trkpt lat="44.05072" lon="3.55331">
        <ele>1231.59</ele>
        <time>2016-04-03T15:02:27Z</time>
      </trkpt>
      <trkpt lat="44.05065" lon="3.55335">
        <ele>1231.11</ele>
        <time>2016-04-03T15:02:28Z</time>
      </trkpt>
      <trkpt lat="44.05058" lon="3.55343">
        <ele>1231.11</ele>
        <time>2016-04-03T15:02:29Z</time>
      </trkpt>
      <trkpt lat="44.05052" lon="3.5535">
        <ele>1230.14</ele>
        <time>2016-04-03T15:02:30Z</time>
      </trkpt>
      <trkpt lat="44.05039" lon="3.55364">
        <ele>1228.7</ele>
        <time>2016-04-03T15:02:32Z</time>
      </trkpt>
      <trkpt lat="44.05031" lon="3.55369">
        <ele>1227.26</ele>
        <time>2016-04-03T15:02:33Z</time>
      </trkpt>
      <trkpt lat="44.0502" lon="3.55373">
        <ele>1226.3</ele>
        <time>2016-04-03T15:02:34Z</time>
      </trkpt>
      <trkpt lat="44.0496" lon="3.5541">
        <ele>1224.38</ele>
        <time>2016-04-03T15:02:40Z</time>
      </trkpt>
      <trkpt lat="44.04948" lon="3.5543">
        <ele>1222.93</ele>
        <time>2016-04-03T15:02:42Z</time>
      </trkpt>
      <trkpt lat="44.04945" lon="3.55444">
        <ele>1221.97</ele>
        <time>2016-04-03T15:02:43Z</time>
      </trkpt>
      <trkpt lat="44.04942" lon="3.55459">
        <ele>1221.97</ele>
        <time>2016-04-03T15:02:44Z</time>
      </trkpt>
      <trkpt lat="44.04938" lon="3.55473">
        <ele>1221.01</ele>
        <time>2016-04-03T15:02:45Z</time>
      </trkpt>
      <trkpt lat="44.04935" lon="3.55486">
        <ele>1220.53</ele>
        <time>2016-04-03T15:02:46Z</time>
      </trkpt>
      <trkpt lat="44.04932" lon="3.555">
        <ele>1220.05</ele>
        <time>2016-04-03T15:02:47Z</time>
      </trkpt>
      <trkpt lat="44.04927" lon="3.55543">
        <ele>1218.13</ele>
        <time>2016-04-03T15:02:50Z</time>
      </trkpt>
      <trkpt lat="44.04927" lon="3.55556">
        <ele>1217.17</ele>
        <time>2016-04-03T15:02:51Z</time>
      </trkpt>
      <trkpt lat="44.04929" lon="3.55567">
        <ele>1216.69</ele>
        <time>2016-04-03T15:02:52Z</time>
      </trkpt>
      <trkpt lat="44.04932" lon="3.5559">
        <ele>1216.69</ele>
        <time>2016-04-03T15:02:54Z</time>
      </trkpt>
      <trkpt lat="44.04929" lon="3.55603">
        <ele>1217.17</ele>
        <time>2016-04-03T15:02:55Z</time>
      </trkpt>
      <trkpt lat="44.04922" lon="3.55628">
        <ele>1216.21</ele>
        <time>2016-04-03T15:02:57Z</time>
      </trkpt>
      <trkpt lat="44.04914" lon="3.55638">
        <ele>1215.24</ele>
        <time>2016-04-03T15:02:58Z</time>
      </trkpt>
      <trkpt lat="44.04902" lon="3.55644">
        <ele>1216.21</ele>
        <time>2016-04-03T15:02:59Z</time>
      </trkpt>
      <trkpt lat="44.0489" lon="3.55651">
        <ele>1216.69</ele>
        <time>2016-04-03T15:03:00Z</time>
      </trkpt>
      <trkpt lat="44.0488" lon="3.55658">
        <ele>1217.65</ele>
        <time>2016-04-03T15:03:01Z</time>
      </trkpt>
      <trkpt lat="44.04855" lon="3.55688">
        <ele>1216.69</ele>
        <time>2016-04-03T15:03:04Z</time>
      </trkpt>
      <trkpt lat="44.04842" lon="3.5576">
        <ele>1208.03</ele>
        <time>2016-04-03T15:03:09Z</time>
      </trkpt>
      <trkpt lat="44.04843" lon="3.55773">
        <ele>1206.59</ele>
        <time>2016-04-03T15:03:10Z</time>
      </trkpt>
      <trkpt lat="44.04846" lon="3.55785">
        <ele>1204.67</ele>
        <time>2016-04-03T15:03:11Z</time>
      </trkpt>
      <trkpt lat="44.0485" lon="3.55798">
        <ele>1202.75</ele>
        <time>2016-04-03T15:03:12Z</time>
      </trkpt>
      <trkpt lat="44.04854" lon="3.55811">
        <ele>1201.3</ele>
        <time>2016-04-03T15:03:13Z</time>
      </trkpt>
      <trkpt lat="44.04857" lon="3.55823">
        <ele>1200.34</ele>
        <time>2016-04-03T15:03:14Z</time>
      </trkpt>
      <trkpt lat="44.04858" lon="3.55834">
        <ele>1198.9</ele>
        <time>2016-04-03T15:03:15Z</time>
      </trkpt>
      <trkpt lat="44.0485" lon="3.55848">
        <ele>1196.02</ele>
        <time>2016-04-03T15:03:17Z</time>
      </trkpt>
      <trkpt lat="44.04843" lon="3.55849">
        <ele>1194.58</ele>
        <time>2016-04-03T15:03:18Z</time>
      </trkpt>
      <trkpt lat="44.04838" lon="3.55844">
        <ele>1195.54</ele>
        <time>2016-04-03T15:03:19Z</time>
      </trkpt>
      <trkpt lat="44.04832" lon="3.55836">
        <ele>1195.54</ele>
        <time>2016-04-03T15:03:20Z</time>
      </trkpt>
      <trkpt lat="44.04818" lon="3.55812">
        <ele>1200.34</ele>
        <time>2016-04-03T15:03:21Z</time>
      </trkpt>
      <trkpt lat="44.04807" lon="3.55797">
        <ele>1202.75</ele>
        <time>2016-04-03T15:03:22Z</time>
      </trkpt>
      <trkpt lat="44.04798" lon="3.55783">
        <ele>1202.75</ele>
        <time>2016-04-03T15:03:23Z</time>
      </trkpt>
      <trkpt lat="44.04753" lon="3.55729">
        <ele>1201.79</ele>
        <time>2016-04-03T15:03:27Z</time>
      </trkpt>
      <trkpt lat="44.04743" lon="3.55714">
        <ele>1200.34</ele>
        <time>2016-04-03T15:03:28Z</time>
      </trkpt>
      <trkpt lat="44.04735" lon="3.55699">
        <ele>1199.38</ele>
        <time>2016-04-03T15:03:29Z</time>
      </trkpt>
      <trkpt lat="44.04679" lon="3.55622">
        <ele>1194.09</ele>
        <time>2016-04-03T15:03:35Z</time>
      </trkpt>
      <trkpt lat="44.04667" lon="3.55614">
        <ele>1193.13</ele>
        <time>2016-04-03T15:03:36Z</time>
      </trkpt>
      <trkpt lat="44.04654" lon="3.55607">
        <ele>1192.17</ele>
        <time>2016-04-03T15:03:37Z</time>
      </trkpt>
      <trkpt lat="44.04596" lon="3.55573">
        <ele>1186.4</ele>
        <time>2016-04-03T15:03:42Z</time>
      </trkpt>
      <trkpt lat="44.04585" lon="3.55573">
        <ele>1185.44</ele>
        <time>2016-04-03T15:03:43Z</time>
      </trkpt>
      <trkpt lat="44.04575" lon="3.55579">
        <ele>1184.48</ele>
        <time>2016-04-03T15:03:44Z</time>
      </trkpt>
      <trkpt lat="44.04566" lon="3.55587">
        <ele>1183.52</ele>
        <time>2016-04-03T15:03:45Z</time>
      </trkpt>
      <trkpt lat="44.04558" lon="3.55599">
        <ele>1183.04</ele>
        <time>2016-04-03T15:03:46Z</time>
      </trkpt>
      <trkpt lat="44.04554" lon="3.55617">
        <ele>1182.08</ele>
        <time>2016-04-03T15:03:47Z</time>
      </trkpt>
      <trkpt lat="44.0455" lon="3.55634">
        <ele>1181.12</ele>
        <time>2016-04-03T15:03:48Z</time>
      </trkpt>
      <trkpt lat="44.04544" lon="3.5565">
        <ele>1180.16</ele>
        <time>2016-04-03T15:03:49Z</time>
      </trkpt>
      <trkpt lat="44.04536" lon="3.55665">
        <ele>1178.71</ele>
        <time>2016-04-03T15:03:50Z</time>
      </trkpt>
      <trkpt lat="44.04526" lon="3.55679">
        <ele>1177.75</ele>
        <time>2016-04-03T15:03:51Z</time>
      </trkpt>
      <trkpt lat="44.04516" lon="3.55691">
        <ele>1176.31</ele>
        <time>2016-04-03T15:03:52Z</time>
      </trkpt>
      <trkpt lat="44.04505" lon="3.55702">
        <ele>1174.87</ele>
        <time>2016-04-03T15:03:53Z</time>
      </trkpt>
      <trkpt lat="44.04492" lon="3.55711">
        <ele>1174.87</ele>
        <time>2016-04-03T15:03:54Z</time>
      </trkpt>
      <trkpt lat="44.0448" lon="3.55719">
        <ele>1174.39</ele>
        <time>2016-04-03T15:03:55Z</time>
      </trkpt>
      <trkpt lat="44.04431" lon="3.55749">
        <ele>1173.43</ele>
        <time>2016-04-03T15:03:59Z</time>
      </trkpt>
      <trkpt lat="44.04421" lon="3.55759">
        <ele>1171.98</ele>
        <time>2016-04-03T15:04:00Z</time>
      </trkpt>
      <trkpt lat="44.04412" lon="3.55772">
        <ele>1171.02</ele>
        <time>2016-04-03T15:04:01Z</time>
      </trkpt>
      <trkpt lat="44.04405" lon="3.55786">
        <ele>1170.06</ele>
        <time>2016-04-03T15:04:02Z</time>
      </trkpt>
      <trkpt lat="44.04398" lon="3.558">
        <ele>1169.1</ele>
        <time>2016-04-03T15:04:03Z</time>
      </trkpt>
      <trkpt lat="44.0438" lon="3.55838">
        <ele>1165.26</ele>
        <time>2016-04-03T15:04:06Z</time>
      </trkpt>
      <trkpt lat="44.04373" lon="3.55861">
        <ele>1162.85</ele>
        <time>2016-04-03T15:04:08Z</time>
      </trkpt>
      <trkpt lat="44.04374" lon="3.55875">
        <ele>1160.93</ele>
        <time>2016-04-03T15:04:09Z</time>
      </trkpt>
      <trkpt lat="44.04375" lon="3.55889">
        <ele>1159.97</ele>
        <time>2016-04-03T15:04:10Z</time>
      </trkpt>
      <trkpt lat="44.04371" lon="3.55904">
        <ele>1159.49</ele>
        <time>2016-04-03T15:04:11Z</time>
      </trkpt>
      <trkpt lat="44.04367" lon="3.55915">
        <ele>1157.56</ele>
        <time>2016-04-03T15:04:12Z</time>
      </trkpt>
      <trkpt lat="44.04358" lon="3.55921">
        <ele>1156.12</ele>
        <time>2016-04-03T15:04:13Z</time>
      </trkpt>
      <trkpt lat="44.04348" lon="3.55922">
        <ele>1156.12</ele>
        <time>2016-04-03T15:04:14Z</time>
      </trkpt>
      <trkpt lat="44.04335" lon="3.55918">
        <ele>1155.64</ele>
        <time>2016-04-03T15:04:15Z</time>
      </trkpt>
      <trkpt lat="44.04323" lon="3.55911">
        <ele>1155.64</ele>
        <time>2016-04-03T15:04:16Z</time>
      </trkpt>
      <trkpt lat="44.04311" lon="3.55907">
        <ele>1155.16</ele>
        <time>2016-04-03T15:04:17Z</time>
      </trkpt>
      <trkpt lat="44.043" lon="3.55902">
        <ele>1154.2</ele>
        <time>2016-04-03T15:04:18Z</time>
      </trkpt>
      <trkpt lat="44.0429" lon="3.55898">
        <ele>1153.24</ele>
        <time>2016-04-03T15:04:19Z</time>
      </trkpt>
      <trkpt lat="44.04273" lon="3.55892">
        <ele>1151.8</ele>
        <time>2016-04-03T15:04:21Z</time>
      </trkpt>
      <trkpt lat="44.04265" lon="3.55893">
        <ele>1151.32</ele>
        <time>2016-04-03T15:04:22Z</time>
      </trkpt>
      <trkpt lat="44.04257" lon="3.55898">
        <ele>1150.35</ele>
        <time>2016-04-03T15:04:23Z</time>
      </trkpt>
      <trkpt lat="44.0425" lon="3.55907">
        <ele>1149.39</ele>
        <time>2016-04-03T15:04:24Z</time>
      </trkpt>
      <trkpt lat="44.04244" lon="3.55921">
        <ele>1148.43</ele>
        <time>2016-04-03T15:04:25Z</time>
      </trkpt>
      <trkpt lat="44.04238" lon="3.55937">
        <ele>1147.95</ele>
        <time>2016-04-03T15:04:26Z</time>
      </trkpt>
      <trkpt lat="44.04232" lon="3.55952">
        <ele>1147.95</ele>
        <time>2016-04-03T15:04:27Z</time>
      </trkpt>
      <trkpt lat="44.04224" lon="3.55967">
        <ele>1146.99</ele>
        <time>2016-04-03T15:04:28Z</time>
      </trkpt>
      <trkpt lat="44.04215" lon="3.55981">
        <ele>1146.51</ele>
        <time>2016-04-03T15:04:29Z</time>
      </trkpt>
      <trkpt lat="44.04203" lon="3.55992">
        <ele>1146.03</ele>
        <time>2016-04-03T15:04:30Z</time>
      </trkpt>
      <trkpt lat="44.0419" lon="3.56001">
        <ele>1146.03</ele>
        <time>2016-04-03T15:04:31Z</time>
      </trkpt>
      <trkpt lat="44.04176" lon="3.56007">
        <ele>1146.03</ele>
        <time>2016-04-03T15:04:32Z</time>
      </trkpt>
      <trkpt lat="44.04163" lon="3.56012">
        <ele>1145.55</ele>
        <time>2016-04-03T15:04:33Z</time>
      </trkpt>
      <trkpt lat="44.0415" lon="3.56014">
        <ele>1145.07</ele>
        <time>2016-04-03T15:04:34Z</time>
      </trkpt>
      <trkpt lat="44.04137" lon="3.56015">
        <ele>1143.14</ele>
        <time>2016-04-03T15:04:35Z</time>
      </trkpt>
      <trkpt lat="44.04125" lon="3.56014">
        <ele>1142.18</ele>
        <time>2016-04-03T15:04:36Z</time>
      </trkpt>
      <trkpt lat="44.04113" lon="3.56014">
        <ele>1141.22</ele>
        <time>2016-04-03T15:04:37Z</time>
      </trkpt>
      <trkpt lat="44.04102" lon="3.56017">
        <ele>1140.74</ele>
        <time>2016-04-03T15:04:38Z</time>
      </trkpt>
      <trkpt lat="44.04092" lon="3.56022">
        <ele>1140.26</ele>
        <time>2016-04-03T15:04:39Z</time>
      </trkpt>
      <trkpt lat="44.04084" lon="3.5603">
        <ele>1139.3</ele>
        <time>2016-04-03T15:04:40Z</time>
      </trkpt>
      <trkpt lat="44.04079" lon="3.56041">
        <ele>1138.34</ele>
        <time>2016-04-03T15:04:41Z</time>
      </trkpt>
      <trkpt lat="44.04076" lon="3.56054">
        <ele>1137.38</ele>
        <time>2016-04-03T15:04:42Z</time>
      </trkpt>
      <trkpt lat="44.04076" lon="3.5607">
        <ele>1136.9</ele>
        <time>2016-04-03T15:04:43Z</time>
      </trkpt>
      <trkpt lat="44.04078" lon="3.56088">
        <ele>1136.42</ele>
        <time>2016-04-03T15:04:44Z</time>
      </trkpt>
      <trkpt lat="44.04078" lon="3.56107">
        <ele>1135.94</ele>
        <time>2016-04-03T15:04:45Z</time>
      </trkpt>
      <trkpt lat="44.0407" lon="3.56211">
        <ele>1133.53</ele>
        <time>2016-04-03T15:04:51Z</time>
      </trkpt>
      <trkpt lat="44.04067" lon="3.56226">
        <ele>1132.57</ele>
        <time>2016-04-03T15:04:52Z</time>
      </trkpt>
      <trkpt lat="44.04064" lon="3.5624">
        <ele>1132.09</ele>
        <time>2016-04-03T15:04:53Z</time>
      </trkpt>
      <trkpt lat="44.04063" lon="3.56255">
        <ele>1131.61</ele>
        <time>2016-04-03T15:04:54Z</time>
      </trkpt>
      <trkpt lat="44.04064" lon="3.56271">
        <ele>1131.13</ele>
        <time>2016-04-03T15:04:55Z</time>
      </trkpt>
      <trkpt lat="44.04067" lon="3.56287">
        <ele>1130.65</ele>
        <time>2016-04-03T15:04:56Z</time>
      </trkpt>
      <trkpt lat="44.04071" lon="3.56303">
        <ele>1129.69</ele>
        <time>2016-04-03T15:04:57Z</time>
      </trkpt>
      <trkpt lat="44.04076" lon="3.56319">
        <ele>1127.76</ele>
        <time>2016-04-03T15:04:58Z</time>
      </trkpt>
      <trkpt lat="44.04105" lon="3.56408">
        <ele>1126.32</ele>
        <time>2016-04-03T15:05:04Z</time>
      </trkpt>
      <trkpt lat="44.04108" lon="3.56422">
        <ele>1126.32</ele>
        <time>2016-04-03T15:05:05Z</time>
      </trkpt>
      <trkpt lat="44.04104" lon="3.56452">
        <ele>1126.8</ele>
        <time>2016-04-03T15:05:07Z</time>
      </trkpt>
      <trkpt lat="44.04099" lon="3.5646">
        <ele>1126.32</ele>
        <time>2016-04-03T15:05:08Z</time>
      </trkpt>
      <trkpt lat="44.04092" lon="3.56468">
        <ele>1125.36</ele>
        <time>2016-04-03T15:05:09Z</time>
      </trkpt>
      <trkpt lat="44.04079" lon="3.56476">
        <ele>1124.4</ele>
        <time>2016-04-03T15:05:10Z</time>
      </trkpt>
      <trkpt lat="44.04071" lon="3.56483">
        <ele>1121.52</ele>
        <time>2016-04-03T15:05:11Z</time>
      </trkpt>
      <trkpt lat="44.04062" lon="3.56489">
        <ele>1118.15</ele>
        <time>2016-04-03T15:05:12Z</time>
      </trkpt>
      <trkpt lat="44.04052" lon="3.56496">
        <ele>1114.79</ele>
        <time>2016-04-03T15:05:13Z</time>
      </trkpt>
      <trkpt lat="44.0404" lon="3.56503">
        <ele>1111.42</ele>
        <time>2016-04-03T15:05:14Z</time>
      </trkpt>
      <trkpt lat="44.04026" lon="3.56512">
        <ele>1111.9</ele>
        <time>2016-04-03T15:05:15Z</time>
      </trkpt>
      <trkpt lat="44.04014" lon="3.56523">
        <ele>1112.86</ele>
        <time>2016-04-03T15:05:16Z</time>
      </trkpt>
      <trkpt lat="44.04005" lon="3.56536">
        <ele>1112.38</ele>
        <time>2016-04-03T15:05:17Z</time>
      </trkpt>
      <trkpt lat="44.03998" lon="3.5655">
        <ele>1110.94</ele>
        <time>2016-04-03T15:05:18Z</time>
      </trkpt>
      <trkpt lat="44.0399" lon="3.56566">
        <ele>1110.94</ele>
        <time>2016-04-03T15:05:19Z</time>
      </trkpt>
      <trkpt lat="44.03983" lon="3.56582">
        <ele>1110.46</ele>
        <time>2016-04-03T15:05:20Z</time>
      </trkpt>
      <trkpt lat="44.0393" lon="3.56734">
        <ele>1108.54</ele>
        <time>2016-04-03T15:05:28Z</time>
      </trkpt>
      <trkpt lat="44.03877" lon="3.5683">
        <ele>1102.77</ele>
        <time>2016-04-03T15:05:35Z</time>
      </trkpt>
      <trkpt lat="44.03866" lon="3.56831">
        <ele>1101.33</ele>
        <time>2016-04-03T15:05:36Z</time>
      </trkpt>
      <trkpt lat="44.03853" lon="3.56826">
        <ele>1102.29</ele>
        <time>2016-04-03T15:05:37Z</time>
      </trkpt>
      <trkpt lat="44.03842" lon="3.56821">
        <ele>1101.81</ele>
        <time>2016-04-03T15:05:38Z</time>
      </trkpt>
      <trkpt lat="44.0383" lon="3.56815">
        <ele>1101.33</ele>
        <time>2016-04-03T15:05:39Z</time>
      </trkpt>
      <trkpt lat="44.03818" lon="3.56811">
        <ele>1100.85</ele>
        <time>2016-04-03T15:05:40Z</time>
      </trkpt>
      <trkpt lat="44.03806" lon="3.5681">
        <ele>1100.85</ele>
        <time>2016-04-03T15:05:41Z</time>
      </trkpt>
      <trkpt lat="44.03793" lon="3.5681">
        <ele>1099.89</ele>
        <time>2016-04-03T15:05:42Z</time>
      </trkpt>
      <trkpt lat="44.03735" lon="3.56818">
        <ele>1097.48</ele>
        <time>2016-04-03T15:05:47Z</time>
      </trkpt>
      <trkpt lat="44.03725" lon="3.56824">
        <ele>1097</ele>
        <time>2016-04-03T15:05:48Z</time>
      </trkpt>
      <trkpt lat="44.03714" lon="3.56829">
        <ele>1096.04</ele>
        <time>2016-04-03T15:05:49Z</time>
      </trkpt>
      <trkpt lat="44.03704" lon="3.56832">
        <ele>1096.04</ele>
        <time>2016-04-03T15:05:50Z</time>
      </trkpt>
      <trkpt lat="44.03693" lon="3.56837">
        <ele>1095.08</ele>
        <time>2016-04-03T15:05:51Z</time>
      </trkpt>
      <trkpt lat="44.03684" lon="3.56832">
        <ele>1094.6</ele>
        <time>2016-04-03T15:05:52Z</time>
      </trkpt>
      <trkpt lat="44.03674" lon="3.56829">
        <ele>1094.12</ele>
        <time>2016-04-03T15:05:53Z</time>
      </trkpt>
      <trkpt lat="44.03655" lon="3.56821">
        <ele>1094.12</ele>
        <time>2016-04-03T15:05:55Z</time>
      </trkpt>
      <trkpt lat="44.03646" lon="3.56822">
        <ele>1094.12</ele>
        <time>2016-04-03T15:05:56Z</time>
      </trkpt>
      <trkpt lat="44.03637" lon="3.56825">
        <ele>1094.6</ele>
        <time>2016-04-03T15:05:57Z</time>
      </trkpt>
      <trkpt lat="44.03628" lon="3.5683">
        <ele>1094.6</ele>
        <time>2016-04-03T15:05:58Z</time>
      </trkpt>
      <trkpt lat="44.03621" lon="3.56844">
        <ele>1094.12</ele>
        <time>2016-04-03T15:05:59Z</time>
      </trkpt>
      <trkpt lat="44.0361" lon="3.56856">
        <ele>1094.6</ele>
        <time>2016-04-03T15:06:00Z</time>
      </trkpt>
      <trkpt lat="44.03601" lon="3.56869">
        <ele>1094.6</ele>
        <time>2016-04-03T15:06:01Z</time>
      </trkpt>
      <trkpt lat="44.03591" lon="3.56881">
        <ele>1093.64</ele>
        <time>2016-04-03T15:06:02Z</time>
      </trkpt>
      <trkpt lat="44.03548" lon="3.5701">
        <ele>1085.95</ele>
        <time>2016-04-03T15:06:10Z</time>
      </trkpt>
      <trkpt lat="44.0353" lon="3.57105">
        <ele>1079.7</ele>
        <time>2016-04-03T15:06:16Z</time>
      </trkpt>
      <trkpt lat="44.03532" lon="3.57122">
        <ele>1079.22</ele>
        <time>2016-04-03T15:06:17Z</time>
      </trkpt>
      <trkpt lat="44.03536" lon="3.57137">
        <ele>1078.26</ele>
        <time>2016-04-03T15:06:18Z</time>
      </trkpt>
      <trkpt lat="44.03539" lon="3.57153">
        <ele>1077.29</ele>
        <time>2016-04-03T15:06:19Z</time>
      </trkpt>
      <trkpt lat="44.03541" lon="3.5717">
        <ele>1076.33</ele>
        <time>2016-04-03T15:06:20Z</time>
      </trkpt>
      <trkpt lat="44.03541" lon="3.57188">
        <ele>1075.85</ele>
        <time>2016-04-03T15:06:21Z</time>
      </trkpt>
      <trkpt lat="44.0354" lon="3.57205">
        <ele>1075.85</ele>
        <time>2016-04-03T15:06:22Z</time>
      </trkpt>
      <trkpt lat="44.03536" lon="3.57235">
        <ele>1074.41</ele>
        <time>2016-04-03T15:06:24Z</time>
      </trkpt>
      <trkpt lat="44.03532" lon="3.57247">
        <ele>1073.93</ele>
        <time>2016-04-03T15:06:25Z</time>
      </trkpt>
      <trkpt lat="44.03528" lon="3.57257">
        <ele>1073.45</ele>
        <time>2016-04-03T15:06:26Z</time>
      </trkpt>
      <trkpt lat="44.03521" lon="3.57265">
        <ele>1072.97</ele>
        <time>2016-04-03T15:06:27Z</time>
      </trkpt>
      <trkpt lat="44.03514" lon="3.57271">
        <ele>1071.53</ele>
        <time>2016-04-03T15:06:28Z</time>
      </trkpt>
      <trkpt lat="44.03503" lon="3.57273">
        <ele>1071.53</ele>
        <time>2016-04-03T15:06:29Z</time>
      </trkpt>
      <trkpt lat="44.03491" lon="3.57272">
        <ele>1071.05</ele>
        <time>2016-04-03T15:06:30Z</time>
      </trkpt>
      <trkpt lat="44.03479" lon="3.57271">
        <ele>1069.6</ele>
        <time>2016-04-03T15:06:31Z</time>
      </trkpt>
      <trkpt lat="44.03468" lon="3.57268">
        <ele>1069.12</ele>
        <time>2016-04-03T15:06:32Z</time>
      </trkpt>
      <trkpt lat="44.03458" lon="3.57264">
        <ele>1068.64</ele>
        <time>2016-04-03T15:06:33Z</time>
      </trkpt>
      <trkpt lat="44.03448" lon="3.57258">
        <ele>1068.16</ele>
        <time>2016-04-03T15:06:34Z</time>
      </trkpt>
      <trkpt lat="44.03439" lon="3.57249">
        <ele>1067.68</ele>
        <time>2016-04-03T15:06:35Z</time>
      </trkpt>
      <trkpt lat="44.03429" lon="3.57241">
        <ele>1067.2</ele>
        <time>2016-04-03T15:06:36Z</time>
      </trkpt>
      <trkpt lat="44.0334" lon="3.57183">
        <ele>1062.39</ele>
        <time>2016-04-03T15:06:44Z</time>
      </trkpt>
      <trkpt lat="44.0333" lon="3.57176">
        <ele>1061.91</ele>
        <time>2016-04-03T15:06:45Z</time>
      </trkpt>
      <trkpt lat="44.0332" lon="3.57172">
        <ele>1061.43</ele>
        <time>2016-04-03T15:06:46Z</time>
      </trkpt>
      <trkpt lat="44.03281" lon="3.57155">
        <ele>1058.55</ele>
        <time>2016-04-03T15:06:50Z</time>
      </trkpt>
      <trkpt lat="44.03272" lon="3.57148">
        <ele>1057.59</ele>
        <time>2016-04-03T15:06:51Z</time>
      </trkpt>
      <trkpt lat="44.03263" lon="3.57142">
        <ele>1057.11</ele>
        <time>2016-04-03T15:06:52Z</time>
      </trkpt>
      <trkpt lat="44.03253" lon="3.57139">
        <ele>1057.59</ele>
        <time>2016-04-03T15:06:53Z</time>
      </trkpt>
      <trkpt lat="44.03242" lon="3.57137">
        <ele>1057.59</ele>
        <time>2016-04-03T15:06:54Z</time>
      </trkpt>
      <trkpt lat="44.03231" lon="3.57137">
        <ele>1057.11</ele>
        <time>2016-04-03T15:06:55Z</time>
      </trkpt>
      <trkpt lat="44.03219" lon="3.57141">
        <ele>1057.59</ele>
        <time>2016-04-03T15:06:56Z</time>
      </trkpt>
      <trkpt lat="44.03207" lon="3.57149">
        <ele>1058.55</ele>
        <time>2016-04-03T15:06:57Z</time>
      </trkpt>
      <trkpt lat="44.03195" lon="3.57157">
        <ele>1058.07</ele>
        <time>2016-04-03T15:06:58Z</time>
      </trkpt>
      <trkpt lat="44.03185" lon="3.57166">
        <ele>1058.07</ele>
        <time>2016-04-03T15:06:59Z</time>
      </trkpt>
      <trkpt lat="44.03176" lon="3.57176">
        <ele>1057.59</ele>
        <time>2016-04-03T15:07:00Z</time>
      </trkpt>
      <trkpt lat="44.03167" lon="3.57187">
        <ele>1056.63</ele>
        <time>2016-04-03T15:07:01Z</time>
      </trkpt>
      <trkpt lat="44.03158" lon="3.572">
        <ele>1055.67</ele>
        <time>2016-04-03T15:07:02Z</time>
      </trkpt>
      <trkpt lat="44.03151" lon="3.57215">
        <ele>1055.18</ele>
        <time>2016-04-03T15:07:03Z</time>
      </trkpt>
      <trkpt lat="44.0314" lon="3.57249">
        <ele>1054.22</ele>
        <time>2016-04-03T15:07:05Z</time>
      </trkpt>
      <trkpt lat="44.03137" lon="3.57267">
        <ele>1053.26</ele>
        <time>2016-04-03T15:07:06Z</time>
      </trkpt>
      <trkpt lat="44.03133" lon="3.57282">
        <ele>1051.82</ele>
        <time>2016-04-03T15:07:07Z</time>
      </trkpt>
      <trkpt lat="44.03105" lon="3.57366">
        <ele>1046.05</ele>
        <time>2016-04-03T15:07:13Z</time>
      </trkpt>
      <trkpt lat="44.03098" lon="3.57377">
        <ele>1045.09</ele>
        <time>2016-04-03T15:07:14Z</time>
      </trkpt>
      <trkpt lat="44.03088" lon="3.57385">
        <ele>1044.13</ele>
        <time>2016-04-03T15:07:15Z</time>
      </trkpt>
      <trkpt lat="44.03075" lon="3.57389">
        <ele>1043.17</ele>
        <time>2016-04-03T15:07:16Z</time>
      </trkpt>
      <trkpt lat="44.03061" lon="3.5739">
        <ele>1042.21</ele>
        <time>2016-04-03T15:07:17Z</time>
      </trkpt>
      <trkpt lat="44.03047" lon="3.57389">
        <ele>1041.73</ele>
        <time>2016-04-03T15:07:18Z</time>
      </trkpt>
      <trkpt lat="44.03031" lon="3.57385">
        <ele>1040.76</ele>
        <time>2016-04-03T15:07:19Z</time>
      </trkpt>
      <trkpt lat="44.03017" lon="3.57382">
        <ele>1039.32</ele>
        <time>2016-04-03T15:07:20Z</time>
      </trkpt>
      <trkpt lat="44.02991" lon="3.57381">
        <ele>1037.4</ele>
        <time>2016-04-03T15:07:22Z</time>
      </trkpt>
      <trkpt lat="44.02979" lon="3.57384">
        <ele>1036.44</ele>
        <time>2016-04-03T15:07:23Z</time>
      </trkpt>
      <trkpt lat="44.02967" lon="3.5739">
        <ele>1035.48</ele>
        <time>2016-04-03T15:07:24Z</time>
      </trkpt>
      <trkpt lat="44.02866" lon="3.57461">
        <ele>1029.23</ele>
        <time>2016-04-03T15:07:33Z</time>
      </trkpt>
      <trkpt lat="44.02852" lon="3.57466">
        <ele>1028.27</ele>
        <time>2016-04-03T15:07:34Z</time>
      </trkpt>
      <trkpt lat="44.0276" lon="3.57478">
        <ele>1022.5</ele>
        <time>2016-04-03T15:07:41Z</time>
      </trkpt>
      <trkpt lat="44.02726" lon="3.57469">
        <ele>1020.58</ele>
        <time>2016-04-03T15:07:44Z</time>
      </trkpt>
      <trkpt lat="44.02716" lon="3.57468">
        <ele>1020.1</ele>
        <time>2016-04-03T15:07:45Z</time>
      </trkpt>
      <trkpt lat="44.02706" lon="3.5747">
        <ele>1019.62</ele>
        <time>2016-04-03T15:07:46Z</time>
      </trkpt>
      <trkpt lat="44.02696" lon="3.57473">
        <ele>1019.13</ele>
        <time>2016-04-03T15:07:47Z</time>
      </trkpt>
      <trkpt lat="44.02686" lon="3.57475">
        <ele>1018.17</ele>
        <time>2016-04-03T15:07:48Z</time>
      </trkpt>
      <trkpt lat="44.02676" lon="3.57476">
        <ele>1017.69</ele>
        <time>2016-04-03T15:07:49Z</time>
      </trkpt>
      <trkpt lat="44.02667" lon="3.57474">
        <ele>1016.25</ele>
        <time>2016-04-03T15:07:50Z</time>
      </trkpt>
      <trkpt lat="44.02658" lon="3.57465">
        <ele>1015.77</ele>
        <time>2016-04-03T15:07:51Z</time>
      </trkpt>
      <trkpt lat="44.02649" lon="3.57456">
        <ele>1015.29</ele>
        <time>2016-04-03T15:07:52Z</time>
      </trkpt>
      <trkpt lat="44.02642" lon="3.57445">
        <ele>1014.81</ele>
        <time>2016-04-03T15:07:53Z</time>
      </trkpt>
      <trkpt lat="44.02634" lon="3.5743">
        <ele>1014.33</ele>
        <time>2016-04-03T15:07:54Z</time>
      </trkpt>
      <trkpt lat="44.02626" lon="3.57414">
        <ele>1013.85</ele>
        <time>2016-04-03T15:07:55Z</time>
      </trkpt>
      <trkpt lat="44.02619" lon="3.57398">
        <ele>1012.41</ele>
        <time>2016-04-03T15:07:56Z</time>
      </trkpt>
      <trkpt lat="44.02571" lon="3.57298">
        <ele>1004.72</ele>
        <time>2016-04-03T15:08:03Z</time>
      </trkpt>
      <trkpt lat="44.0256" lon="3.57291">
        <ele>1005.2</ele>
        <time>2016-04-03T15:08:04Z</time>
      </trkpt>
      <trkpt lat="44.02548" lon="3.57287">
        <ele>1004.23</ele>
        <time>2016-04-03T15:08:05Z</time>
      </trkpt>
      <trkpt lat="44.02536" lon="3.57285">
        <ele>1004.72</ele>
        <time>2016-04-03T15:08:06Z</time>
      </trkpt>
      <trkpt lat="44.02524" lon="3.57281">
        <ele>1004.23</ele>
        <time>2016-04-03T15:08:07Z</time>
      </trkpt>
      <trkpt lat="44.02512" lon="3.57281">
        <ele>1003.75</ele>
        <time>2016-04-03T15:08:08Z</time>
      </trkpt>
      <trkpt lat="44.02501" lon="3.57277">
        <ele>1002.79</ele>
        <time>2016-04-03T15:08:09Z</time>
      </trkpt>
      <trkpt lat="44.0249" lon="3.57271">
        <ele>1002.31</ele>
        <time>2016-04-03T15:08:10Z</time>
      </trkpt>
      <trkpt lat="44.02481" lon="3.57262">
        <ele>1001.83</ele>
        <time>2016-04-03T15:08:11Z</time>
      </trkpt>
      <trkpt lat="44.02474" lon="3.57253">
        <ele>1000.87</ele>
        <time>2016-04-03T15:08:12Z</time>
      </trkpt>
      <trkpt lat="44.02469" lon="3.5724">
        <ele>999.43</ele>
        <time>2016-04-03T15:08:13Z</time>
      </trkpt>
      <trkpt lat="44.02466" lon="3.57225">
        <ele>997.02</ele>
        <time>2016-04-03T15:08:14Z</time>
      </trkpt>
      <trkpt lat="44.02462" lon="3.5721">
        <ele>995.1</ele>
        <time>2016-04-03T15:08:15Z</time>
      </trkpt>
      <trkpt lat="44.02458" lon="3.57192">
        <ele>994.14</ele>
        <time>2016-04-03T15:08:16Z</time>
      </trkpt>
      <trkpt lat="44.02452" lon="3.57176">
        <ele>994.62</ele>
        <time>2016-04-03T15:08:17Z</time>
      </trkpt>
      <trkpt lat="44.02447" lon="3.57109">
        <ele>993.66</ele>
        <time>2016-04-03T15:08:21Z</time>
      </trkpt>
      <trkpt lat="44.0245" lon="3.57096">
        <ele>992.22</ele>
        <time>2016-04-03T15:08:22Z</time>
      </trkpt>
      <trkpt lat="44.02457" lon="3.57083">
        <ele>991.74</ele>
        <time>2016-04-03T15:08:23Z</time>
      </trkpt>
      <trkpt lat="44.02466" lon="3.57074">
        <ele>991.26</ele>
        <time>2016-04-03T15:08:24Z</time>
      </trkpt>
      <trkpt lat="44.02478" lon="3.57067">
        <ele>991.26</ele>
        <time>2016-04-03T15:08:25Z</time>
      </trkpt>
      <trkpt lat="44.02489" lon="3.57061">
        <ele>989.81</ele>
        <time>2016-04-03T15:08:26Z</time>
      </trkpt>
      <trkpt lat="44.02499" lon="3.57055">
        <ele>989.81</ele>
        <time>2016-04-03T15:08:27Z</time>
      </trkpt>
      <trkpt lat="44.02523" lon="3.57033">
        <ele>988.37</ele>
        <time>2016-04-03T15:08:30Z</time>
      </trkpt>
      <trkpt lat="44.02529" lon="3.57024">
        <ele>987.89</ele>
        <time>2016-04-03T15:08:31Z</time>
      </trkpt>
      <trkpt lat="44.02531" lon="3.57012">
        <ele>987.41</ele>
        <time>2016-04-03T15:08:32Z</time>
      </trkpt>
      <trkpt lat="44.02529" lon="3.57">
        <ele>987.41</ele>
        <time>2016-04-03T15:08:33Z</time>
      </trkpt>
      <trkpt lat="44.02523" lon="3.56988">
        <ele>987.41</ele>
        <time>2016-04-03T15:08:34Z</time>
      </trkpt>
      <trkpt lat="44.02516" lon="3.56982">
        <ele>987.41</ele>
        <time>2016-04-03T15:08:35Z</time>
      </trkpt>
      <trkpt lat="44.02506" lon="3.56976">
        <ele>986.93</ele>
        <time>2016-04-03T15:08:36Z</time>
      </trkpt>
      <trkpt lat="44.02497" lon="3.56967">
        <ele>986.45</ele>
        <time>2016-04-03T15:08:37Z</time>
      </trkpt>
      <trkpt lat="44.02484" lon="3.56957">
        <ele>986.45</ele>
        <time>2016-04-03T15:08:38Z</time>
      </trkpt>
      <trkpt lat="44.02473" lon="3.56948">
        <ele>985.97</ele>
        <time>2016-04-03T15:08:39Z</time>
      </trkpt>
      <trkpt lat="44.02438" lon="3.56928">
        <ele>984.05</ele>
        <time>2016-04-03T15:08:42Z</time>
      </trkpt>
      <trkpt lat="44.02424" lon="3.56924">
        <ele>983.57</ele>
        <time>2016-04-03T15:08:43Z</time>
      </trkpt>
      <trkpt lat="44.0241" lon="3.56921">
        <ele>984.05</ele>
        <time>2016-04-03T15:08:44Z</time>
      </trkpt>
      <trkpt lat="44.02335" lon="3.56911">
        <ele>978.76</ele>
        <time>2016-04-03T15:08:50Z</time>
      </trkpt>
      <trkpt lat="44.02324" lon="3.56907">
        <ele>977.8</ele>
        <time>2016-04-03T15:08:51Z</time>
      </trkpt>
      <trkpt lat="44.02315" lon="3.56902">
        <ele>977.32</ele>
        <time>2016-04-03T15:08:52Z</time>
      </trkpt>
      <trkpt lat="44.02306" lon="3.56893">
        <ele>975.88</ele>
        <time>2016-04-03T15:08:53Z</time>
      </trkpt>
      <trkpt lat="44.02299" lon="3.56883">
        <ele>975.39</ele>
        <time>2016-04-03T15:08:54Z</time>
      </trkpt>
      <trkpt lat="44.02294" lon="3.56869">
        <ele>974.91</ele>
        <time>2016-04-03T15:08:55Z</time>
      </trkpt>
      <trkpt lat="44.02293" lon="3.56851">
        <ele>974.43</ele>
        <time>2016-04-03T15:08:56Z</time>
      </trkpt>
      <trkpt lat="44.02293" lon="3.56834">
        <ele>973.95</ele>
        <time>2016-04-03T15:08:57Z</time>
      </trkpt>
      <trkpt lat="44.02294" lon="3.56818">
        <ele>973.47</ele>
        <time>2016-04-03T15:08:58Z</time>
      </trkpt>
      <trkpt lat="44.02294" lon="3.56802">
        <ele>972.99</ele>
        <time>2016-04-03T15:08:59Z</time>
      </trkpt>
      <trkpt lat="44.02284" lon="3.56675">
        <ele>966.74</ele>
        <time>2016-04-03T15:09:07Z</time>
      </trkpt>
      <trkpt lat="44.02278" lon="3.56662">
        <ele>965.3</ele>
        <time>2016-04-03T15:09:08Z</time>
      </trkpt>
      <trkpt lat="44.02268" lon="3.56651">
        <ele>964.34</ele>
        <time>2016-04-03T15:09:09Z</time>
      </trkpt>
      <trkpt lat="44.02258" lon="3.56644">
        <ele>963.86</ele>
        <time>2016-04-03T15:09:10Z</time>
      </trkpt>
      <trkpt lat="44.02247" lon="3.56638">
        <ele>963.38</ele>
        <time>2016-04-03T15:09:11Z</time>
      </trkpt>
      <trkpt lat="44.02236" lon="3.56633">
        <ele>962.9</ele>
        <time>2016-04-03T15:09:12Z</time>
      </trkpt>
      <trkpt lat="44.02226" lon="3.56627">
        <ele>962.42</ele>
        <time>2016-04-03T15:09:13Z</time>
      </trkpt>
      <trkpt lat="44.02217" lon="3.56618">
        <ele>961.94</ele>
        <time>2016-04-03T15:09:14Z</time>
      </trkpt>
      <trkpt lat="44.0221" lon="3.56607">
        <ele>961.46</ele>
        <time>2016-04-03T15:09:15Z</time>
      </trkpt>
      <trkpt lat="44.02203" lon="3.56594">
        <ele>961.46</ele>
        <time>2016-04-03T15:09:16Z</time>
      </trkpt>
      <trkpt lat="44.02197" lon="3.5658">
        <ele>960.49</ele>
        <time>2016-04-03T15:09:17Z</time>
      </trkpt>
      <trkpt lat="44.02185" lon="3.56556">
        <ele>959.05</ele>
        <time>2016-04-03T15:09:19Z</time>
      </trkpt>
      <trkpt lat="44.02176" lon="3.56546">
        <ele>958.09</ele>
        <time>2016-04-03T15:09:20Z</time>
      </trkpt>
      <trkpt lat="44.02165" lon="3.56537">
        <ele>957.61</ele>
        <time>2016-04-03T15:09:21Z</time>
      </trkpt>
      <trkpt lat="44.02153" lon="3.5653">
        <ele>956.65</ele>
        <time>2016-04-03T15:09:22Z</time>
      </trkpt>
      <trkpt lat="44.0214" lon="3.56527">
        <ele>955.69</ele>
        <time>2016-04-03T15:09:23Z</time>
      </trkpt>
      <trkpt lat="44.02126" lon="3.56524">
        <ele>955.21</ele>
        <time>2016-04-03T15:09:24Z</time>
      </trkpt>
      <trkpt lat="44.02113" lon="3.56524">
        <ele>954.25</ele>
        <time>2016-04-03T15:09:25Z</time>
      </trkpt>
      <trkpt lat="44.02101" lon="3.56526">
        <ele>953.28</ele>
        <time>2016-04-03T15:09:26Z</time>
      </trkpt>
      <trkpt lat="44.02089" lon="3.56529">
        <ele>952.8</ele>
        <time>2016-04-03T15:09:27Z</time>
      </trkpt>
      <trkpt lat="44.02079" lon="3.56534">
        <ele>951.84</ele>
        <time>2016-04-03T15:09:28Z</time>
      </trkpt>
      <trkpt lat="44.0207" lon="3.56542">
        <ele>950.88</ele>
        <time>2016-04-03T15:09:29Z</time>
      </trkpt>
      <trkpt lat="44.02063" lon="3.56552">
        <ele>950.4</ele>
        <time>2016-04-03T15:09:30Z</time>
      </trkpt>
      <trkpt lat="44.02058" lon="3.56565">
        <ele>949.44</ele>
        <time>2016-04-03T15:09:31Z</time>
      </trkpt>
      <trkpt lat="44.02054" lon="3.56579">
        <ele>948.96</ele>
        <time>2016-04-03T15:09:32Z</time>
      </trkpt>
      <trkpt lat="44.02052" lon="3.56593">
        <ele>948.48</ele>
        <time>2016-04-03T15:09:33Z</time>
      </trkpt>
      <trkpt lat="44.0205" lon="3.56608">
        <ele>948</ele>
        <time>2016-04-03T15:09:34Z</time>
      </trkpt>
      <trkpt lat="44.02048" lon="3.56648">
        <ele>946.56</ele>
        <time>2016-04-03T15:09:37Z</time>
      </trkpt>
      <trkpt lat="44.0205" lon="3.56662">
        <ele>946.07</ele>
        <time>2016-04-03T15:09:38Z</time>
      </trkpt>
      <trkpt lat="44.02055" lon="3.56676">
        <ele>945.59</ele>
        <time>2016-04-03T15:09:39Z</time>
      </trkpt>
      <trkpt lat="44.02063" lon="3.56689">
        <ele>945.11</ele>
        <time>2016-04-03T15:09:40Z</time>
      </trkpt>
      <trkpt lat="44.02072" lon="3.567">
        <ele>944.15</ele>
        <time>2016-04-03T15:09:41Z</time>
      </trkpt>
      <trkpt lat="44.02082" lon="3.56709">
        <ele>943.19</ele>
        <time>2016-04-03T15:09:42Z</time>
      </trkpt>
      <trkpt lat="44.02092" lon="3.56715">
        <ele>942.23</ele>
        <time>2016-04-03T15:09:43Z</time>
      </trkpt>
      <trkpt lat="44.02104" lon="3.5672">
        <ele>941.27</ele>
        <time>2016-04-03T15:09:44Z</time>
      </trkpt>
      <trkpt lat="44.02116" lon="3.56723">
        <ele>940.31</ele>
        <time>2016-04-03T15:09:45Z</time>
      </trkpt>
      <trkpt lat="44.02127" lon="3.56724">
        <ele>939.35</ele>
        <time>2016-04-03T15:09:46Z</time>
      </trkpt>
      <trkpt lat="44.02138" lon="3.56724">
        <ele>938.86</ele>
        <time>2016-04-03T15:09:47Z</time>
      </trkpt>
      <trkpt lat="44.02149" lon="3.56723">
        <ele>938.38</ele>
        <time>2016-04-03T15:09:48Z</time>
      </trkpt>
      <trkpt lat="44.02158" lon="3.56723">
        <ele>937.42</ele>
        <time>2016-04-03T15:09:49Z</time>
      </trkpt>
      <trkpt lat="44.02168" lon="3.56726">
        <ele>936.94</ele>
        <time>2016-04-03T15:09:50Z</time>
      </trkpt>
      <trkpt lat="44.02178" lon="3.56732">
        <ele>936.46</ele>
        <time>2016-04-03T15:09:51Z</time>
      </trkpt>
      <trkpt lat="44.02185" lon="3.56743">
        <ele>935.98</ele>
        <time>2016-04-03T15:09:52Z</time>
      </trkpt>
      <trkpt lat="44.02189" lon="3.56756">
        <ele>935.5</ele>
        <time>2016-04-03T15:09:53Z</time>
      </trkpt>
      <trkpt lat="44.0219" lon="3.56772">
        <ele>935.02</ele>
        <time>2016-04-03T15:09:54Z</time>
      </trkpt>
      <trkpt lat="44.02189" lon="3.5679">
        <ele>935.02</ele>
        <time>2016-04-03T15:09:55Z</time>
      </trkpt>
      <trkpt lat="44.02186" lon="3.56807">
        <ele>934.54</ele>
        <time>2016-04-03T15:09:56Z</time>
      </trkpt>
      <trkpt lat="44.02181" lon="3.56822">
        <ele>934.06</ele>
        <time>2016-04-03T15:09:57Z</time>
      </trkpt>
      <trkpt lat="44.02177" lon="3.56836">
        <ele>933.58</ele>
        <time>2016-04-03T15:09:58Z</time>
      </trkpt>
      <trkpt lat="44.02176" lon="3.5685">
        <ele>933.1</ele>
        <time>2016-04-03T15:09:59Z</time>
      </trkpt>
      <trkpt lat="44.02176" lon="3.56864">
        <ele>932.62</ele>
        <time>2016-04-03T15:10:00Z</time>
      </trkpt>
      <trkpt lat="44.02178" lon="3.56879">
        <ele>931.65</ele>
        <time>2016-04-03T15:10:01Z</time>
      </trkpt>
      <trkpt lat="44.0218" lon="3.56897">
        <ele>931.17</ele>
        <time>2016-04-03T15:10:02Z</time>
      </trkpt>
      <trkpt lat="44.02181" lon="3.56915">
        <ele>930.21</ele>
        <time>2016-04-03T15:10:03Z</time>
      </trkpt>
      <trkpt lat="44.02188" lon="3.57071">
        <ele>924.45</ele>
        <time>2016-04-03T15:10:11Z</time>
      </trkpt>
      <trkpt lat="44.02187" lon="3.57093">
        <ele>923.96</ele>
        <time>2016-04-03T15:10:12Z</time>
      </trkpt>
      <trkpt lat="44.02174" lon="3.57235">
        <ele>919.16</ele>
        <time>2016-04-03T15:10:19Z</time>
      </trkpt>
      <trkpt lat="44.0217" lon="3.57254">
        <ele>918.2</ele>
        <time>2016-04-03T15:10:20Z</time>
      </trkpt>
      <trkpt lat="44.02163" lon="3.57271">
        <ele>917.24</ele>
        <time>2016-04-03T15:10:21Z</time>
      </trkpt>
      <trkpt lat="44.02153" lon="3.57287">
        <ele>916.27</ele>
        <time>2016-04-03T15:10:22Z</time>
      </trkpt>
      <trkpt lat="44.02144" lon="3.57302">
        <ele>915.79</ele>
        <time>2016-04-03T15:10:23Z</time>
      </trkpt>
      <trkpt lat="44.02136" lon="3.57317">
        <ele>914.83</ele>
        <time>2016-04-03T15:10:24Z</time>
      </trkpt>
      <trkpt lat="44.02116" lon="3.57359">
        <ele>912.91</ele>
        <time>2016-04-03T15:10:27Z</time>
      </trkpt>
      <trkpt lat="44.02112" lon="3.57372">
        <ele>912.43</ele>
        <time>2016-04-03T15:10:28Z</time>
      </trkpt>
      <trkpt lat="44.02111" lon="3.57386">
        <ele>911.95</ele>
        <time>2016-04-03T15:10:29Z</time>
      </trkpt>
      <trkpt lat="44.02112" lon="3.574">
        <ele>910.99</ele>
        <time>2016-04-03T15:10:30Z</time>
      </trkpt>
      <trkpt lat="44.02115" lon="3.57414">
        <ele>910.51</ele>
        <time>2016-04-03T15:10:31Z</time>
      </trkpt>
      <trkpt lat="44.02121" lon="3.57428">
        <ele>909.54</ele>
        <time>2016-04-03T15:10:32Z</time>
      </trkpt>
      <trkpt lat="44.02127" lon="3.57442">
        <ele>909.06</ele>
        <time>2016-04-03T15:10:33Z</time>
      </trkpt>
      <trkpt lat="44.02134" lon="3.57454">
        <ele>908.1</ele>
        <time>2016-04-03T15:10:34Z</time>
      </trkpt>
      <trkpt lat="44.02142" lon="3.57465">
        <ele>907.62</ele>
        <time>2016-04-03T15:10:35Z</time>
      </trkpt>
      <trkpt lat="44.02151" lon="3.57474">
        <ele>907.14</ele>
        <time>2016-04-03T15:10:36Z</time>
      </trkpt>
      <trkpt lat="44.02161" lon="3.57481">
        <ele>906.18</ele>
        <time>2016-04-03T15:10:37Z</time>
      </trkpt>
      <trkpt lat="44.02173" lon="3.57486">
        <ele>905.22</ele>
        <time>2016-04-03T15:10:38Z</time>
      </trkpt>
      <trkpt lat="44.02184" lon="3.57491">
        <ele>904.74</ele>
        <time>2016-04-03T15:10:39Z</time>
      </trkpt>
      <trkpt lat="44.02219" lon="3.57509">
        <ele>902.82</ele>
        <time>2016-04-03T15:10:42Z</time>
      </trkpt>
      <trkpt lat="44.02229" lon="3.57518">
        <ele>901.85</ele>
        <time>2016-04-03T15:10:43Z</time>
      </trkpt>
      <trkpt lat="44.02238" lon="3.57529">
        <ele>901.37</ele>
        <time>2016-04-03T15:10:44Z</time>
      </trkpt>
      <trkpt lat="44.02245" lon="3.57543">
        <ele>900.89</ele>
        <time>2016-04-03T15:10:45Z</time>
      </trkpt>
      <trkpt lat="44.02251" lon="3.57557">
        <ele>900.41</ele>
        <time>2016-04-03T15:10:46Z</time>
      </trkpt>
      <trkpt lat="44.02258" lon="3.5757">
        <ele>899.45</ele>
        <time>2016-04-03T15:10:47Z</time>
      </trkpt>
      <trkpt lat="44.02265" lon="3.5758">
        <ele>898.49</ele>
        <time>2016-04-03T15:10:48Z</time>
      </trkpt>
      <trkpt lat="44.02274" lon="3.57587">
        <ele>898.01</ele>
        <time>2016-04-03T15:10:49Z</time>
      </trkpt>
      <trkpt lat="44.02283" lon="3.57595">
        <ele>897.05</ele>
        <time>2016-04-03T15:10:50Z</time>
      </trkpt>
      <trkpt lat="44.02293" lon="3.57604">
        <ele>896.57</ele>
        <time>2016-04-03T15:10:51Z</time>
      </trkpt>
      <trkpt lat="44.02313" lon="3.57626">
        <ele>894.64</ele>
        <time>2016-04-03T15:10:53Z</time>
      </trkpt>
      <trkpt lat="44.0232" lon="3.5764">
        <ele>894.16</ele>
        <time>2016-04-03T15:10:54Z</time>
      </trkpt>
      <trkpt lat="44.02324" lon="3.57655">
        <ele>893.68</ele>
        <time>2016-04-03T15:10:55Z</time>
      </trkpt>
      <trkpt lat="44.02325" lon="3.57673">
        <ele>892.72</ele>
        <time>2016-04-03T15:10:56Z</time>
      </trkpt>
      <trkpt lat="44.02322" lon="3.57694">
        <ele>891.76</ele>
        <time>2016-04-03T15:10:57Z</time>
      </trkpt>
      <trkpt lat="44.02318" lon="3.57714">
        <ele>890.8</ele>
        <time>2016-04-03T15:10:58Z</time>
      </trkpt>
      <trkpt lat="44.02312" lon="3.57732">
        <ele>889.36</ele>
        <time>2016-04-03T15:10:59Z</time>
      </trkpt>
      <trkpt lat="44.02305" lon="3.5775">
        <ele>888.4</ele>
        <time>2016-04-03T15:11:00Z</time>
      </trkpt>
      <trkpt lat="44.02298" lon="3.57767">
        <ele>887.91</ele>
        <time>2016-04-03T15:11:01Z</time>
      </trkpt>
      <trkpt lat="44.02245" lon="3.57918">
        <ele>881.19</ele>
        <time>2016-04-03T15:11:11Z</time>
      </trkpt>
      <trkpt lat="44.02243" lon="3.58011">
        <ele>877.34</ele>
        <time>2016-04-03T15:11:17Z</time>
      </trkpt>
      <trkpt lat="44.02246" lon="3.58025">
        <ele>876.86</ele>
        <time>2016-04-03T15:11:18Z</time>
      </trkpt>
      <trkpt lat="44.0225" lon="3.58039">
        <ele>876.38</ele>
        <time>2016-04-03T15:11:19Z</time>
      </trkpt>
      <trkpt lat="44.02254" lon="3.58052">
        <ele>875.9</ele>
        <time>2016-04-03T15:11:20Z</time>
      </trkpt>
      <trkpt lat="44.02258" lon="3.58064">
        <ele>875.42</ele>
        <time>2016-04-03T15:11:21Z</time>
      </trkpt>
      <trkpt lat="44.0227" lon="3.58092">
        <ele>874.46</ele>
        <time>2016-04-03T15:11:23Z</time>
      </trkpt>
      <trkpt lat="44.02281" lon="3.58108">
        <ele>873.98</ele>
        <time>2016-04-03T15:11:24Z</time>
      </trkpt>
      <trkpt lat="44.02332" lon="3.58187">
        <ele>870.61</ele>
        <time>2016-04-03T15:11:29Z</time>
      </trkpt>
      <trkpt lat="44.02357" lon="3.58217">
        <ele>868.21</ele>
        <time>2016-04-03T15:11:32Z</time>
      </trkpt>
      <trkpt lat="44.02368" lon="3.58221">
        <ele>867.25</ele>
        <time>2016-04-03T15:11:33Z</time>
      </trkpt>
      <trkpt lat="44.02379" lon="3.58222">
        <ele>866.29</ele>
        <time>2016-04-03T15:11:34Z</time>
      </trkpt>
      <trkpt lat="44.0239" lon="3.58221">
        <ele>865.32</ele>
        <time>2016-04-03T15:11:35Z</time>
      </trkpt>
      <trkpt lat="44.024" lon="3.58214">
        <ele>864.36</ele>
        <time>2016-04-03T15:11:36Z</time>
      </trkpt>
      <trkpt lat="44.0241" lon="3.58203">
        <ele>863.4</ele>
        <time>2016-04-03T15:11:37Z</time>
      </trkpt>
      <trkpt lat="44.02421" lon="3.58191">
        <ele>862.92</ele>
        <time>2016-04-03T15:11:38Z</time>
      </trkpt>
      <trkpt lat="44.02432" lon="3.58178">
        <ele>861.96</ele>
        <time>2016-04-03T15:11:39Z</time>
      </trkpt>
      <trkpt lat="44.02555" lon="3.58026">
        <ele>852.83</ele>
        <time>2016-04-03T15:11:50Z</time>
      </trkpt>
      <trkpt lat="44.02584" lon="3.5799">
        <ele>850.9</ele>
        <time>2016-04-03T15:11:53Z</time>
      </trkpt>
      <trkpt lat="44.02594" lon="3.57981">
        <ele>849.94</ele>
        <time>2016-04-03T15:11:54Z</time>
      </trkpt>
      <trkpt lat="44.02615" lon="3.57967">
        <ele>847.54</ele>
        <time>2016-04-03T15:11:56Z</time>
      </trkpt>
      <trkpt lat="44.02627" lon="3.57965">
        <ele>845.62</ele>
        <time>2016-04-03T15:11:57Z</time>
      </trkpt>
      <trkpt lat="44.02643" lon="3.57971">
        <ele>844.66</ele>
        <time>2016-04-03T15:11:58Z</time>
      </trkpt>
      <trkpt lat="44.02659" lon="3.57991">
        <ele>845.14</ele>
        <time>2016-04-03T15:11:59Z</time>
      </trkpt>
      <trkpt lat="44.02673" lon="3.58007">
        <ele>844.66</ele>
        <time>2016-04-03T15:12:00Z</time>
      </trkpt>
      <trkpt lat="44.02687" lon="3.58019">
        <ele>844.18</ele>
        <time>2016-04-03T15:12:01Z</time>
      </trkpt>
      <trkpt lat="44.02735" lon="3.58066">
        <ele>841.77</ele>
        <time>2016-04-03T15:12:05Z</time>
      </trkpt>
      <trkpt lat="44.02745" lon="3.58081">
        <ele>840.81</ele>
        <time>2016-04-03T15:12:06Z</time>
      </trkpt>
      <trkpt lat="44.02754" lon="3.58098">
        <ele>839.85</ele>
        <time>2016-04-03T15:12:07Z</time>
      </trkpt>
      <trkpt lat="44.02772" lon="3.58127">
        <ele>837.93</ele>
        <time>2016-04-03T15:12:09Z</time>
      </trkpt>
      <trkpt lat="44.02783" lon="3.58139">
        <ele>837.45</ele>
        <time>2016-04-03T15:12:10Z</time>
      </trkpt>
      <trkpt lat="44.02795" lon="3.58148">
        <ele>836.48</ele>
        <time>2016-04-03T15:12:11Z</time>
      </trkpt>
      <trkpt lat="44.02818" lon="3.58165">
        <ele>835.04</ele>
        <time>2016-04-03T15:12:13Z</time>
      </trkpt>
      <trkpt lat="44.0284" lon="3.58183">
        <ele>833.12</ele>
        <time>2016-04-03T15:12:15Z</time>
      </trkpt>
      <trkpt lat="44.02853" lon="3.58188">
        <ele>832.64</ele>
        <time>2016-04-03T15:12:16Z</time>
      </trkpt>
      <trkpt lat="44.02868" lon="3.5819">
        <ele>831.68</ele>
        <time>2016-04-03T15:12:17Z</time>
      </trkpt>
      <trkpt lat="44.02883" lon="3.58191">
        <ele>830.72</ele>
        <time>2016-04-03T15:12:18Z</time>
      </trkpt>
      <trkpt lat="44.02899" lon="3.58192">
        <ele>830.24</ele>
        <time>2016-04-03T15:12:19Z</time>
      </trkpt>
      <trkpt lat="44.02943" lon="3.58189">
        <ele>827.83</ele>
        <time>2016-04-03T15:12:22Z</time>
      </trkpt>
      <trkpt lat="44.02959" lon="3.58184">
        <ele>826.87</ele>
        <time>2016-04-03T15:12:23Z</time>
      </trkpt>
      <trkpt lat="44.02974" lon="3.58178">
        <ele>825.91</ele>
        <time>2016-04-03T15:12:24Z</time>
      </trkpt>
      <trkpt lat="44.03016" lon="3.58154">
        <ele>823.03</ele>
        <time>2016-04-03T15:12:27Z</time>
      </trkpt>
      <trkpt lat="44.03029" lon="3.58142">
        <ele>822.06</ele>
        <time>2016-04-03T15:12:28Z</time>
      </trkpt>
      <trkpt lat="44.0304" lon="3.58129">
        <ele>821.1</ele>
        <time>2016-04-03T15:12:29Z</time>
      </trkpt>
      <trkpt lat="44.03052" lon="3.58116">
        <ele>820.62</ele>
        <time>2016-04-03T15:12:30Z</time>
      </trkpt>
      <trkpt lat="44.03064" lon="3.58104">
        <ele>819.66</ele>
        <time>2016-04-03T15:12:31Z</time>
      </trkpt>
      <trkpt lat="44.03076" lon="3.58093">
        <ele>818.7</ele>
        <time>2016-04-03T15:12:32Z</time>
      </trkpt>
      <trkpt lat="44.03122" lon="3.58048">
        <ele>814.85</ele>
        <time>2016-04-03T15:12:36Z</time>
      </trkpt>
      <trkpt lat="44.03132" lon="3.58041">
        <ele>813.89</ele>
        <time>2016-04-03T15:12:37Z</time>
      </trkpt>
      <trkpt lat="44.03143" lon="3.58035">
        <ele>812.45</ele>
        <time>2016-04-03T15:12:38Z</time>
      </trkpt>
      <trkpt lat="44.03157" lon="3.58033">
        <ele>811.97</ele>
        <time>2016-04-03T15:12:39Z</time>
      </trkpt>
      <trkpt lat="44.03169" lon="3.58029">
        <ele>811.01</ele>
        <time>2016-04-03T15:12:40Z</time>
      </trkpt>
      <trkpt lat="44.03182" lon="3.58024">
        <ele>810.05</ele>
        <time>2016-04-03T15:12:41Z</time>
      </trkpt>
      <trkpt lat="44.03195" lon="3.58016">
        <ele>809.57</ele>
        <time>2016-04-03T15:12:42Z</time>
      </trkpt>
      <trkpt lat="44.03229" lon="3.57989">
        <ele>807.16</ele>
        <time>2016-04-03T15:12:45Z</time>
      </trkpt>
      <trkpt lat="44.03239" lon="3.57976">
        <ele>806.68</ele>
        <time>2016-04-03T15:12:46Z</time>
      </trkpt>
      <trkpt lat="44.03246" lon="3.57959">
        <ele>805.72</ele>
        <time>2016-04-03T15:12:47Z</time>
      </trkpt>
      <trkpt lat="44.03252" lon="3.57941">
        <ele>805.24</ele>
        <time>2016-04-03T15:12:48Z</time>
      </trkpt>
      <trkpt lat="44.03256" lon="3.57922">
        <ele>804.28</ele>
        <time>2016-04-03T15:12:49Z</time>
      </trkpt>
      <trkpt lat="44.03261" lon="3.57904">
        <ele>803.32</ele>
        <time>2016-04-03T15:12:50Z</time>
      </trkpt>
      <trkpt lat="44.0328" lon="3.57831">
        <ele>800.44</ele>
        <time>2016-04-03T15:12:55Z</time>
      </trkpt>
      <trkpt lat="44.03284" lon="3.5782">
        <ele>799.95</ele>
        <time>2016-04-03T15:12:56Z</time>
      </trkpt>
      <trkpt lat="44.03297" lon="3.57816">
        <ele>798.51</ele>
        <time>2016-04-03T15:12:58Z</time>
      </trkpt>
      <trkpt lat="44.03319" lon="3.57834">
        <ele>797.55</ele>
        <time>2016-04-03T15:13:00Z</time>
      </trkpt>
      <trkpt lat="44.03328" lon="3.57846">
        <ele>796.59</ele>
        <time>2016-04-03T15:13:01Z</time>
      </trkpt>
      <trkpt lat="44.03338" lon="3.57862">
        <ele>796.11</ele>
        <time>2016-04-03T15:13:02Z</time>
      </trkpt>
      <trkpt lat="44.03348" lon="3.57881">
        <ele>795.15</ele>
        <time>2016-04-03T15:13:03Z</time>
      </trkpt>
      <trkpt lat="44.03357" lon="3.57901">
        <ele>794.67</ele>
        <time>2016-04-03T15:13:04Z</time>
      </trkpt>
      <trkpt lat="44.03392" lon="3.5798">
        <ele>790.82</ele>
        <time>2016-04-03T15:13:08Z</time>
      </trkpt>
      <trkpt lat="44.03396" lon="3.58001">
        <ele>789.86</ele>
        <time>2016-04-03T15:13:09Z</time>
      </trkpt>
      <trkpt lat="44.03401" lon="3.5802">
        <ele>788.42</ele>
        <time>2016-04-03T15:13:10Z</time>
      </trkpt>
      <trkpt lat="44.03406" lon="3.58039">
        <ele>787.46</ele>
        <time>2016-04-03T15:13:11Z</time>
      </trkpt>
      <trkpt lat="44.03413" lon="3.58058">
        <ele>786.98</ele>
        <time>2016-04-03T15:13:12Z</time>
      </trkpt>
      <trkpt lat="44.0342" lon="3.58076">
        <ele>786.02</ele>
        <time>2016-04-03T15:13:13Z</time>
      </trkpt>
      <trkpt lat="44.03449" lon="3.5814">
        <ele>782.17</ele>
        <time>2016-04-03T15:13:17Z</time>
      </trkpt>
      <trkpt lat="44.03458" lon="3.58152">
        <ele>781.21</ele>
        <time>2016-04-03T15:13:18Z</time>
      </trkpt>
      <trkpt lat="44.03468" lon="3.58162">
        <ele>780.25</ele>
        <time>2016-04-03T15:13:19Z</time>
      </trkpt>
      <trkpt lat="44.0348" lon="3.58169">
        <ele>779.29</ele>
        <time>2016-04-03T15:13:20Z</time>
      </trkpt>
      <trkpt lat="44.03491" lon="3.58173">
        <ele>778.32</ele>
        <time>2016-04-03T15:13:21Z</time>
      </trkpt>
      <trkpt lat="44.03514" lon="3.58182">
        <ele>777.36</ele>
        <time>2016-04-03T15:13:23Z</time>
      </trkpt>
      <trkpt lat="44.03531" lon="3.582">
        <ele>775.92</ele>
        <time>2016-04-03T15:13:25Z</time>
      </trkpt>
      <trkpt lat="44.03537" lon="3.58213">
        <ele>774.96</ele>
        <time>2016-04-03T15:13:26Z</time>
      </trkpt>
      <trkpt lat="44.03541" lon="3.58228">
        <ele>773.04</ele>
        <time>2016-04-03T15:13:27Z</time>
      </trkpt>
      <trkpt lat="44.0354" lon="3.58242">
        <ele>773.04</ele>
        <time>2016-04-03T15:13:28Z</time>
      </trkpt>
      <trkpt lat="44.03539" lon="3.58257">
        <ele>772.08</ele>
        <time>2016-04-03T15:13:29Z</time>
      </trkpt>
      <trkpt lat="44.03537" lon="3.58271">
        <ele>771.6</ele>
        <time>2016-04-03T15:13:30Z</time>
      </trkpt>
      <trkpt lat="44.03532" lon="3.58285">
        <ele>771.11</ele>
        <time>2016-04-03T15:13:31Z</time>
      </trkpt>
      <trkpt lat="44.03523" lon="3.58295">
        <ele>770.15</ele>
        <time>2016-04-03T15:13:32Z</time>
      </trkpt>
      <trkpt lat="44.03512" lon="3.58302">
        <ele>769.19</ele>
        <time>2016-04-03T15:13:33Z</time>
      </trkpt>
      <trkpt lat="44.035" lon="3.58307">
        <ele>768.23</ele>
        <time>2016-04-03T15:13:34Z</time>
      </trkpt>
      <trkpt lat="44.03488" lon="3.58312">
        <ele>767.27</ele>
        <time>2016-04-03T15:13:35Z</time>
      </trkpt>
      <trkpt lat="44.03456" lon="3.58329">
        <ele>764.39</ele>
        <time>2016-04-03T15:13:38Z</time>
      </trkpt>
      <trkpt lat="44.03446" lon="3.58338">
        <ele>763.42</ele>
        <time>2016-04-03T15:13:39Z</time>
      </trkpt>
      <trkpt lat="44.03438" lon="3.5835">
        <ele>762.46</ele>
        <time>2016-04-03T15:13:40Z</time>
      </trkpt>
      <trkpt lat="44.03432" lon="3.58363">
        <ele>761.98</ele>
        <time>2016-04-03T15:13:41Z</time>
      </trkpt>
      <trkpt lat="44.03427" lon="3.58378">
        <ele>761.98</ele>
        <time>2016-04-03T15:13:42Z</time>
      </trkpt>
      <trkpt lat="44.03422" lon="3.58394">
        <ele>761.5</ele>
        <time>2016-04-03T15:13:43Z</time>
      </trkpt>
      <trkpt lat="44.0341" lon="3.58464">
        <ele>760.06</ele>
        <time>2016-04-03T15:13:47Z</time>
      </trkpt>
      <trkpt lat="44.03409" lon="3.58515">
        <ele>758.62</ele>
        <time>2016-04-03T15:13:50Z</time>
      </trkpt>
      <trkpt lat="44.03412" lon="3.58531">
        <ele>757.66</ele>
        <time>2016-04-03T15:13:51Z</time>
      </trkpt>
      <trkpt lat="44.03418" lon="3.58544">
        <ele>757.18</ele>
        <time>2016-04-03T15:13:52Z</time>
      </trkpt>
      <trkpt lat="44.03426" lon="3.58555">
        <ele>756.69</ele>
        <time>2016-04-03T15:13:53Z</time>
      </trkpt>
      <trkpt lat="44.03436" lon="3.58566">
        <ele>756.21</ele>
        <time>2016-04-03T15:13:54Z</time>
      </trkpt>
      <trkpt lat="44.03447" lon="3.58574">
        <ele>755.73</ele>
        <time>2016-04-03T15:13:55Z</time>
      </trkpt>
      <trkpt lat="44.0346" lon="3.58582">
        <ele>755.25</ele>
        <time>2016-04-03T15:13:56Z</time>
      </trkpt>
      <trkpt lat="44.03473" lon="3.58588">
        <ele>754.29</ele>
        <time>2016-04-03T15:13:57Z</time>
      </trkpt>
      <trkpt lat="44.0351" lon="3.58607">
        <ele>752.37</ele>
        <time>2016-04-03T15:14:00Z</time>
      </trkpt>
      <trkpt lat="44.0352" lon="3.58616">
        <ele>751.41</ele>
        <time>2016-04-03T15:14:01Z</time>
      </trkpt>
      <trkpt lat="44.03529" lon="3.58626">
        <ele>750.93</ele>
        <time>2016-04-03T15:14:02Z</time>
      </trkpt>
      <trkpt lat="44.03557" lon="3.58658">
        <ele>749</ele>
        <time>2016-04-03T15:14:05Z</time>
      </trkpt>
      <trkpt lat="44.03602" lon="3.58692">
        <ele>745.64</ele>
        <time>2016-04-03T15:14:10Z</time>
      </trkpt>
      <trkpt lat="44.03611" lon="3.58689">
        <ele>745.16</ele>
        <time>2016-04-03T15:14:11Z</time>
      </trkpt>
      <trkpt lat="44.03622" lon="3.58682">
        <ele>744.2</ele>
        <time>2016-04-03T15:14:12Z</time>
      </trkpt>
      <trkpt lat="44.03632" lon="3.58675">
        <ele>743.72</ele>
        <time>2016-04-03T15:14:13Z</time>
      </trkpt>
      <trkpt lat="44.03642" lon="3.58667">
        <ele>743.24</ele>
        <time>2016-04-03T15:14:14Z</time>
      </trkpt>
      <trkpt lat="44.03672" lon="3.5865">
        <ele>741.79</ele>
        <time>2016-04-03T15:14:17Z</time>
      </trkpt>
      <trkpt lat="44.03682" lon="3.58647">
        <ele>740.83</ele>
        <time>2016-04-03T15:14:18Z</time>
      </trkpt>
      <trkpt lat="44.03693" lon="3.5865">
        <ele>739.87</ele>
        <time>2016-04-03T15:14:19Z</time>
      </trkpt>
      <trkpt lat="44.03702" lon="3.58659">
        <ele>739.39</ele>
        <time>2016-04-03T15:14:20Z</time>
      </trkpt>
      <trkpt lat="44.0371" lon="3.58671">
        <ele>738.91</ele>
        <time>2016-04-03T15:14:21Z</time>
      </trkpt>
      <trkpt lat="44.03718" lon="3.58684">
        <ele>738.43</ele>
        <time>2016-04-03T15:14:22Z</time>
      </trkpt>
      <trkpt lat="44.03726" lon="3.58697">
        <ele>737.47</ele>
        <time>2016-04-03T15:14:23Z</time>
      </trkpt>
      <trkpt lat="44.03736" lon="3.58708">
        <ele>736.51</ele>
        <time>2016-04-03T15:14:24Z</time>
      </trkpt>
      <trkpt lat="44.03747" lon="3.58719">
        <ele>736.03</ele>
        <time>2016-04-03T15:14:25Z</time>
      </trkpt>
      <trkpt lat="44.03863" lon="3.58804">
        <ele>730.26</ele>
        <time>2016-04-03T15:14:35Z</time>
      </trkpt>
      <trkpt lat="44.03875" lon="3.58809">
        <ele>729.78</ele>
        <time>2016-04-03T15:14:36Z</time>
      </trkpt>
      <trkpt lat="44.03887" lon="3.58814">
        <ele>728.82</ele>
        <time>2016-04-03T15:14:37Z</time>
      </trkpt>
      <trkpt lat="44.03923" lon="3.58828">
        <ele>726.41</ele>
        <time>2016-04-03T15:14:40Z</time>
      </trkpt>
      <trkpt lat="44.03934" lon="3.58835">
        <ele>725.93</ele>
        <time>2016-04-03T15:14:41Z</time>
      </trkpt>
      <trkpt lat="44.03965" lon="3.58855">
        <ele>724.01</ele>
        <time>2016-04-03T15:14:44Z</time>
      </trkpt>
      <trkpt lat="44.03976" lon="3.58858">
        <ele>723.05</ele>
        <time>2016-04-03T15:14:45Z</time>
      </trkpt>
      <trkpt lat="44.03989" lon="3.58858">
        <ele>722.57</ele>
        <time>2016-04-03T15:14:46Z</time>
      </trkpt>
      <trkpt lat="44.04002" lon="3.5886">
        <ele>722.09</ele>
        <time>2016-04-03T15:14:47Z</time>
      </trkpt>
      <trkpt lat="44.04015" lon="3.58863">
        <ele>721.61</ele>
        <time>2016-04-03T15:14:48Z</time>
      </trkpt>
      <trkpt lat="44.04029" lon="3.58867">
        <ele>720.65</ele>
        <time>2016-04-03T15:14:49Z</time>
      </trkpt>
      <trkpt lat="44.04159" lon="3.58877">
        <ele>714.4</ele>
        <time>2016-04-03T15:14:58Z</time>
      </trkpt>
      <trkpt lat="44.04241" lon="3.58867">
        <ele>710.07</ele>
        <time>2016-04-03T15:15:04Z</time>
      </trkpt>
      <trkpt lat="44.04253" lon="3.5887">
        <ele>709.59</ele>
        <time>2016-04-03T15:15:05Z</time>
      </trkpt>
      <trkpt lat="44.04265" lon="3.58874">
        <ele>709.11</ele>
        <time>2016-04-03T15:15:06Z</time>
      </trkpt>
      <trkpt lat="44.04275" lon="3.58879">
        <ele>708.63</ele>
        <time>2016-04-03T15:15:07Z</time>
      </trkpt>
      <trkpt lat="44.04285" lon="3.58885">
        <ele>707.67</ele>
        <time>2016-04-03T15:15:08Z</time>
      </trkpt>
      <trkpt lat="44.04312" lon="3.58903">
        <ele>706.23</ele>
        <time>2016-04-03T15:15:11Z</time>
      </trkpt>
      <trkpt lat="44.0432" lon="3.58912">
        <ele>705.26</ele>
        <time>2016-04-03T15:15:12Z</time>
      </trkpt>
      <trkpt lat="44.04326" lon="3.58924">
        <ele>704.78</ele>
        <time>2016-04-03T15:15:13Z</time>
      </trkpt>
      <trkpt lat="44.04325" lon="3.58945">
        <ele>705.26</ele>
        <time>2016-04-03T15:15:14Z</time>
      </trkpt>
      <trkpt lat="44.04327" lon="3.58958">
        <ele>704.3</ele>
        <time>2016-04-03T15:15:15Z</time>
      </trkpt>
      <trkpt lat="44.04325" lon="3.58971">
        <ele>703.82</ele>
        <time>2016-04-03T15:15:16Z</time>
      </trkpt>
      <trkpt lat="44.0432" lon="3.58983">
        <ele>702.86</ele>
        <time>2016-04-03T15:15:17Z</time>
      </trkpt>
      <trkpt lat="44.0431" lon="3.58991">
        <ele>701.42</ele>
        <time>2016-04-03T15:15:18Z</time>
      </trkpt>
      <trkpt lat="44.04299" lon="3.58997">
        <ele>699.98</ele>
        <time>2016-04-03T15:15:19Z</time>
      </trkpt>
      <trkpt lat="44.04283" lon="3.59004">
        <ele>699.02</ele>
        <time>2016-04-03T15:15:20Z</time>
      </trkpt>
      <trkpt lat="44.04264" lon="3.59011">
        <ele>698.05</ele>
        <time>2016-04-03T15:15:21Z</time>
      </trkpt>
      <trkpt lat="44.04246" lon="3.5902">
        <ele>696.61</ele>
        <time>2016-04-03T15:15:22Z</time>
      </trkpt>
      <trkpt lat="44.04155" lon="3.59044">
        <ele>690.36</ele>
        <time>2016-04-03T15:15:28Z</time>
      </trkpt>
      <trkpt lat="44.04143" lon="3.59049">
        <ele>689.88</ele>
        <time>2016-04-03T15:15:29Z</time>
      </trkpt>
      <trkpt lat="44.04132" lon="3.59055">
        <ele>688.92</ele>
        <time>2016-04-03T15:15:30Z</time>
      </trkpt>
      <trkpt lat="44.04061" lon="3.59094">
        <ele>684.12</ele>
        <time>2016-04-03T15:15:36Z</time>
      </trkpt>
      <trkpt lat="44.04051" lon="3.59105">
        <ele>682.67</ele>
        <time>2016-04-03T15:15:37Z</time>
      </trkpt>
      <trkpt lat="44.04041" lon="3.59118">
        <ele>681.71</ele>
        <time>2016-04-03T15:15:38Z</time>
      </trkpt>
      <trkpt lat="44.04001" lon="3.59173">
        <ele>678.83</ele>
        <time>2016-04-03T15:15:42Z</time>
      </trkpt>
      <trkpt lat="44.0399" lon="3.59183">
        <ele>677.39</ele>
        <time>2016-04-03T15:15:43Z</time>
      </trkpt>
      <trkpt lat="44.03978" lon="3.59189">
        <ele>676.42</ele>
        <time>2016-04-03T15:15:44Z</time>
      </trkpt>
      <trkpt lat="44.03966" lon="3.5919">
        <ele>675.46</ele>
        <time>2016-04-03T15:15:45Z</time>
      </trkpt>
      <trkpt lat="44.03952" lon="3.59189">
        <ele>674.5</ele>
        <time>2016-04-03T15:15:46Z</time>
      </trkpt>
      <trkpt lat="44.03939" lon="3.59185">
        <ele>673.06</ele>
        <time>2016-04-03T15:15:47Z</time>
      </trkpt>
      <trkpt lat="44.03927" lon="3.5918">
        <ele>672.1</ele>
        <time>2016-04-03T15:15:48Z</time>
      </trkpt>
      <trkpt lat="44.03902" lon="3.59172">
        <ele>672.58</ele>
        <time>2016-04-03T15:15:50Z</time>
      </trkpt>
      <trkpt lat="44.03892" lon="3.59172">
        <ele>672.1</ele>
        <time>2016-04-03T15:15:51Z</time>
      </trkpt>
      <trkpt lat="44.03882" lon="3.59175">
        <ele>671.14</ele>
        <time>2016-04-03T15:15:52Z</time>
      </trkpt>
      <trkpt lat="44.03872" lon="3.59177">
        <ele>670.66</ele>
        <time>2016-04-03T15:15:53Z</time>
      </trkpt>
      <trkpt lat="44.03864" lon="3.59176">
        <ele>670.18</ele>
        <time>2016-04-03T15:15:54Z</time>
      </trkpt>
      <trkpt lat="44.03855" lon="3.59173">
        <ele>669.22</ele>
        <time>2016-04-03T15:15:55Z</time>
      </trkpt>
      <trkpt lat="44.03845" lon="3.59171">
        <ele>668.25</ele>
        <time>2016-04-03T15:15:56Z</time>
      </trkpt>
      <trkpt lat="44.03835" lon="3.59173">
        <ele>667.77</ele>
        <time>2016-04-03T15:15:57Z</time>
      </trkpt>
      <trkpt lat="44.03825" lon="3.59177">
        <ele>667.29</ele>
        <time>2016-04-03T15:15:58Z</time>
      </trkpt>
      <trkpt lat="44.03815" lon="3.59181">
        <ele>666.33</ele>
        <time>2016-04-03T15:15:59Z</time>
      </trkpt>
      <trkpt lat="44.03805" lon="3.59183">
        <ele>665.85</ele>
        <time>2016-04-03T15:16:00Z</time>
      </trkpt>
      <trkpt lat="44.03795" lon="3.59183">
        <ele>665.85</ele>
        <time>2016-04-03T15:16:01Z</time>
      </trkpt>
      <trkpt lat="44.03785" lon="3.59183">
        <ele>665.37</ele>
        <time>2016-04-03T15:16:02Z</time>
      </trkpt>
      <trkpt lat="44.03774" lon="3.59185">
        <ele>664.41</ele>
        <time>2016-04-03T15:16:03Z</time>
      </trkpt>
      <trkpt lat="44.03763" lon="3.59186">
        <ele>663.93</ele>
        <time>2016-04-03T15:16:04Z</time>
      </trkpt>
      <trkpt lat="44.03752" lon="3.59184">
        <ele>663.45</ele>
        <time>2016-04-03T15:16:05Z</time>
      </trkpt>
      <trkpt lat="44.03742" lon="3.59178">
        <ele>662.97</ele>
        <time>2016-04-03T15:16:06Z</time>
      </trkpt>
      <trkpt lat="44.03731" lon="3.59171">
        <ele>662.49</ele>
        <time>2016-04-03T15:16:07Z</time>
      </trkpt>
      <trkpt lat="44.03697" lon="3.59151">
        <ele>659.6</ele>
        <time>2016-04-03T15:16:10Z</time>
      </trkpt>
      <trkpt lat="44.03685" lon="3.59148">
        <ele>659.12</ele>
        <time>2016-04-03T15:16:11Z</time>
      </trkpt>
      <trkpt lat="44.03671" lon="3.59148">
        <ele>658.64</ele>
        <time>2016-04-03T15:16:12Z</time>
      </trkpt>
      <trkpt lat="44.03657" lon="3.5915">
        <ele>657.68</ele>
        <time>2016-04-03T15:16:13Z</time>
      </trkpt>
      <trkpt lat="44.03642" lon="3.59153">
        <ele>657.2</ele>
        <time>2016-04-03T15:16:14Z</time>
      </trkpt>
      <trkpt lat="44.03597" lon="3.59161">
        <ele>654.8</ele>
        <time>2016-04-03T15:16:17Z</time>
      </trkpt>
      <trkpt lat="44.03583" lon="3.59167">
        <ele>653.83</ele>
        <time>2016-04-03T15:16:18Z</time>
      </trkpt>
      <trkpt lat="44.03554" lon="3.59178">
        <ele>652.39</ele>
        <time>2016-04-03T15:16:20Z</time>
      </trkpt>
      <trkpt lat="44.0354" lon="3.5918">
        <ele>651.43</ele>
        <time>2016-04-03T15:16:21Z</time>
      </trkpt>
      <trkpt lat="44.03527" lon="3.59181">
        <ele>650.47</ele>
        <time>2016-04-03T15:16:22Z</time>
      </trkpt>
      <trkpt lat="44.03515" lon="3.5918">
        <ele>650.47</ele>
        <time>2016-04-03T15:16:23Z</time>
      </trkpt>
      <trkpt lat="44.03504" lon="3.5918">
        <ele>649.99</ele>
        <time>2016-04-03T15:16:24Z</time>
      </trkpt>
      <trkpt lat="44.03494" lon="3.59182">
        <ele>649.51</ele>
        <time>2016-04-03T15:16:25Z</time>
      </trkpt>
      <trkpt lat="44.03485" lon="3.59188">
        <ele>648.55</ele>
        <time>2016-04-03T15:16:26Z</time>
      </trkpt>
      <trkpt lat="44.03477" lon="3.59195">
        <ele>648.07</ele>
        <time>2016-04-03T15:16:27Z</time>
      </trkpt>
      <trkpt lat="44.03468" lon="3.59201">
        <ele>647.59</ele>
        <time>2016-04-03T15:16:28Z</time>
      </trkpt>
      <trkpt lat="44.03459" lon="3.59204">
        <ele>646.62</ele>
        <time>2016-04-03T15:16:29Z</time>
      </trkpt>
      <trkpt lat="44.03448" lon="3.59204">
        <ele>646.14</ele>
        <time>2016-04-03T15:16:30Z</time>
      </trkpt>
      <trkpt lat="44.03437" lon="3.59204">
        <ele>645.18</ele>
        <time>2016-04-03T15:16:31Z</time>
      </trkpt>
      <trkpt lat="44.03414" lon="3.59205">
        <ele>644.22</ele>
        <time>2016-04-03T15:16:33Z</time>
      </trkpt>
      <trkpt lat="44.03402" lon="3.59208">
        <ele>643.26</ele>
        <time>2016-04-03T15:16:34Z</time>
      </trkpt>
      <trkpt lat="44.03365" lon="3.59228">
        <ele>640.86</ele>
        <time>2016-04-03T15:16:38Z</time>
      </trkpt>
      <trkpt lat="44.03359" lon="3.59237">
        <ele>640.38</ele>
        <time>2016-04-03T15:16:39Z</time>
      </trkpt>
      <trkpt lat="44.03356" lon="3.59247">
        <ele>639.41</ele>
        <time>2016-04-03T15:16:40Z</time>
      </trkpt>
      <trkpt lat="44.03354" lon="3.59256">
        <ele>638.93</ele>
        <time>2016-04-03T15:16:41Z</time>
      </trkpt>
      <trkpt lat="44.03355" lon="3.59267">
        <ele>638.93</ele>
        <time>2016-04-03T15:16:42Z</time>
      </trkpt>
      <trkpt lat="44.03355" lon="3.59277">
        <ele>638.93</ele>
        <time>2016-04-03T15:16:43Z</time>
      </trkpt>
      <trkpt lat="44.03353" lon="3.59289">
        <ele>638.93</ele>
        <time>2016-04-03T15:16:44Z</time>
      </trkpt>
      <trkpt lat="44.03348" lon="3.59299">
        <ele>638.93</ele>
        <time>2016-04-03T15:16:45Z</time>
      </trkpt>
      <trkpt lat="44.03341" lon="3.59306">
        <ele>638.45</ele>
        <time>2016-04-03T15:16:46Z</time>
      </trkpt>
      <trkpt lat="44.0333" lon="3.5931">
        <ele>637.49</ele>
        <time>2016-04-03T15:16:47Z</time>
      </trkpt>
      <trkpt lat="44.0332" lon="3.59311">
        <ele>637.01</ele>
        <time>2016-04-03T15:16:48Z</time>
      </trkpt>
      <trkpt lat="44.03309" lon="3.59313">
        <ele>636.05</ele>
        <time>2016-04-03T15:16:49Z</time>
      </trkpt>
      <trkpt lat="44.03299" lon="3.59317">
        <ele>635.57</ele>
        <time>2016-04-03T15:16:50Z</time>
      </trkpt>
      <trkpt lat="44.03289" lon="3.59321">
        <ele>635.09</ele>
        <time>2016-04-03T15:16:51Z</time>
      </trkpt>
      <trkpt lat="44.03267" lon="3.59328">
        <ele>634.13</ele>
        <time>2016-04-03T15:16:53Z</time>
      </trkpt>
      <trkpt lat="44.03246" lon="3.59334">
        <ele>633.17</ele>
        <time>2016-04-03T15:16:55Z</time>
      </trkpt>
      <trkpt lat="44.03236" lon="3.5934">
        <ele>632.2</ele>
        <time>2016-04-03T15:16:56Z</time>
      </trkpt>
      <trkpt lat="44.03218" lon="3.59353">
        <ele>631.24</ele>
        <time>2016-04-03T15:16:58Z</time>
      </trkpt>
      <trkpt lat="44.03208" lon="3.59356">
        <ele>630.76</ele>
        <time>2016-04-03T15:16:59Z</time>
      </trkpt>
      <trkpt lat="44.032" lon="3.59352">
        <ele>629.8</ele>
        <time>2016-04-03T15:17:00Z</time>
      </trkpt>
      <trkpt lat="44.03193" lon="3.59344">
        <ele>629.32</ele>
        <time>2016-04-03T15:17:01Z</time>
      </trkpt>
      <trkpt lat="44.03187" lon="3.59335">
        <ele>628.84</ele>
        <time>2016-04-03T15:17:02Z</time>
      </trkpt>
      <trkpt lat="44.03181" lon="3.59327">
        <ele>627.88</ele>
        <time>2016-04-03T15:17:03Z</time>
      </trkpt>
      <trkpt lat="44.03172" lon="3.59318">
        <ele>627.88</ele>
        <time>2016-04-03T15:17:04Z</time>
      </trkpt>
      <trkpt lat="44.0316" lon="3.59312">
        <ele>628.36</ele>
        <time>2016-04-03T15:17:05Z</time>
      </trkpt>
      <trkpt lat="44.0315" lon="3.59313">
        <ele>628.36</ele>
        <time>2016-04-03T15:17:06Z</time>
      </trkpt>
      <trkpt lat="44.03139" lon="3.59318">
        <ele>627.88</ele>
        <time>2016-04-03T15:17:07Z</time>
      </trkpt>
      <trkpt lat="44.03129" lon="3.59325">
        <ele>627.88</ele>
        <time>2016-04-03T15:17:08Z</time>
      </trkpt>
      <trkpt lat="44.03119" lon="3.59332">
        <ele>627.4</ele>
        <time>2016-04-03T15:17:09Z</time>
      </trkpt>
      <trkpt lat="44.03109" lon="3.59341">
        <ele>626.92</ele>
        <time>2016-04-03T15:17:10Z</time>
      </trkpt>
      <trkpt lat="44.03081" lon="3.59361">
        <ele>625.96</ele>
        <time>2016-04-03T15:17:13Z</time>
      </trkpt>
      <trkpt lat="44.03071" lon="3.59365">
        <ele>625.47</ele>
        <time>2016-04-03T15:17:14Z</time>
      </trkpt>
      <trkpt lat="44.03061" lon="3.5937">
        <ele>624.51</ele>
        <time>2016-04-03T15:17:15Z</time>
      </trkpt>
      <trkpt lat="44.03052" lon="3.59376">
        <ele>623.55</ele>
        <time>2016-04-03T15:17:16Z</time>
      </trkpt>
      <trkpt lat="44.03044" lon="3.59386">
        <ele>622.59</ele>
        <time>2016-04-03T15:17:17Z</time>
      </trkpt>
      <trkpt lat="44.03037" lon="3.59399">
        <ele>621.63</ele>
        <time>2016-04-03T15:17:18Z</time>
      </trkpt>
      <trkpt lat="44.03032" lon="3.59415">
        <ele>621.15</ele>
        <time>2016-04-03T15:17:19Z</time>
      </trkpt>
      <trkpt lat="44.03027" lon="3.59431">
        <ele>620.67</ele>
        <time>2016-04-03T15:17:20Z</time>
      </trkpt>
      <trkpt lat="44.03002" lon="3.59504">
        <ele>617.3</ele>
        <time>2016-04-03T15:17:25Z</time>
      </trkpt>
      <trkpt lat="44.02996" lon="3.59513">
        <ele>616.82</ele>
        <time>2016-04-03T15:17:26Z</time>
      </trkpt>
      <trkpt lat="44.02988" lon="3.59519">
        <ele>615.86</ele>
        <time>2016-04-03T15:17:27Z</time>
      </trkpt>
      <trkpt lat="44.02979" lon="3.59519">
        <ele>615.38</ele>
        <time>2016-04-03T15:17:28Z</time>
      </trkpt>
      <trkpt lat="44.0297" lon="3.59517">
        <ele>614.42</ele>
        <time>2016-04-03T15:17:29Z</time>
      </trkpt>
      <trkpt lat="44.0296" lon="3.59518">
        <ele>613.94</ele>
        <time>2016-04-03T15:17:30Z</time>
      </trkpt>
      <trkpt lat="44.0295" lon="3.59522">
        <ele>612.98</ele>
        <time>2016-04-03T15:17:31Z</time>
      </trkpt>
      <trkpt lat="44.02939" lon="3.59527">
        <ele>612.5</ele>
        <time>2016-04-03T15:17:32Z</time>
      </trkpt>
      <trkpt lat="44.02929" lon="3.59529">
        <ele>611.54</ele>
        <time>2016-04-03T15:17:33Z</time>
      </trkpt>
      <trkpt lat="44.02917" lon="3.59528">
        <ele>611.06</ele>
        <time>2016-04-03T15:17:34Z</time>
      </trkpt>
      <trkpt lat="44.0285" lon="3.59526">
        <ele>607.69</ele>
        <time>2016-04-03T15:17:40Z</time>
      </trkpt>
      <trkpt lat="44.02842" lon="3.5953">
        <ele>607.21</ele>
        <time>2016-04-03T15:17:41Z</time>
      </trkpt>
      <trkpt lat="44.02835" lon="3.59537">
        <ele>606.73</ele>
        <time>2016-04-03T15:17:42Z</time>
      </trkpt>
      <trkpt lat="44.0283" lon="3.59545">
        <ele>606.73</ele>
        <time>2016-04-03T15:17:43Z</time>
      </trkpt>
      <trkpt lat="44.02826" lon="3.59555">
        <ele>605.77</ele>
        <time>2016-04-03T15:17:44Z</time>
      </trkpt>
      <trkpt lat="44.02824" lon="3.59568">
        <ele>605.29</ele>
        <time>2016-04-03T15:17:45Z</time>
      </trkpt>
      <trkpt lat="44.02821" lon="3.5958">
        <ele>604.81</ele>
        <time>2016-04-03T15:17:46Z</time>
      </trkpt>
      <trkpt lat="44.02803" lon="3.59711">
        <ele>600</ele>
        <time>2016-04-03T15:17:55Z</time>
      </trkpt>
      <trkpt lat="44.02793" lon="3.5974">
        <ele>598.56</ele>
        <time>2016-04-03T15:17:57Z</time>
      </trkpt>
      <trkpt lat="44.02787" lon="3.59752">
        <ele>598.08</ele>
        <time>2016-04-03T15:17:58Z</time>
      </trkpt>
      <trkpt lat="44.02779" lon="3.59761">
        <ele>597.6</ele>
        <time>2016-04-03T15:17:59Z</time>
      </trkpt>
      <trkpt lat="44.02769" lon="3.59767">
        <ele>597.6</ele>
        <time>2016-04-03T15:18:00Z</time>
      </trkpt>
      <trkpt lat="44.02761" lon="3.59769">
        <ele>597.12</ele>
        <time>2016-04-03T15:18:01Z</time>
      </trkpt>
      <trkpt lat="44.02752" lon="3.5976">
        <ele>597.12</ele>
        <time>2016-04-03T15:18:02Z</time>
      </trkpt>
      <trkpt lat="44.02746" lon="3.59749">
        <ele>596.15</ele>
        <time>2016-04-03T15:18:03Z</time>
      </trkpt>
      <trkpt lat="44.02739" lon="3.59741">
        <ele>595.19</ele>
        <time>2016-04-03T15:18:04Z</time>
      </trkpt>
      <trkpt lat="44.02732" lon="3.59727">
        <ele>596.15</ele>
        <time>2016-04-03T15:18:05Z</time>
      </trkpt>
      <trkpt lat="44.02725" lon="3.59711">
        <ele>597.6</ele>
        <time>2016-04-03T15:18:06Z</time>
      </trkpt>
      <trkpt lat="44.02723" lon="3.59697">
        <ele>597.12</ele>
        <time>2016-04-03T15:18:07Z</time>
      </trkpt>
      <trkpt lat="44.02722" lon="3.59683">
        <ele>596.64</ele>
        <time>2016-04-03T15:18:08Z</time>
      </trkpt>
      <trkpt lat="44.02719" lon="3.59671">
        <ele>596.15</ele>
        <time>2016-04-03T15:18:09Z</time>
      </trkpt>
      <trkpt lat="44.02716" lon="3.5966">
        <ele>595.19</ele>
        <time>2016-04-03T15:18:10Z</time>
      </trkpt>
      <trkpt lat="44.02712" lon="3.5965">
        <ele>594.23</ele>
        <time>2016-04-03T15:18:11Z</time>
      </trkpt>
      <trkpt lat="44.02706" lon="3.59642">
        <ele>592.79</ele>
        <time>2016-04-03T15:18:12Z</time>
      </trkpt>
      <trkpt lat="44.02696" lon="3.59633">
        <ele>590.87</ele>
        <time>2016-04-03T15:18:13Z</time>
      </trkpt>
      <trkpt lat="44.02688" lon="3.59625">
        <ele>589.43</ele>
        <time>2016-04-03T15:18:14Z</time>
      </trkpt>
      <trkpt lat="44.02678" lon="3.5962">
        <ele>588.95</ele>
        <time>2016-04-03T15:18:15Z</time>
      </trkpt>
      <trkpt lat="44.02669" lon="3.59618">
        <ele>588.46</ele>
        <time>2016-04-03T15:18:16Z</time>
      </trkpt>
      <trkpt lat="44.02661" lon="3.59621">
        <ele>587.98</ele>
        <time>2016-04-03T15:18:17Z</time>
      </trkpt>
      <trkpt lat="44.02654" lon="3.59627">
        <ele>587.02</ele>
        <time>2016-04-03T15:18:18Z</time>
      </trkpt>
      <trkpt lat="44.02647" lon="3.59636">
        <ele>587.02</ele>
        <time>2016-04-03T15:18:19Z</time>
      </trkpt>
      <trkpt lat="44.02641" lon="3.59647">
        <ele>586.54</ele>
        <time>2016-04-03T15:18:20Z</time>
      </trkpt>
      <trkpt lat="44.02624" lon="3.5967">
        <ele>585.58</ele>
        <time>2016-04-03T15:18:22Z</time>
      </trkpt>
      <trkpt lat="44.02614" lon="3.59681">
        <ele>585.1</ele>
        <time>2016-04-03T15:18:23Z</time>
      </trkpt>
      <trkpt lat="44.02555" lon="3.59732">
        <ele>582.22</ele>
        <time>2016-04-03T15:18:29Z</time>
      </trkpt>
      <trkpt lat="44.02548" lon="3.59743">
        <ele>581.25</ele>
        <time>2016-04-03T15:18:30Z</time>
      </trkpt>
      <trkpt lat="44.02542" lon="3.59756">
        <ele>580.29</ele>
        <time>2016-04-03T15:18:31Z</time>
      </trkpt>
      <trkpt lat="44.02538" lon="3.5977">
        <ele>579.81</ele>
        <time>2016-04-03T15:18:32Z</time>
      </trkpt>
      <trkpt lat="44.02534" lon="3.59783">
        <ele>579.33</ele>
        <time>2016-04-03T15:18:33Z</time>
      </trkpt>
      <trkpt lat="44.02528" lon="3.59795">
        <ele>579.33</ele>
        <time>2016-04-03T15:18:34Z</time>
      </trkpt>
      <trkpt lat="44.02521" lon="3.59805">
        <ele>578.85</ele>
        <time>2016-04-03T15:18:35Z</time>
      </trkpt>
      <trkpt lat="44.02512" lon="3.59811">
        <ele>578.37</ele>
        <time>2016-04-03T15:18:36Z</time>
      </trkpt>
      <trkpt lat="44.02502" lon="3.59815">
        <ele>577.89</ele>
        <time>2016-04-03T15:18:37Z</time>
      </trkpt>
      <trkpt lat="44.02492" lon="3.59815">
        <ele>577.89</ele>
        <time>2016-04-03T15:18:38Z</time>
      </trkpt>
      <trkpt lat="44.0248" lon="3.59812">
        <ele>576.93</ele>
        <time>2016-04-03T15:18:39Z</time>
      </trkpt>
      <trkpt lat="44.02468" lon="3.59805">
        <ele>576.45</ele>
        <time>2016-04-03T15:18:40Z</time>
      </trkpt>
      <trkpt lat="44.02456" lon="3.59796">
        <ele>574.53</ele>
        <time>2016-04-03T15:18:41Z</time>
      </trkpt>
      <trkpt lat="44.02443" lon="3.59789">
        <ele>573.56</ele>
        <time>2016-04-03T15:18:42Z</time>
      </trkpt>
      <trkpt lat="44.0243" lon="3.59785">
        <ele>573.08</ele>
        <time>2016-04-03T15:18:43Z</time>
      </trkpt>
      <trkpt lat="44.02416" lon="3.59781">
        <ele>573.08</ele>
        <time>2016-04-03T15:18:44Z</time>
      </trkpt>
      <trkpt lat="44.0239" lon="3.59771">
        <ele>572.12</ele>
        <time>2016-04-03T15:18:46Z</time>
      </trkpt>
      <trkpt lat="44.02378" lon="3.59762">
        <ele>571.16</ele>
        <time>2016-04-03T15:18:47Z</time>
      </trkpt>
      <trkpt lat="44.02366" lon="3.59751">
        <ele>570.68</ele>
        <time>2016-04-03T15:18:48Z</time>
      </trkpt>
      <trkpt lat="44.02355" lon="3.59739">
        <ele>569.72</ele>
        <time>2016-04-03T15:18:49Z</time>
      </trkpt>
      <trkpt lat="44.02345" lon="3.59729">
        <ele>569.24</ele>
        <time>2016-04-03T15:18:50Z</time>
      </trkpt>
      <trkpt lat="44.02335" lon="3.5972">
        <ele>568.76</ele>
        <time>2016-04-03T15:18:51Z</time>
      </trkpt>
      <trkpt lat="44.02324" lon="3.59714">
        <ele>567.8</ele>
        <time>2016-04-03T15:18:52Z</time>
      </trkpt>
      <trkpt lat="44.02315" lon="3.59707">
        <ele>567.8</ele>
        <time>2016-04-03T15:18:53Z</time>
      </trkpt>
      <trkpt lat="44.02305" lon="3.59698">
        <ele>567.32</ele>
        <time>2016-04-03T15:18:54Z</time>
      </trkpt>
      <trkpt lat="44.02295" lon="3.59689">
        <ele>566.83</ele>
        <time>2016-04-03T15:18:55Z</time>
      </trkpt>
      <trkpt lat="44.02259" lon="3.59663">
        <ele>564.43</ele>
        <time>2016-04-03T15:18:59Z</time>
      </trkpt>
      <trkpt lat="44.02249" lon="3.59662">
        <ele>563.95</ele>
        <time>2016-04-03T15:19:00Z</time>
      </trkpt>
      <trkpt lat="44.02239" lon="3.59667">
        <ele>563.47</ele>
        <time>2016-04-03T15:19:01Z</time>
      </trkpt>
      <trkpt lat="44.02229" lon="3.59676">
        <ele>562.99</ele>
        <time>2016-04-03T15:19:02Z</time>
      </trkpt>
      <trkpt lat="44.02221" lon="3.59688">
        <ele>562.51</ele>
        <time>2016-04-03T15:19:03Z</time>
      </trkpt>
      <trkpt lat="44.02213" lon="3.59703">
        <ele>561.55</ele>
        <time>2016-04-03T15:19:04Z</time>
      </trkpt>
      <trkpt lat="44.02206" lon="3.59718">
        <ele>560.59</ele>
        <time>2016-04-03T15:19:05Z</time>
      </trkpt>
      <trkpt lat="44.02177" lon="3.59758">
        <ele>558.66</ele>
        <time>2016-04-03T15:19:08Z</time>
      </trkpt>
      <trkpt lat="44.02164" lon="3.59767">
        <ele>557.7</ele>
        <time>2016-04-03T15:19:09Z</time>
      </trkpt>
      <trkpt lat="44.02152" lon="3.59773">
        <ele>556.74</ele>
        <time>2016-04-03T15:19:10Z</time>
      </trkpt>
      <trkpt lat="44.0214" lon="3.59779">
        <ele>555.78</ele>
        <time>2016-04-03T15:19:11Z</time>
      </trkpt>
      <trkpt lat="44.02129" lon="3.59787">
        <ele>554.34</ele>
        <time>2016-04-03T15:19:12Z</time>
      </trkpt>
      <trkpt lat="44.02118" lon="3.59798">
        <ele>552.9</ele>
        <time>2016-04-03T15:19:13Z</time>
      </trkpt>
      <trkpt lat="44.0211" lon="3.59812">
        <ele>551.93</ele>
        <time>2016-04-03T15:19:14Z</time>
      </trkpt>
      <trkpt lat="44.02104" lon="3.59829">
        <ele>550.01</ele>
        <time>2016-04-03T15:19:15Z</time>
      </trkpt>
      <trkpt lat="44.02102" lon="3.59847">
        <ele>548.57</ele>
        <time>2016-04-03T15:19:16Z</time>
      </trkpt>
      <trkpt lat="44.02104" lon="3.59868">
        <ele>548.09</ele>
        <time>2016-04-03T15:19:17Z</time>
      </trkpt>
      <trkpt lat="44.02108" lon="3.59889">
        <ele>547.61</ele>
        <time>2016-04-03T15:19:18Z</time>
      </trkpt>
      <trkpt lat="44.02111" lon="3.59908">
        <ele>546.65</ele>
        <time>2016-04-03T15:19:19Z</time>
      </trkpt>
      <trkpt lat="44.02117" lon="3.59928">
        <ele>545.2</ele>
        <time>2016-04-03T15:19:20Z</time>
      </trkpt>
      <trkpt lat="44.02124" lon="3.59948">
        <ele>544.72</ele>
        <time>2016-04-03T15:19:21Z</time>
      </trkpt>
      <trkpt lat="44.02131" lon="3.59967">
        <ele>543.76</ele>
        <time>2016-04-03T15:19:22Z</time>
      </trkpt>
      <trkpt lat="44.02139" lon="3.59986">
        <ele>542.8</ele>
        <time>2016-04-03T15:19:23Z</time>
      </trkpt>
      <trkpt lat="44.02168" lon="3.6007">
        <ele>539.44</ele>
        <time>2016-04-03T15:19:28Z</time>
      </trkpt>
      <trkpt lat="44.0217" lon="3.60088">
        <ele>538.48</ele>
        <time>2016-04-03T15:19:29Z</time>
      </trkpt>
      <trkpt lat="44.02173" lon="3.60107">
        <ele>537.51</ele>
        <time>2016-04-03T15:19:30Z</time>
      </trkpt>
      <trkpt lat="44.02177" lon="3.60126">
        <ele>536.55</ele>
        <time>2016-04-03T15:19:31Z</time>
      </trkpt>
      <trkpt lat="44.02182" lon="3.60143">
        <ele>535.11</ele>
        <time>2016-04-03T15:19:32Z</time>
      </trkpt>
      <trkpt lat="44.02188" lon="3.60159">
        <ele>534.63</ele>
        <time>2016-04-03T15:19:33Z</time>
      </trkpt>
      <trkpt lat="44.02194" lon="3.60174">
        <ele>534.15</ele>
        <time>2016-04-03T15:19:34Z</time>
      </trkpt>
      <trkpt lat="44.02198" lon="3.60187">
        <ele>533.67</ele>
        <time>2016-04-03T15:19:35Z</time>
      </trkpt>
      <trkpt lat="44.022" lon="3.60199">
        <ele>533.19</ele>
        <time>2016-04-03T15:19:36Z</time>
      </trkpt>
      <trkpt lat="44.022" lon="3.60211">
        <ele>532.23</ele>
        <time>2016-04-03T15:19:37Z</time>
      </trkpt>
      <trkpt lat="44.02197" lon="3.60221">
        <ele>531.27</ele>
        <time>2016-04-03T15:19:38Z</time>
      </trkpt>
      <trkpt lat="44.02191" lon="3.60227">
        <ele>530.3</ele>
        <time>2016-04-03T15:19:39Z</time>
      </trkpt>
      <trkpt lat="44.02183" lon="3.6023">
        <ele>528.86</ele>
        <time>2016-04-03T15:19:40Z</time>
      </trkpt>
      <trkpt lat="44.02173" lon="3.60226">
        <ele>527.9</ele>
        <time>2016-04-03T15:19:41Z</time>
      </trkpt>
      <trkpt lat="44.02163" lon="3.60217">
        <ele>526.94</ele>
        <time>2016-04-03T15:19:42Z</time>
      </trkpt>
      <trkpt lat="44.02151" lon="3.60206">
        <ele>525.98</ele>
        <time>2016-04-03T15:19:43Z</time>
      </trkpt>
      <trkpt lat="44.02139" lon="3.60192">
        <ele>525.5</ele>
        <time>2016-04-03T15:19:44Z</time>
      </trkpt>
      <trkpt lat="44.02128" lon="3.6018">
        <ele>524.54</ele>
        <time>2016-04-03T15:19:45Z</time>
      </trkpt>
      <trkpt lat="44.02095" lon="3.60146">
        <ele>524.54</ele>
        <time>2016-04-03T15:19:48Z</time>
      </trkpt>
      <trkpt lat="44.02083" lon="3.6014">
        <ele>524.06</ele>
        <time>2016-04-03T15:19:49Z</time>
      </trkpt>
      <trkpt lat="44.0207" lon="3.60139">
        <ele>524.06</ele>
        <time>2016-04-03T15:19:50Z</time>
      </trkpt>
      <trkpt lat="44.02056" lon="3.6014">
        <ele>523.58</ele>
        <time>2016-04-03T15:19:51Z</time>
      </trkpt>
      <trkpt lat="44.02043" lon="3.60139">
        <ele>522.61</ele>
        <time>2016-04-03T15:19:52Z</time>
      </trkpt>
      <trkpt lat="44.0203" lon="3.60135">
        <ele>521.65</ele>
        <time>2016-04-03T15:19:53Z</time>
      </trkpt>
      <trkpt lat="44.02017" lon="3.60128">
        <ele>520.69</ele>
        <time>2016-04-03T15:19:54Z</time>
      </trkpt>
      <trkpt lat="44.02005" lon="3.60121">
        <ele>519.73</ele>
        <time>2016-04-03T15:19:55Z</time>
      </trkpt>
      <trkpt lat="44.0197" lon="3.60106">
        <ele>516.37</ele>
        <time>2016-04-03T15:19:58Z</time>
      </trkpt>
      <trkpt lat="44.01957" lon="3.60112">
        <ele>516.37</ele>
        <time>2016-04-03T15:19:59Z</time>
      </trkpt>
      <trkpt lat="44.01947" lon="3.60123">
        <ele>516.85</ele>
        <time>2016-04-03T15:20:00Z</time>
      </trkpt>
      <trkpt lat="44.01939" lon="3.60133">
        <ele>515.88</ele>
        <time>2016-04-03T15:20:01Z</time>
      </trkpt>
      <trkpt lat="44.01933" lon="3.60142">
        <ele>514.92</ele>
        <time>2016-04-03T15:20:02Z</time>
      </trkpt>
      <trkpt lat="44.01926" lon="3.60148">
        <ele>513.96</ele>
        <time>2016-04-03T15:20:03Z</time>
      </trkpt>
      <trkpt lat="44.01919" lon="3.60148">
        <ele>513.48</ele>
        <time>2016-04-03T15:20:04Z</time>
      </trkpt>
      <trkpt lat="44.01913" lon="3.60143">
        <ele>513</ele>
        <time>2016-04-03T15:20:05Z</time>
      </trkpt>
      <trkpt lat="44.01908" lon="3.60134">
        <ele>512.04</ele>
        <time>2016-04-03T15:20:06Z</time>
      </trkpt>
      <trkpt lat="44.01902" lon="3.60115">
        <ele>513.48</ele>
        <time>2016-04-03T15:20:07Z</time>
      </trkpt>
      <trkpt lat="44.01896" lon="3.60096">
        <ele>515.4</ele>
        <time>2016-04-03T15:20:08Z</time>
      </trkpt>
      <trkpt lat="44.01897" lon="3.60078">
        <ele>514.44</ele>
        <time>2016-04-03T15:20:09Z</time>
      </trkpt>
      <trkpt lat="44.01897" lon="3.60061">
        <ele>513.96</ele>
        <time>2016-04-03T15:20:10Z</time>
      </trkpt>
      <trkpt lat="44.01895" lon="3.60044">
        <ele>513.48</ele>
        <time>2016-04-03T15:20:11Z</time>
      </trkpt>
      <trkpt lat="44.01892" lon="3.60029">
        <ele>513</ele>
        <time>2016-04-03T15:20:12Z</time>
      </trkpt>
      <trkpt lat="44.01887" lon="3.60015">
        <ele>512.52</ele>
        <time>2016-04-03T15:20:13Z</time>
      </trkpt>
      <trkpt lat="44.0188" lon="3.60003">
        <ele>511.56</ele>
        <time>2016-04-03T15:20:14Z</time>
      </trkpt>
      <trkpt lat="44.01871" lon="3.5999">
        <ele>511.56</ele>
        <time>2016-04-03T15:20:15Z</time>
      </trkpt>
      <trkpt lat="44.01859" lon="3.5998">
        <ele>511.08</ele>
        <time>2016-04-03T15:20:16Z</time>
      </trkpt>
      <trkpt lat="44.01846" lon="3.59966">
        <ele>511.56</ele>
        <time>2016-04-03T15:20:17Z</time>
      </trkpt>
      <trkpt lat="44.01755" lon="3.59849">
        <ele>508.19</ele>
        <time>2016-04-03T15:20:24Z</time>
      </trkpt>
      <trkpt lat="44.01703" lon="3.598">
        <ele>500.5</ele>
        <time>2016-04-03T15:20:29Z</time>
      </trkpt>
      <trkpt lat="44.01691" lon="3.59801">
        <ele>499.54</ele>
        <time>2016-04-03T15:20:30Z</time>
      </trkpt>
      <trkpt lat="44.01678" lon="3.59807">
        <ele>498.1</ele>
        <time>2016-04-03T15:20:31Z</time>
      </trkpt>
      <trkpt lat="44.01667" lon="3.59814">
        <ele>497.14</ele>
        <time>2016-04-03T15:20:32Z</time>
      </trkpt>
      <trkpt lat="44.01657" lon="3.5982">
        <ele>495.7</ele>
        <time>2016-04-03T15:20:33Z</time>
      </trkpt>
      <trkpt lat="44.01648" lon="3.59827">
        <ele>494.74</ele>
        <time>2016-04-03T15:20:34Z</time>
      </trkpt>
      <trkpt lat="44.01638" lon="3.59831">
        <ele>493.77</ele>
        <time>2016-04-03T15:20:35Z</time>
      </trkpt>
      <trkpt lat="44.01629" lon="3.59831">
        <ele>492.33</ele>
        <time>2016-04-03T15:20:36Z</time>
      </trkpt>
      <trkpt lat="44.01622" lon="3.59825">
        <ele>491.37</ele>
        <time>2016-04-03T15:20:37Z</time>
      </trkpt>
      <trkpt lat="44.01613" lon="3.59818">
        <ele>490.41</ele>
        <time>2016-04-03T15:20:38Z</time>
      </trkpt>
      <trkpt lat="44.01605" lon="3.59813">
        <ele>488.49</ele>
        <time>2016-04-03T15:20:39Z</time>
      </trkpt>
      <trkpt lat="44.01594" lon="3.59812">
        <ele>487.53</ele>
        <time>2016-04-03T15:20:40Z</time>
      </trkpt>
      <trkpt lat="44.01583" lon="3.59815">
        <ele>486.56</ele>
        <time>2016-04-03T15:20:41Z</time>
      </trkpt>
      <trkpt lat="44.01572" lon="3.59819">
        <ele>486.08</ele>
        <time>2016-04-03T15:20:42Z</time>
      </trkpt>
      <trkpt lat="44.01562" lon="3.5982">
        <ele>485.12</ele>
        <time>2016-04-03T15:20:43Z</time>
      </trkpt>
      <trkpt lat="44.01553" lon="3.59815">
        <ele>484.16</ele>
        <time>2016-04-03T15:20:44Z</time>
      </trkpt>
      <trkpt lat="44.01545" lon="3.5981">
        <ele>482.72</ele>
        <time>2016-04-03T15:20:45Z</time>
      </trkpt>
      <trkpt lat="44.01536" lon="3.59806">
        <ele>481.76</ele>
        <time>2016-04-03T15:20:46Z</time>
      </trkpt>
      <trkpt lat="44.01526" lon="3.59806">
        <ele>481.28</ele>
        <time>2016-04-03T15:20:47Z</time>
      </trkpt>
      <trkpt lat="44.01517" lon="3.59805">
        <ele>480.8</ele>
        <time>2016-04-03T15:20:48Z</time>
      </trkpt>
      <trkpt lat="44.01508" lon="3.59802">
        <ele>480.32</ele>
        <time>2016-04-03T15:20:49Z</time>
      </trkpt>
      <trkpt lat="44.01501" lon="3.59793">
        <ele>479.84</ele>
        <time>2016-04-03T15:20:50Z</time>
      </trkpt>
      <trkpt lat="44.01498" lon="3.59779">
        <ele>478.87</ele>
        <time>2016-04-03T15:20:51Z</time>
      </trkpt>
      <trkpt lat="44.01497" lon="3.59763">
        <ele>478.87</ele>
        <time>2016-04-03T15:20:52Z</time>
      </trkpt>
      <trkpt lat="44.01497" lon="3.59747">
        <ele>479.35</ele>
        <time>2016-04-03T15:20:53Z</time>
      </trkpt>
      <trkpt lat="44.01497" lon="3.59733">
        <ele>478.87</ele>
        <time>2016-04-03T15:20:54Z</time>
      </trkpt>
      <trkpt lat="44.01496" lon="3.59719">
        <ele>478.39</ele>
        <time>2016-04-03T15:20:55Z</time>
      </trkpt>
      <trkpt lat="44.01492" lon="3.59708">
        <ele>476.47</ele>
        <time>2016-04-03T15:20:56Z</time>
      </trkpt>
      <trkpt lat="44.01485" lon="3.59698">
        <ele>474.55</ele>
        <time>2016-04-03T15:20:57Z</time>
      </trkpt>
      <trkpt lat="44.01475" lon="3.5969">
        <ele>473.11</ele>
        <time>2016-04-03T15:20:58Z</time>
      </trkpt>
      <trkpt lat="44.01462" lon="3.59681">
        <ele>473.11</ele>
        <time>2016-04-03T15:20:59Z</time>
      </trkpt>
      <trkpt lat="44.01449" lon="3.59676">
        <ele>472.14</ele>
        <time>2016-04-03T15:21:00Z</time>
      </trkpt>
      <trkpt lat="44.01437" lon="3.59672">
        <ele>473.11</ele>
        <time>2016-04-03T15:21:01Z</time>
      </trkpt>
      <trkpt lat="44.01425" lon="3.59669">
        <ele>472.14</ele>
        <time>2016-04-03T15:21:02Z</time>
      </trkpt>
      <trkpt lat="44.01414" lon="3.59666">
        <ele>471.66</ele>
        <time>2016-04-03T15:21:03Z</time>
      </trkpt>
      <trkpt lat="44.01406" lon="3.5966">
        <ele>471.18</ele>
        <time>2016-04-03T15:21:04Z</time>
      </trkpt>
      <trkpt lat="44.01398" lon="3.5965">
        <ele>470.7</ele>
        <time>2016-04-03T15:21:05Z</time>
      </trkpt>
      <trkpt lat="44.01392" lon="3.59638">
        <ele>470.22</ele>
        <time>2016-04-03T15:21:06Z</time>
      </trkpt>
      <trkpt lat="44.01384" lon="3.59628">
        <ele>469.74</ele>
        <time>2016-04-03T15:21:07Z</time>
      </trkpt>
      <trkpt lat="44.01363" lon="3.59607">
        <ele>469.74</ele>
        <time>2016-04-03T15:21:09Z</time>
      </trkpt>
      <trkpt lat="44.01352" lon="3.596">
        <ele>468.78</ele>
        <time>2016-04-03T15:21:10Z</time>
      </trkpt>
      <trkpt lat="44.01314" lon="3.59563">
        <ele>468.78</ele>
        <time>2016-04-03T15:21:14Z</time>
      </trkpt>
      <trkpt lat="44.01308" lon="3.59552">
        <ele>468.3</ele>
        <time>2016-04-03T15:21:15Z</time>
      </trkpt>
      <trkpt lat="44.01301" lon="3.59542">
        <ele>468.78</ele>
        <time>2016-04-03T15:21:16Z</time>
      </trkpt>
      <trkpt lat="44.01251" lon="3.59493">
        <ele>464.45</ele>
        <time>2016-04-03T15:21:20Z</time>
      </trkpt>
      <trkpt lat="44.01235" lon="3.59483">
        <ele>463.49</ele>
        <time>2016-04-03T15:21:21Z</time>
      </trkpt>
      <trkpt lat="44.01151" lon="3.5944">
        <ele>457.24</ele>
        <time>2016-04-03T15:21:27Z</time>
      </trkpt>
      <trkpt lat="44.0114" lon="3.59438">
        <ele>456.76</ele>
        <time>2016-04-03T15:21:28Z</time>
      </trkpt>
      <trkpt lat="44.01129" lon="3.5944">
        <ele>455.8</ele>
        <time>2016-04-03T15:21:29Z</time>
      </trkpt>
      <trkpt lat="44.01118" lon="3.59444">
        <ele>455.32</ele>
        <time>2016-04-03T15:21:30Z</time>
      </trkpt>
      <trkpt lat="44.01108" lon="3.59453">
        <ele>454.84</ele>
        <time>2016-04-03T15:21:31Z</time>
      </trkpt>
      <trkpt lat="44.01099" lon="3.59465">
        <ele>454.84</ele>
        <time>2016-04-03T15:21:32Z</time>
      </trkpt>
      <trkpt lat="44.01091" lon="3.59479">
        <ele>454.36</ele>
        <time>2016-04-03T15:21:33Z</time>
      </trkpt>
      <trkpt lat="44.01085" lon="3.59492">
        <ele>453.88</ele>
        <time>2016-04-03T15:21:34Z</time>
      </trkpt>
      <trkpt lat="44.0108" lon="3.59507">
        <ele>452.92</ele>
        <time>2016-04-03T15:21:35Z</time>
      </trkpt>
      <trkpt lat="44.01077" lon="3.59521">
        <ele>452.92</ele>
        <time>2016-04-03T15:21:36Z</time>
      </trkpt>
      <trkpt lat="44.01072" lon="3.59535">
        <ele>451.96</ele>
        <time>2016-04-03T15:21:37Z</time>
      </trkpt>
      <trkpt lat="44.01067" lon="3.59546">
        <ele>451.48</ele>
        <time>2016-04-03T15:21:38Z</time>
      </trkpt>
      <trkpt lat="44.01061" lon="3.59554">
        <ele>450.52</ele>
        <time>2016-04-03T15:21:39Z</time>
      </trkpt>
      <trkpt lat="44.01055" lon="3.59553">
        <ele>449.55</ele>
        <time>2016-04-03T15:21:40Z</time>
      </trkpt>
      <trkpt lat="44.0105" lon="3.59546">
        <ele>449.07</ele>
        <time>2016-04-03T15:21:41Z</time>
      </trkpt>
      <trkpt lat="44.01042" lon="3.59538">
        <ele>449.07</ele>
        <time>2016-04-03T15:21:42Z</time>
      </trkpt>
      <trkpt lat="44.01036" lon="3.59526">
        <ele>449.55</ele>
        <time>2016-04-03T15:21:43Z</time>
      </trkpt>
      <trkpt lat="44.01028" lon="3.59509">
        <ele>451</ele>
        <time>2016-04-03T15:21:44Z</time>
      </trkpt>
      <trkpt lat="44.01022" lon="3.59494">
        <ele>451</ele>
        <time>2016-04-03T15:21:45Z</time>
      </trkpt>
      <trkpt lat="44.01006" lon="3.59466">
        <ele>447.63</ele>
        <time>2016-04-03T15:21:47Z</time>
      </trkpt>
      <trkpt lat="44.00998" lon="3.59455">
        <ele>446.19</ele>
        <time>2016-04-03T15:21:48Z</time>
      </trkpt>
      <trkpt lat="44.00987" lon="3.59445">
        <ele>446.19</ele>
        <time>2016-04-03T15:21:49Z</time>
      </trkpt>
      <trkpt lat="44.00972" lon="3.59444">
        <ele>446.67</ele>
        <time>2016-04-03T15:21:50Z</time>
      </trkpt>
      <trkpt lat="44.00957" lon="3.59444">
        <ele>445.23</ele>
        <time>2016-04-03T15:21:51Z</time>
      </trkpt>
      <trkpt lat="44.0094" lon="3.59443">
        <ele>444.27</ele>
        <time>2016-04-03T15:21:52Z</time>
      </trkpt>
      <trkpt lat="44.00922" lon="3.59439">
        <ele>443.31</ele>
        <time>2016-04-03T15:21:53Z</time>
      </trkpt>
      <trkpt lat="44.00903" lon="3.59433">
        <ele>442.34</ele>
        <time>2016-04-03T15:21:54Z</time>
      </trkpt>
      <trkpt lat="44.00884" lon="3.59426">
        <ele>441.38</ele>
        <time>2016-04-03T15:21:55Z</time>
      </trkpt>
      <trkpt lat="44.00756" lon="3.59368">
        <ele>434.65</ele>
        <time>2016-04-03T15:22:03Z</time>
      </trkpt>
      <trkpt lat="44.00746" lon="3.59364">
        <ele>434.17</ele>
        <time>2016-04-03T15:22:04Z</time>
      </trkpt>
      <trkpt lat="44.00735" lon="3.59364">
        <ele>433.69</ele>
        <time>2016-04-03T15:22:05Z</time>
      </trkpt>
      <trkpt lat="44.00725" lon="3.59368">
        <ele>433.21</ele>
        <time>2016-04-03T15:22:06Z</time>
      </trkpt>
      <trkpt lat="44.00714" lon="3.59377">
        <ele>433.21</ele>
        <time>2016-04-03T15:22:07Z</time>
      </trkpt>
      <trkpt lat="44.00705" lon="3.5939">
        <ele>433.21</ele>
        <time>2016-04-03T15:22:08Z</time>
      </trkpt>
      <trkpt lat="44.00698" lon="3.59402">
        <ele>432.25</ele>
        <time>2016-04-03T15:22:09Z</time>
      </trkpt>
      <trkpt lat="44.00696" lon="3.59418">
        <ele>432.25</ele>
        <time>2016-04-03T15:22:10Z</time>
      </trkpt>
      <trkpt lat="44.00696" lon="3.59436">
        <ele>432.25</ele>
        <time>2016-04-03T15:22:11Z</time>
      </trkpt>
      <trkpt lat="44.00698" lon="3.59457">
        <ele>431.77</ele>
        <time>2016-04-03T15:22:12Z</time>
      </trkpt>
      <trkpt lat="44.00698" lon="3.59475">
        <ele>431.29</ele>
        <time>2016-04-03T15:22:13Z</time>
      </trkpt>
      <trkpt lat="44.00694" lon="3.59539">
        <ele>428.4</ele>
        <time>2016-04-03T15:22:17Z</time>
      </trkpt>
      <trkpt lat="44.0069" lon="3.59551">
        <ele>427.92</ele>
        <time>2016-04-03T15:22:18Z</time>
      </trkpt>
      <trkpt lat="44.00685" lon="3.59561">
        <ele>427.44</ele>
        <time>2016-04-03T15:22:19Z</time>
      </trkpt>
      <trkpt lat="44.00677" lon="3.59566">
        <ele>426.48</ele>
        <time>2016-04-03T15:22:20Z</time>
      </trkpt>
      <trkpt lat="44.00667" lon="3.59564">
        <ele>425.52</ele>
        <time>2016-04-03T15:22:21Z</time>
      </trkpt>
      <trkpt lat="44.00657" lon="3.59553">
        <ele>424.56</ele>
        <time>2016-04-03T15:22:22Z</time>
      </trkpt>
      <trkpt lat="44.0065" lon="3.59537">
        <ele>424.08</ele>
        <time>2016-04-03T15:22:23Z</time>
      </trkpt>
      <trkpt lat="44.00643" lon="3.5952">
        <ele>423.6</ele>
        <time>2016-04-03T15:22:24Z</time>
      </trkpt>
      <trkpt lat="44.00633" lon="3.595">
        <ele>423.12</ele>
        <time>2016-04-03T15:22:25Z</time>
      </trkpt>
      <trkpt lat="44.00623" lon="3.59481">
        <ele>422.64</ele>
        <time>2016-04-03T15:22:26Z</time>
      </trkpt>
      <trkpt lat="44.00607" lon="3.59447">
        <ele>421.68</ele>
        <time>2016-04-03T15:22:28Z</time>
      </trkpt>
      <trkpt lat="44.00602" lon="3.59429">
        <ele>421.19</ele>
        <time>2016-04-03T15:22:29Z</time>
      </trkpt>
      <trkpt lat="44.00599" lon="3.59411">
        <ele>419.75</ele>
        <time>2016-04-03T15:22:30Z</time>
      </trkpt>
      <trkpt lat="44.00592" lon="3.59334">
        <ele>417.35</ele>
        <time>2016-04-03T15:22:34Z</time>
      </trkpt>
      <trkpt lat="44.00593" lon="3.59316">
        <ele>416.87</ele>
        <time>2016-04-03T15:22:35Z</time>
      </trkpt>
      <trkpt lat="44.00596" lon="3.59299">
        <ele>416.87</ele>
        <time>2016-04-03T15:22:36Z</time>
      </trkpt>
      <trkpt lat="44.00601" lon="3.59268">
        <ele>416.39</ele>
        <time>2016-04-03T15:22:38Z</time>
      </trkpt>
      <trkpt lat="44.00602" lon="3.59252">
        <ele>415.91</ele>
        <time>2016-04-03T15:22:39Z</time>
      </trkpt>
      <trkpt lat="44.006" lon="3.59237">
        <ele>415.43</ele>
        <time>2016-04-03T15:22:40Z</time>
      </trkpt>
      <trkpt lat="44.00594" lon="3.59223">
        <ele>413.5</ele>
        <time>2016-04-03T15:22:41Z</time>
      </trkpt>
      <trkpt lat="44.00585" lon="3.59211">
        <ele>412.06</ele>
        <time>2016-04-03T15:22:42Z</time>
      </trkpt>
      <trkpt lat="44.00575" lon="3.59201">
        <ele>411.1</ele>
        <time>2016-04-03T15:22:43Z</time>
      </trkpt>
      <trkpt lat="44.00561" lon="3.59197">
        <ele>410.62</ele>
        <time>2016-04-03T15:22:44Z</time>
      </trkpt>
      <trkpt lat="44.00548" lon="3.59199">
        <ele>410.14</ele>
        <time>2016-04-03T15:22:45Z</time>
      </trkpt>
      <trkpt lat="44.00536" lon="3.59203">
        <ele>409.66</ele>
        <time>2016-04-03T15:22:46Z</time>
      </trkpt>
      <trkpt lat="44.00525" lon="3.5921">
        <ele>408.7</ele>
        <time>2016-04-03T15:22:47Z</time>
      </trkpt>
      <trkpt lat="44.00515" lon="3.59215">
        <ele>408.22</ele>
        <time>2016-04-03T15:22:48Z</time>
      </trkpt>
      <trkpt lat="44.00504" lon="3.59217">
        <ele>407.26</ele>
        <time>2016-04-03T15:22:49Z</time>
      </trkpt>
      <trkpt lat="44.00493" lon="3.59215">
        <ele>406.77</ele>
        <time>2016-04-03T15:22:50Z</time>
      </trkpt>
      <trkpt lat="44.00483" lon="3.59211">
        <ele>405.33</ele>
        <time>2016-04-03T15:22:51Z</time>
      </trkpt>
      <trkpt lat="44.00471" lon="3.59208">
        <ele>404.85</ele>
        <time>2016-04-03T15:22:52Z</time>
      </trkpt>
      <trkpt lat="44.0046" lon="3.5921">
        <ele>404.37</ele>
        <time>2016-04-03T15:22:53Z</time>
      </trkpt>
      <trkpt lat="44.00449" lon="3.59215">
        <ele>403.89</ele>
        <time>2016-04-03T15:22:54Z</time>
      </trkpt>
      <trkpt lat="44.00438" lon="3.59218">
        <ele>403.41</ele>
        <time>2016-04-03T15:22:55Z</time>
      </trkpt>
      <trkpt lat="44.00428" lon="3.59218">
        <ele>402.45</ele>
        <time>2016-04-03T15:22:56Z</time>
      </trkpt>
      <trkpt lat="44.00418" lon="3.59215">
        <ele>401.97</ele>
        <time>2016-04-03T15:22:57Z</time>
      </trkpt>
      <trkpt lat="44.00408" lon="3.59209">
        <ele>401.49</ele>
        <time>2016-04-03T15:22:58Z</time>
      </trkpt>
      <trkpt lat="44.00398" lon="3.592">
        <ele>400.53</ele>
        <time>2016-04-03T15:22:59Z</time>
      </trkpt>
      <trkpt lat="44.00384" lon="3.5919">
        <ele>401.97</ele>
        <time>2016-04-03T15:23:00Z</time>
      </trkpt>
      <trkpt lat="44.00371" lon="3.59185">
        <ele>400.53</ele>
        <time>2016-04-03T15:23:01Z</time>
      </trkpt>
      <trkpt lat="44.00358" lon="3.59183">
        <ele>399.57</ele>
        <time>2016-04-03T15:23:02Z</time>
      </trkpt>
      <trkpt lat="44.00347" lon="3.5918">
        <ele>397.64</ele>
        <time>2016-04-03T15:23:03Z</time>
      </trkpt>
      <trkpt lat="44.00337" lon="3.59175">
        <ele>396.68</ele>
        <time>2016-04-03T15:23:04Z</time>
      </trkpt>
      <trkpt lat="44.00329" lon="3.59164">
        <ele>395.72</ele>
        <time>2016-04-03T15:23:05Z</time>
      </trkpt>
      <trkpt lat="44.00327" lon="3.59149">
        <ele>395.24</ele>
        <time>2016-04-03T15:23:06Z</time>
      </trkpt>
      <trkpt lat="44.00318" lon="3.59132">
        <ele>396.68</ele>
        <time>2016-04-03T15:23:07Z</time>
      </trkpt>
      <trkpt lat="44.00313" lon="3.5912">
        <ele>395.72</ele>
        <time>2016-04-03T15:23:08Z</time>
      </trkpt>
      <trkpt lat="44.00305" lon="3.5911">
        <ele>394.76</ele>
        <time>2016-04-03T15:23:09Z</time>
      </trkpt>
      <trkpt lat="44.00295" lon="3.591">
        <ele>395.24</ele>
        <time>2016-04-03T15:23:10Z</time>
      </trkpt>
      <trkpt lat="44.00283" lon="3.59093">
        <ele>394.28</ele>
        <time>2016-04-03T15:23:11Z</time>
      </trkpt>
      <trkpt lat="44.00271" lon="3.59085">
        <ele>392.84</ele>
        <time>2016-04-03T15:23:12Z</time>
      </trkpt>
      <trkpt lat="44.00167" lon="3.59026">
        <ele>387.07</ele>
        <time>2016-04-03T15:23:20Z</time>
      </trkpt>
      <trkpt lat="44.00155" lon="3.59021">
        <ele>386.59</ele>
        <time>2016-04-03T15:23:21Z</time>
      </trkpt>
      <trkpt lat="44.00144" lon="3.59019">
        <ele>386.11</ele>
        <time>2016-04-03T15:23:22Z</time>
      </trkpt>
      <trkpt lat="44.00133" lon="3.5902">
        <ele>386.11</ele>
        <time>2016-04-03T15:23:23Z</time>
      </trkpt>
      <trkpt lat="44.00113" lon="3.59023">
        <ele>385.15</ele>
        <time>2016-04-03T15:23:25Z</time>
      </trkpt>
      <trkpt lat="44.00104" lon="3.5902">
        <ele>384.66</ele>
        <time>2016-04-03T15:23:26Z</time>
      </trkpt>
      <trkpt lat="44.00095" lon="3.59012">
        <ele>384.18</ele>
        <time>2016-04-03T15:23:27Z</time>
      </trkpt>
      <trkpt lat="44.00086" lon="3.59001">
        <ele>383.7</ele>
        <time>2016-04-03T15:23:28Z</time>
      </trkpt>
      <trkpt lat="44.00077" lon="3.5899">
        <ele>383.7</ele>
        <time>2016-04-03T15:23:29Z</time>
      </trkpt>
      <trkpt lat="44.00068" lon="3.58977">
        <ele>384.66</ele>
        <time>2016-04-03T15:23:30Z</time>
      </trkpt>
      <trkpt lat="44.0006" lon="3.58966">
        <ele>384.18</ele>
        <time>2016-04-03T15:23:31Z</time>
      </trkpt>
      <trkpt lat="44.00046" lon="3.58944">
        <ele>383.7</ele>
        <time>2016-04-03T15:23:33Z</time>
      </trkpt>
      <trkpt lat="44.00038" lon="3.58936">
        <ele>382.74</ele>
        <time>2016-04-03T15:23:34Z</time>
      </trkpt>
      <trkpt lat="44.00027" lon="3.58932">
        <ele>382.26</ele>
        <time>2016-04-03T15:23:35Z</time>
      </trkpt>
      <trkpt lat="44.00015" lon="3.5893">
        <ele>381.78</ele>
        <time>2016-04-03T15:23:36Z</time>
      </trkpt>
      <trkpt lat="44.00003" lon="3.58928">
        <ele>380.82</ele>
        <time>2016-04-03T15:23:37Z</time>
      </trkpt>
      <trkpt lat="43.99978" lon="3.58919">
        <ele>379.38</ele>
        <time>2016-04-03T15:23:39Z</time>
      </trkpt>
      <trkpt lat="43.99966" lon="3.58912">
        <ele>378.9</ele>
        <time>2016-04-03T15:23:40Z</time>
      </trkpt>
      <trkpt lat="43.99944" lon="3.58898">
        <ele>377.45</ele>
        <time>2016-04-03T15:23:42Z</time>
      </trkpt>
      <trkpt lat="43.99932" lon="3.58893">
        <ele>376.49</ele>
        <time>2016-04-03T15:23:43Z</time>
      </trkpt>
      <trkpt lat="43.9992" lon="3.58891">
        <ele>375.53</ele>
        <time>2016-04-03T15:23:44Z</time>
      </trkpt>
      <trkpt lat="43.99906" lon="3.58893">
        <ele>375.05</ele>
        <time>2016-04-03T15:23:45Z</time>
      </trkpt>
      <trkpt lat="43.99892" lon="3.58897">
        <ele>374.09</ele>
        <time>2016-04-03T15:23:46Z</time>
      </trkpt>
      <trkpt lat="43.99877" lon="3.58902">
        <ele>373.13</ele>
        <time>2016-04-03T15:23:47Z</time>
      </trkpt>
      <trkpt lat="43.99786" lon="3.58941">
        <ele>367.84</ele>
        <time>2016-04-03T15:23:55Z</time>
      </trkpt>
      <trkpt lat="43.99777" lon="3.58947">
        <ele>366.88</ele>
        <time>2016-04-03T15:23:56Z</time>
      </trkpt>
      <trkpt lat="43.99768" lon="3.58954">
        <ele>366.4</ele>
        <time>2016-04-03T15:23:57Z</time>
      </trkpt>
      <trkpt lat="43.99758" lon="3.58964">
        <ele>366.4</ele>
        <time>2016-04-03T15:23:58Z</time>
      </trkpt>
      <trkpt lat="43.99748" lon="3.58973">
        <ele>366.4</ele>
        <time>2016-04-03T15:23:59Z</time>
      </trkpt>
      <trkpt lat="43.99737" lon="3.5898">
        <ele>365.92</ele>
        <time>2016-04-03T15:24:00Z</time>
      </trkpt>
      <trkpt lat="43.99725" lon="3.58982">
        <ele>365.44</ele>
        <time>2016-04-03T15:24:01Z</time>
      </trkpt>
      <trkpt lat="43.99713" lon="3.58981">
        <ele>364.48</ele>
        <time>2016-04-03T15:24:02Z</time>
      </trkpt>
      <trkpt lat="43.99699" lon="3.58982">
        <ele>364</ele>
        <time>2016-04-03T15:24:03Z</time>
      </trkpt>
      <trkpt lat="43.99687" lon="3.58984">
        <ele>363.04</ele>
        <time>2016-04-03T15:24:04Z</time>
      </trkpt>
      <trkpt lat="43.99673" lon="3.58985">
        <ele>362.55</ele>
        <time>2016-04-03T15:24:05Z</time>
      </trkpt>
      <trkpt lat="43.9966" lon="3.58983">
        <ele>363.04</ele>
        <time>2016-04-03T15:24:06Z</time>
      </trkpt>
      <trkpt lat="43.99634" lon="3.58977">
        <ele>361.59</ele>
        <time>2016-04-03T15:24:08Z</time>
      </trkpt>
      <trkpt lat="43.9962" lon="3.58978">
        <ele>360.63</ele>
        <time>2016-04-03T15:24:09Z</time>
      </trkpt>
      <trkpt lat="43.9949" lon="3.59016">
        <ele>352.94</ele>
        <time>2016-04-03T15:24:18Z</time>
      </trkpt>
      <trkpt lat="43.99476" lon="3.59018">
        <ele>352.46</ele>
        <time>2016-04-03T15:24:19Z</time>
      </trkpt>
      <trkpt lat="43.99462" lon="3.59018">
        <ele>351.5</ele>
        <time>2016-04-03T15:24:20Z</time>
      </trkpt>
      <trkpt lat="43.99329" lon="3.59023">
        <ele>342.85</ele>
        <time>2016-04-03T15:24:29Z</time>
      </trkpt>
      <trkpt lat="43.99281" lon="3.59028">
        <ele>340.92</ele>
        <time>2016-04-03T15:24:32Z</time>
      </trkpt>
      <trkpt lat="43.99265" lon="3.59026">
        <ele>340.44</ele>
        <time>2016-04-03T15:24:33Z</time>
      </trkpt>
      <trkpt lat="43.99249" lon="3.59019">
        <ele>339.48</ele>
        <time>2016-04-03T15:24:34Z</time>
      </trkpt>
      <trkpt lat="43.99233" lon="3.59013">
        <ele>339</ele>
        <time>2016-04-03T15:24:35Z</time>
      </trkpt>
      <trkpt lat="43.99216" lon="3.59009">
        <ele>338.04</ele>
        <time>2016-04-03T15:24:36Z</time>
      </trkpt>
      <trkpt lat="43.99199" lon="3.59007">
        <ele>337.08</ele>
        <time>2016-04-03T15:24:37Z</time>
      </trkpt>
      <trkpt lat="43.99024" lon="3.5901">
        <ele>328.43</ele>
        <time>2016-04-03T15:24:47Z</time>
      </trkpt>
      <trkpt lat="43.98973" lon="3.58998">
        <ele>326.02</ele>
        <time>2016-04-03T15:24:50Z</time>
      </trkpt>
      <trkpt lat="43.98958" lon="3.58989">
        <ele>325.06</ele>
        <time>2016-04-03T15:24:51Z</time>
      </trkpt>
      <trkpt lat="43.98926" lon="3.58972">
        <ele>323.62</ele>
        <time>2016-04-03T15:24:53Z</time>
      </trkpt>
      <trkpt lat="43.9891" lon="3.58968">
        <ele>322.66</ele>
        <time>2016-04-03T15:24:54Z</time>
      </trkpt>
      <trkpt lat="43.98862" lon="3.58953">
        <ele>319.3</ele>
        <time>2016-04-03T15:24:57Z</time>
      </trkpt>
      <trkpt lat="43.98846" lon="3.58942">
        <ele>318.33</ele>
        <time>2016-04-03T15:24:58Z</time>
      </trkpt>
      <trkpt lat="43.98757" lon="3.58875">
        <ele>314.97</ele>
        <time>2016-04-03T15:25:04Z</time>
      </trkpt>
      <trkpt lat="43.98741" lon="3.58868">
        <ele>315.45</ele>
        <time>2016-04-03T15:25:05Z</time>
      </trkpt>
      <trkpt lat="43.98712" lon="3.58858">
        <ele>313.53</ele>
        <time>2016-04-03T15:25:07Z</time>
      </trkpt>
      <trkpt lat="43.98701" lon="3.5885">
        <ele>311.12</ele>
        <time>2016-04-03T15:25:08Z</time>
      </trkpt>
      <trkpt lat="43.98691" lon="3.58834">
        <ele>309.68</ele>
        <time>2016-04-03T15:25:09Z</time>
      </trkpt>
      <trkpt lat="43.98681" lon="3.58814">
        <ele>309.2</ele>
        <time>2016-04-03T15:25:10Z</time>
      </trkpt>
      <trkpt lat="43.98672" lon="3.58792">
        <ele>308.72</ele>
        <time>2016-04-03T15:25:11Z</time>
      </trkpt>
      <trkpt lat="43.98665" lon="3.58767">
        <ele>308.72</ele>
        <time>2016-04-03T15:25:12Z</time>
      </trkpt>
      <trkpt lat="43.98657" lon="3.58746">
        <ele>307.76</ele>
        <time>2016-04-03T15:25:13Z</time>
      </trkpt>
      <trkpt lat="43.98649" lon="3.58731">
        <ele>306.8</ele>
        <time>2016-04-03T15:25:14Z</time>
      </trkpt>
      <trkpt lat="43.98636" lon="3.58718">
        <ele>304.88</ele>
        <time>2016-04-03T15:25:15Z</time>
      </trkpt>
      <trkpt lat="43.98622" lon="3.58707">
        <ele>304.39</ele>
        <time>2016-04-03T15:25:16Z</time>
      </trkpt>
      <trkpt lat="43.98608" lon="3.58697">
        <ele>303.43</ele>
        <time>2016-04-03T15:25:17Z</time>
      </trkpt>
      <trkpt lat="43.98548" lon="3.58663">
        <ele>299.59</ele>
        <time>2016-04-03T15:25:21Z</time>
      </trkpt>
      <trkpt lat="43.98533" lon="3.58659">
        <ele>299.11</ele>
        <time>2016-04-03T15:25:22Z</time>
      </trkpt>
      <trkpt lat="43.98428" lon="3.58642">
        <ele>293.82</ele>
        <time>2016-04-03T15:25:29Z</time>
      </trkpt>
      <trkpt lat="43.98412" lon="3.58644">
        <ele>292.86</ele>
        <time>2016-04-03T15:25:30Z</time>
      </trkpt>
      <trkpt lat="43.98396" lon="3.58649">
        <ele>292.38</ele>
        <time>2016-04-03T15:25:31Z</time>
      </trkpt>
      <trkpt lat="43.98381" lon="3.58655">
        <ele>290.94</ele>
        <time>2016-04-03T15:25:32Z</time>
      </trkpt>
      <trkpt lat="43.98367" lon="3.58661">
        <ele>290.46</ele>
        <time>2016-04-03T15:25:33Z</time>
      </trkpt>
      <trkpt lat="43.98339" lon="3.58671">
        <ele>289.01</ele>
        <time>2016-04-03T15:25:35Z</time>
      </trkpt>
      <trkpt lat="43.98325" lon="3.58669">
        <ele>288.05</ele>
        <time>2016-04-03T15:25:36Z</time>
      </trkpt>
      <trkpt lat="43.98313" lon="3.58661">
        <ele>287.09</ele>
        <time>2016-04-03T15:25:37Z</time>
      </trkpt>
      <trkpt lat="43.98299" lon="3.58647">
        <ele>286.61</ele>
        <time>2016-04-03T15:25:38Z</time>
      </trkpt>
      <trkpt lat="43.98287" lon="3.58633">
        <ele>286.13</ele>
        <time>2016-04-03T15:25:39Z</time>
      </trkpt>
      <trkpt lat="43.98277" lon="3.58615">
        <ele>285.17</ele>
        <time>2016-04-03T15:25:40Z</time>
      </trkpt>
      <trkpt lat="43.9827" lon="3.58594">
        <ele>284.69</ele>
        <time>2016-04-03T15:25:41Z</time>
      </trkpt>
      <trkpt lat="43.98262" lon="3.58571">
        <ele>284.69</ele>
        <time>2016-04-03T15:25:42Z</time>
      </trkpt>
      <trkpt lat="43.98257" lon="3.5855">
        <ele>283.73</ele>
        <time>2016-04-03T15:25:43Z</time>
      </trkpt>
      <trkpt lat="43.98251" lon="3.5853">
        <ele>284.21</ele>
        <time>2016-04-03T15:25:44Z</time>
      </trkpt>
      <trkpt lat="43.98244" lon="3.58513">
        <ele>283.25</ele>
        <time>2016-04-03T15:25:45Z</time>
      </trkpt>
      <trkpt lat="43.98233" lon="3.58503">
        <ele>282.77</ele>
        <time>2016-04-03T15:25:46Z</time>
      </trkpt>
      <trkpt lat="43.98222" lon="3.58491">
        <ele>281.8</ele>
        <time>2016-04-03T15:25:47Z</time>
      </trkpt>
      <trkpt lat="43.98208" lon="3.58486">
        <ele>281.8</ele>
        <time>2016-04-03T15:25:48Z</time>
      </trkpt>
      <trkpt lat="43.98192" lon="3.58488">
        <ele>282.28</ele>
        <time>2016-04-03T15:25:49Z</time>
      </trkpt>
      <trkpt lat="43.98178" lon="3.58493">
        <ele>281.8</ele>
        <time>2016-04-03T15:25:50Z</time>
      </trkpt>
      <trkpt lat="43.98164" lon="3.585">
        <ele>281.32</ele>
        <time>2016-04-03T15:25:51Z</time>
      </trkpt>
      <trkpt lat="43.9815" lon="3.5851">
        <ele>280.84</ele>
        <time>2016-04-03T15:25:52Z</time>
      </trkpt>
      <trkpt lat="43.98136" lon="3.58521">
        <ele>280.36</ele>
        <time>2016-04-03T15:25:53Z</time>
      </trkpt>
      <trkpt lat="43.98123" lon="3.58533">
        <ele>280.36</ele>
        <time>2016-04-03T15:25:54Z</time>
      </trkpt>
      <trkpt lat="43.98111" lon="3.58547">
        <ele>279.88</ele>
        <time>2016-04-03T15:25:55Z</time>
      </trkpt>
      <trkpt lat="43.98102" lon="3.58563">
        <ele>279.88</ele>
        <time>2016-04-03T15:25:56Z</time>
      </trkpt>
      <trkpt lat="43.98048" lon="3.58635">
        <ele>277.96</ele>
        <time>2016-04-03T15:26:02Z</time>
      </trkpt>
      <trkpt lat="43.98038" lon="3.58643">
        <ele>277.96</ele>
        <time>2016-04-03T15:26:03Z</time>
      </trkpt>
      <trkpt lat="43.98028" lon="3.58649">
        <ele>277.48</ele>
        <time>2016-04-03T15:26:04Z</time>
      </trkpt>
      <trkpt lat="43.98015" lon="3.58652">
        <ele>278.44</ele>
        <time>2016-04-03T15:26:05Z</time>
      </trkpt>
      <trkpt lat="43.98001" lon="3.58654">
        <ele>277.96</ele>
        <time>2016-04-03T15:26:06Z</time>
      </trkpt>
      <trkpt lat="43.97987" lon="3.58656">
        <ele>277.48</ele>
        <time>2016-04-03T15:26:07Z</time>
      </trkpt>
      <trkpt lat="43.97973" lon="3.58661">
        <ele>277</ele>
        <time>2016-04-03T15:26:08Z</time>
      </trkpt>
      <trkpt lat="43.97959" lon="3.58668">
        <ele>276.04</ele>
        <time>2016-04-03T15:26:09Z</time>
      </trkpt>
      <trkpt lat="43.97946" lon="3.58677">
        <ele>275.07</ele>
        <time>2016-04-03T15:26:10Z</time>
      </trkpt>
      <trkpt lat="43.97933" lon="3.58689">
        <ele>273.63</ele>
        <time>2016-04-03T15:26:11Z</time>
      </trkpt>
      <trkpt lat="43.97922" lon="3.58703">
        <ele>272.67</ele>
        <time>2016-04-03T15:26:12Z</time>
      </trkpt>
      <trkpt lat="43.97913" lon="3.58719">
        <ele>272.19</ele>
        <time>2016-04-03T15:26:13Z</time>
      </trkpt>
      <trkpt lat="43.97906" lon="3.58738">
        <ele>271.23</ele>
        <time>2016-04-03T15:26:14Z</time>
      </trkpt>
      <trkpt lat="43.97898" lon="3.58756">
        <ele>270.75</ele>
        <time>2016-04-03T15:26:15Z</time>
      </trkpt>
      <trkpt lat="43.97868" lon="3.588">
        <ele>268.83</ele>
        <time>2016-04-03T15:26:18Z</time>
      </trkpt>
      <trkpt lat="43.97856" lon="3.58811">
        <ele>267.86</ele>
        <time>2016-04-03T15:26:19Z</time>
      </trkpt>
      <trkpt lat="43.97741" lon="3.58941">
        <ele>261.62</ele>
        <time>2016-04-03T15:26:29Z</time>
      </trkpt>
      <trkpt lat="43.97703" lon="3.58975">
        <ele>259.69</ele>
        <time>2016-04-03T15:26:32Z</time>
      </trkpt>
      <trkpt lat="43.97688" lon="3.58983">
        <ele>259.21</ele>
        <time>2016-04-03T15:26:33Z</time>
      </trkpt>
      <trkpt lat="43.97672" lon="3.58988">
        <ele>257.77</ele>
        <time>2016-04-03T15:26:34Z</time>
      </trkpt>
      <trkpt lat="43.97655" lon="3.5899">
        <ele>257.29</ele>
        <time>2016-04-03T15:26:35Z</time>
      </trkpt>
      <trkpt lat="43.97639" lon="3.58991">
        <ele>256.33</ele>
        <time>2016-04-03T15:26:36Z</time>
      </trkpt>
      <trkpt lat="43.97594" lon="3.58995">
        <ele>253.93</ele>
        <time>2016-04-03T15:26:39Z</time>
      </trkpt>
      <trkpt lat="43.97581" lon="3.59001">
        <ele>253.44</ele>
        <time>2016-04-03T15:26:40Z</time>
      </trkpt>
      <trkpt lat="43.9757" lon="3.5901">
        <ele>252.48</ele>
        <time>2016-04-03T15:26:41Z</time>
      </trkpt>
      <trkpt lat="43.97563" lon="3.59024">
        <ele>251.52</ele>
        <time>2016-04-03T15:26:42Z</time>
      </trkpt>
      <trkpt lat="43.97561" lon="3.59044">
        <ele>250.56</ele>
        <time>2016-04-03T15:26:43Z</time>
      </trkpt>
      <trkpt lat="43.97557" lon="3.59062">
        <ele>250.08</ele>
        <time>2016-04-03T15:26:44Z</time>
      </trkpt>
      <trkpt lat="43.97558" lon="3.59084">
        <ele>250.56</ele>
        <time>2016-04-03T15:26:45Z</time>
      </trkpt>
      <trkpt lat="43.97555" lon="3.59104">
        <ele>250.08</ele>
        <time>2016-04-03T15:26:46Z</time>
      </trkpt>
      <trkpt lat="43.9755" lon="3.59125">
        <ele>250.56</ele>
        <time>2016-04-03T15:26:47Z</time>
      </trkpt>
      <trkpt lat="43.97537" lon="3.59146">
        <ele>249.6</ele>
        <time>2016-04-03T15:26:48Z</time>
      </trkpt>
      <trkpt lat="43.97519" lon="3.59169">
        <ele>248.64</ele>
        <time>2016-04-03T15:26:49Z</time>
      </trkpt>
      <trkpt lat="43.975" lon="3.59184">
        <ele>249.12</ele>
        <time>2016-04-03T15:26:50Z</time>
      </trkpt>
      <trkpt lat="43.97483" lon="3.59196">
        <ele>247.68</ele>
        <time>2016-04-03T15:26:51Z</time>
      </trkpt>
      <trkpt lat="43.97469" lon="3.59208">
        <ele>247.2</ele>
        <time>2016-04-03T15:26:52Z</time>
      </trkpt>
      <trkpt lat="43.9746" lon="3.59218">
        <ele>246.72</ele>
        <time>2016-04-03T15:26:53Z</time>
      </trkpt>
      <trkpt lat="43.9745" lon="3.59234">
        <ele>246.72</ele>
        <time>2016-04-03T15:26:58Z</time>
      </trkpt>
      <trkpt lat="43.97449" lon="3.59242">
        <ele>249.12</ele>
        <time>2016-04-03T15:27:18Z</time>
      </trkpt>
      <trkpt lat="43.97455" lon="3.59239">
        <ele>245.27</ele>
        <time>2016-04-03T15:27:52Z</time>
      </trkpt>
      <trkpt lat="43.97454" lon="3.59235">
        <ele>215.95</ele>
        <time>2016-04-03T15:38:25Z</time>
      </trkpt>
      <trkpt lat="43.97456" lon="3.59238">
        <ele>244.79</ele>
        <time>2016-04-03T15:39:09Z</time>
      </trkpt>
      <trkpt lat="43.97449" lon="3.59238">
        <ele>248.16</ele>
        <time>2016-04-03T15:40:16Z</time>
      </trkpt>
      <trkpt lat="43.97449" lon="3.59238">
        <ele>246.23</ele>
        <time>2016-04-03T15:40:32Z</time>
      </trkpt>
      <trkpt lat="43.97449" lon="3.59253">
        <ele>246.72</ele>
        <time>2016-04-03T15:40:36Z</time>
      </trkpt>
      <trkpt lat="43.97447" lon="3.59259">
        <ele>246.72</ele>
        <time>2016-04-03T15:40:37Z</time>
      </trkpt>
      <trkpt lat="43.97442" lon="3.59264">
        <ele>246.72</ele>
        <time>2016-04-03T15:40:38Z</time>
      </trkpt>
      <trkpt lat="43.97436" lon="3.59268">
        <ele>246.23</ele>
        <time>2016-04-03T15:40:39Z</time>
      </trkpt>
      <trkpt lat="43.97425" lon="3.59266">
        <ele>246.23</ele>
        <time>2016-04-03T15:40:40Z</time>
      </trkpt>
      <trkpt lat="43.97414" lon="3.59264">
        <ele>246.23</ele>
        <time>2016-04-03T15:40:41Z</time>
      </trkpt>
      <trkpt lat="43.97404" lon="3.59262">
        <ele>246.72</ele>
        <time>2016-04-03T15:40:42Z</time>
      </trkpt>
      <trkpt lat="43.97342" lon="3.59251">
        <ele>247.2</ele>
        <time>2016-04-03T15:40:51Z</time>
      </trkpt>
      <trkpt lat="43.97336" lon="3.59251">
        <ele>247.2</ele>
        <time>2016-04-03T15:40:52Z</time>
      </trkpt>
      <trkpt lat="43.97329" lon="3.59254">
        <ele>247.2</ele>
        <time>2016-04-03T15:40:53Z</time>
      </trkpt>
      <trkpt lat="43.97324" lon="3.59258">
        <ele>247.2</ele>
        <time>2016-04-03T15:40:54Z</time>
      </trkpt>
      <trkpt lat="43.9732" lon="3.59263">
        <ele>247.2</ele>
        <time>2016-04-03T15:40:55Z</time>
      </trkpt>
      <trkpt lat="43.97318" lon="3.5927">
        <ele>247.2</ele>
        <time>2016-04-03T15:40:56Z</time>
      </trkpt>
      <trkpt lat="43.97318" lon="3.59278">
        <ele>247.2</ele>
        <time>2016-04-03T15:40:57Z</time>
      </trkpt>
      <trkpt lat="43.97319" lon="3.59286">
        <ele>247.2</ele>
        <time>2016-04-03T15:40:58Z</time>
      </trkpt>
      <trkpt lat="43.97323" lon="3.59295">
        <ele>246.72</ele>
        <time>2016-04-03T15:40:59Z</time>
      </trkpt>
      <trkpt lat="43.97329" lon="3.59301">
        <ele>246.72</ele>
        <time>2016-04-03T15:41:00Z</time>
      </trkpt>
      <trkpt lat="43.97336" lon="3.59306">
        <ele>246.23</ele>
        <time>2016-04-03T15:41:01Z</time>
      </trkpt>
      <trkpt lat="43.97344" lon="3.5931">
        <ele>245.75</ele>
        <time>2016-04-03T15:41:02Z</time>
      </trkpt>
      <trkpt lat="43.97353" lon="3.59317">
        <ele>245.27</ele>
        <time>2016-04-03T15:41:03Z</time>
      </trkpt>
      <trkpt lat="43.97363" lon="3.59327">
        <ele>245.27</ele>
        <time>2016-04-03T15:41:04Z</time>
      </trkpt>
      <trkpt lat="43.97371" lon="3.59338">
        <ele>244.79</ele>
        <time>2016-04-03T15:41:05Z</time>
      </trkpt>
      <trkpt lat="43.9738" lon="3.59349">
        <ele>244.79</ele>
        <time>2016-04-03T15:41:06Z</time>
      </trkpt>
      <trkpt lat="43.97388" lon="3.59362">
        <ele>244.31</ele>
        <time>2016-04-03T15:41:07Z</time>
      </trkpt>
      <trkpt lat="43.97396" lon="3.59375">
        <ele>244.79</ele>
        <time>2016-04-03T15:41:08Z</time>
      </trkpt>
      <trkpt lat="43.97466" lon="3.59467">
        <ele>244.31</ele>
        <time>2016-04-03T15:41:14Z</time>
      </trkpt>
      <trkpt lat="43.9763" lon="3.59616">
        <ele>240.95</ele>
        <time>2016-04-03T15:41:23Z</time>
      </trkpt>
      <trkpt lat="43.97812" lon="3.59781">
        <ele>238.54</ele>
        <time>2016-04-03T15:41:34Z</time>
      </trkpt>
      <trkpt lat="43.97972" lon="3.5993">
        <ele>236.62</ele>
        <time>2016-04-03T15:41:45Z</time>
      </trkpt>
      <trkpt lat="43.98145" lon="3.60079">
        <ele>234.22</ele>
        <time>2016-04-03T15:41:56Z</time>
      </trkpt>
      <trkpt lat="43.98299" lon="3.60226">
        <ele>232.3</ele>
        <time>2016-04-03T15:42:09Z</time>
      </trkpt>
      <trkpt lat="43.98429" lon="3.60343">
        <ele>230.85</ele>
        <time>2016-04-03T15:42:21Z</time>
      </trkpt>
      <trkpt lat="43.9854" lon="3.60422">
        <ele>229.41</ele>
        <time>2016-04-03T15:42:33Z</time>
      </trkpt>
      <trkpt lat="43.98557" lon="3.60431">
        <ele>228.93</ele>
        <time>2016-04-03T15:42:36Z</time>
      </trkpt>
      <trkpt lat="43.9856" lon="3.60434">
        <ele>228.93</ele>
        <time>2016-04-03T15:42:37Z</time>
      </trkpt>
      <trkpt lat="43.98568" lon="3.60442">
        <ele>228.45</ele>
        <time>2016-04-03T15:42:39Z</time>
      </trkpt>
      <trkpt lat="43.98573" lon="3.60444">
        <ele>228.45</ele>
        <time>2016-04-03T15:42:40Z</time>
      </trkpt>
      <trkpt lat="43.98577" lon="3.60442">
        <ele>227.97</ele>
        <time>2016-04-03T15:42:41Z</time>
      </trkpt>
      <trkpt lat="43.98582" lon="3.60437">
        <ele>227.01</ele>
        <time>2016-04-03T15:42:42Z</time>
      </trkpt>
      <trkpt lat="43.98582" lon="3.60427">
        <ele>225.09</ele>
        <time>2016-04-03T15:42:43Z</time>
      </trkpt>
      <trkpt lat="43.9858" lon="3.60414">
        <ele>224.12</ele>
        <time>2016-04-03T15:42:44Z</time>
      </trkpt>
      <trkpt lat="43.98578" lon="3.604">
        <ele>224.61</ele>
        <time>2016-04-03T15:42:45Z</time>
      </trkpt>
      <trkpt lat="43.9858" lon="3.60387">
        <ele>224.61</ele>
        <time>2016-04-03T15:42:46Z</time>
      </trkpt>
      <trkpt lat="43.98585" lon="3.60373">
        <ele>225.09</ele>
        <time>2016-04-03T15:42:47Z</time>
      </trkpt>
      <trkpt lat="43.9859" lon="3.60361">
        <ele>225.09</ele>
        <time>2016-04-03T15:42:48Z</time>
      </trkpt>
      <trkpt lat="43.98596" lon="3.60348">
        <ele>227.01</ele>
        <time>2016-04-03T15:42:49Z</time>
      </trkpt>
      <trkpt lat="43.98609" lon="3.60316">
        <ele>229.41</ele>
        <time>2016-04-03T15:42:52Z</time>
      </trkpt>
      <trkpt lat="43.98612" lon="3.60306">
        <ele>230.37</ele>
        <time>2016-04-03T15:42:53Z</time>
      </trkpt>
      <trkpt lat="43.98614" lon="3.60291">
        <ele>231.33</ele>
        <time>2016-04-03T15:42:55Z</time>
      </trkpt>
      <trkpt lat="43.98616" lon="3.60288">
        <ele>231.33</ele>
        <time>2016-04-03T15:42:56Z</time>
      </trkpt>
      <trkpt lat="43.98618" lon="3.60286">
        <ele>231.33</ele>
        <time>2016-04-03T15:42:57Z</time>
      </trkpt>
      <trkpt lat="43.9862" lon="3.60286">
        <ele>231.33</ele>
        <time>2016-04-03T15:42:58Z</time>
      </trkpt>
      <trkpt lat="43.98621" lon="3.60286">
        <ele>231.81</ele>
        <time>2016-04-03T15:42:59Z</time>
      </trkpt>
      <trkpt lat="43.98623" lon="3.60286">
        <ele>231.81</ele>
        <time>2016-04-03T15:43:00Z</time>
      </trkpt>
      <trkpt lat="43.98626" lon="3.60288">
        <ele>232.3</ele>
        <time>2016-04-03T15:43:01Z</time>
      </trkpt>
      <trkpt lat="43.98629" lon="3.60289">
        <ele>232.3</ele>
        <time>2016-04-03T15:43:02Z</time>
      </trkpt>
      <trkpt lat="43.98632" lon="3.6029">
        <ele>232.3</ele>
        <time>2016-04-03T15:43:03Z</time>
      </trkpt>
      <trkpt lat="43.98635" lon="3.60291">
        <ele>232.78</ele>
        <time>2016-04-03T15:43:04Z</time>
      </trkpt>
      <trkpt lat="43.98661" lon="3.60298">
        <ele>235.18</ele>
        <time>2016-04-03T15:43:21Z</time>
      </trkpt>
      <trkpt lat="43.98693" lon="3.60307">
        <ele>236.14</ele>
        <time>2016-04-03T15:43:35Z</time>
      </trkpt>
      <trkpt lat="43.98765" lon="3.60324">
        <ele>236.62</ele>
        <time>2016-04-03T15:43:44Z</time>
      </trkpt>
      <trkpt lat="43.9882" lon="3.60341">
        <ele>236.62</ele>
        <time>2016-04-03T15:43:50Z</time>
      </trkpt>
      <trkpt lat="43.98829" lon="3.60347">
        <ele>237.1</ele>
        <time>2016-04-03T15:43:51Z</time>
      </trkpt>
      <trkpt lat="43.98895" lon="3.604">
        <ele>238.54</ele>
        <time>2016-04-03T15:44:01Z</time>
      </trkpt>
      <trkpt lat="43.98947" lon="3.6043">
        <ele>241.43</ele>
        <time>2016-04-03T15:44:11Z</time>
      </trkpt>
      <trkpt lat="43.98981" lon="3.60443">
        <ele>242.87</ele>
        <time>2016-04-03T15:44:17Z</time>
      </trkpt>
      <trkpt lat="43.98987" lon="3.60445">
        <ele>242.39</ele>
        <time>2016-04-03T15:44:18Z</time>
      </trkpt>
      <trkpt lat="43.99017" lon="3.6046">
        <ele>239.99</ele>
        <time>2016-04-03T15:44:23Z</time>
      </trkpt>
      <trkpt lat="43.99033" lon="3.60468">
        <ele>239.99</ele>
        <time>2016-04-03T15:44:26Z</time>
      </trkpt>
      <trkpt lat="43.99049" lon="3.60478">
        <ele>241.43</ele>
        <time>2016-04-03T15:44:29Z</time>
      </trkpt>
      <trkpt lat="43.9906" lon="3.60482">
        <ele>239.99</ele>
        <time>2016-04-03T15:44:31Z</time>
      </trkpt>
      <trkpt lat="43.99071" lon="3.60494">
        <ele>236.62</ele>
        <time>2016-04-03T15:44:35Z</time>
      </trkpt>
      <trkpt lat="43.99071" lon="3.60503">
        <ele>236.62</ele>
        <time>2016-04-03T15:44:36Z</time>
      </trkpt>
      <trkpt lat="43.9907" lon="3.60512">
        <ele>237.1</ele>
        <time>2016-04-03T15:44:37Z</time>
      </trkpt>
      <trkpt lat="43.99069" lon="3.60534">
        <ele>237.1</ele>
        <time>2016-04-03T15:44:40Z</time>
      </trkpt>
      <trkpt lat="43.99068" lon="3.60541">
        <ele>236.62</ele>
        <time>2016-04-03T15:44:41Z</time>
      </trkpt>
      <trkpt lat="43.99068" lon="3.6056">
        <ele>235.18</ele>
        <time>2016-04-03T15:44:44Z</time>
      </trkpt>
      <trkpt lat="43.99072" lon="3.60581">
        <ele>232.3</ele>
        <time>2016-04-03T15:44:47Z</time>
      </trkpt>
      <trkpt lat="43.99076" lon="3.60597">
        <ele>230.37</ele>
        <time>2016-04-03T15:44:49Z</time>
      </trkpt>
      <trkpt lat="43.99095" lon="3.60651">
        <ele>227.01</ele>
        <time>2016-04-03T15:44:56Z</time>
      </trkpt>
      <trkpt lat="43.99098" lon="3.60658">
        <ele>226.53</ele>
        <time>2016-04-03T15:44:57Z</time>
      </trkpt>
      <trkpt lat="43.99108" lon="3.60668">
        <ele>227.97</ele>
        <time>2016-04-03T15:44:59Z</time>
      </trkpt>
      <trkpt lat="43.99112" lon="3.60672">
        <ele>228.45</ele>
        <time>2016-04-03T15:45:00Z</time>
      </trkpt>
      <trkpt lat="43.99115" lon="3.60675">
        <ele>228.45</ele>
        <time>2016-04-03T15:45:01Z</time>
      </trkpt>
      <trkpt lat="43.9912" lon="3.60678">
        <ele>229.89</ele>
        <time>2016-04-03T15:45:02Z</time>
      </trkpt>
      <trkpt lat="43.99124" lon="3.60682">
        <ele>231.33</ele>
        <time>2016-04-03T15:45:03Z</time>
      </trkpt>
      <trkpt lat="43.9913" lon="3.60685">
        <ele>231.33</ele>
        <time>2016-04-03T15:45:04Z</time>
      </trkpt>
      <trkpt lat="43.99137" lon="3.60688">
        <ele>231.81</ele>
        <time>2016-04-03T15:45:05Z</time>
      </trkpt>
      <trkpt lat="43.99143" lon="3.60691">
        <ele>232.3</ele>
        <time>2016-04-03T15:45:06Z</time>
      </trkpt>
      <trkpt lat="43.99144" lon="3.60695">
        <ele>231.33</ele>
        <time>2016-04-03T15:45:07Z</time>
      </trkpt>
      <trkpt lat="43.99147" lon="3.60699">
        <ele>231.33</ele>
        <time>2016-04-03T15:45:08Z</time>
      </trkpt>
      <trkpt lat="43.99151" lon="3.60701">
        <ele>231.81</ele>
        <time>2016-04-03T15:45:09Z</time>
      </trkpt>
      <trkpt lat="43.99154" lon="3.60702">
        <ele>234.7</ele>
        <time>2016-04-03T15:45:10Z</time>
      </trkpt>
      <trkpt lat="43.99158" lon="3.60704">
        <ele>236.14</ele>
        <time>2016-04-03T15:45:11Z</time>
      </trkpt>
      <trkpt lat="43.99163" lon="3.60705">
        <ele>237.58</ele>
        <time>2016-04-03T15:45:12Z</time>
      </trkpt>
      <trkpt lat="43.99167" lon="3.60704">
        <ele>239.02</ele>
        <time>2016-04-03T15:45:13Z</time>
      </trkpt>
      <trkpt lat="43.99171" lon="3.60702">
        <ele>238.54</ele>
        <time>2016-04-03T15:45:14Z</time>
      </trkpt>
      <trkpt lat="43.99171" lon="3.60699">
        <ele>238.06</ele>
        <time>2016-04-03T15:45:15Z</time>
      </trkpt>
      <trkpt lat="43.99167" lon="3.60693">
        <ele>239.02</ele>
        <time>2016-04-03T15:45:16Z</time>
      </trkpt>
      <trkpt lat="43.99165" lon="3.60691">
        <ele>237.58</ele>
        <time>2016-04-03T15:45:17Z</time>
      </trkpt>
      <trkpt lat="43.9916" lon="3.6069">
        <ele>236.14</ele>
        <time>2016-04-03T15:45:18Z</time>
      </trkpt>
      <trkpt lat="43.99155" lon="3.60688">
        <ele>235.18</ele>
        <time>2016-04-03T15:45:19Z</time>
      </trkpt>
      <trkpt lat="43.99137" lon="3.60678">
        <ele>232.78</ele>
        <time>2016-04-03T15:45:27Z</time>
      </trkpt>
      <trkpt lat="43.99132" lon="3.60676">
        <ele>232.78</ele>
        <time>2016-04-03T15:45:29Z</time>
      </trkpt>
      <trkpt lat="43.9913" lon="3.60677">
        <ele>232.3</ele>
        <time>2016-04-03T15:45:30Z</time>
      </trkpt>
      <trkpt lat="43.99122" lon="3.6068">
        <ele>231.81</ele>
        <time>2016-04-03T15:45:33Z</time>
      </trkpt>
      <trkpt lat="43.99121" lon="3.60679">
        <ele>231.81</ele>
        <time>2016-04-03T15:45:34Z</time>
      </trkpt>
      <trkpt lat="43.9912" lon="3.60677">
        <ele>231.33</ele>
        <time>2016-04-03T15:45:35Z</time>
      </trkpt>
      <trkpt lat="43.99121" lon="3.60675">
        <ele>230.37</ele>
        <time>2016-04-03T15:45:36Z</time>
      </trkpt>
      <trkpt lat="43.99122" lon="3.60671">
        <ele>228.45</ele>
        <time>2016-04-03T15:45:47Z</time>
      </trkpt>
      <trkpt lat="43.99094" lon="3.60539">
        <ele>229.89</ele>
        <time>2016-04-03T16:48:42Z</time>
      </trkpt>
      <trkpt lat="43.99092" lon="3.60501">
        <ele>229.41</ele>
        <time>2016-04-03T16:48:48Z</time>
      </trkpt>
      <trkpt lat="43.9909" lon="3.60495">
        <ele>229.89</ele>
        <time>2016-04-03T16:48:49Z</time>
      </trkpt>
      <trkpt lat="43.99087" lon="3.6049">
        <ele>229.89</ele>
        <time>2016-04-03T16:48:50Z</time>
      </trkpt>
      <trkpt lat="43.99082" lon="3.6048">
        <ele>230.37</ele>
        <time>2016-04-03T16:48:52Z</time>
      </trkpt>
      <trkpt lat="43.99081" lon="3.60473">
        <ele>230.85</ele>
        <time>2016-04-03T16:48:53Z</time>
      </trkpt>
      <trkpt lat="43.99083" lon="3.60466">
        <ele>229.89</ele>
        <time>2016-04-03T16:48:54Z</time>
      </trkpt>
      <trkpt lat="43.99084" lon="3.60439">
        <ele>233.26</ele>
        <time>2016-04-03T16:48:57Z</time>
      </trkpt>
      <trkpt lat="43.99086" lon="3.6043">
        <ele>233.74</ele>
        <time>2016-04-03T16:48:58Z</time>
      </trkpt>
      <trkpt lat="43.99094" lon="3.60386">
        <ele>237.58</ele>
        <time>2016-04-03T16:49:03Z</time>
      </trkpt>
      <trkpt lat="43.99096" lon="3.6038">
        <ele>237.58</ele>
        <time>2016-04-03T16:49:04Z</time>
      </trkpt>
      <trkpt lat="43.99098" lon="3.60377">
        <ele>237.58</ele>
        <time>2016-04-03T16:49:05Z</time>
      </trkpt>
      <trkpt lat="43.99101" lon="3.60375">
        <ele>238.06</ele>
        <time>2016-04-03T16:49:06Z</time>
      </trkpt>
      <trkpt lat="43.99104" lon="3.60375">
        <ele>239.02</ele>
        <time>2016-04-03T16:49:07Z</time>
      </trkpt>
      <trkpt lat="43.99109" lon="3.60375">
        <ele>239.51</ele>
        <time>2016-04-03T16:49:08Z</time>
      </trkpt>
      <trkpt lat="43.99115" lon="3.60379">
        <ele>239.99</ele>
        <time>2016-04-03T16:49:09Z</time>
      </trkpt>
      <trkpt lat="43.99123" lon="3.60383">
        <ele>239.99</ele>
        <time>2016-04-03T16:49:10Z</time>
      </trkpt>
      <trkpt lat="43.99219" lon="3.60438">
        <ele>239.51</ele>
        <time>2016-04-03T16:49:21Z</time>
      </trkpt>
      <trkpt lat="43.99237" lon="3.60449">
        <ele>238.54</ele>
        <time>2016-04-03T16:49:23Z</time>
      </trkpt>
      <trkpt lat="43.99244" lon="3.60458">
        <ele>238.06</ele>
        <time>2016-04-03T16:49:24Z</time>
      </trkpt>
      <trkpt lat="43.9925" lon="3.60468">
        <ele>237.1</ele>
        <time>2016-04-03T16:49:25Z</time>
      </trkpt>
      <trkpt lat="43.99253" lon="3.6048">
        <ele>236.14</ele>
        <time>2016-04-03T16:49:26Z</time>
      </trkpt>
      <trkpt lat="43.99254" lon="3.60493">
        <ele>235.18</ele>
        <time>2016-04-03T16:49:27Z</time>
      </trkpt>
      <trkpt lat="43.99255" lon="3.60507">
        <ele>234.7</ele>
        <time>2016-04-03T16:49:28Z</time>
      </trkpt>
      <trkpt lat="43.99256" lon="3.6052">
        <ele>234.22</ele>
        <time>2016-04-03T16:49:29Z</time>
      </trkpt>
      <trkpt lat="43.99257" lon="3.60685">
        <ele>231.81</ele>
        <time>2016-04-03T16:49:42Z</time>
      </trkpt>
      <trkpt lat="43.99255" lon="3.60694">
        <ele>231.33</ele>
        <time>2016-04-03T16:49:43Z</time>
      </trkpt>
      <trkpt lat="43.99252" lon="3.60701">
        <ele>231.33</ele>
        <time>2016-04-03T16:49:44Z</time>
      </trkpt>
      <trkpt lat="43.99248" lon="3.60705">
        <ele>230.37</ele>
        <time>2016-04-03T16:49:45Z</time>
      </trkpt>
      <trkpt lat="43.99243" lon="3.60707">
        <ele>230.85</ele>
        <time>2016-04-03T16:49:46Z</time>
      </trkpt>
      <trkpt lat="43.99237" lon="3.60706">
        <ele>230.37</ele>
        <time>2016-04-03T16:49:47Z</time>
      </trkpt>
      <trkpt lat="43.9923" lon="3.60703">
        <ele>232.3</ele>
        <time>2016-04-03T16:49:48Z</time>
      </trkpt>
      <trkpt lat="43.99224" lon="3.60706">
        <ele>234.7</ele>
        <time>2016-04-03T16:49:49Z</time>
      </trkpt>
      <trkpt lat="43.99175" lon="3.60705">
        <ele>247.2</ele>
        <time>2016-04-03T16:49:56Z</time>
      </trkpt>
      <trkpt lat="43.99169" lon="3.60707">
        <ele>251.04</ele>
        <time>2016-04-03T16:49:57Z</time>
      </trkpt>
      <trkpt lat="43.99161" lon="3.60713">
        <ele>252</ele>
        <time>2016-04-03T16:49:59Z</time>
      </trkpt>
      <trkpt lat="43.99157" lon="3.60718">
        <ele>252.48</ele>
        <time>2016-04-03T16:50:00Z</time>
      </trkpt>
      <trkpt lat="43.99157" lon="3.60722">
        <ele>250.56</ele>
        <time>2016-04-03T16:50:01Z</time>
      </trkpt>
      <trkpt lat="43.9916" lon="3.60724">
        <ele>247.68</ele>
        <time>2016-04-03T16:50:02Z</time>
      </trkpt>
      <trkpt lat="43.99165" lon="3.60728">
        <ele>245.27</ele>
        <time>2016-04-03T16:50:03Z</time>
      </trkpt>
      <trkpt lat="43.9917" lon="3.60733">
        <ele>242.87</ele>
        <time>2016-04-03T16:50:04Z</time>
      </trkpt>
      <trkpt lat="43.99185" lon="3.60754">
        <ele>236.14</ele>
        <time>2016-04-03T16:50:07Z</time>
      </trkpt>
      <trkpt lat="43.99226" lon="3.60878">
        <ele>224.12</ele>
        <time>2016-04-03T16:50:19Z</time>
      </trkpt>
      <trkpt lat="43.99247" lon="3.6105">
        <ele>221.24</ele>
        <time>2016-04-03T16:50:32Z</time>
      </trkpt>
      <trkpt lat="43.99242" lon="3.61103">
        <ele>222.2</ele>
        <time>2016-04-03T16:50:36Z</time>
      </trkpt>
      <trkpt lat="43.99238" lon="3.61111">
        <ele>222.2</ele>
        <time>2016-04-03T16:50:37Z</time>
      </trkpt>
      <trkpt lat="43.99232" lon="3.61117">
        <ele>222.68</ele>
        <time>2016-04-03T16:50:38Z</time>
      </trkpt>
      <trkpt lat="43.99224" lon="3.6112">
        <ele>222.68</ele>
        <time>2016-04-03T16:50:39Z</time>
      </trkpt>
      <trkpt lat="43.99216" lon="3.61122">
        <ele>223.16</ele>
        <time>2016-04-03T16:50:40Z</time>
      </trkpt>
      <trkpt lat="43.99207" lon="3.61125">
        <ele>223.16</ele>
        <time>2016-04-03T16:50:41Z</time>
      </trkpt>
      <trkpt lat="43.99201" lon="3.61133">
        <ele>223.64</ele>
        <time>2016-04-03T16:50:42Z</time>
      </trkpt>
      <trkpt lat="43.99199" lon="3.61144">
        <ele>223.64</ele>
        <time>2016-04-03T16:50:43Z</time>
      </trkpt>
      <trkpt lat="43.99198" lon="3.61157">
        <ele>224.12</ele>
        <time>2016-04-03T16:50:44Z</time>
      </trkpt>
      <trkpt lat="43.99202" lon="3.61166">
        <ele>223.64</ele>
        <time>2016-04-03T16:50:45Z</time>
      </trkpt>
      <trkpt lat="43.99206" lon="3.61177">
        <ele>223.16</ele>
        <time>2016-04-03T16:50:46Z</time>
      </trkpt>
      <trkpt lat="43.9921" lon="3.61188">
        <ele>223.16</ele>
        <time>2016-04-03T16:50:47Z</time>
      </trkpt>
      <trkpt lat="43.99213" lon="3.61202">
        <ele>222.68</ele>
        <time>2016-04-03T16:50:48Z</time>
      </trkpt>
      <trkpt lat="43.99216" lon="3.61216">
        <ele>222.68</ele>
        <time>2016-04-03T16:50:49Z</time>
      </trkpt>
      <trkpt lat="43.99226" lon="3.61394">
        <ele>221.72</ele>
        <time>2016-04-03T16:50:59Z</time>
      </trkpt>
      <trkpt lat="43.99241" lon="3.61703">
        <ele>222.2</ele>
        <time>2016-04-03T16:51:12Z</time>
      </trkpt>
      <trkpt lat="43.99239" lon="3.6175">
        <ele>222.2</ele>
        <time>2016-04-03T16:51:14Z</time>
      </trkpt>
      <trkpt lat="43.99235" lon="3.61773">
        <ele>222.68</ele>
        <time>2016-04-03T16:51:15Z</time>
      </trkpt>
      <trkpt lat="43.99231" lon="3.61795">
        <ele>222.2</ele>
        <time>2016-04-03T16:51:16Z</time>
      </trkpt>
      <trkpt lat="43.99185" lon="3.62033">
        <ele>223.16</ele>
        <time>2016-04-03T16:51:26Z</time>
      </trkpt>
      <trkpt lat="43.99187" lon="3.62359">
        <ele>224.61</ele>
        <time>2016-04-03T16:51:38Z</time>
      </trkpt>
      <trkpt lat="43.99191" lon="3.6265">
        <ele>222.68</ele>
        <time>2016-04-03T16:51:49Z</time>
      </trkpt>
      <trkpt lat="43.99191" lon="3.62667">
        <ele>221.72</ele>
        <time>2016-04-03T16:51:50Z</time>
      </trkpt>
      <trkpt lat="43.99189" lon="3.6268">
        <ele>221.24</ele>
        <time>2016-04-03T16:51:51Z</time>
      </trkpt>
      <trkpt lat="43.99183" lon="3.62691">
        <ele>220.76</ele>
        <time>2016-04-03T16:51:52Z</time>
      </trkpt>
      <trkpt lat="43.99177" lon="3.627">
        <ele>220.28</ele>
        <time>2016-04-03T16:51:53Z</time>
      </trkpt>
      <trkpt lat="43.99172" lon="3.6271">
        <ele>219.8</ele>
        <time>2016-04-03T16:51:54Z</time>
      </trkpt>
      <trkpt lat="43.99171" lon="3.62721">
        <ele>219.32</ele>
        <time>2016-04-03T16:51:55Z</time>
      </trkpt>
      <trkpt lat="43.99174" lon="3.6273">
        <ele>218.36</ele>
        <time>2016-04-03T16:51:56Z</time>
      </trkpt>
      <trkpt lat="43.9918" lon="3.62738">
        <ele>217.88</ele>
        <time>2016-04-03T16:51:57Z</time>
      </trkpt>
      <trkpt lat="43.9919" lon="3.62746">
        <ele>217.88</ele>
        <time>2016-04-03T16:51:58Z</time>
      </trkpt>
      <trkpt lat="43.99201" lon="3.62757">
        <ele>218.36</ele>
        <time>2016-04-03T16:51:59Z</time>
      </trkpt>
      <trkpt lat="43.99208" lon="3.62772">
        <ele>218.36</ele>
        <time>2016-04-03T16:52:00Z</time>
      </trkpt>
      <trkpt lat="43.99214" lon="3.62789">
        <ele>218.36</ele>
        <time>2016-04-03T16:52:01Z</time>
      </trkpt>
      <trkpt lat="43.99221" lon="3.62808">
        <ele>218.36</ele>
        <time>2016-04-03T16:52:02Z</time>
      </trkpt>
      <trkpt lat="43.99304" lon="3.63068">
        <ele>218.84</ele>
        <time>2016-04-03T16:52:15Z</time>
      </trkpt>
      <trkpt lat="43.99364" lon="3.63276">
        <ele>219.32</ele>
        <time>2016-04-03T16:52:23Z</time>
      </trkpt>
      <trkpt lat="43.99386" lon="3.63357">
        <ele>218.84</ele>
        <time>2016-04-03T16:52:26Z</time>
      </trkpt>
      <trkpt lat="43.99389" lon="3.63385">
        <ele>218.36</ele>
        <time>2016-04-03T16:52:27Z</time>
      </trkpt>
      <trkpt lat="43.99389" lon="3.63414">
        <ele>218.36</ele>
        <time>2016-04-03T16:52:28Z</time>
      </trkpt>
      <trkpt lat="43.99386" lon="3.63443">
        <ele>218.84</ele>
        <time>2016-04-03T16:52:29Z</time>
      </trkpt>
      <trkpt lat="43.99382" lon="3.63474">
        <ele>218.36</ele>
        <time>2016-04-03T16:52:30Z</time>
      </trkpt>
      <trkpt lat="43.99377" lon="3.63504">
        <ele>218.36</ele>
        <time>2016-04-03T16:52:31Z</time>
      </trkpt>
      <trkpt lat="43.99347" lon="3.63715">
        <ele>217.4</ele>
        <time>2016-04-03T16:52:39Z</time>
      </trkpt>
      <trkpt lat="43.99347" lon="3.63739">
        <ele>217.4</ele>
        <time>2016-04-03T16:52:40Z</time>
      </trkpt>
      <trkpt lat="43.99349" lon="3.63764">
        <ele>217.4</ele>
        <time>2016-04-03T16:52:41Z</time>
      </trkpt>
      <trkpt lat="43.99352" lon="3.63788">
        <ele>217.4</ele>
        <time>2016-04-03T16:52:42Z</time>
      </trkpt>
      <trkpt lat="43.99356" lon="3.63811">
        <ele>216.91</ele>
        <time>2016-04-03T16:52:43Z</time>
      </trkpt>
      <trkpt lat="43.99363" lon="3.63833">
        <ele>216.91</ele>
        <time>2016-04-03T16:52:44Z</time>
      </trkpt>
      <trkpt lat="43.9937" lon="3.63856">
        <ele>216.91</ele>
        <time>2016-04-03T16:52:45Z</time>
      </trkpt>
      <trkpt lat="43.99419" lon="3.6399">
        <ele>215.47</ele>
        <time>2016-04-03T16:52:52Z</time>
      </trkpt>
      <trkpt lat="43.9944" lon="3.64009">
        <ele>214.51</ele>
        <time>2016-04-03T16:52:54Z</time>
      </trkpt>
      <trkpt lat="43.99455" lon="3.6401">
        <ele>214.03</ele>
        <time>2016-04-03T16:52:55Z</time>
      </trkpt>
      <trkpt lat="43.99469" lon="3.64005">
        <ele>213.55</ele>
        <time>2016-04-03T16:52:56Z</time>
      </trkpt>
      <trkpt lat="43.99484" lon="3.64003">
        <ele>213.55</ele>
        <time>2016-04-03T16:52:57Z</time>
      </trkpt>
      <trkpt lat="43.99498" lon="3.63996">
        <ele>213.55</ele>
        <time>2016-04-03T16:52:58Z</time>
      </trkpt>
      <trkpt lat="43.99509" lon="3.63991">
        <ele>213.55</ele>
        <time>2016-04-03T16:52:59Z</time>
      </trkpt>
      <trkpt lat="43.99521" lon="3.63988">
        <ele>214.03</ele>
        <time>2016-04-03T16:53:00Z</time>
      </trkpt>
      <trkpt lat="43.99532" lon="3.63991">
        <ele>214.03</ele>
        <time>2016-04-03T16:53:01Z</time>
      </trkpt>
      <trkpt lat="43.99547" lon="3.63991">
        <ele>214.51</ele>
        <time>2016-04-03T16:53:02Z</time>
      </trkpt>
      <trkpt lat="43.99562" lon="3.63996">
        <ele>214.51</ele>
        <time>2016-04-03T16:53:03Z</time>
      </trkpt>
      <trkpt lat="43.99576" lon="3.64006">
        <ele>214.51</ele>
        <time>2016-04-03T16:53:04Z</time>
      </trkpt>
      <trkpt lat="43.99589" lon="3.64018">
        <ele>214.99</ele>
        <time>2016-04-03T16:53:05Z</time>
      </trkpt>
      <trkpt lat="43.996" lon="3.64033">
        <ele>215.47</ele>
        <time>2016-04-03T16:53:06Z</time>
      </trkpt>
      <trkpt lat="43.99612" lon="3.64048">
        <ele>215.47</ele>
        <time>2016-04-03T16:53:07Z</time>
      </trkpt>
      <trkpt lat="43.99623" lon="3.64063">
        <ele>215.47</ele>
        <time>2016-04-03T16:53:08Z</time>
      </trkpt>
      <trkpt lat="43.9974" lon="3.64247">
        <ele>211.63</ele>
        <time>2016-04-03T16:53:20Z</time>
      </trkpt>
      <trkpt lat="43.99746" lon="3.64266">
        <ele>211.15</ele>
        <time>2016-04-03T16:53:21Z</time>
      </trkpt>
      <trkpt lat="43.9975" lon="3.64286">
        <ele>210.67</ele>
        <time>2016-04-03T16:53:22Z</time>
      </trkpt>
      <trkpt lat="43.99752" lon="3.64307">
        <ele>210.67</ele>
        <time>2016-04-03T16:53:23Z</time>
      </trkpt>
      <trkpt lat="43.99751" lon="3.64329">
        <ele>210.67</ele>
        <time>2016-04-03T16:53:24Z</time>
      </trkpt>
      <trkpt lat="43.99748" lon="3.64352">
        <ele>211.15</ele>
        <time>2016-04-03T16:53:25Z</time>
      </trkpt>
      <trkpt lat="43.99744" lon="3.64374">
        <ele>211.15</ele>
        <time>2016-04-03T16:53:26Z</time>
      </trkpt>
      <trkpt lat="43.99738" lon="3.64396">
        <ele>211.15</ele>
        <time>2016-04-03T16:53:27Z</time>
      </trkpt>
      <trkpt lat="43.99732" lon="3.64419">
        <ele>210.67</ele>
        <time>2016-04-03T16:53:28Z</time>
      </trkpt>
      <trkpt lat="43.99698" lon="3.64604">
        <ele>209.22</ele>
        <time>2016-04-03T16:53:36Z</time>
      </trkpt>
      <trkpt lat="43.99699" lon="3.64628">
        <ele>208.74</ele>
        <time>2016-04-03T16:53:37Z</time>
      </trkpt>
      <trkpt lat="43.99702" lon="3.64651">
        <ele>208.26</ele>
        <time>2016-04-03T16:53:38Z</time>
      </trkpt>
      <trkpt lat="43.99709" lon="3.64672">
        <ele>207.78</ele>
        <time>2016-04-03T16:53:39Z</time>
      </trkpt>
      <trkpt lat="43.99719" lon="3.64691">
        <ele>207.3</ele>
        <time>2016-04-03T16:53:40Z</time>
      </trkpt>
      <trkpt lat="43.99733" lon="3.64706">
        <ele>206.82</ele>
        <time>2016-04-03T16:53:41Z</time>
      </trkpt>
      <trkpt lat="43.99748" lon="3.64717">
        <ele>206.34</ele>
        <time>2016-04-03T16:53:42Z</time>
      </trkpt>
      <trkpt lat="43.99765" lon="3.64726">
        <ele>205.38</ele>
        <time>2016-04-03T16:53:43Z</time>
      </trkpt>
      <trkpt lat="43.99782" lon="3.64735">
        <ele>204.42</ele>
        <time>2016-04-03T16:53:44Z</time>
      </trkpt>
      <trkpt lat="43.99814" lon="3.64755">
        <ele>202.49</ele>
        <time>2016-04-03T16:53:46Z</time>
      </trkpt>
      <trkpt lat="43.99973" lon="3.64906">
        <ele>198.17</ele>
        <time>2016-04-03T16:53:57Z</time>
      </trkpt>
      <trkpt lat="44.00016" lon="3.64982">
        <ele>198.17</ele>
        <time>2016-04-03T16:54:01Z</time>
      </trkpt>
      <trkpt lat="44.00023" lon="3.65005">
        <ele>198.17</ele>
        <time>2016-04-03T16:54:02Z</time>
      </trkpt>
      <trkpt lat="44.00028" lon="3.6503">
        <ele>198.17</ele>
        <time>2016-04-03T16:54:03Z</time>
      </trkpt>
      <trkpt lat="44.00032" lon="3.65055">
        <ele>198.65</ele>
        <time>2016-04-03T16:54:04Z</time>
      </trkpt>
      <trkpt lat="44.00036" lon="3.6508">
        <ele>198.17</ele>
        <time>2016-04-03T16:54:05Z</time>
      </trkpt>
      <trkpt lat="44.00062" lon="3.65195">
        <ele>198.17</ele>
        <time>2016-04-03T16:54:10Z</time>
      </trkpt>
      <trkpt lat="44.0007" lon="3.65216">
        <ele>198.17</ele>
        <time>2016-04-03T16:54:11Z</time>
      </trkpt>
      <trkpt lat="44.00102" lon="3.65293">
        <ele>196.25</ele>
        <time>2016-04-03T16:54:15Z</time>
      </trkpt>
      <trkpt lat="44.00108" lon="3.65315">
        <ele>196.25</ele>
        <time>2016-04-03T16:54:16Z</time>
      </trkpt>
      <trkpt lat="44.00111" lon="3.65338">
        <ele>195.77</ele>
        <time>2016-04-03T16:54:17Z</time>
      </trkpt>
      <trkpt lat="44.00114" lon="3.65362">
        <ele>195.77</ele>
        <time>2016-04-03T16:54:18Z</time>
      </trkpt>
      <trkpt lat="44.00116" lon="3.65386">
        <ele>195.77</ele>
        <time>2016-04-03T16:54:19Z</time>
      </trkpt>
      <trkpt lat="44.00142" lon="3.65589">
        <ele>194.32</ele>
        <time>2016-04-03T16:54:28Z</time>
      </trkpt>
      <trkpt lat="44.00143" lon="3.65613">
        <ele>194.32</ele>
        <time>2016-04-03T16:54:29Z</time>
      </trkpt>
      <trkpt lat="44.00142" lon="3.65636">
        <ele>194.32</ele>
        <time>2016-04-03T16:54:30Z</time>
      </trkpt>
      <trkpt lat="44.00139" lon="3.65659">
        <ele>194.32</ele>
        <time>2016-04-03T16:54:31Z</time>
      </trkpt>
      <trkpt lat="44.00135" lon="3.65682">
        <ele>194.8</ele>
        <time>2016-04-03T16:54:32Z</time>
      </trkpt>
      <trkpt lat="44.00129" lon="3.65704">
        <ele>194.8</ele>
        <time>2016-04-03T16:54:33Z</time>
      </trkpt>
      <trkpt lat="44.00123" lon="3.65724">
        <ele>194.8</ele>
        <time>2016-04-03T16:54:34Z</time>
      </trkpt>
      <trkpt lat="44.00115" lon="3.65744">
        <ele>195.28</ele>
        <time>2016-04-03T16:54:35Z</time>
      </trkpt>
      <trkpt lat="44.00105" lon="3.6576">
        <ele>195.28</ele>
        <time>2016-04-03T16:54:36Z</time>
      </trkpt>
      <trkpt lat="44.00094" lon="3.65774">
        <ele>195.28</ele>
        <time>2016-04-03T16:54:37Z</time>
      </trkpt>
      <trkpt lat="44.00081" lon="3.65785">
        <ele>195.77</ele>
        <time>2016-04-03T16:54:38Z</time>
      </trkpt>
      <trkpt lat="44.00068" lon="3.65796">
        <ele>196.25</ele>
        <time>2016-04-03T16:54:39Z</time>
      </trkpt>
      <trkpt lat="44.00057" lon="3.65809">
        <ele>196.73</ele>
        <time>2016-04-03T16:54:40Z</time>
      </trkpt>
      <trkpt lat="44.00049" lon="3.65822">
        <ele>196.73</ele>
        <time>2016-04-03T16:54:41Z</time>
      </trkpt>
      <trkpt lat="44.00045" lon="3.6584">
        <ele>197.69</ele>
        <time>2016-04-03T16:54:42Z</time>
      </trkpt>
      <trkpt lat="44.00045" lon="3.65857">
        <ele>198.17</ele>
        <time>2016-04-03T16:54:43Z</time>
      </trkpt>
      <trkpt lat="44.00047" lon="3.65874">
        <ele>198.17</ele>
        <time>2016-04-03T16:54:44Z</time>
      </trkpt>
      <trkpt lat="44.00049" lon="3.65889">
        <ele>198.17</ele>
        <time>2016-04-03T16:54:45Z</time>
      </trkpt>
      <trkpt lat="44.00052" lon="3.65903">
        <ele>198.17</ele>
        <time>2016-04-03T16:54:46Z</time>
      </trkpt>
      <trkpt lat="44.00055" lon="3.65917">
        <ele>198.17</ele>
        <time>2016-04-03T16:54:47Z</time>
      </trkpt>
      <trkpt lat="44.00059" lon="3.65929">
        <ele>198.65</ele>
        <time>2016-04-03T16:54:48Z</time>
      </trkpt>
      <trkpt lat="44.00064" lon="3.65941">
        <ele>198.17</ele>
        <time>2016-04-03T16:54:49Z</time>
      </trkpt>
      <trkpt lat="44.0007" lon="3.65952">
        <ele>198.17</ele>
        <time>2016-04-03T16:54:50Z</time>
      </trkpt>
      <trkpt lat="44.00079" lon="3.65975">
        <ele>197.69</ele>
        <time>2016-04-03T16:54:52Z</time>
      </trkpt>
      <trkpt lat="44.00083" lon="3.65988">
        <ele>197.21</ele>
        <time>2016-04-03T16:54:53Z</time>
      </trkpt>
      <trkpt lat="44.00086" lon="3.66002">
        <ele>197.21</ele>
        <time>2016-04-03T16:54:54Z</time>
      </trkpt>
      <trkpt lat="44.00095" lon="3.66042">
        <ele>196.25</ele>
        <time>2016-04-03T16:54:57Z</time>
      </trkpt>
      <trkpt lat="44.001" lon="3.66053">
        <ele>195.77</ele>
        <time>2016-04-03T16:54:58Z</time>
      </trkpt>
      <trkpt lat="44.00105" lon="3.66064">
        <ele>195.28</ele>
        <time>2016-04-03T16:54:59Z</time>
      </trkpt>
      <trkpt lat="44.00108" lon="3.66074">
        <ele>194.8</ele>
        <time>2016-04-03T16:55:00Z</time>
      </trkpt>
      <trkpt lat="44.00108" lon="3.66086">
        <ele>194.32</ele>
        <time>2016-04-03T16:55:01Z</time>
      </trkpt>
      <trkpt lat="44.00102" lon="3.66096">
        <ele>194.32</ele>
        <time>2016-04-03T16:55:02Z</time>
      </trkpt>
      <trkpt lat="44.00096" lon="3.66106">
        <ele>194.32</ele>
        <time>2016-04-03T16:55:03Z</time>
      </trkpt>
      <trkpt lat="44.0009" lon="3.66117">
        <ele>194.32</ele>
        <time>2016-04-03T16:55:04Z</time>
      </trkpt>
      <trkpt lat="44.00083" lon="3.66129">
        <ele>194.32</ele>
        <time>2016-04-03T16:55:05Z</time>
      </trkpt>
      <trkpt lat="43.99998" lon="3.66299">
        <ele>198.65</ele>
        <time>2016-04-03T16:55:18Z</time>
      </trkpt>
      <trkpt lat="43.99975" lon="3.66341">
        <ele>201.05</ele>
        <time>2016-04-03T16:55:22Z</time>
      </trkpt>
      <trkpt lat="43.9997" lon="3.66352">
        <ele>201.05</ele>
        <time>2016-04-03T16:55:23Z</time>
      </trkpt>
      <trkpt lat="43.99967" lon="3.66366">
        <ele>201.53</ele>
        <time>2016-04-03T16:55:24Z</time>
      </trkpt>
      <trkpt lat="43.99964" lon="3.6638">
        <ele>201.53</ele>
        <time>2016-04-03T16:55:25Z</time>
      </trkpt>
      <trkpt lat="43.99962" lon="3.66394">
        <ele>202.01</ele>
        <time>2016-04-03T16:55:26Z</time>
      </trkpt>
      <trkpt lat="43.99935" lon="3.6656">
        <ele>205.38</ele>
        <time>2016-04-03T16:55:36Z</time>
      </trkpt>
      <trkpt lat="43.999" lon="3.6679">
        <ele>202.01</ele>
        <time>2016-04-03T16:55:49Z</time>
      </trkpt>
      <trkpt lat="43.99879" lon="3.67054">
        <ele>199.13</ele>
        <time>2016-04-03T16:56:03Z</time>
      </trkpt>
      <trkpt lat="43.99855" lon="3.67275">
        <ele>193.84</ele>
        <time>2016-04-03T16:56:15Z</time>
      </trkpt>
      <trkpt lat="43.9985" lon="3.67293">
        <ele>193.36</ele>
        <time>2016-04-03T16:56:16Z</time>
      </trkpt>
      <trkpt lat="43.99763" lon="3.67529">
        <ele>190.96</ele>
        <time>2016-04-03T16:56:30Z</time>
      </trkpt>
      <trkpt lat="43.99706" lon="3.67676">
        <ele>193.36</ele>
        <time>2016-04-03T16:56:41Z</time>
      </trkpt>
      <trkpt lat="43.99699" lon="3.67686">
        <ele>193.36</ele>
        <time>2016-04-03T16:56:42Z</time>
      </trkpt>
      <trkpt lat="43.9969" lon="3.67696">
        <ele>193.36</ele>
        <time>2016-04-03T16:56:43Z</time>
      </trkpt>
      <trkpt lat="43.99588" lon="3.67789">
        <ele>193.36</ele>
        <time>2016-04-03T16:56:54Z</time>
      </trkpt>
      <trkpt lat="43.99581" lon="3.67794">
        <ele>193.36</ele>
        <time>2016-04-03T16:56:55Z</time>
      </trkpt>
      <trkpt lat="43.99574" lon="3.67792">
        <ele>193.36</ele>
        <time>2016-04-03T16:56:56Z</time>
      </trkpt>
      <trkpt lat="43.99568" lon="3.67788">
        <ele>193.84</ele>
        <time>2016-04-03T16:56:57Z</time>
      </trkpt>
      <trkpt lat="43.99563" lon="3.67782">
        <ele>194.32</ele>
        <time>2016-04-03T16:56:58Z</time>
      </trkpt>
      <trkpt lat="43.99559" lon="3.67776">
        <ele>194.32</ele>
        <time>2016-04-03T16:56:59Z</time>
      </trkpt>
      <trkpt lat="43.99555" lon="3.67767">
        <ele>194.32</ele>
        <time>2016-04-03T16:57:00Z</time>
      </trkpt>
      <trkpt lat="43.99551" lon="3.67759">
        <ele>194.32</ele>
        <time>2016-04-03T16:57:01Z</time>
      </trkpt>
      <trkpt lat="43.99544" lon="3.67743">
        <ele>194.32</ele>
        <time>2016-04-03T16:57:03Z</time>
      </trkpt>
      <trkpt lat="43.99539" lon="3.6773">
        <ele>194.32</ele>
        <time>2016-04-03T16:57:05Z</time>
      </trkpt>
      <trkpt lat="43.99536" lon="3.67728">
        <ele>194.32</ele>
        <time>2016-04-03T16:57:06Z</time>
      </trkpt>
      <trkpt lat="43.99534" lon="3.67728">
        <ele>194.32</ele>
        <time>2016-04-03T16:57:07Z</time>
      </trkpt>
      <trkpt lat="43.99537" lon="3.67731">
        <ele>197.69</ele>
        <time>2016-04-03T16:57:25Z</time>
      </trkpt>
      <trkpt lat="43.99533" lon="3.67727">
        <ele>189.04</ele>
        <time>2016-04-03T17:04:16Z</time>
      </trkpt>
      <trkpt lat="43.99526" lon="3.67718">
        <ele>189.04</ele>
        <time>2016-04-03T17:04:17Z</time>
      </trkpt>
      <trkpt lat="43.99505" lon="3.67697">
        <ele>189.04</ele>
        <time>2016-04-03T17:04:19Z</time>
      </trkpt>
      <trkpt lat="43.9947" lon="3.67683">
        <ele>191.44</ele>
        <time>2016-04-03T17:04:22Z</time>
      </trkpt>
      <trkpt lat="43.9946" lon="3.67683">
        <ele>192.4</ele>
        <time>2016-04-03T17:04:23Z</time>
      </trkpt>
      <trkpt lat="43.9945" lon="3.67686">
        <ele>191.92</ele>
        <time>2016-04-03T17:04:24Z</time>
      </trkpt>
      <trkpt lat="43.99383" lon="3.67706">
        <ele>190.96</ele>
        <time>2016-04-03T17:04:30Z</time>
      </trkpt>
      <trkpt lat="43.9937" lon="3.67715">
        <ele>190.48</ele>
        <time>2016-04-03T17:04:31Z</time>
      </trkpt>
      <trkpt lat="43.99358" lon="3.67725">
        <ele>190.48</ele>
        <time>2016-04-03T17:04:32Z</time>
      </trkpt>
      <trkpt lat="43.99345" lon="3.67737">
        <ele>190.96</ele>
        <time>2016-04-03T17:04:33Z</time>
      </trkpt>
      <trkpt lat="43.99332" lon="3.67751">
        <ele>190.96</ele>
        <time>2016-04-03T17:04:34Z</time>
      </trkpt>
      <trkpt lat="43.99243" lon="3.67859">
        <ele>192.88</ele>
        <time>2016-04-03T17:04:42Z</time>
      </trkpt>
      <trkpt lat="43.99236" lon="3.67877">
        <ele>193.36</ele>
        <time>2016-04-03T17:04:43Z</time>
      </trkpt>
      <trkpt lat="43.9923" lon="3.67898">
        <ele>193.36</ele>
        <time>2016-04-03T17:04:44Z</time>
      </trkpt>
      <trkpt lat="43.99225" lon="3.67922">
        <ele>192.4</ele>
        <time>2016-04-03T17:04:45Z</time>
      </trkpt>
      <trkpt lat="43.99219" lon="3.67947">
        <ele>191.44</ele>
        <time>2016-04-03T17:04:46Z</time>
      </trkpt>
      <trkpt lat="43.99186" lon="3.68126">
        <ele>188.08</ele>
        <time>2016-04-03T17:04:54Z</time>
      </trkpt>
      <trkpt lat="43.99187" lon="3.68146">
        <ele>187.59</ele>
        <time>2016-04-03T17:04:55Z</time>
      </trkpt>
      <trkpt lat="43.99189" lon="3.68166">
        <ele>187.11</ele>
        <time>2016-04-03T17:04:56Z</time>
      </trkpt>
      <trkpt lat="43.99192" lon="3.68187">
        <ele>187.11</ele>
        <time>2016-04-03T17:04:57Z</time>
      </trkpt>
      <trkpt lat="43.99199" lon="3.68208">
        <ele>186.63</ele>
        <time>2016-04-03T17:04:58Z</time>
      </trkpt>
      <trkpt lat="43.99207" lon="3.68231">
        <ele>186.15</ele>
        <time>2016-04-03T17:04:59Z</time>
      </trkpt>
      <trkpt lat="43.99216" lon="3.68254">
        <ele>185.67</ele>
        <time>2016-04-03T17:05:00Z</time>
      </trkpt>
      <trkpt lat="43.99315" lon="3.68511">
        <ele>183.75</ele>
        <time>2016-04-03T17:05:10Z</time>
      </trkpt>
      <trkpt lat="43.99355" lon="3.68648">
        <ele>183.75</ele>
        <time>2016-04-03T17:05:16Z</time>
      </trkpt>
      <trkpt lat="43.99356" lon="3.68673">
        <ele>183.75</ele>
        <time>2016-04-03T17:05:17Z</time>
      </trkpt>
      <trkpt lat="43.99354" lon="3.68697">
        <ele>184.23</ele>
        <time>2016-04-03T17:05:18Z</time>
      </trkpt>
      <trkpt lat="43.99349" lon="3.68722">
        <ele>183.75</ele>
        <time>2016-04-03T17:05:19Z</time>
      </trkpt>
      <trkpt lat="43.99339" lon="3.68746">
        <ele>183.75</ele>
        <time>2016-04-03T17:05:20Z</time>
      </trkpt>
      <trkpt lat="43.99328" lon="3.68767">
        <ele>183.27</ele>
        <time>2016-04-03T17:05:21Z</time>
      </trkpt>
      <trkpt lat="43.99313" lon="3.68788">
        <ele>182.79</ele>
        <time>2016-04-03T17:05:22Z</time>
      </trkpt>
      <trkpt lat="43.99297" lon="3.68807">
        <ele>182.79</ele>
        <time>2016-04-03T17:05:23Z</time>
      </trkpt>
      <trkpt lat="43.99279" lon="3.68825">
        <ele>182.79</ele>
        <time>2016-04-03T17:05:24Z</time>
      </trkpt>
      <trkpt lat="43.99259" lon="3.68841">
        <ele>182.79</ele>
        <time>2016-04-03T17:05:25Z</time>
      </trkpt>
      <trkpt lat="43.9924" lon="3.68855">
        <ele>182.31</ele>
        <time>2016-04-03T17:05:26Z</time>
      </trkpt>
      <trkpt lat="43.99221" lon="3.68866">
        <ele>182.31</ele>
        <time>2016-04-03T17:05:27Z</time>
      </trkpt>
      <trkpt lat="43.99203" lon="3.68875">
        <ele>181.83</ele>
        <time>2016-04-03T17:05:28Z</time>
      </trkpt>
      <trkpt lat="43.99185" lon="3.68883">
        <ele>181.35</ele>
        <time>2016-04-03T17:05:29Z</time>
      </trkpt>
      <trkpt lat="43.99168" lon="3.68888">
        <ele>180.87</ele>
        <time>2016-04-03T17:05:30Z</time>
      </trkpt>
      <trkpt lat="43.99152" lon="3.68892">
        <ele>180.38</ele>
        <time>2016-04-03T17:05:31Z</time>
      </trkpt>
      <trkpt lat="43.99137" lon="3.68891">
        <ele>179.9</ele>
        <time>2016-04-03T17:05:32Z</time>
      </trkpt>
      <trkpt lat="43.9912" lon="3.68881">
        <ele>183.75</ele>
        <time>2016-04-03T17:05:33Z</time>
      </trkpt>
      <trkpt lat="43.99101" lon="3.68871">
        <ele>185.19</ele>
        <time>2016-04-03T17:05:34Z</time>
      </trkpt>
      <trkpt lat="43.98948" lon="3.68832">
        <ele>186.63</ele>
        <time>2016-04-03T17:05:41Z</time>
      </trkpt>
      <trkpt lat="43.98826" lon="3.68801">
        <ele>185.67</ele>
        <time>2016-04-03T17:05:47Z</time>
      </trkpt>
      <trkpt lat="43.98806" lon="3.6879">
        <ele>186.15</ele>
        <time>2016-04-03T17:05:48Z</time>
      </trkpt>
      <trkpt lat="43.98787" lon="3.68777">
        <ele>186.15</ele>
        <time>2016-04-03T17:05:49Z</time>
      </trkpt>
      <trkpt lat="43.98589" lon="3.68614">
        <ele>186.15</ele>
        <time>2016-04-03T17:05:59Z</time>
      </trkpt>
      <trkpt lat="43.9842" lon="3.68487">
        <ele>185.19</ele>
        <time>2016-04-03T17:06:08Z</time>
      </trkpt>
      <trkpt lat="43.98403" lon="3.68479">
        <ele>185.19</ele>
        <time>2016-04-03T17:06:09Z</time>
      </trkpt>
      <trkpt lat="43.98385" lon="3.68474">
        <ele>185.19</ele>
        <time>2016-04-03T17:06:10Z</time>
      </trkpt>
      <trkpt lat="43.98368" lon="3.68471">
        <ele>185.67</ele>
        <time>2016-04-03T17:06:11Z</time>
      </trkpt>
      <trkpt lat="43.9835" lon="3.68471">
        <ele>185.67</ele>
        <time>2016-04-03T17:06:12Z</time>
      </trkpt>
      <trkpt lat="43.98332" lon="3.68473">
        <ele>185.67</ele>
        <time>2016-04-03T17:06:13Z</time>
      </trkpt>
      <trkpt lat="43.98314" lon="3.68478">
        <ele>185.67</ele>
        <time>2016-04-03T17:06:14Z</time>
      </trkpt>
      <trkpt lat="43.98298" lon="3.68485">
        <ele>185.19</ele>
        <time>2016-04-03T17:06:15Z</time>
      </trkpt>
      <trkpt lat="43.98281" lon="3.68496">
        <ele>185.19</ele>
        <time>2016-04-03T17:06:16Z</time>
      </trkpt>
      <trkpt lat="43.98265" lon="3.68509">
        <ele>185.19</ele>
        <time>2016-04-03T17:06:17Z</time>
      </trkpt>
      <trkpt lat="43.98251" lon="3.68524">
        <ele>185.67</ele>
        <time>2016-04-03T17:06:18Z</time>
      </trkpt>
      <trkpt lat="43.98237" lon="3.68542">
        <ele>186.15</ele>
        <time>2016-04-03T17:06:19Z</time>
      </trkpt>
      <trkpt lat="43.98225" lon="3.68562">
        <ele>186.15</ele>
        <time>2016-04-03T17:06:20Z</time>
      </trkpt>
      <trkpt lat="43.98215" lon="3.68584">
        <ele>185.67</ele>
        <time>2016-04-03T17:06:21Z</time>
      </trkpt>
      <trkpt lat="43.98206" lon="3.68607">
        <ele>185.67</ele>
        <time>2016-04-03T17:06:22Z</time>
      </trkpt>
      <trkpt lat="43.982" lon="3.68631">
        <ele>185.67</ele>
        <time>2016-04-03T17:06:23Z</time>
      </trkpt>
      <trkpt lat="43.98195" lon="3.68656">
        <ele>185.19</ele>
        <time>2016-04-03T17:06:24Z</time>
      </trkpt>
      <trkpt lat="43.98193" lon="3.68683">
        <ele>185.19</ele>
        <time>2016-04-03T17:06:25Z</time>
      </trkpt>
      <trkpt lat="43.98192" lon="3.6871">
        <ele>184.23</ele>
        <time>2016-04-03T17:06:26Z</time>
      </trkpt>
      <trkpt lat="43.98193" lon="3.68738">
        <ele>183.27</ele>
        <time>2016-04-03T17:06:27Z</time>
      </trkpt>
      <trkpt lat="43.98196" lon="3.68766">
        <ele>182.79</ele>
        <time>2016-04-03T17:06:28Z</time>
      </trkpt>
      <trkpt lat="43.982" lon="3.68795">
        <ele>181.83</ele>
        <time>2016-04-03T17:06:29Z</time>
      </trkpt>
      <trkpt lat="43.98244" lon="3.69035">
        <ele>177.5</ele>
        <time>2016-04-03T17:06:38Z</time>
      </trkpt>
      <trkpt lat="43.98247" lon="3.69099">
        <ele>177.02</ele>
        <time>2016-04-03T17:06:41Z</time>
      </trkpt>
      <trkpt lat="43.98245" lon="3.69119">
        <ele>177.5</ele>
        <time>2016-04-03T17:06:42Z</time>
      </trkpt>
      <trkpt lat="43.9824" lon="3.69138">
        <ele>177.98</ele>
        <time>2016-04-03T17:06:43Z</time>
      </trkpt>
      <trkpt lat="43.98233" lon="3.69156">
        <ele>178.46</ele>
        <time>2016-04-03T17:06:44Z</time>
      </trkpt>
      <trkpt lat="43.98225" lon="3.69174">
        <ele>178.94</ele>
        <time>2016-04-03T17:06:45Z</time>
      </trkpt>
      <trkpt lat="43.98215" lon="3.69189">
        <ele>178.94</ele>
        <time>2016-04-03T17:06:46Z</time>
      </trkpt>
      <trkpt lat="43.98203" lon="3.69203">
        <ele>178.94</ele>
        <time>2016-04-03T17:06:47Z</time>
      </trkpt>
      <trkpt lat="43.98189" lon="3.69214">
        <ele>178.94</ele>
        <time>2016-04-03T17:06:48Z</time>
      </trkpt>
      <trkpt lat="43.98176" lon="3.69222">
        <ele>178.46</ele>
        <time>2016-04-03T17:06:49Z</time>
      </trkpt>
      <trkpt lat="43.98161" lon="3.69227">
        <ele>178.46</ele>
        <time>2016-04-03T17:06:50Z</time>
      </trkpt>
      <trkpt lat="43.98146" lon="3.69229">
        <ele>178.46</ele>
        <time>2016-04-03T17:06:51Z</time>
      </trkpt>
      <trkpt lat="43.9813" lon="3.69229">
        <ele>178.94</ele>
        <time>2016-04-03T17:06:52Z</time>
      </trkpt>
      <trkpt lat="43.98113" lon="3.69224">
        <ele>178.94</ele>
        <time>2016-04-03T17:06:53Z</time>
      </trkpt>
      <trkpt lat="43.98094" lon="3.69217">
        <ele>178.94</ele>
        <time>2016-04-03T17:06:54Z</time>
      </trkpt>
      <trkpt lat="43.98076" lon="3.6921">
        <ele>179.42</ele>
        <time>2016-04-03T17:06:55Z</time>
      </trkpt>
      <trkpt lat="43.97966" lon="3.69131">
        <ele>179.42</ele>
        <time>2016-04-03T17:07:01Z</time>
      </trkpt>
      <trkpt lat="43.97867" lon="3.69005">
        <ele>179.42</ele>
        <time>2016-04-03T17:07:08Z</time>
      </trkpt>
      <trkpt lat="43.97797" lon="3.68834">
        <ele>178.94</ele>
        <time>2016-04-03T17:07:15Z</time>
      </trkpt>
      <trkpt lat="43.97732" lon="3.68676">
        <ele>178.94</ele>
        <time>2016-04-03T17:07:23Z</time>
      </trkpt>
      <trkpt lat="43.97722" lon="3.6866">
        <ele>178.94</ele>
        <time>2016-04-03T17:07:24Z</time>
      </trkpt>
      <trkpt lat="43.9771" lon="3.68646">
        <ele>178.94</ele>
        <time>2016-04-03T17:07:25Z</time>
      </trkpt>
      <trkpt lat="43.97697" lon="3.68634">
        <ele>179.42</ele>
        <time>2016-04-03T17:07:26Z</time>
      </trkpt>
      <trkpt lat="43.97683" lon="3.68625">
        <ele>179.42</ele>
        <time>2016-04-03T17:07:27Z</time>
      </trkpt>
      <trkpt lat="43.97667" lon="3.6862">
        <ele>179.42</ele>
        <time>2016-04-03T17:07:28Z</time>
      </trkpt>
      <trkpt lat="43.97651" lon="3.68616">
        <ele>179.42</ele>
        <time>2016-04-03T17:07:29Z</time>
      </trkpt>
      <trkpt lat="43.97635" lon="3.68615">
        <ele>179.42</ele>
        <time>2016-04-03T17:07:30Z</time>
      </trkpt>
      <trkpt lat="43.97617" lon="3.68617">
        <ele>179.42</ele>
        <time>2016-04-03T17:07:31Z</time>
      </trkpt>
      <trkpt lat="43.97599" lon="3.68622">
        <ele>179.42</ele>
        <time>2016-04-03T17:07:32Z</time>
      </trkpt>
      <trkpt lat="43.97581" lon="3.68628">
        <ele>179.42</ele>
        <time>2016-04-03T17:07:33Z</time>
      </trkpt>
      <trkpt lat="43.97407" lon="3.6869">
        <ele>177.5</ele>
        <time>2016-04-03T17:07:42Z</time>
      </trkpt>
      <trkpt lat="43.97362" lon="3.68712">
        <ele>177.5</ele>
        <time>2016-04-03T17:07:45Z</time>
      </trkpt>
      <trkpt lat="43.97349" lon="3.68723">
        <ele>177.5</ele>
        <time>2016-04-03T17:07:46Z</time>
      </trkpt>
      <trkpt lat="43.97338" lon="3.68737">
        <ele>177.5</ele>
        <time>2016-04-03T17:07:47Z</time>
      </trkpt>
      <trkpt lat="43.9721" lon="3.6891">
        <ele>177.5</ele>
        <time>2016-04-03T17:07:57Z</time>
      </trkpt>
      <trkpt lat="43.97046" lon="3.6916">
        <ele>175.1</ele>
        <time>2016-04-03T17:08:09Z</time>
      </trkpt>
      <trkpt lat="43.96997" lon="3.69235">
        <ele>173.17</ele>
        <time>2016-04-03T17:08:13Z</time>
      </trkpt>
      <trkpt lat="43.96984" lon="3.6925">
        <ele>173.17</ele>
        <time>2016-04-03T17:08:14Z</time>
      </trkpt>
      <trkpt lat="43.9697" lon="3.69262">
        <ele>173.17</ele>
        <time>2016-04-03T17:08:15Z</time>
      </trkpt>
      <trkpt lat="43.96955" lon="3.69271">
        <ele>173.17</ele>
        <time>2016-04-03T17:08:16Z</time>
      </trkpt>
      <trkpt lat="43.96939" lon="3.69275">
        <ele>172.69</ele>
        <time>2016-04-03T17:08:17Z</time>
      </trkpt>
      <trkpt lat="43.96923" lon="3.69276">
        <ele>172.69</ele>
        <time>2016-04-03T17:08:18Z</time>
      </trkpt>
      <trkpt lat="43.96903" lon="3.69274">
        <ele>171.73</ele>
        <time>2016-04-03T17:08:19Z</time>
      </trkpt>
      <trkpt lat="43.96886" lon="3.69271">
        <ele>171.25</ele>
        <time>2016-04-03T17:08:20Z</time>
      </trkpt>
      <trkpt lat="43.96866" lon="3.69264">
        <ele>171.73</ele>
        <time>2016-04-03T17:08:21Z</time>
      </trkpt>
      <trkpt lat="43.96847" lon="3.69255">
        <ele>171.25</ele>
        <time>2016-04-03T17:08:22Z</time>
      </trkpt>
      <trkpt lat="43.96827" lon="3.69247">
        <ele>171.25</ele>
        <time>2016-04-03T17:08:23Z</time>
      </trkpt>
      <trkpt lat="43.96688" lon="3.69164">
        <ele>170.29</ele>
        <time>2016-04-03T17:08:31Z</time>
      </trkpt>
      <trkpt lat="43.96629" lon="3.69082">
        <ele>169.33</ele>
        <time>2016-04-03T17:08:36Z</time>
      </trkpt>
      <trkpt lat="43.9662" lon="3.69062">
        <ele>169.33</ele>
        <time>2016-04-03T17:08:37Z</time>
      </trkpt>
      <trkpt lat="43.96613" lon="3.6904">
        <ele>169.33</ele>
        <time>2016-04-03T17:08:38Z</time>
      </trkpt>
      <trkpt lat="43.96607" lon="3.69017">
        <ele>169.81</ele>
        <time>2016-04-03T17:08:39Z</time>
      </trkpt>
      <trkpt lat="43.96601" lon="3.68993">
        <ele>169.33</ele>
        <time>2016-04-03T17:08:40Z</time>
      </trkpt>
      <trkpt lat="43.96584" lon="3.68872">
        <ele>167.89</ele>
        <time>2016-04-03T17:08:46Z</time>
      </trkpt>
      <trkpt lat="43.96578" lon="3.68844">
        <ele>167.89</ele>
        <time>2016-04-03T17:08:48Z</time>
      </trkpt>
      <trkpt lat="43.96573" lon="3.6883">
        <ele>167.41</ele>
        <time>2016-04-03T17:08:49Z</time>
      </trkpt>
      <trkpt lat="43.96566" lon="3.68818">
        <ele>167.41</ele>
        <time>2016-04-03T17:08:50Z</time>
      </trkpt>
      <trkpt lat="43.9656" lon="3.68807">
        <ele>167.41</ele>
        <time>2016-04-03T17:08:51Z</time>
      </trkpt>
      <trkpt lat="43.96553" lon="3.68799">
        <ele>167.41</ele>
        <time>2016-04-03T17:08:52Z</time>
      </trkpt>
      <trkpt lat="43.96545" lon="3.68793">
        <ele>167.41</ele>
        <time>2016-04-03T17:08:53Z</time>
      </trkpt>
      <trkpt lat="43.96535" lon="3.68789">
        <ele>167.41</ele>
        <time>2016-04-03T17:08:54Z</time>
      </trkpt>
      <trkpt lat="43.96523" lon="3.68786">
        <ele>167.41</ele>
        <time>2016-04-03T17:08:55Z</time>
      </trkpt>
      <trkpt lat="43.96511" lon="3.68786">
        <ele>167.41</ele>
        <time>2016-04-03T17:08:56Z</time>
      </trkpt>
      <trkpt lat="43.96497" lon="3.68786">
        <ele>167.41</ele>
        <time>2016-04-03T17:08:57Z</time>
      </trkpt>
      <trkpt lat="43.96419" lon="3.68796">
        <ele>167.41</ele>
        <time>2016-04-03T17:09:02Z</time>
      </trkpt>
      <trkpt lat="43.96403" lon="3.68803">
        <ele>167.41</ele>
        <time>2016-04-03T17:09:03Z</time>
      </trkpt>
      <trkpt lat="43.96386" lon="3.68813">
        <ele>167.41</ele>
        <time>2016-04-03T17:09:04Z</time>
      </trkpt>
      <trkpt lat="43.96239" lon="3.68872">
        <ele>167.89</ele>
        <time>2016-04-03T17:09:12Z</time>
      </trkpt>
      <trkpt lat="43.96102" lon="3.68886">
        <ele>169.81</ele>
        <time>2016-04-03T17:09:20Z</time>
      </trkpt>
      <trkpt lat="43.96086" lon="3.6888">
        <ele>169.81</ele>
        <time>2016-04-03T17:09:21Z</time>
      </trkpt>
      <trkpt lat="43.9607" lon="3.68872">
        <ele>169.81</ele>
        <time>2016-04-03T17:09:22Z</time>
      </trkpt>
      <trkpt lat="43.96054" lon="3.68862">
        <ele>169.81</ele>
        <time>2016-04-03T17:09:23Z</time>
      </trkpt>
      <trkpt lat="43.96038" lon="3.6885">
        <ele>170.29</ele>
        <time>2016-04-03T17:09:24Z</time>
      </trkpt>
      <trkpt lat="43.95901" lon="3.68718">
        <ele>171.73</ele>
        <time>2016-04-03T17:09:33Z</time>
      </trkpt>
      <trkpt lat="43.95826" lon="3.68664">
        <ele>175.1</ele>
        <time>2016-04-03T17:09:39Z</time>
      </trkpt>
      <trkpt lat="43.9581" lon="3.68664">
        <ele>175.58</ele>
        <time>2016-04-03T17:09:40Z</time>
      </trkpt>
      <trkpt lat="43.95794" lon="3.68668">
        <ele>175.58</ele>
        <time>2016-04-03T17:09:41Z</time>
      </trkpt>
      <trkpt lat="43.95668" lon="3.68686">
        <ele>176.06</ele>
        <time>2016-04-03T17:09:48Z</time>
      </trkpt>
      <trkpt lat="43.95509" lon="3.68704">
        <ele>173.66</ele>
        <time>2016-04-03T17:09:57Z</time>
      </trkpt>
      <trkpt lat="43.95492" lon="3.68701">
        <ele>173.66</ele>
        <time>2016-04-03T17:09:58Z</time>
      </trkpt>
      <trkpt lat="43.95373" lon="3.68643">
        <ele>169.81</ele>
        <time>2016-04-03T17:10:05Z</time>
      </trkpt>
      <trkpt lat="43.95206" lon="3.68544">
        <ele>162.6</ele>
        <time>2016-04-03T17:10:14Z</time>
      </trkpt>
      <trkpt lat="43.95059" lon="3.68513">
        <ele>159.72</ele>
        <time>2016-04-03T17:10:21Z</time>
      </trkpt>
      <trkpt lat="43.949" lon="3.68442">
        <ele>159.72</ele>
        <time>2016-04-03T17:10:29Z</time>
      </trkpt>
      <trkpt lat="43.9478" lon="3.68385">
        <ele>160.68</ele>
        <time>2016-04-03T17:10:37Z</time>
      </trkpt>
      <trkpt lat="43.94729" lon="3.68368">
        <ele>161.16</ele>
        <time>2016-04-03T17:10:41Z</time>
      </trkpt>
      <trkpt lat="43.94716" lon="3.68367">
        <ele>161.64</ele>
        <time>2016-04-03T17:10:42Z</time>
      </trkpt>
      <trkpt lat="43.94703" lon="3.6837">
        <ele>162.12</ele>
        <time>2016-04-03T17:10:43Z</time>
      </trkpt>
      <trkpt lat="43.9469" lon="3.68375">
        <ele>162.6</ele>
        <time>2016-04-03T17:10:44Z</time>
      </trkpt>
      <trkpt lat="43.9468" lon="3.68391">
        <ele>163.08</ele>
        <time>2016-04-03T17:10:45Z</time>
      </trkpt>
      <trkpt lat="43.9467" lon="3.68404">
        <ele>163.56</ele>
        <time>2016-04-03T17:10:46Z</time>
      </trkpt>
      <trkpt lat="43.94661" lon="3.68419">
        <ele>164.04</ele>
        <time>2016-04-03T17:10:47Z</time>
      </trkpt>
      <trkpt lat="43.94652" lon="3.68435">
        <ele>164.52</ele>
        <time>2016-04-03T17:10:48Z</time>
      </trkpt>
      <trkpt lat="43.94644" lon="3.68453">
        <ele>165</ele>
        <time>2016-04-03T17:10:49Z</time>
      </trkpt>
      <trkpt lat="43.94593" lon="3.68614">
        <ele>169.81</ele>
        <time>2016-04-03T17:10:57Z</time>
      </trkpt>
      <trkpt lat="43.94575" lon="3.68801">
        <ele>176.06</ele>
        <time>2016-04-03T17:11:05Z</time>
      </trkpt>
      <trkpt lat="43.9457" lon="3.68822">
        <ele>176.54</ele>
        <time>2016-04-03T17:11:06Z</time>
      </trkpt>
      <trkpt lat="43.94564" lon="3.68842">
        <ele>177.5</ele>
        <time>2016-04-03T17:11:07Z</time>
      </trkpt>
      <trkpt lat="43.94555" lon="3.68861">
        <ele>177.98</ele>
        <time>2016-04-03T17:11:08Z</time>
      </trkpt>
      <trkpt lat="43.94546" lon="3.68879">
        <ele>178.94</ele>
        <time>2016-04-03T17:11:09Z</time>
      </trkpt>
      <trkpt lat="43.94536" lon="3.68895">
        <ele>179.42</ele>
        <time>2016-04-03T17:11:10Z</time>
      </trkpt>
      <trkpt lat="43.94525" lon="3.68909">
        <ele>179.9</ele>
        <time>2016-04-03T17:11:11Z</time>
      </trkpt>
      <trkpt lat="43.94512" lon="3.68921">
        <ele>179.9</ele>
        <time>2016-04-03T17:11:12Z</time>
      </trkpt>
      <trkpt lat="43.94497" lon="3.6893">
        <ele>180.38</ele>
        <time>2016-04-03T17:11:13Z</time>
      </trkpt>
      <trkpt lat="43.94482" lon="3.68937">
        <ele>180.38</ele>
        <time>2016-04-03T17:11:14Z</time>
      </trkpt>
      <trkpt lat="43.94465" lon="3.68941">
        <ele>180.38</ele>
        <time>2016-04-03T17:11:15Z</time>
      </trkpt>
      <trkpt lat="43.94448" lon="3.68943">
        <ele>179.9</ele>
        <time>2016-04-03T17:11:16Z</time>
      </trkpt>
      <trkpt lat="43.9443" lon="3.68943">
        <ele>179.9</ele>
        <time>2016-04-03T17:11:17Z</time>
      </trkpt>
      <trkpt lat="43.94411" lon="3.68942">
        <ele>179.42</ele>
        <time>2016-04-03T17:11:18Z</time>
      </trkpt>
      <trkpt lat="43.94273" lon="3.68935">
        <ele>175.58</ele>
        <time>2016-04-03T17:11:26Z</time>
      </trkpt>
      <trkpt lat="43.94136" lon="3.69001">
        <ele>167.89</ele>
        <time>2016-04-03T17:11:33Z</time>
      </trkpt>
      <trkpt lat="43.93999" lon="3.69054">
        <ele>160.2</ele>
        <time>2016-04-03T17:11:41Z</time>
      </trkpt>
      <trkpt lat="43.93981" lon="3.69053">
        <ele>158.27</ele>
        <time>2016-04-03T17:11:42Z</time>
      </trkpt>
      <trkpt lat="43.93896" lon="3.69055">
        <ele>152.51</ele>
        <time>2016-04-03T17:11:48Z</time>
      </trkpt>
      <trkpt lat="43.93883" lon="3.69061">
        <ele>152.51</ele>
        <time>2016-04-03T17:11:49Z</time>
      </trkpt>
      <trkpt lat="43.9387" lon="3.69068">
        <ele>152.51</ele>
        <time>2016-04-03T17:11:50Z</time>
      </trkpt>
      <trkpt lat="43.93858" lon="3.69079">
        <ele>152.51</ele>
        <time>2016-04-03T17:11:51Z</time>
      </trkpt>
      <trkpt lat="43.93847" lon="3.69091">
        <ele>152.03</ele>
        <time>2016-04-03T17:11:52Z</time>
      </trkpt>
      <trkpt lat="43.93838" lon="3.69106">
        <ele>151.54</ele>
        <time>2016-04-03T17:11:53Z</time>
      </trkpt>
      <trkpt lat="43.93831" lon="3.69124">
        <ele>151.06</ele>
        <time>2016-04-03T17:11:54Z</time>
      </trkpt>
      <trkpt lat="43.93826" lon="3.69145">
        <ele>150.58</ele>
        <time>2016-04-03T17:11:55Z</time>
      </trkpt>
      <trkpt lat="43.93824" lon="3.69167">
        <ele>150.58</ele>
        <time>2016-04-03T17:11:56Z</time>
      </trkpt>
      <trkpt lat="43.93824" lon="3.69191">
        <ele>150.1</ele>
        <time>2016-04-03T17:11:57Z</time>
      </trkpt>
      <trkpt lat="43.93823" lon="3.69215">
        <ele>150.1</ele>
        <time>2016-04-03T17:11:58Z</time>
      </trkpt>
      <trkpt lat="43.93821" lon="3.69301">
        <ele>150.58</ele>
        <time>2016-04-03T17:12:02Z</time>
      </trkpt>
      <trkpt lat="43.93817" lon="3.69322">
        <ele>150.58</ele>
        <time>2016-04-03T17:12:03Z</time>
      </trkpt>
      <trkpt lat="43.93811" lon="3.69343">
        <ele>150.58</ele>
        <time>2016-04-03T17:12:04Z</time>
      </trkpt>
      <trkpt lat="43.93805" lon="3.69363">
        <ele>150.1</ele>
        <time>2016-04-03T17:12:05Z</time>
      </trkpt>
      <trkpt lat="43.93798" lon="3.69382">
        <ele>150.1</ele>
        <time>2016-04-03T17:12:06Z</time>
      </trkpt>
      <trkpt lat="43.93752" lon="3.6949">
        <ele>149.62</ele>
        <time>2016-04-03T17:12:13Z</time>
      </trkpt>
      <trkpt lat="43.93687" lon="3.69601">
        <ele>150.1</ele>
        <time>2016-04-03T17:12:19Z</time>
      </trkpt>
      <trkpt lat="43.93599" lon="3.69741">
        <ele>151.06</ele>
        <time>2016-04-03T17:12:29Z</time>
      </trkpt>
      <trkpt lat="43.93589" lon="3.69754">
        <ele>151.06</ele>
        <time>2016-04-03T17:12:30Z</time>
      </trkpt>
      <trkpt lat="43.93506" lon="3.69879">
        <ele>152.99</ele>
        <time>2016-04-03T17:12:39Z</time>
      </trkpt>
      <trkpt lat="43.93439" lon="3.69976">
        <ele>155.39</ele>
        <time>2016-04-03T17:12:47Z</time>
      </trkpt>
      <trkpt lat="43.93376" lon="3.70117">
        <ele>155.39</ele>
        <time>2016-04-03T17:12:57Z</time>
      </trkpt>
      <trkpt lat="43.93319" lon="3.70263">
        <ele>156.83</ele>
        <time>2016-04-03T17:13:07Z</time>
      </trkpt>
      <trkpt lat="43.93282" lon="3.70332">
        <ele>154.91</ele>
        <time>2016-04-03T17:13:12Z</time>
      </trkpt>
      <trkpt lat="43.93272" lon="3.70344">
        <ele>154.43</ele>
        <time>2016-04-03T17:13:13Z</time>
      </trkpt>
      <trkpt lat="43.93261" lon="3.70354">
        <ele>153.95</ele>
        <time>2016-04-03T17:13:14Z</time>
      </trkpt>
      <trkpt lat="43.93249" lon="3.70364">
        <ele>153.95</ele>
        <time>2016-04-03T17:13:15Z</time>
      </trkpt>
      <trkpt lat="43.93237" lon="3.70373">
        <ele>153.95</ele>
        <time>2016-04-03T17:13:16Z</time>
      </trkpt>
      <trkpt lat="43.93172" lon="3.70418">
        <ele>152.99</ele>
        <time>2016-04-03T17:13:23Z</time>
      </trkpt>
      <trkpt lat="43.93157" lon="3.70429">
        <ele>152.99</ele>
        <time>2016-04-03T17:13:26Z</time>
      </trkpt>
      <trkpt lat="43.93151" lon="3.70436">
        <ele>152.99</ele>
        <time>2016-04-03T17:13:27Z</time>
      </trkpt>
      <trkpt lat="43.93135" lon="3.70453">
        <ele>152.51</ele>
        <time>2016-04-03T17:13:29Z</time>
      </trkpt>
      <trkpt lat="43.93067" lon="3.70522">
        <ele>151.06</ele>
        <time>2016-04-03T17:13:37Z</time>
      </trkpt>
      <trkpt lat="43.9306" lon="3.70526">
        <ele>151.06</ele>
        <time>2016-04-03T17:13:38Z</time>
      </trkpt>
      <trkpt lat="43.93054" lon="3.70527">
        <ele>151.06</ele>
        <time>2016-04-03T17:13:39Z</time>
      </trkpt>
      <trkpt lat="43.93048" lon="3.70526">
        <ele>151.06</ele>
        <time>2016-04-03T17:13:40Z</time>
      </trkpt>
      <trkpt lat="43.93042" lon="3.70525">
        <ele>151.06</ele>
        <time>2016-04-03T17:13:41Z</time>
      </trkpt>
      <trkpt lat="43.93036" lon="3.70526">
        <ele>150.58</ele>
        <time>2016-04-03T17:13:42Z</time>
      </trkpt>
      <trkpt lat="43.9303" lon="3.7053">
        <ele>150.58</ele>
        <time>2016-04-03T17:13:43Z</time>
      </trkpt>
      <trkpt lat="43.93024" lon="3.70539">
        <ele>150.58</ele>
        <time>2016-04-03T17:13:44Z</time>
      </trkpt>
      <trkpt lat="43.93022" lon="3.70552">
        <ele>150.1</ele>
        <time>2016-04-03T17:13:45Z</time>
      </trkpt>
      <trkpt lat="43.93025" lon="3.70563">
        <ele>149.62</ele>
        <time>2016-04-03T17:13:46Z</time>
      </trkpt>
      <trkpt lat="43.9303" lon="3.70573">
        <ele>148.66</ele>
        <time>2016-04-03T17:13:47Z</time>
      </trkpt>
      <trkpt lat="43.93037" lon="3.70578">
        <ele>148.18</ele>
        <time>2016-04-03T17:13:48Z</time>
      </trkpt>
      <trkpt lat="43.93046" lon="3.70577">
        <ele>148.18</ele>
        <time>2016-04-03T17:13:49Z</time>
      </trkpt>
      <trkpt lat="43.93055" lon="3.7057">
        <ele>148.18</ele>
        <time>2016-04-03T17:13:50Z</time>
      </trkpt>
      <trkpt lat="43.93061" lon="3.70555">
        <ele>148.18</ele>
        <time>2016-04-03T17:13:51Z</time>
      </trkpt>
      <trkpt lat="43.93061" lon="3.70543">
        <ele>147.7</ele>
        <time>2016-04-03T17:13:52Z</time>
      </trkpt>
      <trkpt lat="43.93058" lon="3.70531">
        <ele>147.22</ele>
        <time>2016-04-03T17:13:53Z</time>
      </trkpt>
      <trkpt lat="43.93052" lon="3.70523">
        <ele>146.74</ele>
        <time>2016-04-03T17:13:54Z</time>
      </trkpt>
      <trkpt lat="43.93044" lon="3.70519">
        <ele>146.74</ele>
        <time>2016-04-03T17:13:55Z</time>
      </trkpt>
      <trkpt lat="43.93035" lon="3.70524">
        <ele>146.74</ele>
        <time>2016-04-03T17:13:56Z</time>
      </trkpt>
      <trkpt lat="43.93029" lon="3.70533">
        <ele>146.26</ele>
        <time>2016-04-03T17:13:57Z</time>
      </trkpt>
      <trkpt lat="43.93026" lon="3.70546">
        <ele>146.26</ele>
        <time>2016-04-03T17:13:58Z</time>
      </trkpt>
      <trkpt lat="43.93025" lon="3.70561">
        <ele>147.22</ele>
        <time>2016-04-03T17:13:59Z</time>
      </trkpt>
      <trkpt lat="43.93028" lon="3.70572">
        <ele>147.7</ele>
        <time>2016-04-03T17:14:00Z</time>
      </trkpt>
      <trkpt lat="43.93033" lon="3.70581">
        <ele>148.18</ele>
        <time>2016-04-03T17:14:01Z</time>
      </trkpt>
      <trkpt lat="43.93038" lon="3.70591">
        <ele>149.14</ele>
        <time>2016-04-03T17:14:02Z</time>
      </trkpt>
      <trkpt lat="43.9304" lon="3.70602">
        <ele>149.14</ele>
        <time>2016-04-03T17:14:03Z</time>
      </trkpt>
      <trkpt lat="43.9304" lon="3.70613">
        <ele>149.14</ele>
        <time>2016-04-03T17:14:04Z</time>
      </trkpt>
      <trkpt lat="43.93038" lon="3.70625">
        <ele>148.66</ele>
        <time>2016-04-03T17:14:05Z</time>
      </trkpt>
      <trkpt lat="43.93036" lon="3.70637">
        <ele>149.14</ele>
        <time>2016-04-03T17:14:06Z</time>
      </trkpt>
      <trkpt lat="43.93034" lon="3.70651">
        <ele>149.14</ele>
        <time>2016-04-03T17:14:07Z</time>
      </trkpt>
      <trkpt lat="43.93033" lon="3.70666">
        <ele>149.14</ele>
        <time>2016-04-03T17:14:08Z</time>
      </trkpt>
      <trkpt lat="43.93033" lon="3.70681">
        <ele>149.14</ele>
        <time>2016-04-03T17:14:09Z</time>
      </trkpt>
      <trkpt lat="43.93034" lon="3.70696">
        <ele>148.66</ele>
        <time>2016-04-03T17:14:10Z</time>
      </trkpt>
      <trkpt lat="43.93036" lon="3.70711">
        <ele>149.14</ele>
        <time>2016-04-03T17:14:11Z</time>
      </trkpt>
      <trkpt lat="43.93039" lon="3.70728">
        <ele>149.14</ele>
        <time>2016-04-03T17:14:12Z</time>
      </trkpt>
      <trkpt lat="43.93042" lon="3.70744">
        <ele>149.14</ele>
        <time>2016-04-03T17:14:13Z</time>
      </trkpt>
      <trkpt lat="43.93046" lon="3.7076">
        <ele>148.18</ele>
        <time>2016-04-03T17:14:14Z</time>
      </trkpt>
      <trkpt lat="43.93051" lon="3.70776">
        <ele>148.18</ele>
        <time>2016-04-03T17:14:15Z</time>
      </trkpt>
      <trkpt lat="43.93058" lon="3.70791">
        <ele>148.18</ele>
        <time>2016-04-03T17:14:16Z</time>
      </trkpt>
      <trkpt lat="43.93065" lon="3.70806">
        <ele>148.18</ele>
        <time>2016-04-03T17:14:17Z</time>
      </trkpt>
      <trkpt lat="43.93074" lon="3.7082">
        <ele>148.18</ele>
        <time>2016-04-03T17:14:18Z</time>
      </trkpt>
      <trkpt lat="43.93197" lon="3.71025">
        <ele>149.14</ele>
        <time>2016-04-03T17:14:32Z</time>
      </trkpt>
      <trkpt lat="43.93213" lon="3.71059">
        <ele>150.1</ele>
        <time>2016-04-03T17:14:35Z</time>
      </trkpt>
      <trkpt lat="43.93215" lon="3.71069">
        <ele>150.58</ele>
        <time>2016-04-03T17:14:36Z</time>
      </trkpt>
      <trkpt lat="43.93216" lon="3.71079">
        <ele>150.58</ele>
        <time>2016-04-03T17:14:37Z</time>
      </trkpt>
      <trkpt lat="43.93215" lon="3.71092">
        <ele>150.58</ele>
        <time>2016-04-03T17:14:38Z</time>
      </trkpt>
      <trkpt lat="43.93213" lon="3.71106">
        <ele>150.58</ele>
        <time>2016-04-03T17:14:39Z</time>
      </trkpt>
      <trkpt lat="43.93206" lon="3.71117">
        <ele>150.58</ele>
        <time>2016-04-03T17:14:40Z</time>
      </trkpt>
      <trkpt lat="43.93198" lon="3.71127">
        <ele>150.58</ele>
        <time>2016-04-03T17:14:41Z</time>
      </trkpt>
      <trkpt lat="43.93188" lon="3.71135">
        <ele>151.06</ele>
        <time>2016-04-03T17:14:42Z</time>
      </trkpt>
      <trkpt lat="43.93179" lon="3.71142">
        <ele>151.06</ele>
        <time>2016-04-03T17:14:43Z</time>
      </trkpt>
      <trkpt lat="43.93085" lon="3.71216">
        <ele>151.06</ele>
        <time>2016-04-03T17:14:54Z</time>
      </trkpt>
      <trkpt lat="43.92959" lon="3.71316">
        <ele>148.18</ele>
        <time>2016-04-03T17:15:08Z</time>
      </trkpt>
      <trkpt lat="43.92881" lon="3.71376">
        <ele>149.14</ele>
        <time>2016-04-03T17:15:16Z</time>
      </trkpt>
      <trkpt lat="43.92775" lon="3.71462">
        <ele>148.18</ele>
        <time>2016-04-03T17:15:26Z</time>
      </trkpt>
      <trkpt lat="43.92662" lon="3.71551">
        <ele>148.18</ele>
        <time>2016-04-03T17:15:37Z</time>
      </trkpt>
      <trkpt lat="43.92647" lon="3.71559">
        <ele>148.18</ele>
        <time>2016-04-03T17:15:39Z</time>
      </trkpt>
      <trkpt lat="43.92642" lon="3.71569">
        <ele>148.18</ele>
        <time>2016-04-03T17:15:40Z</time>
      </trkpt>
      <trkpt lat="43.92589" lon="3.71668">
        <ele>146.74</ele>
        <time>2016-04-03T17:15:48Z</time>
      </trkpt>
      <trkpt lat="43.9253" lon="3.71849">
        <ele>144.82</ele>
        <time>2016-04-03T17:15:59Z</time>
      </trkpt>
      <trkpt lat="43.9247" lon="3.72031">
        <ele>143.37</ele>
        <time>2016-04-03T17:16:11Z</time>
      </trkpt>
      <trkpt lat="43.92449" lon="3.72074">
        <ele>143.37</ele>
        <time>2016-04-03T17:16:19Z</time>
      </trkpt>
      <trkpt lat="43.9241" lon="3.72138">
        <ele>141.93</ele>
        <time>2016-04-03T17:16:25Z</time>
      </trkpt>
      <trkpt lat="43.9235" lon="3.72247">
        <ele>142.89</ele>
        <time>2016-04-03T17:16:33Z</time>
      </trkpt>
      <trkpt lat="43.92341" lon="3.72256">
        <ele>142.41</ele>
        <time>2016-04-03T17:16:34Z</time>
      </trkpt>
      <trkpt lat="43.92332" lon="3.72265">
        <ele>142.41</ele>
        <time>2016-04-03T17:16:35Z</time>
      </trkpt>
      <trkpt lat="43.92322" lon="3.72272">
        <ele>142.41</ele>
        <time>2016-04-03T17:16:36Z</time>
      </trkpt>
      <trkpt lat="43.92311" lon="3.72278">
        <ele>142.41</ele>
        <time>2016-04-03T17:16:37Z</time>
      </trkpt>
      <trkpt lat="43.92301" lon="3.72282">
        <ele>142.41</ele>
        <time>2016-04-03T17:16:38Z</time>
      </trkpt>
      <trkpt lat="43.92291" lon="3.72285">
        <ele>142.41</ele>
        <time>2016-04-03T17:16:39Z</time>
      </trkpt>
      <trkpt lat="43.92239" lon="3.72299">
        <ele>141.93</ele>
        <time>2016-04-03T17:16:46Z</time>
      </trkpt>
      <trkpt lat="43.92233" lon="3.72306">
        <ele>141.93</ele>
        <time>2016-04-03T17:16:47Z</time>
      </trkpt>
      <trkpt lat="43.92228" lon="3.72312">
        <ele>141.93</ele>
        <time>2016-04-03T17:16:48Z</time>
      </trkpt>
      <trkpt lat="43.9221" lon="3.72341">
        <ele>142.41</ele>
        <time>2016-04-03T17:16:52Z</time>
      </trkpt>
      <trkpt lat="43.92207" lon="3.72349">
        <ele>141.93</ele>
        <time>2016-04-03T17:16:53Z</time>
      </trkpt>
      <trkpt lat="43.92204" lon="3.72359">
        <ele>141.93</ele>
        <time>2016-04-03T17:16:54Z</time>
      </trkpt>
      <trkpt lat="43.92199" lon="3.72388">
        <ele>141.45</ele>
        <time>2016-04-03T17:16:57Z</time>
      </trkpt>
      <trkpt lat="43.92183" lon="3.72486">
        <ele>141.45</ele>
        <time>2016-04-03T17:17:07Z</time>
      </trkpt>
      <trkpt lat="43.92178" lon="3.72496">
        <ele>141.45</ele>
        <time>2016-04-03T17:17:08Z</time>
      </trkpt>
      <trkpt lat="43.92173" lon="3.72506">
        <ele>141.93</ele>
        <time>2016-04-03T17:17:09Z</time>
      </trkpt>
      <trkpt lat="43.92167" lon="3.72515">
        <ele>142.41</ele>
        <time>2016-04-03T17:17:10Z</time>
      </trkpt>
      <trkpt lat="43.92161" lon="3.72524">
        <ele>142.41</ele>
        <time>2016-04-03T17:17:11Z</time>
      </trkpt>
      <trkpt lat="43.92154" lon="3.72531">
        <ele>142.89</ele>
        <time>2016-04-03T17:17:12Z</time>
      </trkpt>
      <trkpt lat="43.92118" lon="3.72564">
        <ele>142.89</ele>
        <time>2016-04-03T17:17:17Z</time>
      </trkpt>
      <trkpt lat="43.92108" lon="3.72568">
        <ele>142.89</ele>
        <time>2016-04-03T17:17:18Z</time>
      </trkpt>
      <trkpt lat="43.92098" lon="3.7257">
        <ele>142.89</ele>
        <time>2016-04-03T17:17:19Z</time>
      </trkpt>
      <trkpt lat="43.92087" lon="3.72568">
        <ele>142.89</ele>
        <time>2016-04-03T17:17:20Z</time>
      </trkpt>
      <trkpt lat="43.92075" lon="3.72561">
        <ele>143.37</ele>
        <time>2016-04-03T17:17:21Z</time>
      </trkpt>
      <trkpt lat="43.92064" lon="3.72555">
        <ele>143.85</ele>
        <time>2016-04-03T17:17:22Z</time>
      </trkpt>
      <trkpt lat="43.92052" lon="3.72552">
        <ele>143.85</ele>
        <time>2016-04-03T17:17:23Z</time>
      </trkpt>
      <trkpt lat="43.92041" lon="3.72553">
        <ele>143.85</ele>
        <time>2016-04-03T17:17:24Z</time>
      </trkpt>
      <trkpt lat="43.9203" lon="3.72555">
        <ele>146.74</ele>
        <time>2016-04-03T17:17:25Z</time>
      </trkpt>
      <trkpt lat="43.92018" lon="3.72562">
        <ele>145.78</ele>
        <time>2016-04-03T17:17:26Z</time>
      </trkpt>
      <trkpt lat="43.92006" lon="3.72573">
        <ele>143.85</ele>
        <time>2016-04-03T17:17:27Z</time>
      </trkpt>
      <trkpt lat="43.91995" lon="3.72583">
        <ele>142.89</ele>
        <time>2016-04-03T17:17:28Z</time>
      </trkpt>
      <trkpt lat="43.91897" lon="3.7265">
        <ele>143.37</ele>
        <time>2016-04-03T17:17:36Z</time>
      </trkpt>
      <trkpt lat="43.91887" lon="3.72662">
        <ele>143.37</ele>
        <time>2016-04-03T17:17:37Z</time>
      </trkpt>
      <trkpt lat="43.91877" lon="3.72676">
        <ele>143.37</ele>
        <time>2016-04-03T17:17:38Z</time>
      </trkpt>
      <trkpt lat="43.91868" lon="3.72691">
        <ele>143.37</ele>
        <time>2016-04-03T17:17:39Z</time>
      </trkpt>
      <trkpt lat="43.91859" lon="3.72706">
        <ele>143.37</ele>
        <time>2016-04-03T17:17:40Z</time>
      </trkpt>
      <trkpt lat="43.91851" lon="3.72722">
        <ele>143.37</ele>
        <time>2016-04-03T17:17:41Z</time>
      </trkpt>
      <trkpt lat="43.91832" lon="3.72751">
        <ele>143.37</ele>
        <time>2016-04-03T17:17:43Z</time>
      </trkpt>
      <trkpt lat="43.91821" lon="3.72765">
        <ele>142.89</ele>
        <time>2016-04-03T17:17:44Z</time>
      </trkpt>
      <trkpt lat="43.91808" lon="3.72776">
        <ele>143.37</ele>
        <time>2016-04-03T17:17:45Z</time>
      </trkpt>
      <trkpt lat="43.91795" lon="3.72785">
        <ele>143.37</ele>
        <time>2016-04-03T17:17:46Z</time>
      </trkpt>
      <trkpt lat="43.91781" lon="3.72793">
        <ele>142.89</ele>
        <time>2016-04-03T17:17:47Z</time>
      </trkpt>
      <trkpt lat="43.91766" lon="3.72798">
        <ele>142.89</ele>
        <time>2016-04-03T17:17:48Z</time>
      </trkpt>
      <trkpt lat="43.91751" lon="3.72799">
        <ele>142.41</ele>
        <time>2016-04-03T17:17:49Z</time>
      </trkpt>
      <trkpt lat="43.91735" lon="3.72797">
        <ele>142.41</ele>
        <time>2016-04-03T17:17:50Z</time>
      </trkpt>
      <trkpt lat="43.91719" lon="3.72793">
        <ele>141.93</ele>
        <time>2016-04-03T17:17:51Z</time>
      </trkpt>
      <trkpt lat="43.91704" lon="3.72788">
        <ele>141.45</ele>
        <time>2016-04-03T17:17:52Z</time>
      </trkpt>
      <trkpt lat="43.91609" lon="3.72762">
        <ele>144.82</ele>
        <time>2016-04-03T17:17:59Z</time>
      </trkpt>
      <trkpt lat="43.91596" lon="3.72764">
        <ele>144.82</ele>
        <time>2016-04-03T17:18:00Z</time>
      </trkpt>
      <trkpt lat="43.91584" lon="3.72768">
        <ele>146.26</ele>
        <time>2016-04-03T17:18:01Z</time>
      </trkpt>
      <trkpt lat="43.91574" lon="3.72784">
        <ele>145.3</ele>
        <time>2016-04-03T17:18:02Z</time>
      </trkpt>
      <trkpt lat="43.91568" lon="3.72797">
        <ele>145.3</ele>
        <time>2016-04-03T17:18:03Z</time>
      </trkpt>
      <trkpt lat="43.91562" lon="3.72814">
        <ele>143.85</ele>
        <time>2016-04-03T17:18:04Z</time>
      </trkpt>
      <trkpt lat="43.91562" lon="3.72833">
        <ele>142.89</ele>
        <time>2016-04-03T17:18:05Z</time>
      </trkpt>
      <trkpt lat="43.91565" lon="3.72849">
        <ele>141.45</ele>
        <time>2016-04-03T17:18:06Z</time>
      </trkpt>
      <trkpt lat="43.91573" lon="3.72865">
        <ele>140.97</ele>
        <time>2016-04-03T17:18:07Z</time>
      </trkpt>
      <trkpt lat="43.91586" lon="3.7288">
        <ele>140.97</ele>
        <time>2016-04-03T17:18:08Z</time>
      </trkpt>
      <trkpt lat="43.91595" lon="3.72896">
        <ele>140.97</ele>
        <time>2016-04-03T17:18:09Z</time>
      </trkpt>
      <trkpt lat="43.91649" lon="3.73053">
        <ele>137.13</ele>
        <time>2016-04-03T17:18:18Z</time>
      </trkpt>
      <trkpt lat="43.91682" lon="3.73223">
        <ele>138.09</ele>
        <time>2016-04-03T17:18:27Z</time>
      </trkpt>
      <trkpt lat="43.91683" lon="3.73244">
        <ele>138.09</ele>
        <time>2016-04-03T17:18:28Z</time>
      </trkpt>
      <trkpt lat="43.91681" lon="3.73266">
        <ele>137.61</ele>
        <time>2016-04-03T17:18:29Z</time>
      </trkpt>
      <trkpt lat="43.91664" lon="3.73395">
        <ele>137.61</ele>
        <time>2016-04-03T17:18:35Z</time>
      </trkpt>
      <trkpt lat="43.91657" lon="3.73417">
        <ele>137.61</ele>
        <time>2016-04-03T17:18:36Z</time>
      </trkpt>
      <trkpt lat="43.91561" lon="3.73642">
        <ele>139.53</ele>
        <time>2016-04-03T17:18:47Z</time>
      </trkpt>
      <trkpt lat="43.91508" lon="3.7373">
        <ele>142.89</ele>
        <time>2016-04-03T17:18:52Z</time>
      </trkpt>
      <trkpt lat="43.91494" lon="3.73744">
        <ele>142.41</ele>
        <time>2016-04-03T17:18:53Z</time>
      </trkpt>
      <trkpt lat="43.91477" lon="3.73756">
        <ele>141.45</ele>
        <time>2016-04-03T17:18:54Z</time>
      </trkpt>
      <trkpt lat="43.91459" lon="3.73767">
        <ele>140.49</ele>
        <time>2016-04-03T17:18:55Z</time>
      </trkpt>
      <trkpt lat="43.91441" lon="3.73778">
        <ele>140.49</ele>
        <time>2016-04-03T17:18:56Z</time>
      </trkpt>
      <trkpt lat="43.91374" lon="3.73812">
        <ele>139.05</ele>
        <time>2016-04-03T17:19:00Z</time>
      </trkpt>
      <trkpt lat="43.91357" lon="3.73816">
        <ele>139.05</ele>
        <time>2016-04-03T17:19:01Z</time>
      </trkpt>
      <trkpt lat="43.91339" lon="3.73815">
        <ele>139.05</ele>
        <time>2016-04-03T17:19:02Z</time>
      </trkpt>
      <trkpt lat="43.91321" lon="3.73809">
        <ele>138.09</ele>
        <time>2016-04-03T17:19:03Z</time>
      </trkpt>
      <trkpt lat="43.91303" lon="3.73799">
        <ele>137.61</ele>
        <time>2016-04-03T17:19:04Z</time>
      </trkpt>
      <trkpt lat="43.91286" lon="3.73785">
        <ele>137.61</ele>
        <time>2016-04-03T17:19:05Z</time>
      </trkpt>
      <trkpt lat="43.91272" lon="3.73769">
        <ele>137.13</ele>
        <time>2016-04-03T17:19:06Z</time>
      </trkpt>
      <trkpt lat="43.91258" lon="3.73754">
        <ele>137.61</ele>
        <time>2016-04-03T17:19:07Z</time>
      </trkpt>
      <trkpt lat="43.91158" lon="3.73669">
        <ele>137.61</ele>
        <time>2016-04-03T17:19:14Z</time>
      </trkpt>
      <trkpt lat="43.9114" lon="3.73662">
        <ele>137.13</ele>
        <time>2016-04-03T17:19:15Z</time>
      </trkpt>
      <trkpt lat="43.9105" lon="3.73646">
        <ele>136.16</ele>
        <time>2016-04-03T17:19:20Z</time>
      </trkpt>
      <trkpt lat="43.91033" lon="3.73649">
        <ele>135.68</ele>
        <time>2016-04-03T17:19:21Z</time>
      </trkpt>
      <trkpt lat="43.91015" lon="3.73654">
        <ele>136.16</ele>
        <time>2016-04-03T17:19:22Z</time>
      </trkpt>
      <trkpt lat="43.90997" lon="3.73661">
        <ele>136.16</ele>
        <time>2016-04-03T17:19:23Z</time>
      </trkpt>
      <trkpt lat="43.9098" lon="3.73671">
        <ele>135.68</ele>
        <time>2016-04-03T17:19:24Z</time>
      </trkpt>
      <trkpt lat="43.90963" lon="3.73683">
        <ele>135.68</ele>
        <time>2016-04-03T17:19:25Z</time>
      </trkpt>
      <trkpt lat="43.90947" lon="3.73697">
        <ele>135.2</ele>
        <time>2016-04-03T17:19:26Z</time>
      </trkpt>
      <trkpt lat="43.9093" lon="3.7371">
        <ele>135.2</ele>
        <time>2016-04-03T17:19:27Z</time>
      </trkpt>
      <trkpt lat="43.90852" lon="3.73769">
        <ele>135.2</ele>
        <time>2016-04-03T17:19:32Z</time>
      </trkpt>
      <trkpt lat="43.90816" lon="3.73777">
        <ele>135.2</ele>
        <time>2016-04-03T17:19:34Z</time>
      </trkpt>
      <trkpt lat="43.90797" lon="3.73777">
        <ele>135.2</ele>
        <time>2016-04-03T17:19:35Z</time>
      </trkpt>
      <trkpt lat="43.90777" lon="3.73773">
        <ele>135.2</ele>
        <time>2016-04-03T17:19:36Z</time>
      </trkpt>
      <trkpt lat="43.90605" lon="3.7375">
        <ele>138.09</ele>
        <time>2016-04-03T17:19:46Z</time>
      </trkpt>
      <trkpt lat="43.90492" lon="3.73779">
        <ele>143.37</ele>
        <time>2016-04-03T17:19:54Z</time>
      </trkpt>
      <trkpt lat="43.90389" lon="3.73804">
        <ele>141.93</ele>
        <time>2016-04-03T17:20:03Z</time>
      </trkpt>
      <trkpt lat="43.90378" lon="3.73803">
        <ele>141.93</ele>
        <time>2016-04-03T17:20:04Z</time>
      </trkpt>
      <trkpt lat="43.90272" lon="3.73776">
        <ele>139.05</ele>
        <time>2016-04-03T17:20:14Z</time>
      </trkpt>
      <trkpt lat="43.90172" lon="3.73748">
        <ele>137.61</ele>
        <time>2016-04-03T17:20:24Z</time>
      </trkpt>
      <trkpt lat="43.90049" lon="3.73714">
        <ele>135.68</ele>
        <time>2016-04-03T17:20:36Z</time>
      </trkpt>
      <trkpt lat="43.89912" lon="3.73679">
        <ele>134.24</ele>
        <time>2016-04-03T17:20:51Z</time>
      </trkpt>
      <trkpt lat="43.89877" lon="3.7367">
        <ele>135.68</ele>
        <time>2016-04-03T17:20:55Z</time>
      </trkpt>
      <trkpt lat="43.89867" lon="3.7367">
        <ele>135.68</ele>
        <time>2016-04-03T17:20:56Z</time>
      </trkpt>
      <trkpt lat="43.89857" lon="3.73672">
        <ele>135.68</ele>
        <time>2016-04-03T17:20:57Z</time>
      </trkpt>
      <trkpt lat="43.89721" lon="3.73717">
        <ele>136.16</ele>
        <time>2016-04-03T17:21:11Z</time>
      </trkpt>
      <trkpt lat="43.89635" lon="3.73749">
        <ele>143.85</ele>
        <time>2016-04-03T17:21:22Z</time>
      </trkpt>
      <trkpt lat="43.89542" lon="3.73774">
        <ele>144.82</ele>
        <time>2016-04-03T17:21:33Z</time>
      </trkpt>
      <trkpt lat="43.89459" lon="3.738">
        <ele>144.34</ele>
        <time>2016-04-03T17:21:43Z</time>
      </trkpt>
      <trkpt lat="43.89401" lon="3.73818">
        <ele>142.89</ele>
        <time>2016-04-03T17:21:51Z</time>
      </trkpt>
      <trkpt lat="43.89381" lon="3.73824">
        <ele>142.89</ele>
        <time>2016-04-03T17:21:53Z</time>
      </trkpt>
      <trkpt lat="43.89297" lon="3.73852">
        <ele>140.01</ele>
        <time>2016-04-03T17:22:04Z</time>
      </trkpt>
      <trkpt lat="43.89203" lon="3.7388">
        <ele>138.09</ele>
        <time>2016-04-03T17:22:15Z</time>
      </trkpt>
      <trkpt lat="43.89087" lon="3.73917">
        <ele>136.16</ele>
        <time>2016-04-03T17:22:27Z</time>
      </trkpt>
      <trkpt lat="43.88992" lon="3.73947">
        <ele>134.24</ele>
        <time>2016-04-03T17:22:38Z</time>
      </trkpt>
      <trkpt lat="43.88955" lon="3.73957">
        <ele>133.28</ele>
        <time>2016-04-03T17:22:43Z</time>
      </trkpt>
      <trkpt lat="43.88949" lon="3.73955">
        <ele>133.28</ele>
        <time>2016-04-03T17:22:44Z</time>
      </trkpt>
      <trkpt lat="43.88943" lon="3.7395">
        <ele>133.28</ele>
        <time>2016-04-03T17:22:45Z</time>
      </trkpt>
      <trkpt lat="43.88937" lon="3.73947">
        <ele>133.28</ele>
        <time>2016-04-03T17:22:46Z</time>
      </trkpt>
      <trkpt lat="43.88931" lon="3.73946">
        <ele>133.28</ele>
        <time>2016-04-03T17:22:47Z</time>
      </trkpt>
      <trkpt lat="43.88926" lon="3.73951">
        <ele>132.8</ele>
        <time>2016-04-03T17:22:48Z</time>
      </trkpt>
      <trkpt lat="43.88922" lon="3.73959">
        <ele>132.8</ele>
        <time>2016-04-03T17:22:49Z</time>
      </trkpt>
      <trkpt lat="43.88917" lon="3.73968">
        <ele>132.8</ele>
        <time>2016-04-03T17:22:50Z</time>
      </trkpt>
      <trkpt lat="43.88909" lon="3.73977">
        <ele>132.8</ele>
        <time>2016-04-03T17:22:51Z</time>
      </trkpt>
      <trkpt lat="43.889" lon="3.73984">
        <ele>132.8</ele>
        <time>2016-04-03T17:22:52Z</time>
      </trkpt>
      <trkpt lat="43.8889" lon="3.73991">
        <ele>133.28</ele>
        <time>2016-04-03T17:22:53Z</time>
      </trkpt>
      <trkpt lat="43.88879" lon="3.73997">
        <ele>133.28</ele>
        <time>2016-04-03T17:22:54Z</time>
      </trkpt>
      <trkpt lat="43.88722" lon="3.74059">
        <ele>137.61</ele>
        <time>2016-04-03T17:23:07Z</time>
      </trkpt>
      <trkpt lat="43.886" lon="3.74048">
        <ele>141.93</ele>
        <time>2016-04-03T17:23:14Z</time>
      </trkpt>
      <trkpt lat="43.88441" lon="3.74062">
        <ele>150.58</ele>
        <time>2016-04-03T17:23:22Z</time>
      </trkpt>
      <trkpt lat="43.8838" lon="3.741">
        <ele>153.47</ele>
        <time>2016-04-03T17:23:25Z</time>
      </trkpt>
      <trkpt lat="43.88361" lon="3.74117">
        <ele>154.43</ele>
        <time>2016-04-03T17:23:26Z</time>
      </trkpt>
      <trkpt lat="43.88343" lon="3.74138">
        <ele>154.91</ele>
        <time>2016-04-03T17:23:27Z</time>
      </trkpt>
      <trkpt lat="43.88326" lon="3.7416">
        <ele>155.39</ele>
        <time>2016-04-03T17:23:28Z</time>
      </trkpt>
      <trkpt lat="43.88312" lon="3.74184">
        <ele>156.83</ele>
        <time>2016-04-03T17:23:29Z</time>
      </trkpt>
      <trkpt lat="43.88298" lon="3.74208">
        <ele>157.31</ele>
        <time>2016-04-03T17:23:30Z</time>
      </trkpt>
      <trkpt lat="43.88183" lon="3.74385">
        <ele>162.6</ele>
        <time>2016-04-03T17:23:38Z</time>
      </trkpt>
      <trkpt lat="43.88059" lon="3.7447">
        <ele>167.41</ele>
        <time>2016-04-03T17:23:44Z</time>
      </trkpt>
      <trkpt lat="43.87927" lon="3.745">
        <ele>170.77</ele>
        <time>2016-04-03T17:23:50Z</time>
      </trkpt>
      <trkpt lat="43.87906" lon="3.74498">
        <ele>171.73</ele>
        <time>2016-04-03T17:23:51Z</time>
      </trkpt>
      <trkpt lat="43.87884" lon="3.74491">
        <ele>172.21</ele>
        <time>2016-04-03T17:23:52Z</time>
      </trkpt>
      <trkpt lat="43.87863" lon="3.74482">
        <ele>173.66</ele>
        <time>2016-04-03T17:23:53Z</time>
      </trkpt>
      <trkpt lat="43.87844" lon="3.74467">
        <ele>174.14</ele>
        <time>2016-04-03T17:23:54Z</time>
      </trkpt>
      <trkpt lat="43.87824" lon="3.74449">
        <ele>173.17</ele>
        <time>2016-04-03T17:23:55Z</time>
      </trkpt>
      <trkpt lat="43.87806" lon="3.74427">
        <ele>173.17</ele>
        <time>2016-04-03T17:23:56Z</time>
      </trkpt>
      <trkpt lat="43.8779" lon="3.74403">
        <ele>173.17</ele>
        <time>2016-04-03T17:23:57Z</time>
      </trkpt>
      <trkpt lat="43.87777" lon="3.74376">
        <ele>173.66</ele>
        <time>2016-04-03T17:23:58Z</time>
      </trkpt>
      <trkpt lat="43.87766" lon="3.74347">
        <ele>174.62</ele>
        <time>2016-04-03T17:23:59Z</time>
      </trkpt>
      <trkpt lat="43.87754" lon="3.7432">
        <ele>175.1</ele>
        <time>2016-04-03T17:24:00Z</time>
      </trkpt>
      <trkpt lat="43.87726" lon="3.74272">
        <ele>176.06</ele>
        <time>2016-04-03T17:24:02Z</time>
      </trkpt>
      <trkpt lat="43.8771" lon="3.74251">
        <ele>176.54</ele>
        <time>2016-04-03T17:24:03Z</time>
      </trkpt>
      <trkpt lat="43.87692" lon="3.74233">
        <ele>177.02</ele>
        <time>2016-04-03T17:24:04Z</time>
      </trkpt>
      <trkpt lat="43.87674" lon="3.74217">
        <ele>177.98</ele>
        <time>2016-04-03T17:24:05Z</time>
      </trkpt>
      <trkpt lat="43.87654" lon="3.74203">
        <ele>178.46</ele>
        <time>2016-04-03T17:24:06Z</time>
      </trkpt>
      <trkpt lat="43.87633" lon="3.74192">
        <ele>179.42</ele>
        <time>2016-04-03T17:24:07Z</time>
      </trkpt>
      <trkpt lat="43.87611" lon="3.74185">
        <ele>179.9</ele>
        <time>2016-04-03T17:24:08Z</time>
      </trkpt>
      <trkpt lat="43.87588" lon="3.74181">
        <ele>180.38</ele>
        <time>2016-04-03T17:24:09Z</time>
      </trkpt>
      <trkpt lat="43.87564" lon="3.7418">
        <ele>180.38</ele>
        <time>2016-04-03T17:24:10Z</time>
      </trkpt>
      <trkpt lat="43.87541" lon="3.74182">
        <ele>180.87</ele>
        <time>2016-04-03T17:24:11Z</time>
      </trkpt>
      <trkpt lat="43.87518" lon="3.74187">
        <ele>181.35</ele>
        <time>2016-04-03T17:24:12Z</time>
      </trkpt>
      <trkpt lat="43.87496" lon="3.74193">
        <ele>181.83</ele>
        <time>2016-04-03T17:24:13Z</time>
      </trkpt>
      <trkpt lat="43.87253" lon="3.74243">
        <ele>187.11</ele>
        <time>2016-04-03T17:24:24Z</time>
      </trkpt>
      <trkpt lat="43.87054" lon="3.74212">
        <ele>193.36</ele>
        <time>2016-04-03T17:24:33Z</time>
      </trkpt>
      <trkpt lat="43.86844" lon="3.74107">
        <ele>201.05</ele>
        <time>2016-04-03T17:24:43Z</time>
      </trkpt>
      <trkpt lat="43.86697" lon="3.7403">
        <ele>206.82</ele>
        <time>2016-04-03T17:24:50Z</time>
      </trkpt>
      <trkpt lat="43.86676" lon="3.74028">
        <ele>207.3</ele>
        <time>2016-04-03T17:24:51Z</time>
      </trkpt>
      <trkpt lat="43.86655" lon="3.74028">
        <ele>208.26</ele>
        <time>2016-04-03T17:24:52Z</time>
      </trkpt>
      <trkpt lat="43.86634" lon="3.7403">
        <ele>208.74</ele>
        <time>2016-04-03T17:24:53Z</time>
      </trkpt>
      <trkpt lat="43.86614" lon="3.74035">
        <ele>209.7</ele>
        <time>2016-04-03T17:24:54Z</time>
      </trkpt>
      <trkpt lat="43.86595" lon="3.74041">
        <ele>210.19</ele>
        <time>2016-04-03T17:24:55Z</time>
      </trkpt>
      <trkpt lat="43.86576" lon="3.74049">
        <ele>211.15</ele>
        <time>2016-04-03T17:24:56Z</time>
      </trkpt>
      <trkpt lat="43.86559" lon="3.74057">
        <ele>211.63</ele>
        <time>2016-04-03T17:24:57Z</time>
      </trkpt>
      <trkpt lat="43.86414" lon="3.74157">
        <ele>215.95</ele>
        <time>2016-04-03T17:25:06Z</time>
      </trkpt>
      <trkpt lat="43.8626" lon="3.74279">
        <ele>221.72</ele>
        <time>2016-04-03T17:25:15Z</time>
      </trkpt>
      <trkpt lat="43.86159" lon="3.74316">
        <ele>229.41</ele>
        <time>2016-04-03T17:25:20Z</time>
      </trkpt>
      <trkpt lat="43.86137" lon="3.74316">
        <ele>231.33</ele>
        <time>2016-04-03T17:25:21Z</time>
      </trkpt>
      <trkpt lat="43.86116" lon="3.74314">
        <ele>233.26</ele>
        <time>2016-04-03T17:25:22Z</time>
      </trkpt>
      <trkpt lat="43.86095" lon="3.7431">
        <ele>235.18</ele>
        <time>2016-04-03T17:25:23Z</time>
      </trkpt>
      <trkpt lat="43.86074" lon="3.74304">
        <ele>237.1</ele>
        <time>2016-04-03T17:25:24Z</time>
      </trkpt>
      <trkpt lat="43.86054" lon="3.74295">
        <ele>239.02</ele>
        <time>2016-04-03T17:25:25Z</time>
      </trkpt>
      <trkpt lat="43.86034" lon="3.74283">
        <ele>240.95</ele>
        <time>2016-04-03T17:25:26Z</time>
      </trkpt>
      <trkpt lat="43.86014" lon="3.7427">
        <ele>242.87</ele>
        <time>2016-04-03T17:25:27Z</time>
      </trkpt>
      <trkpt lat="43.85847" lon="3.74181">
        <ele>259.21</ele>
        <time>2016-04-03T17:25:35Z</time>
      </trkpt>
      <trkpt lat="43.85714" lon="3.74184">
        <ele>272.19</ele>
        <time>2016-04-03T17:25:41Z</time>
      </trkpt>
      <trkpt lat="43.85512" lon="3.7421">
        <ele>289.97</ele>
        <time>2016-04-03T17:25:50Z</time>
      </trkpt>
      <trkpt lat="43.85328" lon="3.74183">
        <ele>304.88</ele>
        <time>2016-04-03T17:25:58Z</time>
      </trkpt>
      <trkpt lat="43.85111" lon="3.74077">
        <ele>323.14</ele>
        <time>2016-04-03T17:26:08Z</time>
      </trkpt>
      <trkpt lat="43.84887" lon="3.73985">
        <ele>324.58</ele>
        <time>2016-04-03T17:26:18Z</time>
      </trkpt>
      <trkpt lat="43.84743" lon="3.74019">
        <ele>316.89</ele>
        <time>2016-04-03T17:26:24Z</time>
      </trkpt>
      <trkpt lat="43.84507" lon="3.74139">
        <ele>305.36</ele>
        <time>2016-04-03T17:26:34Z</time>
      </trkpt>
      <trkpt lat="43.84143" lon="3.74342">
        <ele>275.56</ele>
        <time>2016-04-03T17:26:50Z</time>
      </trkpt>
      <trkpt lat="43.83936" lon="3.74425">
        <ele>259.69</ele>
        <time>2016-04-03T17:26:59Z</time>
      </trkpt>
      <trkpt lat="43.83793" lon="3.74408">
        <ele>251.52</ele>
        <time>2016-04-03T17:27:05Z</time>
      </trkpt>
      <trkpt lat="43.83639" lon="3.7432">
        <ele>244.31</ele>
        <time>2016-04-03T17:27:12Z</time>
      </trkpt>
      <trkpt lat="43.83468" lon="3.74235">
        <ele>238.06</ele>
        <time>2016-04-03T17:27:20Z</time>
      </trkpt>
      <trkpt lat="43.83446" lon="3.7423">
        <ele>237.1</ele>
        <time>2016-04-03T17:27:21Z</time>
      </trkpt>
      <trkpt lat="43.83424" lon="3.74229">
        <ele>235.66</ele>
        <time>2016-04-03T17:27:22Z</time>
      </trkpt>
      <trkpt lat="43.83402" lon="3.74231">
        <ele>234.7</ele>
        <time>2016-04-03T17:27:23Z</time>
      </trkpt>
      <trkpt lat="43.83379" lon="3.74236">
        <ele>233.74</ele>
        <time>2016-04-03T17:27:24Z</time>
      </trkpt>
      <trkpt lat="43.83357" lon="3.74244">
        <ele>232.3</ele>
        <time>2016-04-03T17:27:25Z</time>
      </trkpt>
      <trkpt lat="43.83336" lon="3.7426">
        <ele>230.85</ele>
        <time>2016-04-03T17:27:26Z</time>
      </trkpt>
      <trkpt lat="43.83316" lon="3.74278">
        <ele>229.89</ele>
        <time>2016-04-03T17:27:27Z</time>
      </trkpt>
      <trkpt lat="43.83296" lon="3.74297">
        <ele>228.93</ele>
        <time>2016-04-03T17:27:28Z</time>
      </trkpt>
      <trkpt lat="43.83277" lon="3.74316">
        <ele>227.97</ele>
        <time>2016-04-03T17:27:29Z</time>
      </trkpt>
      <trkpt lat="43.83088" lon="3.74495">
        <ele>220.28</ele>
        <time>2016-04-03T17:27:39Z</time>
      </trkpt>
      <trkpt lat="43.83066" lon="3.74505">
        <ele>219.8</ele>
        <time>2016-04-03T17:27:40Z</time>
      </trkpt>
      <trkpt lat="43.83043" lon="3.74511">
        <ele>219.32</ele>
        <time>2016-04-03T17:27:41Z</time>
      </trkpt>
      <trkpt lat="43.83019" lon="3.74513">
        <ele>218.84</ele>
        <time>2016-04-03T17:27:42Z</time>
      </trkpt>
      <trkpt lat="43.82994" lon="3.74511">
        <ele>217.88</ele>
        <time>2016-04-03T17:27:43Z</time>
      </trkpt>
      <trkpt lat="43.82971" lon="3.74509">
        <ele>217.4</ele>
        <time>2016-04-03T17:27:44Z</time>
      </trkpt>
      <trkpt lat="43.82789" lon="3.74493">
        <ele>213.55</ele>
        <time>2016-04-03T17:27:53Z</time>
      </trkpt>
      <trkpt lat="43.82406" lon="3.74462">
        <ele>214.51</ele>
        <time>2016-04-03T17:28:11Z</time>
      </trkpt>
      <trkpt lat="43.82125" lon="3.7446">
        <ele>211.63</ele>
        <time>2016-04-03T17:28:24Z</time>
      </trkpt>
      <trkpt lat="43.8194" lon="3.74444">
        <ele>203.94</ele>
        <time>2016-04-03T17:28:33Z</time>
      </trkpt>
      <trkpt lat="43.8192" lon="3.74443">
        <ele>202.98</ele>
        <time>2016-04-03T17:28:34Z</time>
      </trkpt>
      <trkpt lat="43.819" lon="3.74444">
        <ele>202.01</ele>
        <time>2016-04-03T17:28:35Z</time>
      </trkpt>
      <trkpt lat="43.8188" lon="3.74448">
        <ele>201.05</ele>
        <time>2016-04-03T17:28:36Z</time>
      </trkpt>
      <trkpt lat="43.81798" lon="3.74455">
        <ele>197.69</ele>
        <time>2016-04-03T17:28:40Z</time>
      </trkpt>
      <trkpt lat="43.81777" lon="3.74448">
        <ele>196.73</ele>
        <time>2016-04-03T17:28:41Z</time>
      </trkpt>
      <trkpt lat="43.81756" lon="3.74439">
        <ele>195.77</ele>
        <time>2016-04-03T17:28:42Z</time>
      </trkpt>
      <trkpt lat="43.81736" lon="3.74428">
        <ele>194.8</ele>
        <time>2016-04-03T17:28:43Z</time>
      </trkpt>
      <trkpt lat="43.81716" lon="3.74416">
        <ele>193.84</ele>
        <time>2016-04-03T17:28:44Z</time>
      </trkpt>
      <trkpt lat="43.81576" lon="3.74342">
        <ele>187.59</ele>
        <time>2016-04-03T17:28:51Z</time>
      </trkpt>
      <trkpt lat="43.81555" lon="3.74338">
        <ele>186.63</ele>
        <time>2016-04-03T17:28:52Z</time>
      </trkpt>
      <trkpt lat="43.81533" lon="3.74337">
        <ele>186.15</ele>
        <time>2016-04-03T17:28:53Z</time>
      </trkpt>
      <trkpt lat="43.81512" lon="3.74339">
        <ele>185.19</ele>
        <time>2016-04-03T17:28:54Z</time>
      </trkpt>
      <trkpt lat="43.81491" lon="3.74344">
        <ele>184.23</ele>
        <time>2016-04-03T17:28:55Z</time>
      </trkpt>
      <trkpt lat="43.8147" lon="3.74349">
        <ele>183.27</ele>
        <time>2016-04-03T17:28:56Z</time>
      </trkpt>
      <trkpt lat="43.81313" lon="3.74385">
        <ele>177.02</ele>
        <time>2016-04-03T17:29:04Z</time>
      </trkpt>
      <trkpt lat="43.81293" lon="3.74379">
        <ele>176.54</ele>
        <time>2016-04-03T17:29:05Z</time>
      </trkpt>
      <trkpt lat="43.81273" lon="3.74366">
        <ele>175.58</ele>
        <time>2016-04-03T17:29:06Z</time>
      </trkpt>
      <trkpt lat="43.81254" lon="3.74348">
        <ele>174.62</ele>
        <time>2016-04-03T17:29:07Z</time>
      </trkpt>
      <trkpt lat="43.81239" lon="3.74324">
        <ele>174.62</ele>
        <time>2016-04-03T17:29:08Z</time>
      </trkpt>
      <trkpt lat="43.81226" lon="3.74299">
        <ele>174.14</ele>
        <time>2016-04-03T17:29:09Z</time>
      </trkpt>
      <trkpt lat="43.81213" lon="3.74273">
        <ele>173.66</ele>
        <time>2016-04-03T17:29:10Z</time>
      </trkpt>
      <trkpt lat="43.812" lon="3.74247">
        <ele>173.66</ele>
        <time>2016-04-03T17:29:11Z</time>
      </trkpt>
      <trkpt lat="43.81148" lon="3.74158">
        <ele>174.62</ele>
        <time>2016-04-03T17:29:15Z</time>
      </trkpt>
      <trkpt lat="43.81131" lon="3.74144">
        <ele>174.14</ele>
        <time>2016-04-03T17:29:16Z</time>
      </trkpt>
      <trkpt lat="43.8111" lon="3.74131">
        <ele>174.62</ele>
        <time>2016-04-03T17:29:17Z</time>
      </trkpt>
      <trkpt lat="43.81087" lon="3.74123">
        <ele>175.58</ele>
        <time>2016-04-03T17:29:18Z</time>
      </trkpt>
      <trkpt lat="43.81064" lon="3.74124">
        <ele>176.06</ele>
        <time>2016-04-03T17:29:19Z</time>
      </trkpt>
      <trkpt lat="43.8104" lon="3.74127">
        <ele>177.02</ele>
        <time>2016-04-03T17:29:20Z</time>
      </trkpt>
      <trkpt lat="43.81017" lon="3.74132">
        <ele>177.5</ele>
        <time>2016-04-03T17:29:21Z</time>
      </trkpt>
      <trkpt lat="43.80995" lon="3.7414">
        <ele>178.46</ele>
        <time>2016-04-03T17:29:22Z</time>
      </trkpt>
      <trkpt lat="43.80975" lon="3.74148">
        <ele>179.42</ele>
        <time>2016-04-03T17:29:23Z</time>
      </trkpt>
      <trkpt lat="43.80892" lon="3.74164">
        <ele>181.83</ele>
        <time>2016-04-03T17:29:27Z</time>
      </trkpt>
      <trkpt lat="43.80872" lon="3.74161">
        <ele>182.31</ele>
        <time>2016-04-03T17:29:28Z</time>
      </trkpt>
      <trkpt lat="43.80852" lon="3.74155">
        <ele>182.79</ele>
        <time>2016-04-03T17:29:29Z</time>
      </trkpt>
      <trkpt lat="43.80832" lon="3.74145">
        <ele>182.79</ele>
        <time>2016-04-03T17:29:30Z</time>
      </trkpt>
      <trkpt lat="43.80814" lon="3.74131">
        <ele>183.27</ele>
        <time>2016-04-03T17:29:31Z</time>
      </trkpt>
      <trkpt lat="43.80795" lon="3.74116">
        <ele>183.75</ele>
        <time>2016-04-03T17:29:32Z</time>
      </trkpt>
      <trkpt lat="43.8052" lon="3.73865">
        <ele>191.92</ele>
        <time>2016-04-03T17:29:47Z</time>
      </trkpt>
      <trkpt lat="43.80392" lon="3.73814">
        <ele>195.77</ele>
        <time>2016-04-03T17:29:53Z</time>
      </trkpt>
      <trkpt lat="43.80125" lon="3.73792">
        <ele>202.01</ele>
        <time>2016-04-03T17:30:05Z</time>
      </trkpt>
      <trkpt lat="43.79954" lon="3.73864">
        <ele>201.53</ele>
        <time>2016-04-03T17:30:13Z</time>
      </trkpt>
      <trkpt lat="43.79727" lon="3.73988">
        <ele>190</ele>
        <time>2016-04-03T17:30:24Z</time>
      </trkpt>
      <trkpt lat="43.79588" lon="3.73986">
        <ele>184.23</ele>
        <time>2016-04-03T17:30:30Z</time>
      </trkpt>
      <trkpt lat="43.79456" lon="3.73906">
        <ele>186.63</ele>
        <time>2016-04-03T17:30:36Z</time>
      </trkpt>
      <trkpt lat="43.79254" lon="3.73715">
        <ele>190.96</ele>
        <time>2016-04-03T17:30:46Z</time>
      </trkpt>
      <trkpt lat="43.79126" lon="3.73668">
        <ele>192.4</ele>
        <time>2016-04-03T17:30:52Z</time>
      </trkpt>
      <trkpt lat="43.79015" lon="3.73664">
        <ele>192.88</ele>
        <time>2016-04-03T17:30:59Z</time>
      </trkpt>
      <trkpt lat="43.78968" lon="3.73662">
        <ele>193.36</ele>
        <time>2016-04-03T17:31:04Z</time>
      </trkpt>
      <trkpt lat="43.78961" lon="3.73659">
        <ele>193.36</ele>
        <time>2016-04-03T17:31:05Z</time>
      </trkpt>
      <trkpt lat="43.78956" lon="3.73654">
        <ele>193.36</ele>
        <time>2016-04-03T17:31:06Z</time>
      </trkpt>
      <trkpt lat="43.78951" lon="3.73648">
        <ele>193.36</ele>
        <time>2016-04-03T17:31:07Z</time>
      </trkpt>
      <trkpt lat="43.7895" lon="3.73642">
        <ele>193.36</ele>
        <time>2016-04-03T17:31:08Z</time>
      </trkpt>
      <trkpt lat="43.78949" lon="3.73638">
        <ele>193.36</ele>
        <time>2016-04-03T17:31:09Z</time>
      </trkpt>
      <trkpt lat="43.78951" lon="3.73634">
        <ele>195.77</ele>
        <time>2016-04-03T17:31:20Z</time>
      </trkpt>
      <trkpt lat="43.78957" lon="3.73624">
        <ele>194.32</ele>
        <time>2016-04-03T17:31:45Z</time>
      </trkpt>
      <trkpt lat="43.78961" lon="3.73617">
        <ele>194.32</ele>
        <time>2016-04-03T17:31:46Z</time>
      </trkpt>
      <trkpt lat="43.78967" lon="3.73604">
        <ele>193.36</ele>
        <time>2016-04-03T17:31:48Z</time>
      </trkpt>
      <trkpt lat="43.78968" lon="3.73598">
        <ele>193.36</ele>
        <time>2016-04-03T17:31:49Z</time>
      </trkpt>
      <trkpt lat="43.78966" lon="3.73592">
        <ele>192.88</ele>
        <time>2016-04-03T17:31:50Z</time>
      </trkpt>
      <trkpt lat="43.78962" lon="3.73587">
        <ele>192.88</ele>
        <time>2016-04-03T17:31:51Z</time>
      </trkpt>
      <trkpt lat="43.78958" lon="3.73584">
        <ele>192.88</ele>
        <time>2016-04-03T17:31:52Z</time>
      </trkpt>
      <trkpt lat="43.78954" lon="3.73584">
        <ele>192.4</ele>
        <time>2016-04-03T17:31:53Z</time>
      </trkpt>
      <trkpt lat="43.7895" lon="3.73586">
        <ele>192.4</ele>
        <time>2016-04-03T17:31:54Z</time>
      </trkpt>
      <trkpt lat="43.78947" lon="3.73588">
        <ele>192.4</ele>
        <time>2016-04-03T17:31:55Z</time>
      </trkpt>
      <trkpt lat="43.78943" lon="3.73589">
        <ele>192.4</ele>
        <time>2016-04-03T17:31:56Z</time>
      </trkpt>
      <trkpt lat="43.78941" lon="3.73594">
        <ele>192.4</ele>
        <time>2016-04-03T17:31:57Z</time>
      </trkpt>
      <trkpt lat="43.78939" lon="3.736">
        <ele>192.4</ele>
        <time>2016-04-03T17:31:58Z</time>
      </trkpt>
      <trkpt lat="43.78941" lon="3.73605">
        <ele>192.4</ele>
        <time>2016-04-03T17:31:59Z</time>
      </trkpt>
      <trkpt lat="43.78944" lon="3.73608">
        <ele>192.4</ele>
        <time>2016-04-03T17:32:00Z</time>
      </trkpt>
      <trkpt lat="43.78947" lon="3.73607">
        <ele>191.92</ele>
        <time>2016-04-03T17:32:01Z</time>
      </trkpt>
      <trkpt lat="43.78949" lon="3.73604">
        <ele>191.92</ele>
        <time>2016-04-03T17:32:02Z</time>
      </trkpt>
      <trkpt lat="43.7895" lon="3.73602">
        <ele>191.92</ele>
        <time>2016-04-03T17:32:03Z</time>
      </trkpt>
      <trkpt lat="43.78951" lon="3.73601">
        <ele>190.96</ele>
        <time>2016-04-03T17:32:20Z</time>
      </trkpt>
      <trkpt lat="43.78953" lon="3.736">
        <ele>188.56</ele>
        <time>2016-04-03T17:33:45Z</time>
      </trkpt>
      <trkpt lat="43.78952" lon="3.73601">
        <ele>189.04</ele>
        <time>2016-04-03T17:34:44Z</time>
      </trkpt>
      <trkpt lat="43.78951" lon="3.73601">
        <ele>192.4</ele>
        <time>2016-04-03T17:35:37Z</time>
      </trkpt>
      <trkpt lat="43.78951" lon="3.73599">
        <ele>191.44</ele>
        <time>2016-04-03T17:36:45Z</time>
      </trkpt>
      <trkpt lat="43.78951" lon="3.73599">
        <ele>191.44</ele>
        <time>2016-04-03T17:36:49Z</time>
      </trkpt>
      <trkpt lat="43.78951" lon="3.73602">
        <ele>190.96</ele>
        <time>2016-04-03T17:45:46Z</time>
      </trkpt>
      <trkpt lat="43.78951" lon="3.73602">
        <ele>190</ele>
        <time>2016-04-03T17:46:11Z</time>
      </trkpt>
      <trkpt lat="43.78964" lon="3.73589">
        <ele>190.96</ele>
        <time>2016-04-03T17:46:18Z</time>
      </trkpt>
      <trkpt lat="43.78967" lon="3.73603">
        <ele>190.96</ele>
        <time>2016-04-03T17:46:21Z</time>
      </trkpt>
      <trkpt lat="43.78964" lon="3.73608">
        <ele>191.44</ele>
        <time>2016-04-03T17:46:22Z</time>
      </trkpt>
      <trkpt lat="43.78961" lon="3.73615">
        <ele>191.44</ele>
        <time>2016-04-03T17:46:23Z</time>
      </trkpt>
      <trkpt lat="43.78947" lon="3.73638">
        <ele>191.44</ele>
        <time>2016-04-03T17:46:28Z</time>
      </trkpt>
      <trkpt lat="43.78941" lon="3.73643">
        <ele>191.44</ele>
        <time>2016-04-03T17:46:29Z</time>
      </trkpt>
      <trkpt lat="43.78922" lon="3.73656">
        <ele>191.92</ele>
        <time>2016-04-03T17:46:31Z</time>
      </trkpt>
      <trkpt lat="43.78905" lon="3.73659">
        <ele>191.92</ele>
        <time>2016-04-03T17:46:32Z</time>
      </trkpt>
      <trkpt lat="43.7889" lon="3.73659">
        <ele>191.92</ele>
        <time>2016-04-03T17:46:33Z</time>
      </trkpt>
      <trkpt lat="43.78875" lon="3.73658">
        <ele>192.4</ele>
        <time>2016-04-03T17:46:34Z</time>
      </trkpt>
      <trkpt lat="43.7886" lon="3.73655">
        <ele>192.4</ele>
        <time>2016-04-03T17:46:35Z</time>
      </trkpt>
      <trkpt lat="43.78845" lon="3.73651">
        <ele>192.4</ele>
        <time>2016-04-03T17:46:36Z</time>
      </trkpt>
      <trkpt lat="43.78728" lon="3.73617">
        <ele>194.32</ele>
        <time>2016-04-03T17:46:42Z</time>
      </trkpt>
      <trkpt lat="43.78577" lon="3.73624">
        <ele>197.69</ele>
        <time>2016-04-03T17:46:49Z</time>
      </trkpt>
      <trkpt lat="43.78454" lon="3.73673">
        <ele>200.57</ele>
        <time>2016-04-03T17:46:55Z</time>
      </trkpt>
      <trkpt lat="43.78422" lon="3.73679">
        <ele>201.05</ele>
        <time>2016-04-03T17:46:57Z</time>
      </trkpt>
      <trkpt lat="43.78409" lon="3.73678">
        <ele>201.53</ele>
        <time>2016-04-03T17:46:58Z</time>
      </trkpt>
      <trkpt lat="43.78396" lon="3.73675">
        <ele>201.53</ele>
        <time>2016-04-03T17:46:59Z</time>
      </trkpt>
      <trkpt lat="43.78385" lon="3.7367">
        <ele>202.01</ele>
        <time>2016-04-03T17:47:00Z</time>
      </trkpt>
      <trkpt lat="43.78374" lon="3.73663">
        <ele>202.01</ele>
        <time>2016-04-03T17:47:01Z</time>
      </trkpt>
      <trkpt lat="43.78366" lon="3.73655">
        <ele>202.49</ele>
        <time>2016-04-03T17:47:02Z</time>
      </trkpt>
      <trkpt lat="43.7835" lon="3.7364">
        <ele>202.49</ele>
        <time>2016-04-03T17:47:04Z</time>
      </trkpt>
      <trkpt lat="43.78346" lon="3.7363">
        <ele>202.98</ele>
        <time>2016-04-03T17:47:05Z</time>
      </trkpt>
      <trkpt lat="43.78343" lon="3.73618">
        <ele>202.98</ele>
        <time>2016-04-03T17:47:06Z</time>
      </trkpt>
      <trkpt lat="43.78341" lon="3.73604">
        <ele>202.98</ele>
        <time>2016-04-03T17:47:07Z</time>
      </trkpt>
      <trkpt lat="43.78336" lon="3.73592">
        <ele>203.46</ele>
        <time>2016-04-03T17:47:08Z</time>
      </trkpt>
      <trkpt lat="43.7833" lon="3.73582">
        <ele>203.46</ele>
        <time>2016-04-03T17:47:09Z</time>
      </trkpt>
      <trkpt lat="43.78322" lon="3.73579">
        <ele>203.94</ele>
        <time>2016-04-03T17:47:10Z</time>
      </trkpt>
      <trkpt lat="43.78314" lon="3.73581">
        <ele>203.94</ele>
        <time>2016-04-03T17:47:11Z</time>
      </trkpt>
      <trkpt lat="43.78305" lon="3.73588">
        <ele>203.94</ele>
        <time>2016-04-03T17:47:12Z</time>
      </trkpt>
      <trkpt lat="43.78298" lon="3.73597">
        <ele>203.94</ele>
        <time>2016-04-03T17:47:13Z</time>
      </trkpt>
      <trkpt lat="43.78289" lon="3.73606">
        <ele>203.94</ele>
        <time>2016-04-03T17:47:14Z</time>
      </trkpt>
      <trkpt lat="43.78278" lon="3.73614">
        <ele>203.94</ele>
        <time>2016-04-03T17:47:15Z</time>
      </trkpt>
      <trkpt lat="43.78263" lon="3.73618">
        <ele>203.94</ele>
        <time>2016-04-03T17:47:16Z</time>
      </trkpt>
      <trkpt lat="43.78247" lon="3.73623">
        <ele>204.42</ele>
        <time>2016-04-03T17:47:17Z</time>
      </trkpt>
      <trkpt lat="43.78134" lon="3.73674">
        <ele>207.78</ele>
        <time>2016-04-03T17:47:23Z</time>
      </trkpt>
      <trkpt lat="43.77946" lon="3.73796">
        <ele>214.03</ele>
        <time>2016-04-03T17:47:31Z</time>
      </trkpt>
      <trkpt lat="43.77927" lon="3.73816">
        <ele>215.47</ele>
        <time>2016-04-03T17:47:32Z</time>
      </trkpt>
      <trkpt lat="43.77909" lon="3.73839">
        <ele>216.43</ele>
        <time>2016-04-03T17:47:33Z</time>
      </trkpt>
      <trkpt lat="43.77893" lon="3.73864">
        <ele>217.88</ele>
        <time>2016-04-03T17:47:34Z</time>
      </trkpt>
      <trkpt lat="43.77878" lon="3.73891">
        <ele>219.8</ele>
        <time>2016-04-03T17:47:35Z</time>
      </trkpt>
      <trkpt lat="43.77862" lon="3.73919">
        <ele>221.72</ele>
        <time>2016-04-03T17:47:36Z</time>
      </trkpt>
      <trkpt lat="43.77841" lon="3.73947">
        <ele>223.16</ele>
        <time>2016-04-03T17:47:37Z</time>
      </trkpt>
      <trkpt lat="43.77817" lon="3.73976">
        <ele>224.61</ele>
        <time>2016-04-03T17:47:38Z</time>
      </trkpt>
      <trkpt lat="43.77792" lon="3.74006">
        <ele>226.05</ele>
        <time>2016-04-03T17:47:39Z</time>
      </trkpt>
      <trkpt lat="43.77665" lon="3.74154">
        <ele>235.18</ele>
        <time>2016-04-03T17:47:44Z</time>
      </trkpt>
      <trkpt lat="43.77633" lon="3.74173">
        <ele>237.1</ele>
        <time>2016-04-03T17:47:45Z</time>
      </trkpt>
      <trkpt lat="43.77492" lon="3.74292">
        <ele>246.23</ele>
        <time>2016-04-03T17:47:50Z</time>
      </trkpt>
      <trkpt lat="43.77469" lon="3.74324">
        <ele>248.16</ele>
        <time>2016-04-03T17:47:51Z</time>
      </trkpt>
      <trkpt lat="43.77338" lon="3.74482">
        <ele>258.73</ele>
        <time>2016-04-03T17:47:56Z</time>
      </trkpt>
      <trkpt lat="43.77175" lon="3.74598">
        <ele>270.75</ele>
        <time>2016-04-03T17:48:01Z</time>
      </trkpt>
      <trkpt lat="43.7709" lon="3.74626">
        <ele>274.59</ele>
        <time>2016-04-03T17:48:04Z</time>
      </trkpt>
      <trkpt lat="43.77065" lon="3.74627">
        <ele>274.59</ele>
        <time>2016-04-03T17:48:05Z</time>
      </trkpt>
      <trkpt lat="43.77041" lon="3.74626">
        <ele>274.59</ele>
        <time>2016-04-03T17:48:06Z</time>
      </trkpt>
      <trkpt lat="43.76945" lon="3.74607">
        <ele>272.19</ele>
        <time>2016-04-03T17:48:11Z</time>
      </trkpt>
      <trkpt lat="43.76809" lon="3.74571">
        <ele>269.79</ele>
        <time>2016-04-03T17:48:17Z</time>
      </trkpt>
      <trkpt lat="43.76665" lon="3.74554">
        <ele>265.94</ele>
        <time>2016-04-03T17:48:23Z</time>
      </trkpt>
      <trkpt lat="43.76475" lon="3.74609">
        <ele>261.14</ele>
        <time>2016-04-03T17:48:31Z</time>
      </trkpt>
      <trkpt lat="43.7621" lon="3.74748">
        <ele>254.41</ele>
        <time>2016-04-03T17:48:42Z</time>
      </trkpt>
      <trkpt lat="43.76045" lon="3.74862">
        <ele>249.12</ele>
        <time>2016-04-03T17:48:50Z</time>
      </trkpt>
      <trkpt lat="43.7594" lon="3.74967">
        <ele>245.75</ele>
        <time>2016-04-03T17:48:57Z</time>
      </trkpt>
      <trkpt lat="43.75821" lon="3.75077">
        <ele>242.87</ele>
        <time>2016-04-03T17:49:07Z</time>
      </trkpt>
      <trkpt lat="43.7581" lon="3.75083">
        <ele>242.39</ele>
        <time>2016-04-03T17:49:08Z</time>
      </trkpt>
      <trkpt lat="43.75799" lon="3.75086">
        <ele>242.39</ele>
        <time>2016-04-03T17:49:09Z</time>
      </trkpt>
      <trkpt lat="43.75779" lon="3.7509">
        <ele>241.91</ele>
        <time>2016-04-03T17:49:11Z</time>
      </trkpt>
      <trkpt lat="43.75772" lon="3.75098">
        <ele>241.43</ele>
        <time>2016-04-03T17:49:12Z</time>
      </trkpt>
      <trkpt lat="43.75768" lon="3.75111">
        <ele>241.43</ele>
        <time>2016-04-03T17:49:13Z</time>
      </trkpt>
      <trkpt lat="43.75756" lon="3.75138">
        <ele>240.47</ele>
        <time>2016-04-03T17:49:15Z</time>
      </trkpt>
      <trkpt lat="43.75746" lon="3.7515">
        <ele>240.47</ele>
        <time>2016-04-03T17:49:16Z</time>
      </trkpt>
      <trkpt lat="43.75658" lon="3.75245">
        <ele>237.58</ele>
        <time>2016-04-03T17:49:22Z</time>
      </trkpt>
      <trkpt lat="43.75514" lon="3.75383">
        <ele>235.66</ele>
        <time>2016-04-03T17:49:29Z</time>
      </trkpt>
      <trkpt lat="43.75169" lon="3.75722">
        <ele>233.26</ele>
        <time>2016-04-03T17:49:47Z</time>
      </trkpt>
      <trkpt lat="43.74896" lon="3.75997">
        <ele>229.89</ele>
        <time>2016-04-03T17:50:01Z</time>
      </trkpt>
      <trkpt lat="43.74677" lon="3.76216">
        <ele>226.05</ele>
        <time>2016-04-03T17:50:12Z</time>
      </trkpt>
      <trkpt lat="43.74535" lon="3.76407">
        <ele>226.53</ele>
        <time>2016-04-03T17:50:20Z</time>
      </trkpt>
      <trkpt lat="43.74355" lon="3.76727">
        <ele>227.97</ele>
        <time>2016-04-03T17:50:32Z</time>
      </trkpt>
      <trkpt lat="43.74215" lon="3.77007">
        <ele>229.89</ele>
        <time>2016-04-03T17:50:42Z</time>
      </trkpt>
      <trkpt lat="43.74043" lon="3.77493">
        <ele>232.3</ele>
        <time>2016-04-03T17:50:58Z</time>
      </trkpt>
      <trkpt lat="43.73982" lon="3.7774">
        <ele>230.37</ele>
        <time>2016-04-03T17:51:06Z</time>
      </trkpt>
      <trkpt lat="43.73982" lon="3.77776">
        <ele>229.41</ele>
        <time>2016-04-03T17:51:07Z</time>
      </trkpt>
      <trkpt lat="43.7399" lon="3.78038">
        <ele>220.76</ele>
        <time>2016-04-03T17:51:15Z</time>
      </trkpt>
      <trkpt lat="43.73988" lon="3.7842">
        <ele>211.15</ele>
        <time>2016-04-03T17:51:27Z</time>
      </trkpt>
      <trkpt lat="43.73978" lon="3.7845">
        <ele>210.19</ele>
        <time>2016-04-03T17:51:28Z</time>
      </trkpt>
      <trkpt lat="43.73964" lon="3.78479">
        <ele>209.22</ele>
        <time>2016-04-03T17:51:29Z</time>
      </trkpt>
      <trkpt lat="43.73947" lon="3.78508">
        <ele>208.74</ele>
        <time>2016-04-03T17:51:30Z</time>
      </trkpt>
      <trkpt lat="43.73927" lon="3.78536">
        <ele>207.78</ele>
        <time>2016-04-03T17:51:31Z</time>
      </trkpt>
      <trkpt lat="43.73908" lon="3.78562">
        <ele>207.3</ele>
        <time>2016-04-03T17:51:32Z</time>
      </trkpt>
      <trkpt lat="43.73756" lon="3.78744">
        <ele>202.49</ele>
        <time>2016-04-03T17:51:40Z</time>
      </trkpt>
      <trkpt lat="43.73511" lon="3.79025">
        <ele>200.09</ele>
        <time>2016-04-03T17:51:53Z</time>
      </trkpt>
      <trkpt lat="43.73275" lon="3.79322">
        <ele>193.36</ele>
        <time>2016-04-03T17:52:06Z</time>
      </trkpt>
      <trkpt lat="43.73123" lon="3.79473">
        <ele>193.36</ele>
        <time>2016-04-03T17:52:14Z</time>
      </trkpt>
      <trkpt lat="43.72977" lon="3.79568">
        <ele>195.77</ele>
        <time>2016-04-03T17:52:22Z</time>
      </trkpt>
      <trkpt lat="43.7296" lon="3.79574">
        <ele>195.77</ele>
        <time>2016-04-03T17:52:23Z</time>
      </trkpt>
      <trkpt lat="43.72942" lon="3.79578">
        <ele>195.28</ele>
        <time>2016-04-03T17:52:24Z</time>
      </trkpt>
      <trkpt lat="43.72923" lon="3.7958">
        <ele>195.28</ele>
        <time>2016-04-03T17:52:25Z</time>
      </trkpt>
      <trkpt lat="43.72904" lon="3.79579">
        <ele>194.8</ele>
        <time>2016-04-03T17:52:26Z</time>
      </trkpt>
      <trkpt lat="43.72884" lon="3.79576">
        <ele>194.32</ele>
        <time>2016-04-03T17:52:27Z</time>
      </trkpt>
      <trkpt lat="43.72865" lon="3.79572">
        <ele>193.84</ele>
        <time>2016-04-03T17:52:28Z</time>
      </trkpt>
      <trkpt lat="43.72743" lon="3.79534">
        <ele>189.52</ele>
        <time>2016-04-03T17:52:34Z</time>
      </trkpt>
      <trkpt lat="43.72722" lon="3.79522">
        <ele>188.56</ele>
        <time>2016-04-03T17:52:35Z</time>
      </trkpt>
      <trkpt lat="43.72621" lon="3.79461">
        <ele>183.75</ele>
        <time>2016-04-03T17:52:40Z</time>
      </trkpt>
      <trkpt lat="43.72599" lon="3.79456">
        <ele>182.79</ele>
        <time>2016-04-03T17:52:41Z</time>
      </trkpt>
      <trkpt lat="43.72576" lon="3.79454">
        <ele>181.83</ele>
        <time>2016-04-03T17:52:42Z</time>
      </trkpt>
      <trkpt lat="43.72552" lon="3.79456">
        <ele>180.38</ele>
        <time>2016-04-03T17:52:43Z</time>
      </trkpt>
      <trkpt lat="43.72528" lon="3.79461">
        <ele>179.42</ele>
        <time>2016-04-03T17:52:44Z</time>
      </trkpt>
      <trkpt lat="43.72505" lon="3.79467">
        <ele>178.46</ele>
        <time>2016-04-03T17:52:45Z</time>
      </trkpt>
      <trkpt lat="43.72363" lon="3.79499">
        <ele>171.73</ele>
        <time>2016-04-03T17:52:52Z</time>
      </trkpt>
      <trkpt lat="43.72202" lon="3.79496">
        <ele>163.56</ele>
        <time>2016-04-03T17:52:59Z</time>
      </trkpt>
      <trkpt lat="43.71911" lon="3.79453">
        <ele>158.27</ele>
        <time>2016-04-03T17:53:12Z</time>
      </trkpt>
      <trkpt lat="43.71647" lon="3.79415">
        <ele>153.47</ele>
        <time>2016-04-03T17:53:25Z</time>
      </trkpt>
      <trkpt lat="43.71509" lon="3.79444">
        <ele>149.62</ele>
        <time>2016-04-03T17:53:31Z</time>
      </trkpt>
      <trkpt lat="43.7139" lon="3.79502">
        <ele>148.18</ele>
        <time>2016-04-03T17:53:37Z</time>
      </trkpt>
      <trkpt lat="43.71371" lon="3.79517">
        <ele>148.18</ele>
        <time>2016-04-03T17:53:38Z</time>
      </trkpt>
      <trkpt lat="43.71203" lon="3.7969">
        <ele>158.27</ele>
        <time>2016-04-03T17:53:48Z</time>
      </trkpt>
      <trkpt lat="43.71008" lon="3.79926">
        <ele>165</ele>
        <time>2016-04-03T17:54:00Z</time>
      </trkpt>
      <trkpt lat="43.70916" lon="3.80146">
        <ele>158.75</ele>
        <time>2016-04-03T17:54:08Z</time>
      </trkpt>
      <trkpt lat="43.70877" lon="3.80378">
        <ele>149.62</ele>
        <time>2016-04-03T17:54:15Z</time>
      </trkpt>
      <trkpt lat="43.70867" lon="3.80608">
        <ele>144.34</ele>
        <time>2016-04-03T17:54:22Z</time>
      </trkpt>
      <trkpt lat="43.70826" lon="3.80832">
        <ele>142.89</ele>
        <time>2016-04-03T17:54:29Z</time>
      </trkpt>
      <trkpt lat="43.70734" lon="3.81207">
        <ele>141.45</ele>
        <time>2016-04-03T17:54:42Z</time>
      </trkpt>
      <trkpt lat="43.70715" lon="3.81355">
        <ele>140.49</ele>
        <time>2016-04-03T17:54:47Z</time>
      </trkpt>
      <trkpt lat="43.70717" lon="3.81386">
        <ele>140.01</ele>
        <time>2016-04-03T17:54:48Z</time>
      </trkpt>
      <trkpt lat="43.70721" lon="3.81416">
        <ele>139.53</ele>
        <time>2016-04-03T17:54:49Z</time>
      </trkpt>
      <trkpt lat="43.70728" lon="3.81446">
        <ele>138.57</ele>
        <time>2016-04-03T17:54:50Z</time>
      </trkpt>
      <trkpt lat="43.70736" lon="3.81475">
        <ele>137.61</ele>
        <time>2016-04-03T17:54:51Z</time>
      </trkpt>
      <trkpt lat="43.70745" lon="3.81502">
        <ele>136.64</ele>
        <time>2016-04-03T17:54:52Z</time>
      </trkpt>
      <trkpt lat="43.70826" lon="3.81686">
        <ele>128.47</ele>
        <time>2016-04-03T17:55:00Z</time>
      </trkpt>
      <trkpt lat="43.7084" lon="3.81739">
        <ele>126.07</ele>
        <time>2016-04-03T17:55:03Z</time>
      </trkpt>
      <trkpt lat="43.70842" lon="3.81753">
        <ele>125.59</ele>
        <time>2016-04-03T17:55:04Z</time>
      </trkpt>
      <trkpt lat="43.70843" lon="3.81766">
        <ele>125.11</ele>
        <time>2016-04-03T17:55:05Z</time>
      </trkpt>
      <trkpt lat="43.70843" lon="3.81778">
        <ele>124.63</ele>
        <time>2016-04-03T17:55:06Z</time>
      </trkpt>
      <trkpt lat="43.70842" lon="3.81789">
        <ele>124.63</ele>
        <time>2016-04-03T17:55:07Z</time>
      </trkpt>
      <trkpt lat="43.7084" lon="3.818">
        <ele>123.67</ele>
        <time>2016-04-03T17:55:08Z</time>
      </trkpt>
      <trkpt lat="43.70836" lon="3.8181">
        <ele>123.67</ele>
        <time>2016-04-03T17:55:09Z</time>
      </trkpt>
      <trkpt lat="43.7083" lon="3.81822">
        <ele>123.19</ele>
        <time>2016-04-03T17:55:10Z</time>
      </trkpt>
      <trkpt lat="43.70815" lon="3.81849">
        <ele>122.71</ele>
        <time>2016-04-03T17:55:12Z</time>
      </trkpt>
      <trkpt lat="43.70803" lon="3.8186">
        <ele>122.22</ele>
        <time>2016-04-03T17:55:13Z</time>
      </trkpt>
      <trkpt lat="43.70791" lon="3.81869">
        <ele>121.74</ele>
        <time>2016-04-03T17:55:14Z</time>
      </trkpt>
      <trkpt lat="43.70774" lon="3.81872">
        <ele>120.78</ele>
        <time>2016-04-03T17:55:15Z</time>
      </trkpt>
      <trkpt lat="43.70756" lon="3.81875">
        <ele>119.82</ele>
        <time>2016-04-03T17:55:16Z</time>
      </trkpt>
      <trkpt lat="43.70736" lon="3.81878">
        <ele>119.34</ele>
        <time>2016-04-03T17:55:17Z</time>
      </trkpt>
      <trkpt lat="43.70711" lon="3.81879">
        <ele>119.34</ele>
        <time>2016-04-03T17:55:18Z</time>
      </trkpt>
      <trkpt lat="43.70687" lon="3.81879">
        <ele>118.86</ele>
        <time>2016-04-03T17:55:19Z</time>
      </trkpt>
      <trkpt lat="43.70524" lon="3.81887">
        <ele>121.74</ele>
        <time>2016-04-03T17:55:26Z</time>
      </trkpt>
      <trkpt lat="43.70322" lon="3.81941">
        <ele>118.86</ele>
        <time>2016-04-03T17:55:36Z</time>
      </trkpt>
      <trkpt lat="43.70161" lon="3.8205">
        <ele>112.61</ele>
        <time>2016-04-03T17:55:44Z</time>
      </trkpt>
      <trkpt lat="43.70045" lon="3.82208">
        <ele>110.69</ele>
        <time>2016-04-03T17:55:51Z</time>
      </trkpt>
      <trkpt lat="43.69932" lon="3.82439">
        <ele>110.69</ele>
        <time>2016-04-03T17:56:00Z</time>
      </trkpt>
      <trkpt lat="43.69828" lon="3.82558">
        <ele>111.65</ele>
        <time>2016-04-03T17:56:06Z</time>
      </trkpt>
      <trkpt lat="43.69695" lon="3.82625">
        <ele>112.61</ele>
        <time>2016-04-03T17:56:12Z</time>
      </trkpt>
      <trkpt lat="43.69471" lon="3.82658">
        <ele>111.65</ele>
        <time>2016-04-03T17:56:21Z</time>
      </trkpt>
      <trkpt lat="43.69273" lon="3.82607">
        <ele>110.69</ele>
        <time>2016-04-03T17:56:29Z</time>
      </trkpt>
      <trkpt lat="43.69065" lon="3.82487">
        <ele>110.21</ele>
        <time>2016-04-03T17:56:38Z</time>
      </trkpt>
      <trkpt lat="43.68778" lon="3.8231">
        <ele>107.81</ele>
        <time>2016-04-03T17:56:51Z</time>
      </trkpt>
      <trkpt lat="43.68501" lon="3.82201">
        <ele>101.56</ele>
        <time>2016-04-03T17:57:03Z</time>
      </trkpt>
      <trkpt lat="43.68231" lon="3.82154">
        <ele>101.08</ele>
        <time>2016-04-03T17:57:15Z</time>
      </trkpt>
      <trkpt lat="43.67898" lon="3.8211">
        <ele>110.69</ele>
        <time>2016-04-03T17:57:31Z</time>
      </trkpt>
      <trkpt lat="43.67632" lon="3.82058">
        <ele>122.71</ele>
        <time>2016-04-03T17:57:44Z</time>
      </trkpt>
      <trkpt lat="43.67437" lon="3.81959">
        <ele>129.43</ele>
        <time>2016-04-03T17:57:55Z</time>
      </trkpt>
      <trkpt lat="43.67357" lon="3.81891">
        <ele>130.4</ele>
        <time>2016-04-03T17:58:01Z</time>
      </trkpt>
      <trkpt lat="43.67348" lon="3.81878">
        <ele>130.4</ele>
        <time>2016-04-03T17:58:02Z</time>
      </trkpt>
      <trkpt lat="43.67341" lon="3.81864">
        <ele>129.92</ele>
        <time>2016-04-03T17:58:03Z</time>
      </trkpt>
      <trkpt lat="43.67336" lon="3.81848">
        <ele>129.43</ele>
        <time>2016-04-03T17:58:04Z</time>
      </trkpt>
      <trkpt lat="43.67334" lon="3.81829">
        <ele>128.95</ele>
        <time>2016-04-03T17:58:05Z</time>
      </trkpt>
      <trkpt lat="43.67337" lon="3.81808">
        <ele>128.47</ele>
        <time>2016-04-03T17:58:06Z</time>
      </trkpt>
      <trkpt lat="43.67345" lon="3.81791">
        <ele>127.51</ele>
        <time>2016-04-03T17:58:07Z</time>
      </trkpt>
      <trkpt lat="43.67355" lon="3.81776">
        <ele>127.51</ele>
        <time>2016-04-03T17:58:08Z</time>
      </trkpt>
      <trkpt lat="43.67368" lon="3.81767">
        <ele>127.03</ele>
        <time>2016-04-03T17:58:09Z</time>
      </trkpt>
      <trkpt lat="43.67385" lon="3.81767">
        <ele>125.59</ele>
        <time>2016-04-03T17:58:10Z</time>
      </trkpt>
      <trkpt lat="43.67403" lon="3.81772">
        <ele>124.15</ele>
        <time>2016-04-03T17:58:11Z</time>
      </trkpt>
      <trkpt lat="43.6742" lon="3.81783">
        <ele>123.67</ele>
        <time>2016-04-03T17:58:12Z</time>
      </trkpt>
      <trkpt lat="43.67433" lon="3.81799">
        <ele>122.71</ele>
        <time>2016-04-03T17:58:13Z</time>
      </trkpt>
      <trkpt lat="43.67438" lon="3.81823">
        <ele>122.22</ele>
        <time>2016-04-03T17:58:14Z</time>
      </trkpt>
      <trkpt lat="43.6744" lon="3.81846">
        <ele>122.22</ele>
        <time>2016-04-03T17:58:15Z</time>
      </trkpt>
      <trkpt lat="43.67438" lon="3.81866">
        <ele>121.26</ele>
        <time>2016-04-03T17:58:16Z</time>
      </trkpt>
      <trkpt lat="43.67425" lon="3.81884">
        <ele>120.78</ele>
        <time>2016-04-03T17:58:17Z</time>
      </trkpt>
      <trkpt lat="43.67412" lon="3.81899">
        <ele>121.74</ele>
        <time>2016-04-03T17:58:18Z</time>
      </trkpt>
      <trkpt lat="43.67398" lon="3.81913">
        <ele>122.22</ele>
        <time>2016-04-03T17:58:19Z</time>
      </trkpt>
      <trkpt lat="43.67384" lon="3.81927">
        <ele>122.71</ele>
        <time>2016-04-03T17:58:20Z</time>
      </trkpt>
      <trkpt lat="43.67369" lon="3.81939">
        <ele>123.19</ele>
        <time>2016-04-03T17:58:21Z</time>
      </trkpt>
      <trkpt lat="43.67238" lon="3.82067">
        <ele>128.47</ele>
        <time>2016-04-03T17:58:29Z</time>
      </trkpt>
      <trkpt lat="43.67103" lon="3.82275">
        <ele>126.07</ele>
        <time>2016-04-03T17:58:38Z</time>
      </trkpt>
      <trkpt lat="43.66963" lon="3.82505">
        <ele>115.5</ele>
        <time>2016-04-03T17:58:47Z</time>
      </trkpt>
      <trkpt lat="43.66789" lon="3.82659">
        <ele>114.53</ele>
        <time>2016-04-03T17:58:55Z</time>
      </trkpt>
      <trkpt lat="43.66452" lon="3.82906">
        <ele>120.78</ele>
        <time>2016-04-03T17:59:10Z</time>
      </trkpt>
      <trkpt lat="43.66246" lon="3.83048">
        <ele>115.01</ele>
        <time>2016-04-03T17:59:19Z</time>
      </trkpt>
      <trkpt lat="43.66218" lon="3.83055">
        <ele>114.05</ele>
        <time>2016-04-03T17:59:20Z</time>
      </trkpt>
      <trkpt lat="43.65952" lon="3.83104">
        <ele>92.9</ele>
        <time>2016-04-03T17:59:30Z</time>
      </trkpt>
      <trkpt lat="43.65716" lon="3.83182">
        <ele>89.54</ele>
        <time>2016-04-03T17:59:39Z</time>
      </trkpt>
      <trkpt lat="43.65606" lon="3.83292">
        <ele>89.54</ele>
        <time>2016-04-03T17:59:44Z</time>
      </trkpt>
      <trkpt lat="43.65443" lon="3.83495">
        <ele>87.14</ele>
        <time>2016-04-03T17:59:52Z</time>
      </trkpt>
      <trkpt lat="43.65262" lon="3.83631">
        <ele>91.94</ele>
        <time>2016-04-03T18:00:00Z</time>
      </trkpt>
      <trkpt lat="43.65094" lon="3.83809">
        <ele>91.46</ele>
        <time>2016-04-03T18:00:08Z</time>
      </trkpt>
      <trkpt lat="43.64899" lon="3.8401">
        <ele>89.54</ele>
        <time>2016-04-03T18:00:17Z</time>
      </trkpt>
      <trkpt lat="43.6464" lon="3.84208">
        <ele>78.97</ele>
        <time>2016-04-03T18:00:28Z</time>
      </trkpt>
      <trkpt lat="43.64391" lon="3.84401">
        <ele>69.35</ele>
        <time>2016-04-03T18:00:39Z</time>
      </trkpt>
      <trkpt lat="43.64268" lon="3.84542">
        <ele>65.51</ele>
        <time>2016-04-03T18:00:46Z</time>
      </trkpt>
      <trkpt lat="43.64155" lon="3.84641">
        <ele>62.62</ele>
        <time>2016-04-03T18:00:54Z</time>
      </trkpt>
      <trkpt lat="43.63983" lon="3.84677">
        <ele>57.34</ele>
        <time>2016-04-03T18:01:05Z</time>
      </trkpt>
      <trkpt lat="43.63961" lon="3.84671">
        <ele>57.82</ele>
        <time>2016-04-03T18:01:06Z</time>
      </trkpt>
      <trkpt lat="43.63939" lon="3.84667">
        <ele>57.82</ele>
        <time>2016-04-03T18:01:07Z</time>
      </trkpt>
      <trkpt lat="43.63799" lon="3.84603">
        <ele>55.89</ele>
        <time>2016-04-03T18:01:14Z</time>
      </trkpt>
      <trkpt lat="43.63723" lon="3.84533">
        <ele>56.86</ele>
        <time>2016-04-03T18:01:20Z</time>
      </trkpt>
      <trkpt lat="43.63649" lon="3.84461">
        <ele>54.45</ele>
        <time>2016-04-03T18:01:29Z</time>
      </trkpt>
      <trkpt lat="43.63526" lon="3.84391">
        <ele>53.97</ele>
        <time>2016-04-03T18:01:41Z</time>
      </trkpt>
      <trkpt lat="43.63427" lon="3.84338">
        <ele>56.37</ele>
        <time>2016-04-03T18:01:52Z</time>
      </trkpt>
      <trkpt lat="43.63415" lon="3.84331">
        <ele>57.34</ele>
        <time>2016-04-03T18:02:00Z</time>
      </trkpt>
      <trkpt lat="43.634" lon="3.84323">
        <ele>57.82</ele>
        <time>2016-04-03T18:02:17Z</time>
      </trkpt>
      <trkpt lat="43.63325" lon="3.84305">
        <ele>58.3</ele>
        <time>2016-04-03T18:02:24Z</time>
      </trkpt>
      <trkpt lat="43.63215" lon="3.84261">
        <ele>57.82</ele>
        <time>2016-04-03T18:02:33Z</time>
      </trkpt>
      <trkpt lat="43.6318" lon="3.84234">
        <ele>57.82</ele>
        <time>2016-04-03T18:02:39Z</time>
      </trkpt>
      <trkpt lat="43.63169" lon="3.84221">
        <ele>58.3</ele>
        <time>2016-04-03T18:02:45Z</time>
      </trkpt>
      <trkpt lat="43.63167" lon="3.84213">
        <ele>57.82</ele>
        <time>2016-04-03T18:02:46Z</time>
      </trkpt>
      <trkpt lat="43.63165" lon="3.84201">
        <ele>57.82</ele>
        <time>2016-04-03T18:02:47Z</time>
      </trkpt>
      <trkpt lat="43.63161" lon="3.84187">
        <ele>57.82</ele>
        <time>2016-04-03T18:02:48Z</time>
      </trkpt>
      <trkpt lat="43.63155" lon="3.84174">
        <ele>57.82</ele>
        <time>2016-04-03T18:02:49Z</time>
      </trkpt>
      <trkpt lat="43.63147" lon="3.84163">
        <ele>57.82</ele>
        <time>2016-04-03T18:02:50Z</time>
      </trkpt>
      <trkpt lat="43.63138" lon="3.84155">
        <ele>57.82</ele>
        <time>2016-04-03T18:02:51Z</time>
      </trkpt>
      <trkpt lat="43.63128" lon="3.84151">
        <ele>57.82</ele>
        <time>2016-04-03T18:02:52Z</time>
      </trkpt>
      <trkpt lat="43.63117" lon="3.84151">
        <ele>58.3</ele>
        <time>2016-04-03T18:02:53Z</time>
      </trkpt>
      <trkpt lat="43.63106" lon="3.84154">
        <ele>58.3</ele>
        <time>2016-04-03T18:02:54Z</time>
      </trkpt>
      <trkpt lat="43.63097" lon="3.8416">
        <ele>58.3</ele>
        <time>2016-04-03T18:02:55Z</time>
      </trkpt>
      <trkpt lat="43.63088" lon="3.84166">
        <ele>58.3</ele>
        <time>2016-04-03T18:02:56Z</time>
      </trkpt>
      <trkpt lat="43.63079" lon="3.84173">
        <ele>58.3</ele>
        <time>2016-04-03T18:02:57Z</time>
      </trkpt>
      <trkpt lat="43.63069" lon="3.84178">
        <ele>58.3</ele>
        <time>2016-04-03T18:02:58Z</time>
      </trkpt>
      <trkpt lat="43.63059" lon="3.8418">
        <ele>58.3</ele>
        <time>2016-04-03T18:02:59Z</time>
      </trkpt>
      <trkpt lat="43.63048" lon="3.8418">
        <ele>58.3</ele>
        <time>2016-04-03T18:03:00Z</time>
      </trkpt>
      <trkpt lat="43.63036" lon="3.84179">
        <ele>58.3</ele>
        <time>2016-04-03T18:03:01Z</time>
      </trkpt>
      <trkpt lat="43.62916" lon="3.84147">
        <ele>59.26</ele>
        <time>2016-04-03T18:03:09Z</time>
      </trkpt>
      <trkpt lat="43.62794" lon="3.84041">
        <ele>61.66</ele>
        <time>2016-04-03T18:03:17Z</time>
      </trkpt>
      <trkpt lat="43.62677" lon="3.83879">
        <ele>66.47</ele>
        <time>2016-04-03T18:03:26Z</time>
      </trkpt>
      <trkpt lat="43.62581" lon="3.83718">
        <ele>70.79</ele>
        <time>2016-04-03T18:03:36Z</time>
      </trkpt>
      <trkpt lat="43.62557" lon="3.83678">
        <ele>72.72</ele>
        <time>2016-04-03T18:03:40Z</time>
      </trkpt>
      <trkpt lat="43.62554" lon="3.83668">
        <ele>73.2</ele>
        <time>2016-04-03T18:03:41Z</time>
      </trkpt>
      <trkpt lat="43.62553" lon="3.83657">
        <ele>73.2</ele>
        <time>2016-04-03T18:03:42Z</time>
      </trkpt>
      <trkpt lat="43.62554" lon="3.83645">
        <ele>73.2</ele>
        <time>2016-04-03T18:03:43Z</time>
      </trkpt>
      <trkpt lat="43.62556" lon="3.83631">
        <ele>73.68</ele>
        <time>2016-04-03T18:03:44Z</time>
      </trkpt>
      <trkpt lat="43.62556" lon="3.83617">
        <ele>73.68</ele>
        <time>2016-04-03T18:03:45Z</time>
      </trkpt>
      <trkpt lat="43.62553" lon="3.83603">
        <ele>74.16</ele>
        <time>2016-04-03T18:03:46Z</time>
      </trkpt>
      <trkpt lat="43.62548" lon="3.8359">
        <ele>73.68</ele>
        <time>2016-04-03T18:03:47Z</time>
      </trkpt>
      <trkpt lat="43.62537" lon="3.83583">
        <ele>74.16</ele>
        <time>2016-04-03T18:03:48Z</time>
      </trkpt>
      <trkpt lat="43.62527" lon="3.83577">
        <ele>74.16</ele>
        <time>2016-04-03T18:03:49Z</time>
      </trkpt>
      <trkpt lat="43.62517" lon="3.8357">
        <ele>74.16</ele>
        <time>2016-04-03T18:03:50Z</time>
      </trkpt>
      <trkpt lat="43.62507" lon="3.83559">
        <ele>74.16</ele>
        <time>2016-04-03T18:03:51Z</time>
      </trkpt>
      <trkpt lat="43.62501" lon="3.83541">
        <ele>74.16</ele>
        <time>2016-04-03T18:03:52Z</time>
      </trkpt>
      <trkpt lat="43.62493" lon="3.83522">
        <ele>74.64</ele>
        <time>2016-04-03T18:03:53Z</time>
      </trkpt>
      <trkpt lat="43.62475" lon="3.83482">
        <ele>74.16</ele>
        <time>2016-04-03T18:03:55Z</time>
      </trkpt>
      <trkpt lat="43.62463" lon="3.83463">
        <ele>74.16</ele>
        <time>2016-04-03T18:03:56Z</time>
      </trkpt>
      <trkpt lat="43.6245" lon="3.83446">
        <ele>74.16</ele>
        <time>2016-04-03T18:03:57Z</time>
      </trkpt>
      <trkpt lat="43.62436" lon="3.83431">
        <ele>73.68</ele>
        <time>2016-04-03T18:03:58Z</time>
      </trkpt>
      <trkpt lat="43.6242" lon="3.83418">
        <ele>73.2</ele>
        <time>2016-04-03T18:03:59Z</time>
      </trkpt>
      <trkpt lat="43.62405" lon="3.83407">
        <ele>72.72</ele>
        <time>2016-04-03T18:04:00Z</time>
      </trkpt>
      <trkpt lat="43.62391" lon="3.83399">
        <ele>72.72</ele>
        <time>2016-04-03T18:04:01Z</time>
      </trkpt>
      <trkpt lat="43.62377" lon="3.83392">
        <ele>72.24</ele>
        <time>2016-04-03T18:04:02Z</time>
      </trkpt>
      <trkpt lat="43.62355" lon="3.83376">
        <ele>72.72</ele>
        <time>2016-04-03T18:04:04Z</time>
      </trkpt>
      <trkpt lat="43.62346" lon="3.83367">
        <ele>72.72</ele>
        <time>2016-04-03T18:04:05Z</time>
      </trkpt>
      <trkpt lat="43.62341" lon="3.83355">
        <ele>72.72</ele>
        <time>2016-04-03T18:04:06Z</time>
      </trkpt>
      <trkpt lat="43.62332" lon="3.83334">
        <ele>72.72</ele>
        <time>2016-04-03T18:04:08Z</time>
      </trkpt>
      <trkpt lat="43.62326" lon="3.83327">
        <ele>72.72</ele>
        <time>2016-04-03T18:04:09Z</time>
      </trkpt>
      <trkpt lat="43.62318" lon="3.83324">
        <ele>72.72</ele>
        <time>2016-04-03T18:04:10Z</time>
      </trkpt>
      <trkpt lat="43.62308" lon="3.83327">
        <ele>73.2</ele>
        <time>2016-04-03T18:04:11Z</time>
      </trkpt>
      <trkpt lat="43.62299" lon="3.83333">
        <ele>73.2</ele>
        <time>2016-04-03T18:04:12Z</time>
      </trkpt>
      <trkpt lat="43.62293" lon="3.83342">
        <ele>73.68</ele>
        <time>2016-04-03T18:04:13Z</time>
      </trkpt>
      <trkpt lat="43.62288" lon="3.83354">
        <ele>74.16</ele>
        <time>2016-04-03T18:04:14Z</time>
      </trkpt>
      <trkpt lat="43.62287" lon="3.83368">
        <ele>74.64</ele>
        <time>2016-04-03T18:04:15Z</time>
      </trkpt>
      <trkpt lat="43.62287" lon="3.83382">
        <ele>75.12</ele>
        <time>2016-04-03T18:04:16Z</time>
      </trkpt>
      <trkpt lat="43.62289" lon="3.83397">
        <ele>75.12</ele>
        <time>2016-04-03T18:04:17Z</time>
      </trkpt>
      <trkpt lat="43.62289" lon="3.83415">
        <ele>75.6</ele>
        <time>2016-04-03T18:04:18Z</time>
      </trkpt>
      <trkpt lat="43.62287" lon="3.83433">
        <ele>75.6</ele>
        <time>2016-04-03T18:04:19Z</time>
      </trkpt>
      <trkpt lat="43.62281" lon="3.8345">
        <ele>76.56</ele>
        <time>2016-04-03T18:04:20Z</time>
      </trkpt>
      <trkpt lat="43.62275" lon="3.83465">
        <ele>77.04</ele>
        <time>2016-04-03T18:04:21Z</time>
      </trkpt>
      <trkpt lat="43.62269" lon="3.83478">
        <ele>77.52</ele>
        <time>2016-04-03T18:04:22Z</time>
      </trkpt>
      <trkpt lat="43.62254" lon="3.83511">
        <ele>78.97</ele>
        <time>2016-04-03T18:04:27Z</time>
      </trkpt>
      <trkpt lat="43.62248" lon="3.83524">
        <ele>79.45</ele>
        <time>2016-04-03T18:04:36Z</time>
      </trkpt>
      <trkpt lat="43.62208" lon="3.83588">
        <ele>79.93</ele>
        <time>2016-04-03T18:04:41Z</time>
      </trkpt>
      <trkpt lat="43.62197" lon="3.83599">
        <ele>79.45</ele>
        <time>2016-04-03T18:04:42Z</time>
      </trkpt>
      <trkpt lat="43.62186" lon="3.8361">
        <ele>79.45</ele>
        <time>2016-04-03T18:04:43Z</time>
      </trkpt>
      <trkpt lat="43.62059" lon="3.83709">
        <ele>80.41</ele>
        <time>2016-04-03T18:04:54Z</time>
      </trkpt>
      <trkpt lat="43.61989" lon="3.83766">
        <ele>80.41</ele>
        <time>2016-04-03T18:05:03Z</time>
      </trkpt>
      <trkpt lat="43.61988" lon="3.83767">
        <ele>80.41</ele>
        <time>2016-04-03T18:05:10Z</time>
      </trkpt>
      <trkpt lat="43.61983" lon="3.83772">
        <ele>79.93</ele>
        <time>2016-04-03T18:05:18Z</time>
      </trkpt>
      <trkpt lat="43.61979" lon="3.83778">
        <ele>79.45</ele>
        <time>2016-04-03T18:05:19Z</time>
      </trkpt>
      <trkpt lat="43.61976" lon="3.83784">
        <ele>79.45</ele>
        <time>2016-04-03T18:05:20Z</time>
      </trkpt>
      <trkpt lat="43.61976" lon="3.83792">
        <ele>79.45</ele>
        <time>2016-04-03T18:05:21Z</time>
      </trkpt>
      <trkpt lat="43.61978" lon="3.838">
        <ele>78.97</ele>
        <time>2016-04-03T18:05:22Z</time>
      </trkpt>
      <trkpt lat="43.61983" lon="3.83807">
        <ele>78.97</ele>
        <time>2016-04-03T18:05:23Z</time>
      </trkpt>
      <trkpt lat="43.6199" lon="3.83815">
        <ele>78.97</ele>
        <time>2016-04-03T18:05:24Z</time>
      </trkpt>
      <trkpt lat="43.61999" lon="3.83824">
        <ele>79.45</ele>
        <time>2016-04-03T18:05:25Z</time>
      </trkpt>
      <trkpt lat="43.62082" lon="3.83922">
        <ele>78.48</ele>
        <time>2016-04-03T18:05:35Z</time>
      </trkpt>
      <trkpt lat="43.62089" lon="3.83934">
        <ele>77.04</ele>
        <time>2016-04-03T18:05:36Z</time>
      </trkpt>
      <trkpt lat="43.62095" lon="3.83946">
        <ele>76.08</ele>
        <time>2016-04-03T18:05:37Z</time>
      </trkpt>
      <trkpt lat="43.621" lon="3.83959">
        <ele>74.64</ele>
        <time>2016-04-03T18:05:38Z</time>
      </trkpt>
      <trkpt lat="43.62104" lon="3.83972">
        <ele>73.2</ele>
        <time>2016-04-03T18:05:39Z</time>
      </trkpt>
      <trkpt lat="43.62107" lon="3.83985">
        <ele>72.24</ele>
        <time>2016-04-03T18:05:40Z</time>
      </trkpt>
      <trkpt lat="43.62109" lon="3.83997">
        <ele>71.27</ele>
        <time>2016-04-03T18:05:41Z</time>
      </trkpt>
      <trkpt lat="43.62111" lon="3.84009">
        <ele>69.83</ele>
        <time>2016-04-03T18:05:42Z</time>
      </trkpt>
      <trkpt lat="43.62113" lon="3.84029">
        <ele>68.39</ele>
        <time>2016-04-03T18:05:44Z</time>
      </trkpt>
      <trkpt lat="43.62113" lon="3.84037">
        <ele>67.43</ele>
        <time>2016-04-03T18:05:45Z</time>
      </trkpt>
      <trkpt lat="43.62109" lon="3.84042">
        <ele>66.47</ele>
        <time>2016-04-03T18:05:46Z</time>
      </trkpt>
      <trkpt lat="43.62104" lon="3.84047">
        <ele>65.51</ele>
        <time>2016-04-03T18:05:47Z</time>
      </trkpt>
      <trkpt lat="43.62099" lon="3.84048">
        <ele>65.51</ele>
        <time>2016-04-03T18:05:48Z</time>
      </trkpt>
      <trkpt lat="43.62093" lon="3.84047">
        <ele>65.51</ele>
        <time>2016-04-03T18:05:49Z</time>
      </trkpt>
      <trkpt lat="43.62089" lon="3.84047">
        <ele>65.03</ele>
        <time>2016-04-03T18:05:50Z</time>
      </trkpt>
      <trkpt lat="43.62086" lon="3.84045">
        <ele>64.55</ele>
        <time>2016-04-03T18:05:51Z</time>
      </trkpt>
      <trkpt lat="43.62084" lon="3.84041">
        <ele>64.55</ele>
        <time>2016-04-03T18:05:52Z</time>
      </trkpt>
      <trkpt lat="43.62084" lon="3.84036">
        <ele>65.03</ele>
        <time>2016-04-03T18:05:53Z</time>
      </trkpt>
      <trkpt lat="43.62085" lon="3.84032">
        <ele>65.51</ele>
        <time>2016-04-03T18:05:54Z</time>
      </trkpt>
      <trkpt lat="43.62086" lon="3.84029">
        <ele>65.99</ele>
        <time>2016-04-03T18:05:55Z</time>
      </trkpt>
      <trkpt lat="43.62088" lon="3.84025">
        <ele>66.47</ele>
        <time>2016-04-03T18:05:56Z</time>
      </trkpt>
      <trkpt lat="43.62089" lon="3.8402">
        <ele>66.95</ele>
        <time>2016-04-03T18:05:57Z</time>
      </trkpt>
      <trkpt lat="43.62089" lon="3.84017">
        <ele>66.95</ele>
        <time>2016-04-03T18:05:58Z</time>
      </trkpt>
      <trkpt lat="43.62089" lon="3.84016">
        <ele>68.39</ele>
        <time>2016-04-03T18:06:09Z</time>
      </trkpt>
      <trkpt lat="43.6209" lon="3.84017">
        <ele>68.39</ele>
        <time>2016-04-03T18:06:28Z</time>
      </trkpt>
      <trkpt lat="43.62087" lon="3.84015">
        <ele>67.91</ele>
        <time>2016-04-03T18:06:40Z</time>
      </trkpt>
    </trkseg>
  </trk>
</gpx>